<?xml version="1.0" encoding="UTF-8" standalone="no" ?>
<gpx xmlns="http://www.topografix.com/GPX/1/1" xmlns:xsi="http://www.w3.org/2001/XMLSchema-instance" xsi:schemaLocation="http://www.topografix.com/GPX/1/1 http://www.topografix.com/GPX/1/1/gpx.xsd" version="1.1" creator="VisuGPX - https://www.visugpx.com">
  <metadata>
    <name>Le mount Agut depuis Betpouey (65)</name>
    <desc><![CDATA[Le Mount Agut depuis Betpouey (65). 16 février 2013.

Sortie idéale par enneigement bas et risque d\'avalanche.]]></desc>
  </metadata>
  <trk>
    <name><![CDATA[Le mount Agut depuis Betpouey (65)_1]]></name>
    <trkseg>
      <trkpt lat="42.88123" lon="0.03307">
        <ele>1005</ele>
        <time>2013-02-16T08:42:49Z</time>
      </trkpt>
      <trkpt lat="42.88095" lon="0.0331">
        <ele>1012</ele>
        <time>2013-02-16T08:45:04Z</time>
      </trkpt>
      <trkpt lat="42.88094" lon="0.03311">
        <ele>1012</ele>
        <time>2013-02-16T08:45:06Z</time>
      </trkpt>
      <trkpt lat="42.88093" lon="0.03312">
        <ele>1012</ele>
        <time>2013-02-16T08:45:09Z</time>
      </trkpt>
      <trkpt lat="42.88092" lon="0.03314">
        <ele>1012</ele>
        <time>2013-02-16T08:45:12Z</time>
      </trkpt>
      <trkpt lat="42.88091" lon="0.03314">
        <ele>1012</ele>
        <time>2013-02-16T08:45:14Z</time>
      </trkpt>
      <trkpt lat="42.88089" lon="0.03316">
        <ele>1012</ele>
        <time>2013-02-16T08:45:17Z</time>
      </trkpt>
      <trkpt lat="42.88088" lon="0.03317">
        <ele>1012</ele>
        <time>2013-02-16T08:45:22Z</time>
      </trkpt>
      <trkpt lat="42.88087" lon="0.03319">
        <ele>1012</ele>
        <time>2013-02-16T08:45:25Z</time>
      </trkpt>
      <trkpt lat="42.88086" lon="0.0332">
        <ele>1012</ele>
        <time>2013-02-16T08:45:27Z</time>
      </trkpt>
      <trkpt lat="42.88084" lon="0.03322">
        <ele>1012</ele>
        <time>2013-02-16T08:45:30Z</time>
      </trkpt>
      <trkpt lat="42.88083" lon="0.03324">
        <ele>1012</ele>
        <time>2013-02-16T08:45:33Z</time>
      </trkpt>
      <trkpt lat="42.88081" lon="0.03326">
        <ele>1012</ele>
        <time>2013-02-16T08:45:36Z</time>
      </trkpt>
      <trkpt lat="42.8808" lon="0.03328">
        <ele>1012</ele>
        <time>2013-02-16T08:45:39Z</time>
      </trkpt>
      <trkpt lat="42.88079" lon="0.03329">
        <ele>1012</ele>
        <time>2013-02-16T08:45:42Z</time>
      </trkpt>
      <trkpt lat="42.88077" lon="0.0333">
        <ele>1012</ele>
        <time>2013-02-16T08:45:44Z</time>
      </trkpt>
      <trkpt lat="42.88076" lon="0.03331">
        <ele>1012</ele>
        <time>2013-02-16T08:45:46Z</time>
      </trkpt>
      <trkpt lat="42.88075" lon="0.03332">
        <ele>1012</ele>
        <time>2013-02-16T08:45:49Z</time>
      </trkpt>
      <trkpt lat="42.88073" lon="0.03334">
        <ele>1012</ele>
        <time>2013-02-16T08:45:52Z</time>
      </trkpt>
      <trkpt lat="42.88072" lon="0.03335">
        <ele>1012</ele>
        <time>2013-02-16T08:45:55Z</time>
      </trkpt>
      <trkpt lat="42.88071" lon="0.03337">
        <ele>1012</ele>
        <time>2013-02-16T08:45:58Z</time>
      </trkpt>
      <trkpt lat="42.88069" lon="0.03338">
        <ele>1012</ele>
        <time>2013-02-16T08:46:01Z</time>
      </trkpt>
      <trkpt lat="42.88068" lon="0.03339">
        <ele>1013</ele>
        <time>2013-02-16T08:46:04Z</time>
      </trkpt>
      <trkpt lat="42.88067" lon="0.03341">
        <ele>1013</ele>
        <time>2013-02-16T08:46:07Z</time>
      </trkpt>
      <trkpt lat="42.88066" lon="0.03342">
        <ele>1014</ele>
        <time>2013-02-16T08:46:10Z</time>
      </trkpt>
      <trkpt lat="42.88064" lon="0.03343">
        <ele>1014</ele>
        <time>2013-02-16T08:46:13Z</time>
      </trkpt>
      <trkpt lat="42.88063" lon="0.03345">
        <ele>1014</ele>
        <time>2013-02-16T08:46:16Z</time>
      </trkpt>
      <trkpt lat="42.88062" lon="0.03346">
        <ele>1014</ele>
        <time>2013-02-16T08:46:19Z</time>
      </trkpt>
      <trkpt lat="42.88061" lon="0.03348">
        <ele>1014</ele>
        <time>2013-02-16T08:46:22Z</time>
      </trkpt>
      <trkpt lat="42.88059" lon="0.03348">
        <ele>1014</ele>
        <time>2013-02-16T08:46:25Z</time>
      </trkpt>
      <trkpt lat="42.88058" lon="0.0335">
        <ele>1014</ele>
        <time>2013-02-16T08:46:28Z</time>
      </trkpt>
      <trkpt lat="42.88057" lon="0.03351">
        <ele>1015</ele>
        <time>2013-02-16T08:46:31Z</time>
      </trkpt>
      <trkpt lat="42.88055" lon="0.03352">
        <ele>1015</ele>
        <time>2013-02-16T08:46:34Z</time>
      </trkpt>
      <trkpt lat="42.88054" lon="0.03353">
        <ele>1016</ele>
        <time>2013-02-16T08:46:37Z</time>
      </trkpt>
      <trkpt lat="42.88052" lon="0.03355">
        <ele>1016</ele>
        <time>2013-02-16T08:46:40Z</time>
      </trkpt>
      <trkpt lat="42.88051" lon="0.03356">
        <ele>1017</ele>
        <time>2013-02-16T08:46:43Z</time>
      </trkpt>
      <trkpt lat="42.8805" lon="0.03357">
        <ele>1017</ele>
        <time>2013-02-16T08:46:46Z</time>
      </trkpt>
      <trkpt lat="42.88049" lon="0.03359">
        <ele>1017</ele>
        <time>2013-02-16T08:46:50Z</time>
      </trkpt>
      <trkpt lat="42.88048" lon="0.0336">
        <ele>1017</ele>
        <time>2013-02-16T08:46:53Z</time>
      </trkpt>
      <trkpt lat="42.88047" lon="0.03362">
        <ele>1017</ele>
        <time>2013-02-16T08:46:57Z</time>
      </trkpt>
      <trkpt lat="42.88046" lon="0.03363">
        <ele>1018</ele>
        <time>2013-02-16T08:47:00Z</time>
      </trkpt>
      <trkpt lat="42.88045" lon="0.03364">
        <ele>1018</ele>
        <time>2013-02-16T08:47:03Z</time>
      </trkpt>
      <trkpt lat="42.88044" lon="0.03366">
        <ele>1018</ele>
        <time>2013-02-16T08:47:06Z</time>
      </trkpt>
      <trkpt lat="42.88042" lon="0.03367">
        <ele>1018</ele>
        <time>2013-02-16T08:47:09Z</time>
      </trkpt>
      <trkpt lat="42.88041" lon="0.03368">
        <ele>1019</ele>
        <time>2013-02-16T08:47:12Z</time>
      </trkpt>
      <trkpt lat="42.88039" lon="0.0337">
        <ele>1020</ele>
        <time>2013-02-16T08:47:15Z</time>
      </trkpt>
      <trkpt lat="42.88038" lon="0.03371">
        <ele>1020</ele>
        <time>2013-02-16T08:47:18Z</time>
      </trkpt>
      <trkpt lat="42.88037" lon="0.03371">
        <ele>1021</ele>
        <time>2013-02-16T08:47:20Z</time>
      </trkpt>
      <trkpt lat="42.88035" lon="0.03372">
        <ele>1021</ele>
        <time>2013-02-16T08:47:23Z</time>
      </trkpt>
      <trkpt lat="42.88034" lon="0.03373">
        <ele>1022</ele>
        <time>2013-02-16T08:47:26Z</time>
      </trkpt>
      <trkpt lat="42.88033" lon="0.03374">
        <ele>1023</ele>
        <time>2013-02-16T08:47:29Z</time>
      </trkpt>
      <trkpt lat="42.88031" lon="0.03375">
        <ele>1023</ele>
        <time>2013-02-16T08:47:31Z</time>
      </trkpt>
      <trkpt lat="42.8803" lon="0.03376">
        <ele>1023</ele>
        <time>2013-02-16T08:47:33Z</time>
      </trkpt>
      <trkpt lat="42.88029" lon="0.03378">
        <ele>1024</ele>
        <time>2013-02-16T08:47:36Z</time>
      </trkpt>
      <trkpt lat="42.88028" lon="0.03379">
        <ele>1024</ele>
        <time>2013-02-16T08:47:39Z</time>
      </trkpt>
      <trkpt lat="42.88026" lon="0.0338">
        <ele>1024</ele>
        <time>2013-02-16T08:47:42Z</time>
      </trkpt>
      <trkpt lat="42.88025" lon="0.03382">
        <ele>1025</ele>
        <time>2013-02-16T08:47:45Z</time>
      </trkpt>
      <trkpt lat="42.88023" lon="0.03382">
        <ele>1026</ele>
        <time>2013-02-16T08:47:48Z</time>
      </trkpt>
      <trkpt lat="42.88022" lon="0.03382">
        <ele>1027</ele>
        <time>2013-02-16T08:47:50Z</time>
      </trkpt>
      <trkpt lat="42.8802" lon="0.03382">
        <ele>1028</ele>
        <time>2013-02-16T08:47:52Z</time>
      </trkpt>
      <trkpt lat="42.88019" lon="0.03382">
        <ele>1029</ele>
        <time>2013-02-16T08:47:54Z</time>
      </trkpt>
      <trkpt lat="42.88018" lon="0.03382">
        <ele>1029</ele>
        <time>2013-02-16T08:47:56Z</time>
      </trkpt>
      <trkpt lat="42.88017" lon="0.03382">
        <ele>1030</ele>
        <time>2013-02-16T08:47:58Z</time>
      </trkpt>
      <trkpt lat="42.88016" lon="0.03382">
        <ele>1030</ele>
        <time>2013-02-16T08:48:00Z</time>
      </trkpt>
      <trkpt lat="42.88014" lon="0.03382">
        <ele>1031</ele>
        <time>2013-02-16T08:48:04Z</time>
      </trkpt>
      <trkpt lat="42.88013" lon="0.03382">
        <ele>1032</ele>
        <time>2013-02-16T08:48:06Z</time>
      </trkpt>
      <trkpt lat="42.88012" lon="0.03382">
        <ele>1032</ele>
        <time>2013-02-16T08:48:08Z</time>
      </trkpt>
      <trkpt lat="42.8801" lon="0.03382">
        <ele>1033</ele>
        <time>2013-02-16T08:48:10Z</time>
      </trkpt>
      <trkpt lat="42.88009" lon="0.03382">
        <ele>1033</ele>
        <time>2013-02-16T08:48:12Z</time>
      </trkpt>
      <trkpt lat="42.88007" lon="0.03381">
        <ele>1034</ele>
        <time>2013-02-16T08:48:15Z</time>
      </trkpt>
      <trkpt lat="42.88006" lon="0.03381">
        <ele>1035</ele>
        <time>2013-02-16T08:48:18Z</time>
      </trkpt>
      <trkpt lat="42.88005" lon="0.03381">
        <ele>1036</ele>
        <time>2013-02-16T08:48:21Z</time>
      </trkpt>
      <trkpt lat="42.88003" lon="0.03381">
        <ele>1036</ele>
        <time>2013-02-16T08:48:23Z</time>
      </trkpt>
      <trkpt lat="42.88002" lon="0.0338">
        <ele>1036</ele>
        <time>2013-02-16T08:48:25Z</time>
      </trkpt>
      <trkpt lat="42.88" lon="0.03379">
        <ele>1037</ele>
        <time>2013-02-16T08:48:28Z</time>
      </trkpt>
      <trkpt lat="42.87999" lon="0.03379">
        <ele>1038</ele>
        <time>2013-02-16T08:48:31Z</time>
      </trkpt>
      <trkpt lat="42.87997" lon="0.03378">
        <ele>1038</ele>
        <time>2013-02-16T08:48:34Z</time>
      </trkpt>
      <trkpt lat="42.87996" lon="0.03378">
        <ele>1038</ele>
        <time>2013-02-16T08:48:37Z</time>
      </trkpt>
      <trkpt lat="42.87995" lon="0.03378">
        <ele>1038</ele>
        <time>2013-02-16T08:48:40Z</time>
      </trkpt>
      <trkpt lat="42.87994" lon="0.03378">
        <ele>1038</ele>
        <time>2013-02-16T08:48:42Z</time>
      </trkpt>
      <trkpt lat="42.87992" lon="0.03378">
        <ele>1038</ele>
        <time>2013-02-16T08:48:45Z</time>
      </trkpt>
      <trkpt lat="42.87991" lon="0.03377">
        <ele>1038</ele>
        <time>2013-02-16T08:48:47Z</time>
      </trkpt>
      <trkpt lat="42.87989" lon="0.03377">
        <ele>1039</ele>
        <time>2013-02-16T08:48:50Z</time>
      </trkpt>
      <trkpt lat="42.87988" lon="0.03377">
        <ele>1039</ele>
        <time>2013-02-16T08:48:53Z</time>
      </trkpt>
      <trkpt lat="42.87987" lon="0.03377">
        <ele>1039</ele>
        <time>2013-02-16T08:48:56Z</time>
      </trkpt>
      <trkpt lat="42.87985" lon="0.03376">
        <ele>1039</ele>
        <time>2013-02-16T08:48:59Z</time>
      </trkpt>
      <trkpt lat="42.87984" lon="0.03377">
        <ele>1039</ele>
        <time>2013-02-16T08:49:01Z</time>
      </trkpt>
      <trkpt lat="42.87983" lon="0.03379">
        <ele>1039</ele>
        <time>2013-02-16T08:49:03Z</time>
      </trkpt>
      <trkpt lat="42.87984" lon="0.0338">
        <ele>1039</ele>
        <time>2013-02-16T08:49:05Z</time>
      </trkpt>
      <trkpt lat="42.87984" lon="0.03382">
        <ele>1040</ele>
        <time>2013-02-16T08:49:07Z</time>
      </trkpt>
      <trkpt lat="42.87984" lon="0.03384">
        <ele>1040</ele>
        <time>2013-02-16T08:49:09Z</time>
      </trkpt>
      <trkpt lat="42.87985" lon="0.03386">
        <ele>1040</ele>
        <time>2013-02-16T08:49:13Z</time>
      </trkpt>
      <trkpt lat="42.87984" lon="0.03387">
        <ele>1041</ele>
        <time>2013-02-16T08:49:16Z</time>
      </trkpt>
      <trkpt lat="42.87984" lon="0.03389">
        <ele>1042</ele>
        <time>2013-02-16T08:49:18Z</time>
      </trkpt>
      <trkpt lat="42.87983" lon="0.03391">
        <ele>1043</ele>
        <time>2013-02-16T08:49:21Z</time>
      </trkpt>
      <trkpt lat="42.87983" lon="0.03393">
        <ele>1043</ele>
        <time>2013-02-16T08:49:23Z</time>
      </trkpt>
      <trkpt lat="42.87983" lon="0.03395">
        <ele>1044</ele>
        <time>2013-02-16T08:49:25Z</time>
      </trkpt>
      <trkpt lat="42.87983" lon="0.03397">
        <ele>1044</ele>
        <time>2013-02-16T08:49:28Z</time>
      </trkpt>
      <trkpt lat="42.87982" lon="0.03398">
        <ele>1044</ele>
        <time>2013-02-16T08:49:30Z</time>
      </trkpt>
      <trkpt lat="42.87983" lon="0.034">
        <ele>1044</ele>
        <time>2013-02-16T08:49:32Z</time>
      </trkpt>
      <trkpt lat="42.87982" lon="0.03402">
        <ele>1044</ele>
        <time>2013-02-16T08:49:34Z</time>
      </trkpt>
      <trkpt lat="42.87982" lon="0.03404">
        <ele>1044</ele>
        <time>2013-02-16T08:49:36Z</time>
      </trkpt>
      <trkpt lat="42.87982" lon="0.03406">
        <ele>1045</ele>
        <time>2013-02-16T08:49:38Z</time>
      </trkpt>
      <trkpt lat="42.87982" lon="0.03408">
        <ele>1045</ele>
        <time>2013-02-16T08:49:40Z</time>
      </trkpt>
      <trkpt lat="42.87982" lon="0.0341">
        <ele>1045</ele>
        <time>2013-02-16T08:49:42Z</time>
      </trkpt>
      <trkpt lat="42.87982" lon="0.03411">
        <ele>1045</ele>
        <time>2013-02-16T08:49:44Z</time>
      </trkpt>
      <trkpt lat="42.87982" lon="0.03413">
        <ele>1045</ele>
        <time>2013-02-16T08:49:46Z</time>
      </trkpt>
      <trkpt lat="42.87982" lon="0.03415">
        <ele>1045</ele>
        <time>2013-02-16T08:49:48Z</time>
      </trkpt>
      <trkpt lat="42.87982" lon="0.03417">
        <ele>1045</ele>
        <time>2013-02-16T08:49:50Z</time>
      </trkpt>
      <trkpt lat="42.87982" lon="0.03419">
        <ele>1045</ele>
        <time>2013-02-16T08:49:53Z</time>
      </trkpt>
      <trkpt lat="42.87982" lon="0.03421">
        <ele>1046</ele>
        <time>2013-02-16T08:49:55Z</time>
      </trkpt>
      <trkpt lat="42.87982" lon="0.03422">
        <ele>1046</ele>
        <time>2013-02-16T08:49:57Z</time>
      </trkpt>
      <trkpt lat="42.87982" lon="0.03424">
        <ele>1046</ele>
        <time>2013-02-16T08:49:59Z</time>
      </trkpt>
      <trkpt lat="42.87981" lon="0.03426">
        <ele>1047</ele>
        <time>2013-02-16T08:50:01Z</time>
      </trkpt>
      <trkpt lat="42.87981" lon="0.03427">
        <ele>1047</ele>
        <time>2013-02-16T08:50:03Z</time>
      </trkpt>
      <trkpt lat="42.87981" lon="0.03429">
        <ele>1047</ele>
        <time>2013-02-16T08:50:05Z</time>
      </trkpt>
      <trkpt lat="42.87981" lon="0.03431">
        <ele>1047</ele>
        <time>2013-02-16T08:50:07Z</time>
      </trkpt>
      <trkpt lat="42.87981" lon="0.03433">
        <ele>1047</ele>
        <time>2013-02-16T08:50:09Z</time>
      </trkpt>
      <trkpt lat="42.87979" lon="0.03433">
        <ele>1047</ele>
        <time>2013-02-16T08:50:13Z</time>
      </trkpt>
      <trkpt lat="42.87978" lon="0.03432">
        <ele>1047</ele>
        <time>2013-02-16T08:50:16Z</time>
      </trkpt>
      <trkpt lat="42.87977" lon="0.0343">
        <ele>1048</ele>
        <time>2013-02-16T08:50:19Z</time>
      </trkpt>
      <trkpt lat="42.87975" lon="0.03429">
        <ele>1049</ele>
        <time>2013-02-16T08:50:22Z</time>
      </trkpt>
      <trkpt lat="42.87974" lon="0.03427">
        <ele>1050</ele>
        <time>2013-02-16T08:50:25Z</time>
      </trkpt>
      <trkpt lat="42.87973" lon="0.03425">
        <ele>1051</ele>
        <time>2013-02-16T08:50:32Z</time>
      </trkpt>
      <trkpt lat="42.87972" lon="0.03424">
        <ele>1052</ele>
        <time>2013-02-16T08:50:35Z</time>
      </trkpt>
      <trkpt lat="42.8797" lon="0.03422">
        <ele>1052</ele>
        <time>2013-02-16T08:50:38Z</time>
      </trkpt>
      <trkpt lat="42.87969" lon="0.0342">
        <ele>1053</ele>
        <time>2013-02-16T08:50:41Z</time>
      </trkpt>
      <trkpt lat="42.87968" lon="0.03419">
        <ele>1054</ele>
        <time>2013-02-16T08:50:43Z</time>
      </trkpt>
      <trkpt lat="42.87966" lon="0.03417">
        <ele>1054</ele>
        <time>2013-02-16T08:50:46Z</time>
      </trkpt>
      <trkpt lat="42.87965" lon="0.03416">
        <ele>1055</ele>
        <time>2013-02-16T08:50:49Z</time>
      </trkpt>
      <trkpt lat="42.87963" lon="0.03414">
        <ele>1055</ele>
        <time>2013-02-16T08:50:52Z</time>
      </trkpt>
      <trkpt lat="42.87962" lon="0.03412">
        <ele>1056</ele>
        <time>2013-02-16T08:50:55Z</time>
      </trkpt>
      <trkpt lat="42.8796" lon="0.03412">
        <ele>1056</ele>
        <time>2013-02-16T08:50:57Z</time>
      </trkpt>
      <trkpt lat="42.8796" lon="0.03414">
        <ele>1057</ele>
        <time>2013-02-16T08:50:59Z</time>
      </trkpt>
      <trkpt lat="42.8796" lon="0.03416">
        <ele>1057</ele>
        <time>2013-02-16T08:51:01Z</time>
      </trkpt>
      <trkpt lat="42.8796" lon="0.03418">
        <ele>1057</ele>
        <time>2013-02-16T08:51:03Z</time>
      </trkpt>
      <trkpt lat="42.8796" lon="0.0342">
        <ele>1057</ele>
        <time>2013-02-16T08:51:05Z</time>
      </trkpt>
      <trkpt lat="42.87959" lon="0.03421">
        <ele>1057</ele>
        <time>2013-02-16T08:51:07Z</time>
      </trkpt>
      <trkpt lat="42.87959" lon="0.03423">
        <ele>1057</ele>
        <time>2013-02-16T08:51:09Z</time>
      </trkpt>
      <trkpt lat="42.87959" lon="0.03425">
        <ele>1057</ele>
        <time>2013-02-16T08:51:11Z</time>
      </trkpt>
      <trkpt lat="42.87958" lon="0.03427">
        <ele>1057</ele>
        <time>2013-02-16T08:51:13Z</time>
      </trkpt>
      <trkpt lat="42.87958" lon="0.03429">
        <ele>1057</ele>
        <time>2013-02-16T08:51:15Z</time>
      </trkpt>
      <trkpt lat="42.87957" lon="0.03431">
        <ele>1057</ele>
        <time>2013-02-16T08:51:17Z</time>
      </trkpt>
      <trkpt lat="42.87957" lon="0.03432">
        <ele>1057</ele>
        <time>2013-02-16T08:51:19Z</time>
      </trkpt>
      <trkpt lat="42.87957" lon="0.03434">
        <ele>1057</ele>
        <time>2013-02-16T08:51:21Z</time>
      </trkpt>
      <trkpt lat="42.87956" lon="0.03436">
        <ele>1057</ele>
        <time>2013-02-16T08:51:23Z</time>
      </trkpt>
      <trkpt lat="42.87956" lon="0.03437">
        <ele>1057</ele>
        <time>2013-02-16T08:51:25Z</time>
      </trkpt>
      <trkpt lat="42.87955" lon="0.03439">
        <ele>1058</ele>
        <time>2013-02-16T08:51:27Z</time>
      </trkpt>
      <trkpt lat="42.87954" lon="0.03441">
        <ele>1059</ele>
        <time>2013-02-16T08:51:30Z</time>
      </trkpt>
      <trkpt lat="42.87954" lon="0.03442">
        <ele>1060</ele>
        <time>2013-02-16T08:51:32Z</time>
      </trkpt>
      <trkpt lat="42.87954" lon="0.03444">
        <ele>1060</ele>
        <time>2013-02-16T08:51:34Z</time>
      </trkpt>
      <trkpt lat="42.87953" lon="0.03446">
        <ele>1060</ele>
        <time>2013-02-16T08:51:36Z</time>
      </trkpt>
      <trkpt lat="42.87953" lon="0.03448">
        <ele>1060</ele>
        <time>2013-02-16T08:51:38Z</time>
      </trkpt>
      <trkpt lat="42.87952" lon="0.0345">
        <ele>1060</ele>
        <time>2013-02-16T08:51:41Z</time>
      </trkpt>
      <trkpt lat="42.87952" lon="0.03451">
        <ele>1060</ele>
        <time>2013-02-16T08:51:43Z</time>
      </trkpt>
      <trkpt lat="42.87952" lon="0.03453">
        <ele>1061</ele>
        <time>2013-02-16T08:51:45Z</time>
      </trkpt>
      <trkpt lat="42.87951" lon="0.03455">
        <ele>1061</ele>
        <time>2013-02-16T08:51:47Z</time>
      </trkpt>
      <trkpt lat="42.87951" lon="0.03456">
        <ele>1062</ele>
        <time>2013-02-16T08:51:49Z</time>
      </trkpt>
      <trkpt lat="42.8795" lon="0.03458">
        <ele>1062</ele>
        <time>2013-02-16T08:51:51Z</time>
      </trkpt>
      <trkpt lat="42.8795" lon="0.0346">
        <ele>1063</ele>
        <time>2013-02-16T08:51:53Z</time>
      </trkpt>
      <trkpt lat="42.8795" lon="0.03461">
        <ele>1063</ele>
        <time>2013-02-16T08:51:55Z</time>
      </trkpt>
      <trkpt lat="42.8795" lon="0.03463">
        <ele>1063</ele>
        <time>2013-02-16T08:51:57Z</time>
      </trkpt>
      <trkpt lat="42.87949" lon="0.03464">
        <ele>1063</ele>
        <time>2013-02-16T08:51:59Z</time>
      </trkpt>
      <trkpt lat="42.87949" lon="0.03466">
        <ele>1063</ele>
        <time>2013-02-16T08:52:01Z</time>
      </trkpt>
      <trkpt lat="42.87949" lon="0.03467">
        <ele>1064</ele>
        <time>2013-02-16T08:52:03Z</time>
      </trkpt>
      <trkpt lat="42.87949" lon="0.03469">
        <ele>1064</ele>
        <time>2013-02-16T08:52:05Z</time>
      </trkpt>
      <trkpt lat="42.87949" lon="0.0347">
        <ele>1064</ele>
        <time>2013-02-16T08:52:09Z</time>
      </trkpt>
      <trkpt lat="42.87947" lon="0.03471">
        <ele>1065</ele>
        <time>2013-02-16T08:52:12Z</time>
      </trkpt>
      <trkpt lat="42.87946" lon="0.03472">
        <ele>1066</ele>
        <time>2013-02-16T08:52:18Z</time>
      </trkpt>
      <trkpt lat="42.87945" lon="0.03473">
        <ele>1066</ele>
        <time>2013-02-16T08:52:20Z</time>
      </trkpt>
      <trkpt lat="42.87944" lon="0.03475">
        <ele>1067</ele>
        <time>2013-02-16T08:52:22Z</time>
      </trkpt>
      <trkpt lat="42.87944" lon="0.03477">
        <ele>1067</ele>
        <time>2013-02-16T08:52:25Z</time>
      </trkpt>
      <trkpt lat="42.87944" lon="0.03478">
        <ele>1068</ele>
        <time>2013-02-16T08:52:28Z</time>
      </trkpt>
      <trkpt lat="42.87944" lon="0.0348">
        <ele>1068</ele>
        <time>2013-02-16T08:52:30Z</time>
      </trkpt>
      <trkpt lat="42.87944" lon="0.03482">
        <ele>1068</ele>
        <time>2013-02-16T08:52:32Z</time>
      </trkpt>
      <trkpt lat="42.87944" lon="0.03484">
        <ele>1068</ele>
        <time>2013-02-16T08:52:34Z</time>
      </trkpt>
      <trkpt lat="42.87944" lon="0.03485">
        <ele>1068</ele>
        <time>2013-02-16T08:52:36Z</time>
      </trkpt>
      <trkpt lat="42.87944" lon="0.03487">
        <ele>1068</ele>
        <time>2013-02-16T08:52:37Z</time>
      </trkpt>
      <trkpt lat="42.87944" lon="0.03489">
        <ele>1068</ele>
        <time>2013-02-16T08:52:39Z</time>
      </trkpt>
      <trkpt lat="42.87944" lon="0.03491">
        <ele>1068</ele>
        <time>2013-02-16T08:52:41Z</time>
      </trkpt>
      <trkpt lat="42.87944" lon="0.03493">
        <ele>1068</ele>
        <time>2013-02-16T08:52:43Z</time>
      </trkpt>
      <trkpt lat="42.87944" lon="0.03494">
        <ele>1068</ele>
        <time>2013-02-16T08:52:46Z</time>
      </trkpt>
      <trkpt lat="42.87943" lon="0.03496">
        <ele>1068</ele>
        <time>2013-02-16T08:52:50Z</time>
      </trkpt>
      <trkpt lat="42.87942" lon="0.03498">
        <ele>1068</ele>
        <time>2013-02-16T08:52:53Z</time>
      </trkpt>
      <trkpt lat="42.87941" lon="0.035">
        <ele>1068</ele>
        <time>2013-02-16T08:52:56Z</time>
      </trkpt>
      <trkpt lat="42.8794" lon="0.03501">
        <ele>1068</ele>
        <time>2013-02-16T08:52:59Z</time>
      </trkpt>
      <trkpt lat="42.87939" lon="0.03503">
        <ele>1069</ele>
        <time>2013-02-16T08:53:02Z</time>
      </trkpt>
      <trkpt lat="42.87938" lon="0.03505">
        <ele>1070</ele>
        <time>2013-02-16T08:53:05Z</time>
      </trkpt>
      <trkpt lat="42.87937" lon="0.03507">
        <ele>1071</ele>
        <time>2013-02-16T08:53:07Z</time>
      </trkpt>
      <trkpt lat="42.87936" lon="0.03508">
        <ele>1071</ele>
        <time>2013-02-16T08:53:10Z</time>
      </trkpt>
      <trkpt lat="42.87936" lon="0.0351">
        <ele>1072</ele>
        <time>2013-02-16T08:53:13Z</time>
      </trkpt>
      <trkpt lat="42.87935" lon="0.03511">
        <ele>1072</ele>
        <time>2013-02-16T08:53:15Z</time>
      </trkpt>
      <trkpt lat="42.87934" lon="0.03513">
        <ele>1073</ele>
        <time>2013-02-16T08:53:18Z</time>
      </trkpt>
      <trkpt lat="42.87934" lon="0.03515">
        <ele>1073</ele>
        <time>2013-02-16T08:53:20Z</time>
      </trkpt>
      <trkpt lat="42.87934" lon="0.03517">
        <ele>1073</ele>
        <time>2013-02-16T08:53:22Z</time>
      </trkpt>
      <trkpt lat="42.87933" lon="0.03518">
        <ele>1073</ele>
        <time>2013-02-16T08:53:24Z</time>
      </trkpt>
      <trkpt lat="42.87933" lon="0.0352">
        <ele>1074</ele>
        <time>2013-02-16T08:53:26Z</time>
      </trkpt>
      <trkpt lat="42.87933" lon="0.03522">
        <ele>1074</ele>
        <time>2013-02-16T08:53:29Z</time>
      </trkpt>
      <trkpt lat="42.87932" lon="0.03524">
        <ele>1075</ele>
        <time>2013-02-16T08:53:32Z</time>
      </trkpt>
      <trkpt lat="42.87932" lon="0.03525">
        <ele>1075</ele>
        <time>2013-02-16T08:53:34Z</time>
      </trkpt>
      <trkpt lat="42.87931" lon="0.03527">
        <ele>1075</ele>
        <time>2013-02-16T08:53:36Z</time>
      </trkpt>
      <trkpt lat="42.87931" lon="0.03528">
        <ele>1075</ele>
        <time>2013-02-16T08:53:38Z</time>
      </trkpt>
      <trkpt lat="42.87931" lon="0.0353">
        <ele>1076</ele>
        <time>2013-02-16T08:53:41Z</time>
      </trkpt>
      <trkpt lat="42.87929" lon="0.03531">
        <ele>1078</ele>
        <time>2013-02-16T08:53:46Z</time>
      </trkpt>
      <trkpt lat="42.87928" lon="0.03529">
        <ele>1079</ele>
        <time>2013-02-16T08:53:50Z</time>
      </trkpt>
      <trkpt lat="42.87927" lon="0.03528">
        <ele>1079</ele>
        <time>2013-02-16T08:53:54Z</time>
      </trkpt>
      <trkpt lat="42.87926" lon="0.03526">
        <ele>1079</ele>
        <time>2013-02-16T08:53:57Z</time>
      </trkpt>
      <trkpt lat="42.87924" lon="0.03525">
        <ele>1080</ele>
        <time>2013-02-16T08:54:01Z</time>
      </trkpt>
      <trkpt lat="42.87923" lon="0.03523">
        <ele>1080</ele>
        <time>2013-02-16T08:54:05Z</time>
      </trkpt>
      <trkpt lat="42.87922" lon="0.03521">
        <ele>1081</ele>
        <time>2013-02-16T08:54:08Z</time>
      </trkpt>
      <trkpt lat="42.8792" lon="0.0352">
        <ele>1081</ele>
        <time>2013-02-16T08:54:11Z</time>
      </trkpt>
      <trkpt lat="42.87919" lon="0.03519">
        <ele>1082</ele>
        <time>2013-02-16T08:54:14Z</time>
      </trkpt>
      <trkpt lat="42.87917" lon="0.03517">
        <ele>1082</ele>
        <time>2013-02-16T08:54:17Z</time>
      </trkpt>
      <trkpt lat="42.87916" lon="0.03515">
        <ele>1083</ele>
        <time>2013-02-16T08:54:20Z</time>
      </trkpt>
      <trkpt lat="42.87915" lon="0.03513">
        <ele>1083</ele>
        <time>2013-02-16T08:54:23Z</time>
      </trkpt>
      <trkpt lat="42.87913" lon="0.03512">
        <ele>1084</ele>
        <time>2013-02-16T08:54:26Z</time>
      </trkpt>
      <trkpt lat="42.87912" lon="0.0351">
        <ele>1084</ele>
        <time>2013-02-16T08:54:29Z</time>
      </trkpt>
      <trkpt lat="42.8791" lon="0.03509">
        <ele>1085</ele>
        <time>2013-02-16T08:54:33Z</time>
      </trkpt>
      <trkpt lat="42.87909" lon="0.03508">
        <ele>1085</ele>
        <time>2013-02-16T08:54:35Z</time>
      </trkpt>
      <trkpt lat="42.87908" lon="0.03507">
        <ele>1086</ele>
        <time>2013-02-16T08:54:38Z</time>
      </trkpt>
      <trkpt lat="42.87906" lon="0.03506">
        <ele>1086</ele>
        <time>2013-02-16T08:54:41Z</time>
      </trkpt>
      <trkpt lat="42.87905" lon="0.03505">
        <ele>1086</ele>
        <time>2013-02-16T08:54:43Z</time>
      </trkpt>
      <trkpt lat="42.87904" lon="0.03504">
        <ele>1087</ele>
        <time>2013-02-16T08:54:46Z</time>
      </trkpt>
      <trkpt lat="42.87902" lon="0.03503">
        <ele>1087</ele>
        <time>2013-02-16T08:54:49Z</time>
      </trkpt>
      <trkpt lat="42.87901" lon="0.03502">
        <ele>1088</ele>
        <time>2013-02-16T08:54:52Z</time>
      </trkpt>
      <trkpt lat="42.879" lon="0.03501">
        <ele>1088</ele>
        <time>2013-02-16T08:54:57Z</time>
      </trkpt>
      <trkpt lat="42.87899" lon="0.03499">
        <ele>1089</ele>
        <time>2013-02-16T08:55:00Z</time>
      </trkpt>
      <trkpt lat="42.87897" lon="0.03497">
        <ele>1089</ele>
        <time>2013-02-16T08:55:03Z</time>
      </trkpt>
      <trkpt lat="42.87896" lon="0.03496">
        <ele>1089</ele>
        <time>2013-02-16T08:55:06Z</time>
      </trkpt>
      <trkpt lat="42.87895" lon="0.03495">
        <ele>1090</ele>
        <time>2013-02-16T08:55:09Z</time>
      </trkpt>
      <trkpt lat="42.87894" lon="0.03493">
        <ele>1090</ele>
        <time>2013-02-16T08:55:12Z</time>
      </trkpt>
      <trkpt lat="42.87892" lon="0.03492">
        <ele>1090</ele>
        <time>2013-02-16T08:55:15Z</time>
      </trkpt>
      <trkpt lat="42.87891" lon="0.03491">
        <ele>1091</ele>
        <time>2013-02-16T08:55:18Z</time>
      </trkpt>
      <trkpt lat="42.8789" lon="0.03492">
        <ele>1091</ele>
        <time>2013-02-16T08:55:20Z</time>
      </trkpt>
      <trkpt lat="42.8789" lon="0.03494">
        <ele>1091</ele>
        <time>2013-02-16T08:55:22Z</time>
      </trkpt>
      <trkpt lat="42.87889" lon="0.03497">
        <ele>1091</ele>
        <time>2013-02-16T08:55:24Z</time>
      </trkpt>
      <trkpt lat="42.87889" lon="0.03498">
        <ele>1091</ele>
        <time>2013-02-16T08:55:27Z</time>
      </trkpt>
      <trkpt lat="42.87888" lon="0.035">
        <ele>1092</ele>
        <time>2013-02-16T08:55:30Z</time>
      </trkpt>
      <trkpt lat="42.87888" lon="0.03502">
        <ele>1092</ele>
        <time>2013-02-16T08:55:32Z</time>
      </trkpt>
      <trkpt lat="42.87887" lon="0.03504">
        <ele>1093</ele>
        <time>2013-02-16T08:55:35Z</time>
      </trkpt>
      <trkpt lat="42.87886" lon="0.03506">
        <ele>1094</ele>
        <time>2013-02-16T08:55:37Z</time>
      </trkpt>
      <trkpt lat="42.87886" lon="0.03508">
        <ele>1095</ele>
        <time>2013-02-16T08:55:40Z</time>
      </trkpt>
      <trkpt lat="42.87886" lon="0.03509">
        <ele>1096</ele>
        <time>2013-02-16T08:55:42Z</time>
      </trkpt>
      <trkpt lat="42.87886" lon="0.03511">
        <ele>1096</ele>
        <time>2013-02-16T08:55:45Z</time>
      </trkpt>
      <trkpt lat="42.87885" lon="0.03514">
        <ele>1096</ele>
        <time>2013-02-16T08:55:48Z</time>
      </trkpt>
      <trkpt lat="42.87885" lon="0.03515">
        <ele>1096</ele>
        <time>2013-02-16T08:55:50Z</time>
      </trkpt>
      <trkpt lat="42.87885" lon="0.03517">
        <ele>1096</ele>
        <time>2013-02-16T08:55:54Z</time>
      </trkpt>
      <trkpt lat="42.87884" lon="0.03519">
        <ele>1096</ele>
        <time>2013-02-16T08:55:56Z</time>
      </trkpt>
      <trkpt lat="42.87884" lon="0.03521">
        <ele>1096</ele>
        <time>2013-02-16T08:55:59Z</time>
      </trkpt>
      <trkpt lat="42.87883" lon="0.03523">
        <ele>1096</ele>
        <time>2013-02-16T08:56:02Z</time>
      </trkpt>
      <trkpt lat="42.87883" lon="0.03525">
        <ele>1096</ele>
        <time>2013-02-16T08:56:05Z</time>
      </trkpt>
      <trkpt lat="42.87883" lon="0.03527">
        <ele>1096</ele>
        <time>2013-02-16T08:56:08Z</time>
      </trkpt>
      <trkpt lat="42.87882" lon="0.03528">
        <ele>1096</ele>
        <time>2013-02-16T08:56:10Z</time>
      </trkpt>
      <trkpt lat="42.87882" lon="0.0353">
        <ele>1096</ele>
        <time>2013-02-16T08:56:12Z</time>
      </trkpt>
      <trkpt lat="42.87881" lon="0.03532">
        <ele>1097</ele>
        <time>2013-02-16T08:56:15Z</time>
      </trkpt>
      <trkpt lat="42.87881" lon="0.03533">
        <ele>1098</ele>
        <time>2013-02-16T08:56:17Z</time>
      </trkpt>
      <trkpt lat="42.87881" lon="0.03535">
        <ele>1098</ele>
        <time>2013-02-16T08:56:19Z</time>
      </trkpt>
      <trkpt lat="42.87881" lon="0.03537">
        <ele>1098</ele>
        <time>2013-02-16T08:56:21Z</time>
      </trkpt>
      <trkpt lat="42.8788" lon="0.03538">
        <ele>1098</ele>
        <time>2013-02-16T08:56:23Z</time>
      </trkpt>
      <trkpt lat="42.8788" lon="0.0354">
        <ele>1098</ele>
        <time>2013-02-16T08:56:25Z</time>
      </trkpt>
      <trkpt lat="42.8788" lon="0.03542">
        <ele>1099</ele>
        <time>2013-02-16T08:56:27Z</time>
      </trkpt>
      <trkpt lat="42.8788" lon="0.03543">
        <ele>1099</ele>
        <time>2013-02-16T08:56:29Z</time>
      </trkpt>
      <trkpt lat="42.8788" lon="0.03545">
        <ele>1099</ele>
        <time>2013-02-16T08:56:31Z</time>
      </trkpt>
      <trkpt lat="42.8788" lon="0.03547">
        <ele>1099</ele>
        <time>2013-02-16T08:56:33Z</time>
      </trkpt>
      <trkpt lat="42.87879" lon="0.03548">
        <ele>1100</ele>
        <time>2013-02-16T08:56:36Z</time>
      </trkpt>
      <trkpt lat="42.87879" lon="0.0355">
        <ele>1101</ele>
        <time>2013-02-16T08:56:41Z</time>
      </trkpt>
      <trkpt lat="42.8788" lon="0.0355">
        <ele>1102</ele>
        <time>2013-02-16T08:56:47Z</time>
      </trkpt>
      <trkpt lat="42.87881" lon="0.03551">
        <ele>1102</ele>
        <time>2013-02-16T08:56:54Z</time>
      </trkpt>
      <trkpt lat="42.87881" lon="0.03553">
        <ele>1102</ele>
        <time>2013-02-16T08:56:56Z</time>
      </trkpt>
      <trkpt lat="42.87881" lon="0.03552">
        <ele>1102</ele>
        <time>2013-02-16T08:56:59Z</time>
      </trkpt>
      <trkpt lat="42.8788" lon="0.0355">
        <ele>1102</ele>
        <time>2013-02-16T08:57:05Z</time>
      </trkpt>
      <trkpt lat="42.87879" lon="0.03548">
        <ele>1103</ele>
        <time>2013-02-16T08:57:07Z</time>
      </trkpt>
      <trkpt lat="42.87878" lon="0.03547">
        <ele>1103</ele>
        <time>2013-02-16T08:57:08Z</time>
      </trkpt>
      <trkpt lat="42.87878" lon="0.03545">
        <ele>1104</ele>
        <time>2013-02-16T08:57:14Z</time>
      </trkpt>
      <trkpt lat="42.87877" lon="0.03543">
        <ele>1104</ele>
        <time>2013-02-16T08:57:25Z</time>
      </trkpt>
      <trkpt lat="42.87878" lon="0.03545">
        <ele>1104</ele>
        <time>2013-02-16T08:57:40Z</time>
      </trkpt>
      <trkpt lat="42.87877" lon="0.03545">
        <ele>1104</ele>
        <time>2013-02-16T08:57:44Z</time>
      </trkpt>
      <trkpt lat="42.87878" lon="0.03547">
        <ele>1104</ele>
        <time>2013-02-16T08:57:58Z</time>
      </trkpt>
      <trkpt lat="42.87879" lon="0.03546">
        <ele>1104</ele>
        <time>2013-02-16T08:58:26Z</time>
      </trkpt>
      <trkpt lat="42.87878" lon="0.03545">
        <ele>1104</ele>
        <time>2013-02-16T08:58:39Z</time>
      </trkpt>
      <trkpt lat="42.87877" lon="0.03544">
        <ele>1104</ele>
        <time>2013-02-16T08:58:54Z</time>
      </trkpt>
      <trkpt lat="42.87877" lon="0.03542">
        <ele>1104</ele>
        <time>2013-02-16T08:59:07Z</time>
      </trkpt>
      <trkpt lat="42.87878" lon="0.03544">
        <ele>1104</ele>
        <time>2013-02-16T08:59:11Z</time>
      </trkpt>
      <trkpt lat="42.87877" lon="0.03543">
        <ele>1104</ele>
        <time>2013-02-16T08:59:34Z</time>
      </trkpt>
      <trkpt lat="42.87876" lon="0.03542">
        <ele>1104</ele>
        <time>2013-02-16T08:59:39Z</time>
      </trkpt>
      <trkpt lat="42.87875" lon="0.0354">
        <ele>1104</ele>
        <time>2013-02-16T08:59:41Z</time>
      </trkpt>
      <trkpt lat="42.87874" lon="0.03538">
        <ele>1104</ele>
        <time>2013-02-16T08:59:44Z</time>
      </trkpt>
      <trkpt lat="42.87873" lon="0.03537">
        <ele>1104</ele>
        <time>2013-02-16T08:59:46Z</time>
      </trkpt>
      <trkpt lat="42.87871" lon="0.03535">
        <ele>1105</ele>
        <time>2013-02-16T08:59:50Z</time>
      </trkpt>
      <trkpt lat="42.8787" lon="0.03534">
        <ele>1105</ele>
        <time>2013-02-16T08:59:52Z</time>
      </trkpt>
      <trkpt lat="42.87869" lon="0.03531">
        <ele>1105</ele>
        <time>2013-02-16T08:59:55Z</time>
      </trkpt>
      <trkpt lat="42.87868" lon="0.03529">
        <ele>1105</ele>
        <time>2013-02-16T08:59:57Z</time>
      </trkpt>
      <trkpt lat="42.87867" lon="0.03528">
        <ele>1106</ele>
        <time>2013-02-16T08:59:58Z</time>
      </trkpt>
      <trkpt lat="42.87865" lon="0.03527">
        <ele>1106</ele>
        <time>2013-02-16T09:00:01Z</time>
      </trkpt>
      <trkpt lat="42.87864" lon="0.03526">
        <ele>1106</ele>
        <time>2013-02-16T09:00:02Z</time>
      </trkpt>
      <trkpt lat="42.87863" lon="0.03525">
        <ele>1107</ele>
        <time>2013-02-16T09:00:04Z</time>
      </trkpt>
      <trkpt lat="42.87862" lon="0.03524">
        <ele>1107</ele>
        <time>2013-02-16T09:00:07Z</time>
      </trkpt>
      <trkpt lat="42.8786" lon="0.03523">
        <ele>1108</ele>
        <time>2013-02-16T09:00:09Z</time>
      </trkpt>
      <trkpt lat="42.87859" lon="0.03521">
        <ele>1108</ele>
        <time>2013-02-16T09:00:12Z</time>
      </trkpt>
      <trkpt lat="42.87857" lon="0.0352">
        <ele>1108</ele>
        <time>2013-02-16T09:00:13Z</time>
      </trkpt>
      <trkpt lat="42.87856" lon="0.03519">
        <ele>1109</ele>
        <time>2013-02-16T09:00:15Z</time>
      </trkpt>
      <trkpt lat="42.87855" lon="0.03518">
        <ele>1109</ele>
        <time>2013-02-16T09:00:18Z</time>
      </trkpt>
      <trkpt lat="42.87854" lon="0.03517">
        <ele>1109</ele>
        <time>2013-02-16T09:00:19Z</time>
      </trkpt>
      <trkpt lat="42.87852" lon="0.03515">
        <ele>1110</ele>
        <time>2013-02-16T09:00:23Z</time>
      </trkpt>
      <trkpt lat="42.87851" lon="0.03514">
        <ele>1110</ele>
        <time>2013-02-16T09:00:24Z</time>
      </trkpt>
      <trkpt lat="42.8785" lon="0.03513">
        <ele>1110</ele>
        <time>2013-02-16T09:00:28Z</time>
      </trkpt>
      <trkpt lat="42.87849" lon="0.03512">
        <ele>1111</ele>
        <time>2013-02-16T09:00:30Z</time>
      </trkpt>
      <trkpt lat="42.87847" lon="0.0351">
        <ele>1111</ele>
        <time>2013-02-16T09:00:33Z</time>
      </trkpt>
      <trkpt lat="42.87846" lon="0.03509">
        <ele>1111</ele>
        <time>2013-02-16T09:00:34Z</time>
      </trkpt>
      <trkpt lat="42.87845" lon="0.03508">
        <ele>1112</ele>
        <time>2013-02-16T09:00:36Z</time>
      </trkpt>
      <trkpt lat="42.87843" lon="0.03507">
        <ele>1112</ele>
        <time>2013-02-16T09:00:40Z</time>
      </trkpt>
      <trkpt lat="42.87842" lon="0.03506">
        <ele>1113</ele>
        <time>2013-02-16T09:00:41Z</time>
      </trkpt>
      <trkpt lat="42.87841" lon="0.03506">
        <ele>1113</ele>
        <time>2013-02-16T09:00:45Z</time>
      </trkpt>
      <trkpt lat="42.87839" lon="0.03505">
        <ele>1113</ele>
        <time>2013-02-16T09:00:47Z</time>
      </trkpt>
      <trkpt lat="42.87838" lon="0.03503">
        <ele>1114</ele>
        <time>2013-02-16T09:00:50Z</time>
      </trkpt>
      <trkpt lat="42.87836" lon="0.03503">
        <ele>1115</ele>
        <time>2013-02-16T09:00:52Z</time>
      </trkpt>
      <trkpt lat="42.87835" lon="0.03503">
        <ele>1115</ele>
        <time>2013-02-16T09:00:56Z</time>
      </trkpt>
      <trkpt lat="42.87833" lon="0.03502">
        <ele>1116</ele>
        <time>2013-02-16T09:00:58Z</time>
      </trkpt>
      <trkpt lat="42.87832" lon="0.03502">
        <ele>1117</ele>
        <time>2013-02-16T09:01:02Z</time>
      </trkpt>
      <trkpt lat="42.87831" lon="0.03502">
        <ele>1117</ele>
        <time>2013-02-16T09:01:03Z</time>
      </trkpt>
      <trkpt lat="42.8783" lon="0.03502">
        <ele>1117</ele>
        <time>2013-02-16T09:01:05Z</time>
      </trkpt>
      <trkpt lat="42.87829" lon="0.03504">
        <ele>1117</ele>
        <time>2013-02-16T09:01:08Z</time>
      </trkpt>
      <trkpt lat="42.87829" lon="0.03506">
        <ele>1118</ele>
        <time>2013-02-16T09:01:09Z</time>
      </trkpt>
      <trkpt lat="42.87828" lon="0.03507">
        <ele>1119</ele>
        <time>2013-02-16T09:01:11Z</time>
      </trkpt>
      <trkpt lat="42.87828" lon="0.03509">
        <ele>1120</ele>
        <time>2013-02-16T09:01:24Z</time>
      </trkpt>
      <trkpt lat="42.87829" lon="0.03511">
        <ele>1120</ele>
        <time>2013-02-16T09:01:26Z</time>
      </trkpt>
      <trkpt lat="42.87829" lon="0.03512">
        <ele>1120</ele>
        <time>2013-02-16T09:01:28Z</time>
      </trkpt>
      <trkpt lat="42.87829" lon="0.03515">
        <ele>1120</ele>
        <time>2013-02-16T09:01:30Z</time>
      </trkpt>
      <trkpt lat="42.87828" lon="0.03517">
        <ele>1120</ele>
        <time>2013-02-16T09:01:32Z</time>
      </trkpt>
      <trkpt lat="42.87828" lon="0.03518">
        <ele>1120</ele>
        <time>2013-02-16T09:01:35Z</time>
      </trkpt>
      <trkpt lat="42.87828" lon="0.0352">
        <ele>1121</ele>
        <time>2013-02-16T09:01:36Z</time>
      </trkpt>
      <trkpt lat="42.87828" lon="0.03523">
        <ele>1121</ele>
        <time>2013-02-16T09:01:38Z</time>
      </trkpt>
      <trkpt lat="42.87829" lon="0.03525">
        <ele>1121</ele>
        <time>2013-02-16T09:01:40Z</time>
      </trkpt>
      <trkpt lat="42.87829" lon="0.03526">
        <ele>1121</ele>
        <time>2013-02-16T09:01:42Z</time>
      </trkpt>
      <trkpt lat="42.87829" lon="0.03528">
        <ele>1121</ele>
        <time>2013-02-16T09:01:44Z</time>
      </trkpt>
      <trkpt lat="42.87829" lon="0.0353">
        <ele>1121</ele>
        <time>2013-02-16T09:01:47Z</time>
      </trkpt>
      <trkpt lat="42.87829" lon="0.03532">
        <ele>1121</ele>
        <time>2013-02-16T09:01:48Z</time>
      </trkpt>
      <trkpt lat="42.87829" lon="0.03534">
        <ele>1122</ele>
        <time>2013-02-16T09:01:50Z</time>
      </trkpt>
      <trkpt lat="42.87829" lon="0.03536">
        <ele>1122</ele>
        <time>2013-02-16T09:01:53Z</time>
      </trkpt>
      <trkpt lat="42.87829" lon="0.03537">
        <ele>1123</ele>
        <time>2013-02-16T09:01:54Z</time>
      </trkpt>
      <trkpt lat="42.87829" lon="0.0354">
        <ele>1123</ele>
        <time>2013-02-16T09:01:56Z</time>
      </trkpt>
      <trkpt lat="42.87829" lon="0.03542">
        <ele>1123</ele>
        <time>2013-02-16T09:01:59Z</time>
      </trkpt>
      <trkpt lat="42.87829" lon="0.03543">
        <ele>1124</ele>
        <time>2013-02-16T09:02:00Z</time>
      </trkpt>
      <trkpt lat="42.87829" lon="0.03545">
        <ele>1124</ele>
        <time>2013-02-16T09:02:02Z</time>
      </trkpt>
      <trkpt lat="42.87829" lon="0.03547">
        <ele>1124</ele>
        <time>2013-02-16T09:02:04Z</time>
      </trkpt>
      <trkpt lat="42.87828" lon="0.03549">
        <ele>1125</ele>
        <time>2013-02-16T09:02:06Z</time>
      </trkpt>
      <trkpt lat="42.87828" lon="0.03551">
        <ele>1125</ele>
        <time>2013-02-16T09:02:08Z</time>
      </trkpt>
      <trkpt lat="42.87827" lon="0.03552">
        <ele>1126</ele>
        <time>2013-02-16T09:02:11Z</time>
      </trkpt>
      <trkpt lat="42.87826" lon="0.03553">
        <ele>1126</ele>
        <time>2013-02-16T09:02:12Z</time>
      </trkpt>
      <trkpt lat="42.87825" lon="0.03552">
        <ele>1127</ele>
        <time>2013-02-16T09:02:15Z</time>
      </trkpt>
      <trkpt lat="42.87823" lon="0.0355">
        <ele>1127</ele>
        <time>2013-02-16T09:02:18Z</time>
      </trkpt>
      <trkpt lat="42.87822" lon="0.03549">
        <ele>1127</ele>
        <time>2013-02-16T09:02:22Z</time>
      </trkpt>
      <trkpt lat="42.87822" lon="0.03547">
        <ele>1128</ele>
        <time>2013-02-16T09:02:28Z</time>
      </trkpt>
      <trkpt lat="42.87822" lon="0.03546">
        <ele>1129</ele>
        <time>2013-02-16T09:02:38Z</time>
      </trkpt>
      <trkpt lat="42.8782" lon="0.03544">
        <ele>1130</ele>
        <time>2013-02-16T09:02:52Z</time>
      </trkpt>
      <trkpt lat="42.87819" lon="0.03543">
        <ele>1130</ele>
        <time>2013-02-16T09:02:53Z</time>
      </trkpt>
      <trkpt lat="42.87818" lon="0.03541">
        <ele>1130</ele>
        <time>2013-02-16T09:02:55Z</time>
      </trkpt>
      <trkpt lat="42.87817" lon="0.03539">
        <ele>1130</ele>
        <time>2013-02-16T09:02:58Z</time>
      </trkpt>
      <trkpt lat="42.87815" lon="0.03538">
        <ele>1130</ele>
        <time>2013-02-16T09:02:59Z</time>
      </trkpt>
      <trkpt lat="42.87814" lon="0.03536">
        <ele>1130</ele>
        <time>2013-02-16T09:03:01Z</time>
      </trkpt>
      <trkpt lat="42.87813" lon="0.03534">
        <ele>1130</ele>
        <time>2013-02-16T09:03:04Z</time>
      </trkpt>
      <trkpt lat="42.87812" lon="0.03533">
        <ele>1131</ele>
        <time>2013-02-16T09:03:06Z</time>
      </trkpt>
      <trkpt lat="42.87811" lon="0.03532">
        <ele>1131</ele>
        <time>2013-02-16T09:03:09Z</time>
      </trkpt>
      <trkpt lat="42.87809" lon="0.0353">
        <ele>1131</ele>
        <time>2013-02-16T09:03:13Z</time>
      </trkpt>
      <trkpt lat="42.87808" lon="0.0353">
        <ele>1131</ele>
        <time>2013-02-16T09:03:16Z</time>
      </trkpt>
      <trkpt lat="42.87807" lon="0.03531">
        <ele>1131</ele>
        <time>2013-02-16T09:03:17Z</time>
      </trkpt>
      <trkpt lat="42.87806" lon="0.03533">
        <ele>1131</ele>
        <time>2013-02-16T09:03:19Z</time>
      </trkpt>
      <trkpt lat="42.87806" lon="0.03536">
        <ele>1132</ele>
        <time>2013-02-16T09:03:22Z</time>
      </trkpt>
      <trkpt lat="42.87805" lon="0.03537">
        <ele>1132</ele>
        <time>2013-02-16T09:03:23Z</time>
      </trkpt>
      <trkpt lat="42.87805" lon="0.0354">
        <ele>1132</ele>
        <time>2013-02-16T09:03:25Z</time>
      </trkpt>
      <trkpt lat="42.87804" lon="0.03541">
        <ele>1133</ele>
        <time>2013-02-16T09:03:28Z</time>
      </trkpt>
      <trkpt lat="42.87804" lon="0.03543">
        <ele>1133</ele>
        <time>2013-02-16T09:03:29Z</time>
      </trkpt>
      <trkpt lat="42.87803" lon="0.03543">
        <ele>1134</ele>
        <time>2013-02-16T09:03:35Z</time>
      </trkpt>
      <trkpt lat="42.87802" lon="0.03541">
        <ele>1134</ele>
        <time>2013-02-16T09:03:37Z</time>
      </trkpt>
      <trkpt lat="42.87801" lon="0.0354">
        <ele>1134</ele>
        <time>2013-02-16T09:03:39Z</time>
      </trkpt>
      <trkpt lat="42.878" lon="0.03538">
        <ele>1134</ele>
        <time>2013-02-16T09:03:42Z</time>
      </trkpt>
      <trkpt lat="42.87799" lon="0.03536">
        <ele>1134</ele>
        <time>2013-02-16T09:03:44Z</time>
      </trkpt>
      <trkpt lat="42.87798" lon="0.03534">
        <ele>1135</ele>
        <time>2013-02-16T09:03:46Z</time>
      </trkpt>
      <trkpt lat="42.87797" lon="0.03533">
        <ele>1135</ele>
        <time>2013-02-16T09:03:50Z</time>
      </trkpt>
      <trkpt lat="42.87796" lon="0.03531">
        <ele>1135</ele>
        <time>2013-02-16T09:03:52Z</time>
      </trkpt>
      <trkpt lat="42.87795" lon="0.03529">
        <ele>1136</ele>
        <time>2013-02-16T09:03:55Z</time>
      </trkpt>
      <trkpt lat="42.87793" lon="0.03527">
        <ele>1137</ele>
        <time>2013-02-16T09:04:49Z</time>
      </trkpt>
      <trkpt lat="42.87792" lon="0.03525">
        <ele>1137</ele>
        <time>2013-02-16T09:04:55Z</time>
      </trkpt>
      <trkpt lat="42.87791" lon="0.03523">
        <ele>1137</ele>
        <time>2013-02-16T09:04:56Z</time>
      </trkpt>
      <trkpt lat="42.8779" lon="0.03522">
        <ele>1137</ele>
        <time>2013-02-16T09:04:58Z</time>
      </trkpt>
      <trkpt lat="42.87789" lon="0.0352">
        <ele>1138</ele>
        <time>2013-02-16T09:05:00Z</time>
      </trkpt>
      <trkpt lat="42.87788" lon="0.03519">
        <ele>1138</ele>
        <time>2013-02-16T09:05:02Z</time>
      </trkpt>
      <trkpt lat="42.87786" lon="0.03517">
        <ele>1138</ele>
        <time>2013-02-16T09:05:05Z</time>
      </trkpt>
      <trkpt lat="42.87785" lon="0.03516">
        <ele>1139</ele>
        <time>2013-02-16T09:05:07Z</time>
      </trkpt>
      <trkpt lat="42.87784" lon="0.03514">
        <ele>1139</ele>
        <time>2013-02-16T09:05:09Z</time>
      </trkpt>
      <trkpt lat="42.87783" lon="0.03512">
        <ele>1140</ele>
        <time>2013-02-16T09:05:12Z</time>
      </trkpt>
      <trkpt lat="42.87782" lon="0.0351">
        <ele>1140</ele>
        <time>2013-02-16T09:05:14Z</time>
      </trkpt>
      <trkpt lat="42.8778" lon="0.03509">
        <ele>1141</ele>
        <time>2013-02-16T09:05:16Z</time>
      </trkpt>
      <trkpt lat="42.8778" lon="0.03507">
        <ele>1141</ele>
        <time>2013-02-16T09:05:18Z</time>
      </trkpt>
      <trkpt lat="42.87778" lon="0.03506">
        <ele>1142</ele>
        <time>2013-02-16T09:05:20Z</time>
      </trkpt>
      <trkpt lat="42.87777" lon="0.03505">
        <ele>1143</ele>
        <time>2013-02-16T09:05:24Z</time>
      </trkpt>
      <trkpt lat="42.87775" lon="0.03502">
        <ele>1144</ele>
        <time>2013-02-16T09:05:29Z</time>
      </trkpt>
      <trkpt lat="42.87774" lon="0.035">
        <ele>1145</ele>
        <time>2013-02-16T09:05:31Z</time>
      </trkpt>
      <trkpt lat="42.87773" lon="0.03499">
        <ele>1145</ele>
        <time>2013-02-16T09:05:33Z</time>
      </trkpt>
      <trkpt lat="42.87772" lon="0.03498">
        <ele>1146</ele>
        <time>2013-02-16T09:05:37Z</time>
      </trkpt>
      <trkpt lat="42.87771" lon="0.03496">
        <ele>1147</ele>
        <time>2013-02-16T09:05:58Z</time>
      </trkpt>
      <trkpt lat="42.8777" lon="0.03494">
        <ele>1147</ele>
        <time>2013-02-16T09:06:00Z</time>
      </trkpt>
      <trkpt lat="42.87769" lon="0.03494">
        <ele>1147</ele>
        <time>2013-02-16T09:06:02Z</time>
      </trkpt>
      <trkpt lat="42.87767" lon="0.03494">
        <ele>1148</ele>
        <time>2013-02-16T09:06:05Z</time>
      </trkpt>
      <trkpt lat="42.87766" lon="0.03493">
        <ele>1148</ele>
        <time>2013-02-16T09:06:07Z</time>
      </trkpt>
      <trkpt lat="42.87764" lon="0.03492">
        <ele>1148</ele>
        <time>2013-02-16T09:06:09Z</time>
      </trkpt>
      <trkpt lat="42.87763" lon="0.03491">
        <ele>1148</ele>
        <time>2013-02-16T09:06:11Z</time>
      </trkpt>
      <trkpt lat="42.87762" lon="0.0349">
        <ele>1148</ele>
        <time>2013-02-16T09:06:14Z</time>
      </trkpt>
      <trkpt lat="42.87761" lon="0.03489">
        <ele>1148</ele>
        <time>2013-02-16T09:06:16Z</time>
      </trkpt>
      <trkpt lat="42.87759" lon="0.03489">
        <ele>1149</ele>
        <time>2013-02-16T09:06:18Z</time>
      </trkpt>
      <trkpt lat="42.87758" lon="0.03488">
        <ele>1149</ele>
        <time>2013-02-16T09:06:20Z</time>
      </trkpt>
      <trkpt lat="42.87757" lon="0.03487">
        <ele>1150</ele>
        <time>2013-02-16T09:06:22Z</time>
      </trkpt>
      <trkpt lat="42.87756" lon="0.03487">
        <ele>1150</ele>
        <time>2013-02-16T09:06:24Z</time>
      </trkpt>
      <trkpt lat="42.87754" lon="0.03486">
        <ele>1151</ele>
        <time>2013-02-16T09:06:26Z</time>
      </trkpt>
      <trkpt lat="42.87753" lon="0.03486">
        <ele>1152</ele>
        <time>2013-02-16T09:06:29Z</time>
      </trkpt>
      <trkpt lat="42.87751" lon="0.03485">
        <ele>1152</ele>
        <time>2013-02-16T09:06:31Z</time>
      </trkpt>
      <trkpt lat="42.8775" lon="0.03484">
        <ele>1152</ele>
        <time>2013-02-16T09:06:33Z</time>
      </trkpt>
      <trkpt lat="42.87749" lon="0.03482">
        <ele>1152</ele>
        <time>2013-02-16T09:06:35Z</time>
      </trkpt>
      <trkpt lat="42.87748" lon="0.03481">
        <ele>1153</ele>
        <time>2013-02-16T09:06:37Z</time>
      </trkpt>
      <trkpt lat="42.87746" lon="0.0348">
        <ele>1154</ele>
        <time>2013-02-16T09:06:39Z</time>
      </trkpt>
      <trkpt lat="42.87745" lon="0.03479">
        <ele>1154</ele>
        <time>2013-02-16T09:06:41Z</time>
      </trkpt>
      <trkpt lat="42.87744" lon="0.03478">
        <ele>1154</ele>
        <time>2013-02-16T09:06:44Z</time>
      </trkpt>
      <trkpt lat="42.87742" lon="0.03477">
        <ele>1154</ele>
        <time>2013-02-16T09:06:46Z</time>
      </trkpt>
      <trkpt lat="42.87741" lon="0.03475">
        <ele>1154</ele>
        <time>2013-02-16T09:06:48Z</time>
      </trkpt>
      <trkpt lat="42.8774" lon="0.03474">
        <ele>1154</ele>
        <time>2013-02-16T09:06:50Z</time>
      </trkpt>
      <trkpt lat="42.87739" lon="0.03473">
        <ele>1154</ele>
        <time>2013-02-16T09:06:52Z</time>
      </trkpt>
      <trkpt lat="42.87738" lon="0.03472">
        <ele>1154</ele>
        <time>2013-02-16T09:06:54Z</time>
      </trkpt>
      <trkpt lat="42.87736" lon="0.03471">
        <ele>1154</ele>
        <time>2013-02-16T09:06:57Z</time>
      </trkpt>
      <trkpt lat="42.87735" lon="0.0347">
        <ele>1154</ele>
        <time>2013-02-16T09:07:00Z</time>
      </trkpt>
      <trkpt lat="42.87733" lon="0.03471">
        <ele>1154</ele>
        <time>2013-02-16T09:07:03Z</time>
      </trkpt>
      <trkpt lat="42.87732" lon="0.03472">
        <ele>1155</ele>
        <time>2013-02-16T09:07:05Z</time>
      </trkpt>
      <trkpt lat="42.87732" lon="0.03474">
        <ele>1155</ele>
        <time>2013-02-16T09:07:07Z</time>
      </trkpt>
      <trkpt lat="42.87732" lon="0.03475">
        <ele>1156</ele>
        <time>2013-02-16T09:07:09Z</time>
      </trkpt>
      <trkpt lat="42.87733" lon="0.03478">
        <ele>1157</ele>
        <time>2013-02-16T09:07:11Z</time>
      </trkpt>
      <trkpt lat="42.87733" lon="0.0348">
        <ele>1157</ele>
        <time>2013-02-16T09:07:13Z</time>
      </trkpt>
      <trkpt lat="42.87734" lon="0.03482">
        <ele>1158</ele>
        <time>2013-02-16T09:07:15Z</time>
      </trkpt>
      <trkpt lat="42.87735" lon="0.03483">
        <ele>1158</ele>
        <time>2013-02-16T09:07:17Z</time>
      </trkpt>
      <trkpt lat="42.87736" lon="0.03485">
        <ele>1158</ele>
        <time>2013-02-16T09:07:19Z</time>
      </trkpt>
      <trkpt lat="42.87736" lon="0.03487">
        <ele>1158</ele>
        <time>2013-02-16T09:07:21Z</time>
      </trkpt>
      <trkpt lat="42.87737" lon="0.03489">
        <ele>1158</ele>
        <time>2013-02-16T09:07:23Z</time>
      </trkpt>
      <trkpt lat="42.87737" lon="0.03491">
        <ele>1158</ele>
        <time>2013-02-16T09:07:25Z</time>
      </trkpt>
      <trkpt lat="42.87737" lon="0.03492">
        <ele>1158</ele>
        <time>2013-02-16T09:07:27Z</time>
      </trkpt>
      <trkpt lat="42.87737" lon="0.03494">
        <ele>1158</ele>
        <time>2013-02-16T09:07:29Z</time>
      </trkpt>
      <trkpt lat="42.87737" lon="0.03496">
        <ele>1159</ele>
        <time>2013-02-16T09:07:31Z</time>
      </trkpt>
      <trkpt lat="42.87737" lon="0.03498">
        <ele>1159</ele>
        <time>2013-02-16T09:07:33Z</time>
      </trkpt>
      <trkpt lat="42.87738" lon="0.03499">
        <ele>1160</ele>
        <time>2013-02-16T09:07:35Z</time>
      </trkpt>
      <trkpt lat="42.87738" lon="0.03501">
        <ele>1160</ele>
        <time>2013-02-16T09:07:37Z</time>
      </trkpt>
      <trkpt lat="42.87738" lon="0.03503">
        <ele>1160</ele>
        <time>2013-02-16T09:07:39Z</time>
      </trkpt>
      <trkpt lat="42.87738" lon="0.03505">
        <ele>1160</ele>
        <time>2013-02-16T09:07:41Z</time>
      </trkpt>
      <trkpt lat="42.87738" lon="0.03507">
        <ele>1161</ele>
        <time>2013-02-16T09:07:43Z</time>
      </trkpt>
      <trkpt lat="42.87738" lon="0.03509">
        <ele>1161</ele>
        <time>2013-02-16T09:07:45Z</time>
      </trkpt>
      <trkpt lat="42.87738" lon="0.03511">
        <ele>1161</ele>
        <time>2013-02-16T09:07:46Z</time>
      </trkpt>
      <trkpt lat="42.87737" lon="0.03514">
        <ele>1161</ele>
        <time>2013-02-16T09:07:48Z</time>
      </trkpt>
      <trkpt lat="42.87738" lon="0.03515">
        <ele>1161</ele>
        <time>2013-02-16T09:07:50Z</time>
      </trkpt>
      <trkpt lat="42.87738" lon="0.03517">
        <ele>1162</ele>
        <time>2013-02-16T09:07:53Z</time>
      </trkpt>
      <trkpt lat="42.87737" lon="0.03519">
        <ele>1166</ele>
        <time>2013-02-16T09:08:29Z</time>
      </trkpt>
      <trkpt lat="42.87736" lon="0.0352">
        <ele>1166</ele>
        <time>2013-02-16T09:08:31Z</time>
      </trkpt>
      <trkpt lat="42.87736" lon="0.03522">
        <ele>1166</ele>
        <time>2013-02-16T09:08:34Z</time>
      </trkpt>
      <trkpt lat="42.87735" lon="0.03522">
        <ele>1167</ele>
        <time>2013-02-16T09:08:42Z</time>
      </trkpt>
      <trkpt lat="42.87733" lon="0.03521">
        <ele>1167</ele>
        <time>2013-02-16T09:08:47Z</time>
      </trkpt>
      <trkpt lat="42.87732" lon="0.0352">
        <ele>1167</ele>
        <time>2013-02-16T09:08:49Z</time>
      </trkpt>
      <trkpt lat="42.87731" lon="0.0352">
        <ele>1167</ele>
        <time>2013-02-16T09:08:51Z</time>
      </trkpt>
      <trkpt lat="42.8773" lon="0.03519">
        <ele>1167</ele>
        <time>2013-02-16T09:08:53Z</time>
      </trkpt>
      <trkpt lat="42.87729" lon="0.03519">
        <ele>1167</ele>
        <time>2013-02-16T09:08:57Z</time>
      </trkpt>
      <trkpt lat="42.87727" lon="0.03519">
        <ele>1167</ele>
        <time>2013-02-16T09:09:00Z</time>
      </trkpt>
      <trkpt lat="42.87726" lon="0.03519">
        <ele>1167</ele>
        <time>2013-02-16T09:09:03Z</time>
      </trkpt>
      <trkpt lat="42.87725" lon="0.03518">
        <ele>1167</ele>
        <time>2013-02-16T09:09:05Z</time>
      </trkpt>
      <trkpt lat="42.87723" lon="0.03519">
        <ele>1168</ele>
        <time>2013-02-16T09:09:08Z</time>
      </trkpt>
      <trkpt lat="42.87723" lon="0.0352">
        <ele>1168</ele>
        <time>2013-02-16T09:09:10Z</time>
      </trkpt>
      <trkpt lat="42.87723" lon="0.03523">
        <ele>1168</ele>
        <time>2013-02-16T09:09:14Z</time>
      </trkpt>
      <trkpt lat="42.87722" lon="0.03524">
        <ele>1168</ele>
        <time>2013-02-16T09:09:16Z</time>
      </trkpt>
      <trkpt lat="42.87722" lon="0.03525">
        <ele>1169</ele>
        <time>2013-02-16T09:09:18Z</time>
      </trkpt>
      <trkpt lat="42.87722" lon="0.03527">
        <ele>1170</ele>
        <time>2013-02-16T09:09:20Z</time>
      </trkpt>
      <trkpt lat="42.87722" lon="0.03529">
        <ele>1170</ele>
        <time>2013-02-16T09:09:22Z</time>
      </trkpt>
      <trkpt lat="42.87722" lon="0.0353">
        <ele>1171</ele>
        <time>2013-02-16T09:09:24Z</time>
      </trkpt>
      <trkpt lat="42.87722" lon="0.03532">
        <ele>1171</ele>
        <time>2013-02-16T09:09:26Z</time>
      </trkpt>
      <trkpt lat="42.87721" lon="0.03534">
        <ele>1172</ele>
        <time>2013-02-16T09:09:30Z</time>
      </trkpt>
      <trkpt lat="42.87721" lon="0.03536">
        <ele>1172</ele>
        <time>2013-02-16T09:09:32Z</time>
      </trkpt>
      <trkpt lat="42.8772" lon="0.03537">
        <ele>1172</ele>
        <time>2013-02-16T09:09:34Z</time>
      </trkpt>
      <trkpt lat="42.8772" lon="0.03539">
        <ele>1173</ele>
        <time>2013-02-16T09:09:36Z</time>
      </trkpt>
      <trkpt lat="42.8772" lon="0.03541">
        <ele>1174</ele>
        <time>2013-02-16T09:09:38Z</time>
      </trkpt>
      <trkpt lat="42.87719" lon="0.03543">
        <ele>1174</ele>
        <time>2013-02-16T09:09:40Z</time>
      </trkpt>
      <trkpt lat="42.87719" lon="0.03545">
        <ele>1174</ele>
        <time>2013-02-16T09:09:42Z</time>
      </trkpt>
      <trkpt lat="42.87719" lon="0.03547">
        <ele>1174</ele>
        <time>2013-02-16T09:09:44Z</time>
      </trkpt>
      <trkpt lat="42.87719" lon="0.03548">
        <ele>1175</ele>
        <time>2013-02-16T09:09:46Z</time>
      </trkpt>
      <trkpt lat="42.87719" lon="0.0355">
        <ele>1175</ele>
        <time>2013-02-16T09:09:48Z</time>
      </trkpt>
      <trkpt lat="42.87719" lon="0.03552">
        <ele>1175</ele>
        <time>2013-02-16T09:09:50Z</time>
      </trkpt>
      <trkpt lat="42.87719" lon="0.03554">
        <ele>1175</ele>
        <time>2013-02-16T09:09:52Z</time>
      </trkpt>
      <trkpt lat="42.87718" lon="0.03555">
        <ele>1175</ele>
        <time>2013-02-16T09:09:54Z</time>
      </trkpt>
      <trkpt lat="42.87717" lon="0.03557">
        <ele>1176</ele>
        <time>2013-02-16T09:09:58Z</time>
      </trkpt>
      <trkpt lat="42.87716" lon="0.03556">
        <ele>1177</ele>
        <time>2013-02-16T09:10:01Z</time>
      </trkpt>
      <trkpt lat="42.87714" lon="0.03554">
        <ele>1177</ele>
        <time>2013-02-16T09:10:04Z</time>
      </trkpt>
      <trkpt lat="42.87712" lon="0.03552">
        <ele>1178</ele>
        <time>2013-02-16T09:10:07Z</time>
      </trkpt>
      <trkpt lat="42.87711" lon="0.03551">
        <ele>1179</ele>
        <time>2013-02-16T09:10:09Z</time>
      </trkpt>
      <trkpt lat="42.8771" lon="0.03549">
        <ele>1179</ele>
        <time>2013-02-16T09:10:11Z</time>
      </trkpt>
      <trkpt lat="42.87708" lon="0.03547">
        <ele>1180</ele>
        <time>2013-02-16T09:10:13Z</time>
      </trkpt>
      <trkpt lat="42.87707" lon="0.03546">
        <ele>1181</ele>
        <time>2013-02-16T09:10:16Z</time>
      </trkpt>
      <trkpt lat="42.87706" lon="0.03545">
        <ele>1181</ele>
        <time>2013-02-16T09:10:18Z</time>
      </trkpt>
      <trkpt lat="42.87704" lon="0.03543">
        <ele>1182</ele>
        <time>2013-02-16T09:10:21Z</time>
      </trkpt>
      <trkpt lat="42.87703" lon="0.03542">
        <ele>1182</ele>
        <time>2013-02-16T09:10:23Z</time>
      </trkpt>
      <trkpt lat="42.87701" lon="0.03541">
        <ele>1182</ele>
        <time>2013-02-16T09:10:26Z</time>
      </trkpt>
      <trkpt lat="42.87701" lon="0.03539">
        <ele>1182</ele>
        <time>2013-02-16T09:10:31Z</time>
      </trkpt>
      <trkpt lat="42.877" lon="0.03537">
        <ele>1183</ele>
        <time>2013-02-16T09:10:33Z</time>
      </trkpt>
      <trkpt lat="42.877" lon="0.03535">
        <ele>1184</ele>
        <time>2013-02-16T09:10:35Z</time>
      </trkpt>
      <trkpt lat="42.87699" lon="0.03534">
        <ele>1186</ele>
        <time>2013-02-16T09:10:38Z</time>
      </trkpt>
      <trkpt lat="42.87698" lon="0.03532">
        <ele>1186</ele>
        <time>2013-02-16T09:10:39Z</time>
      </trkpt>
      <trkpt lat="42.87697" lon="0.03532">
        <ele>1188</ele>
        <time>2013-02-16T09:10:56Z</time>
      </trkpt>
      <trkpt lat="42.87696" lon="0.03532">
        <ele>1188</ele>
        <time>2013-02-16T09:10:59Z</time>
      </trkpt>
      <trkpt lat="42.87695" lon="0.03532">
        <ele>1188</ele>
        <time>2013-02-16T09:11:02Z</time>
      </trkpt>
      <trkpt lat="42.87693" lon="0.03531">
        <ele>1188</ele>
        <time>2013-02-16T09:11:05Z</time>
      </trkpt>
      <trkpt lat="42.87692" lon="0.0353">
        <ele>1188</ele>
        <time>2013-02-16T09:11:07Z</time>
      </trkpt>
      <trkpt lat="42.8769" lon="0.03529">
        <ele>1188</ele>
        <time>2013-02-16T09:11:09Z</time>
      </trkpt>
      <trkpt lat="42.87689" lon="0.03528">
        <ele>1188</ele>
        <time>2013-02-16T09:11:11Z</time>
      </trkpt>
      <trkpt lat="42.87688" lon="0.03527">
        <ele>1188</ele>
        <time>2013-02-16T09:11:13Z</time>
      </trkpt>
      <trkpt lat="42.87687" lon="0.03526">
        <ele>1188</ele>
        <time>2013-02-16T09:11:15Z</time>
      </trkpt>
      <trkpt lat="42.87685" lon="0.03525">
        <ele>1188</ele>
        <time>2013-02-16T09:11:18Z</time>
      </trkpt>
      <trkpt lat="42.87684" lon="0.03525">
        <ele>1188</ele>
        <time>2013-02-16T09:11:21Z</time>
      </trkpt>
      <trkpt lat="42.87683" lon="0.03524">
        <ele>1188</ele>
        <time>2013-02-16T09:11:24Z</time>
      </trkpt>
      <trkpt lat="42.87682" lon="0.03524">
        <ele>1188</ele>
        <time>2013-02-16T09:11:26Z</time>
      </trkpt>
      <trkpt lat="42.8768" lon="0.03524">
        <ele>1188</ele>
        <time>2013-02-16T09:11:29Z</time>
      </trkpt>
      <trkpt lat="42.87679" lon="0.03524">
        <ele>1188</ele>
        <time>2013-02-16T09:11:31Z</time>
      </trkpt>
      <trkpt lat="42.87677" lon="0.03524">
        <ele>1188</ele>
        <time>2013-02-16T09:11:33Z</time>
      </trkpt>
      <trkpt lat="42.87676" lon="0.03523">
        <ele>1188</ele>
        <time>2013-02-16T09:11:35Z</time>
      </trkpt>
      <trkpt lat="42.87675" lon="0.03523">
        <ele>1188</ele>
        <time>2013-02-16T09:11:37Z</time>
      </trkpt>
      <trkpt lat="42.87673" lon="0.03523">
        <ele>1188</ele>
        <time>2013-02-16T09:11:39Z</time>
      </trkpt>
      <trkpt lat="42.87672" lon="0.03522">
        <ele>1188</ele>
        <time>2013-02-16T09:11:41Z</time>
      </trkpt>
      <trkpt lat="42.87671" lon="0.03522">
        <ele>1188</ele>
        <time>2013-02-16T09:11:44Z</time>
      </trkpt>
      <trkpt lat="42.87669" lon="0.03522">
        <ele>1188</ele>
        <time>2013-02-16T09:11:46Z</time>
      </trkpt>
      <trkpt lat="42.87668" lon="0.03521">
        <ele>1188</ele>
        <time>2013-02-16T09:11:48Z</time>
      </trkpt>
      <trkpt lat="42.87667" lon="0.0352">
        <ele>1188</ele>
        <time>2013-02-16T09:11:50Z</time>
      </trkpt>
      <trkpt lat="42.87666" lon="0.0352">
        <ele>1188</ele>
        <time>2013-02-16T09:11:52Z</time>
      </trkpt>
      <trkpt lat="42.87664" lon="0.03519">
        <ele>1189</ele>
        <time>2013-02-16T09:11:54Z</time>
      </trkpt>
      <trkpt lat="42.87663" lon="0.03519">
        <ele>1189</ele>
        <time>2013-02-16T09:11:57Z</time>
      </trkpt>
      <trkpt lat="42.87662" lon="0.03519">
        <ele>1190</ele>
        <time>2013-02-16T09:12:00Z</time>
      </trkpt>
      <trkpt lat="42.87661" lon="0.03518">
        <ele>1190</ele>
        <time>2013-02-16T09:12:02Z</time>
      </trkpt>
      <trkpt lat="42.87659" lon="0.03517">
        <ele>1191</ele>
        <time>2013-02-16T09:12:04Z</time>
      </trkpt>
      <trkpt lat="42.87658" lon="0.03516">
        <ele>1192</ele>
        <time>2013-02-16T09:12:06Z</time>
      </trkpt>
      <trkpt lat="42.87656" lon="0.03516">
        <ele>1192</ele>
        <time>2013-02-16T09:12:09Z</time>
      </trkpt>
      <trkpt lat="42.87655" lon="0.03515">
        <ele>1193</ele>
        <time>2013-02-16T09:12:12Z</time>
      </trkpt>
      <trkpt lat="42.87653" lon="0.03515">
        <ele>1193</ele>
        <time>2013-02-16T09:12:15Z</time>
      </trkpt>
      <trkpt lat="42.87652" lon="0.03514">
        <ele>1194</ele>
        <time>2013-02-16T09:12:17Z</time>
      </trkpt>
      <trkpt lat="42.87651" lon="0.03513">
        <ele>1194</ele>
        <time>2013-02-16T09:12:27Z</time>
      </trkpt>
      <trkpt lat="42.8765" lon="0.03513">
        <ele>1194</ele>
        <time>2013-02-16T09:12:29Z</time>
      </trkpt>
      <trkpt lat="42.87648" lon="0.03511">
        <ele>1195</ele>
        <time>2013-02-16T09:12:31Z</time>
      </trkpt>
      <trkpt lat="42.87647" lon="0.0351">
        <ele>1195</ele>
        <time>2013-02-16T09:12:33Z</time>
      </trkpt>
      <trkpt lat="42.87646" lon="0.0351">
        <ele>1195</ele>
        <time>2013-02-16T09:12:36Z</time>
      </trkpt>
      <trkpt lat="42.87644" lon="0.03509">
        <ele>1195</ele>
        <time>2013-02-16T09:12:39Z</time>
      </trkpt>
      <trkpt lat="42.87643" lon="0.03509">
        <ele>1196</ele>
        <time>2013-02-16T09:12:42Z</time>
      </trkpt>
      <trkpt lat="42.87642" lon="0.03511">
        <ele>1196</ele>
        <time>2013-02-16T09:12:49Z</time>
      </trkpt>
      <trkpt lat="42.87642" lon="0.03513">
        <ele>1197</ele>
        <time>2013-02-16T09:12:51Z</time>
      </trkpt>
      <trkpt lat="42.87642" lon="0.03515">
        <ele>1198</ele>
        <time>2013-02-16T09:12:53Z</time>
      </trkpt>
      <trkpt lat="42.87643" lon="0.03516">
        <ele>1199</ele>
        <time>2013-02-16T09:12:55Z</time>
      </trkpt>
      <trkpt lat="42.87644" lon="0.03518">
        <ele>1199</ele>
        <time>2013-02-16T09:12:57Z</time>
      </trkpt>
      <trkpt lat="42.87645" lon="0.03519">
        <ele>1199</ele>
        <time>2013-02-16T09:13:14Z</time>
      </trkpt>
      <trkpt lat="42.87646" lon="0.03521">
        <ele>1199</ele>
        <time>2013-02-16T09:13:16Z</time>
      </trkpt>
      <trkpt lat="42.87647" lon="0.03523">
        <ele>1199</ele>
        <time>2013-02-16T09:13:18Z</time>
      </trkpt>
      <trkpt lat="42.87648" lon="0.03525">
        <ele>1199</ele>
        <time>2013-02-16T09:13:20Z</time>
      </trkpt>
      <trkpt lat="42.87649" lon="0.03527">
        <ele>1199</ele>
        <time>2013-02-16T09:13:22Z</time>
      </trkpt>
      <trkpt lat="42.8765" lon="0.03529">
        <ele>1199</ele>
        <time>2013-02-16T09:13:24Z</time>
      </trkpt>
      <trkpt lat="42.87651" lon="0.03531">
        <ele>1199</ele>
        <time>2013-02-16T09:13:26Z</time>
      </trkpt>
      <trkpt lat="42.87653" lon="0.03534">
        <ele>1199</ele>
        <time>2013-02-16T09:13:28Z</time>
      </trkpt>
      <trkpt lat="42.87653" lon="0.03536">
        <ele>1199</ele>
        <time>2013-02-16T09:13:30Z</time>
      </trkpt>
      <trkpt lat="42.87654" lon="0.03537">
        <ele>1199</ele>
        <time>2013-02-16T09:13:33Z</time>
      </trkpt>
      <trkpt lat="42.87654" lon="0.03539">
        <ele>1199</ele>
        <time>2013-02-16T09:13:36Z</time>
      </trkpt>
      <trkpt lat="42.87655" lon="0.03542">
        <ele>1199</ele>
        <time>2013-02-16T09:13:38Z</time>
      </trkpt>
      <trkpt lat="42.87656" lon="0.03544">
        <ele>1199</ele>
        <time>2013-02-16T09:13:40Z</time>
      </trkpt>
      <trkpt lat="42.87656" lon="0.03546">
        <ele>1199</ele>
        <time>2013-02-16T09:13:42Z</time>
      </trkpt>
      <trkpt lat="42.87657" lon="0.03548">
        <ele>1199</ele>
        <time>2013-02-16T09:13:44Z</time>
      </trkpt>
      <trkpt lat="42.87658" lon="0.03551">
        <ele>1199</ele>
        <time>2013-02-16T09:13:46Z</time>
      </trkpt>
      <trkpt lat="42.87658" lon="0.03552">
        <ele>1199</ele>
        <time>2013-02-16T09:13:48Z</time>
      </trkpt>
      <trkpt lat="42.87659" lon="0.03554">
        <ele>1199</ele>
        <time>2013-02-16T09:13:50Z</time>
      </trkpt>
      <trkpt lat="42.8766" lon="0.03555">
        <ele>1199</ele>
        <time>2013-02-16T09:13:52Z</time>
      </trkpt>
      <trkpt lat="42.8766" lon="0.03557">
        <ele>1199</ele>
        <time>2013-02-16T09:13:54Z</time>
      </trkpt>
      <trkpt lat="42.87661" lon="0.03559">
        <ele>1199</ele>
        <time>2013-02-16T09:13:56Z</time>
      </trkpt>
      <trkpt lat="42.87661" lon="0.03561">
        <ele>1199</ele>
        <time>2013-02-16T09:13:58Z</time>
      </trkpt>
      <trkpt lat="42.87662" lon="0.03562">
        <ele>1199</ele>
        <time>2013-02-16T09:14:00Z</time>
      </trkpt>
      <trkpt lat="42.87663" lon="0.03564">
        <ele>1200</ele>
        <time>2013-02-16T09:14:02Z</time>
      </trkpt>
      <trkpt lat="42.87664" lon="0.03566">
        <ele>1200</ele>
        <time>2013-02-16T09:14:04Z</time>
      </trkpt>
      <trkpt lat="42.87664" lon="0.03568">
        <ele>1201</ele>
        <time>2013-02-16T09:14:06Z</time>
      </trkpt>
      <trkpt lat="42.87665" lon="0.03569">
        <ele>1201</ele>
        <time>2013-02-16T09:14:08Z</time>
      </trkpt>
      <trkpt lat="42.87665" lon="0.03571">
        <ele>1201</ele>
        <time>2013-02-16T09:14:10Z</time>
      </trkpt>
      <trkpt lat="42.87665" lon="0.03573">
        <ele>1201</ele>
        <time>2013-02-16T09:14:12Z</time>
      </trkpt>
      <trkpt lat="42.87666" lon="0.03575">
        <ele>1201</ele>
        <time>2013-02-16T09:14:14Z</time>
      </trkpt>
      <trkpt lat="42.87666" lon="0.03577">
        <ele>1201</ele>
        <time>2013-02-16T09:14:16Z</time>
      </trkpt>
      <trkpt lat="42.87666" lon="0.03579">
        <ele>1201</ele>
        <time>2013-02-16T09:14:18Z</time>
      </trkpt>
      <trkpt lat="42.87666" lon="0.0358">
        <ele>1202</ele>
        <time>2013-02-16T09:14:20Z</time>
      </trkpt>
      <trkpt lat="42.87666" lon="0.03582">
        <ele>1202</ele>
        <time>2013-02-16T09:14:22Z</time>
      </trkpt>
      <trkpt lat="42.87666" lon="0.03584">
        <ele>1203</ele>
        <time>2013-02-16T09:14:25Z</time>
      </trkpt>
      <trkpt lat="42.87665" lon="0.03586">
        <ele>1204</ele>
        <time>2013-02-16T09:14:28Z</time>
      </trkpt>
      <trkpt lat="42.87663" lon="0.03587">
        <ele>1204</ele>
        <time>2013-02-16T09:14:30Z</time>
      </trkpt>
      <trkpt lat="42.87662" lon="0.03587">
        <ele>1204</ele>
        <time>2013-02-16T09:14:32Z</time>
      </trkpt>
      <trkpt lat="42.87661" lon="0.03587">
        <ele>1205</ele>
        <time>2013-02-16T09:14:34Z</time>
      </trkpt>
      <trkpt lat="42.87659" lon="0.03586">
        <ele>1205</ele>
        <time>2013-02-16T09:14:37Z</time>
      </trkpt>
      <trkpt lat="42.87658" lon="0.03585">
        <ele>1205</ele>
        <time>2013-02-16T09:14:38Z</time>
      </trkpt>
      <trkpt lat="42.87658" lon="0.03582">
        <ele>1205</ele>
        <time>2013-02-16T09:14:40Z</time>
      </trkpt>
      <trkpt lat="42.87658" lon="0.03581">
        <ele>1205</ele>
        <time>2013-02-16T09:14:42Z</time>
      </trkpt>
      <trkpt lat="42.87657" lon="0.03579">
        <ele>1206</ele>
        <time>2013-02-16T09:14:44Z</time>
      </trkpt>
      <trkpt lat="42.87656" lon="0.03578">
        <ele>1207</ele>
        <time>2013-02-16T09:14:48Z</time>
      </trkpt>
      <trkpt lat="42.87654" lon="0.03576">
        <ele>1207</ele>
        <time>2013-02-16T09:14:50Z</time>
      </trkpt>
      <trkpt lat="42.87653" lon="0.03574">
        <ele>1207</ele>
        <time>2013-02-16T09:14:52Z</time>
      </trkpt>
      <trkpt lat="42.87652" lon="0.03573">
        <ele>1207</ele>
        <time>2013-02-16T09:14:54Z</time>
      </trkpt>
      <trkpt lat="42.87651" lon="0.03571">
        <ele>1207</ele>
        <time>2013-02-16T09:14:56Z</time>
      </trkpt>
      <trkpt lat="42.8765" lon="0.0357">
        <ele>1207</ele>
        <time>2013-02-16T09:14:58Z</time>
      </trkpt>
      <trkpt lat="42.87649" lon="0.03568">
        <ele>1208</ele>
        <time>2013-02-16T09:15:01Z</time>
      </trkpt>
      <trkpt lat="42.87648" lon="0.03567">
        <ele>1208</ele>
        <time>2013-02-16T09:15:04Z</time>
      </trkpt>
      <trkpt lat="42.87646" lon="0.03566">
        <ele>1208</ele>
        <time>2013-02-16T09:15:07Z</time>
      </trkpt>
      <trkpt lat="42.87645" lon="0.03566">
        <ele>1209</ele>
        <time>2013-02-16T09:15:10Z</time>
      </trkpt>
      <trkpt lat="42.87644" lon="0.03565">
        <ele>1209</ele>
        <time>2013-02-16T09:15:13Z</time>
      </trkpt>
      <trkpt lat="42.87642" lon="0.03564">
        <ele>1209</ele>
        <time>2013-02-16T09:15:27Z</time>
      </trkpt>
      <trkpt lat="42.8764" lon="0.03563">
        <ele>1209</ele>
        <time>2013-02-16T09:15:29Z</time>
      </trkpt>
      <trkpt lat="42.87639" lon="0.03562">
        <ele>1209</ele>
        <time>2013-02-16T09:15:31Z</time>
      </trkpt>
      <trkpt lat="42.87638" lon="0.03561">
        <ele>1209</ele>
        <time>2013-02-16T09:15:33Z</time>
      </trkpt>
      <trkpt lat="42.87637" lon="0.03562">
        <ele>1209</ele>
        <time>2013-02-16T09:15:35Z</time>
      </trkpt>
      <trkpt lat="42.87636" lon="0.03564">
        <ele>1210</ele>
        <time>2013-02-16T09:15:37Z</time>
      </trkpt>
      <trkpt lat="42.87636" lon="0.03566">
        <ele>1210</ele>
        <time>2013-02-16T09:15:39Z</time>
      </trkpt>
      <trkpt lat="42.87636" lon="0.03568">
        <ele>1211</ele>
        <time>2013-02-16T09:15:41Z</time>
      </trkpt>
      <trkpt lat="42.87636" lon="0.0357">
        <ele>1212</ele>
        <time>2013-02-16T09:15:44Z</time>
      </trkpt>
      <trkpt lat="42.87636" lon="0.03571">
        <ele>1213</ele>
        <time>2013-02-16T09:15:46Z</time>
      </trkpt>
      <trkpt lat="42.87636" lon="0.03573">
        <ele>1213</ele>
        <time>2013-02-16T09:15:48Z</time>
      </trkpt>
      <trkpt lat="42.87636" lon="0.03574">
        <ele>1214</ele>
        <time>2013-02-16T09:15:50Z</time>
      </trkpt>
      <trkpt lat="42.87636" lon="0.03576">
        <ele>1214</ele>
        <time>2013-02-16T09:15:52Z</time>
      </trkpt>
      <trkpt lat="42.87636" lon="0.03578">
        <ele>1214</ele>
        <time>2013-02-16T09:15:54Z</time>
      </trkpt>
      <trkpt lat="42.87636" lon="0.03579">
        <ele>1215</ele>
        <time>2013-02-16T09:15:56Z</time>
      </trkpt>
      <trkpt lat="42.87635" lon="0.0358">
        <ele>1215</ele>
        <time>2013-02-16T09:16:12Z</time>
      </trkpt>
      <trkpt lat="42.87634" lon="0.03581">
        <ele>1216</ele>
        <time>2013-02-16T09:16:36Z</time>
      </trkpt>
      <trkpt lat="42.87633" lon="0.03582">
        <ele>1217</ele>
        <time>2013-02-16T09:16:55Z</time>
      </trkpt>
      <trkpt lat="42.87634" lon="0.03581">
        <ele>1219</ele>
        <time>2013-02-16T09:17:40Z</time>
      </trkpt>
      <trkpt lat="42.87634" lon="0.03582">
        <ele>1220</ele>
        <time>2013-02-16T09:17:46Z</time>
      </trkpt>
      <trkpt lat="42.87634" lon="0.03581">
        <ele>1221</ele>
        <time>2013-02-16T09:17:50Z</time>
      </trkpt>
      <trkpt lat="42.87634" lon="0.03582">
        <ele>1221</ele>
        <time>2013-02-16T09:18:07Z</time>
      </trkpt>
      <trkpt lat="42.87634" lon="0.03584">
        <ele>1221</ele>
        <time>2013-02-16T09:18:13Z</time>
      </trkpt>
      <trkpt lat="42.87634" lon="0.03586">
        <ele>1221</ele>
        <time>2013-02-16T09:18:15Z</time>
      </trkpt>
      <trkpt lat="42.87634" lon="0.03587">
        <ele>1221</ele>
        <time>2013-02-16T09:18:17Z</time>
      </trkpt>
      <trkpt lat="42.87634" lon="0.0359">
        <ele>1221</ele>
        <time>2013-02-16T09:18:19Z</time>
      </trkpt>
      <trkpt lat="42.87634" lon="0.03592">
        <ele>1221</ele>
        <time>2013-02-16T09:18:21Z</time>
      </trkpt>
      <trkpt lat="42.87634" lon="0.03593">
        <ele>1221</ele>
        <time>2013-02-16T09:18:23Z</time>
      </trkpt>
      <trkpt lat="42.87634" lon="0.03595">
        <ele>1221</ele>
        <time>2013-02-16T09:18:25Z</time>
      </trkpt>
      <trkpt lat="42.87634" lon="0.03597">
        <ele>1221</ele>
        <time>2013-02-16T09:18:27Z</time>
      </trkpt>
      <trkpt lat="42.87634" lon="0.03599">
        <ele>1221</ele>
        <time>2013-02-16T09:18:29Z</time>
      </trkpt>
      <trkpt lat="42.87634" lon="0.03601">
        <ele>1221</ele>
        <time>2013-02-16T09:18:31Z</time>
      </trkpt>
      <trkpt lat="42.87633" lon="0.03602">
        <ele>1221</ele>
        <time>2013-02-16T09:18:33Z</time>
      </trkpt>
      <trkpt lat="42.87633" lon="0.03604">
        <ele>1221</ele>
        <time>2013-02-16T09:18:35Z</time>
      </trkpt>
      <trkpt lat="42.87632" lon="0.03606">
        <ele>1221</ele>
        <time>2013-02-16T09:18:37Z</time>
      </trkpt>
      <trkpt lat="42.87632" lon="0.03608">
        <ele>1221</ele>
        <time>2013-02-16T09:18:39Z</time>
      </trkpt>
      <trkpt lat="42.87632" lon="0.0361">
        <ele>1221</ele>
        <time>2013-02-16T09:18:41Z</time>
      </trkpt>
      <trkpt lat="42.87632" lon="0.03612">
        <ele>1222</ele>
        <time>2013-02-16T09:18:43Z</time>
      </trkpt>
      <trkpt lat="42.87631" lon="0.03614">
        <ele>1222</ele>
        <time>2013-02-16T09:18:45Z</time>
      </trkpt>
      <trkpt lat="42.8763" lon="0.03616">
        <ele>1223</ele>
        <time>2013-02-16T09:18:47Z</time>
      </trkpt>
      <trkpt lat="42.8763" lon="0.03617">
        <ele>1224</ele>
        <time>2013-02-16T09:18:49Z</time>
      </trkpt>
      <trkpt lat="42.87629" lon="0.03617">
        <ele>1224</ele>
        <time>2013-02-16T09:18:51Z</time>
      </trkpt>
      <trkpt lat="42.87627" lon="0.03617">
        <ele>1225</ele>
        <time>2013-02-16T09:18:53Z</time>
      </trkpt>
      <trkpt lat="42.87626" lon="0.03616">
        <ele>1226</ele>
        <time>2013-02-16T09:18:56Z</time>
      </trkpt>
      <trkpt lat="42.87624" lon="0.03614">
        <ele>1226</ele>
        <time>2013-02-16T09:18:59Z</time>
      </trkpt>
      <trkpt lat="42.87623" lon="0.03612">
        <ele>1227</ele>
        <time>2013-02-16T09:19:02Z</time>
      </trkpt>
      <trkpt lat="42.87622" lon="0.03611">
        <ele>1227</ele>
        <time>2013-02-16T09:19:04Z</time>
      </trkpt>
      <trkpt lat="42.87621" lon="0.0361">
        <ele>1227</ele>
        <time>2013-02-16T09:19:06Z</time>
      </trkpt>
      <trkpt lat="42.8762" lon="0.03608">
        <ele>1227</ele>
        <time>2013-02-16T09:19:08Z</time>
      </trkpt>
      <trkpt lat="42.87619" lon="0.03606">
        <ele>1227</ele>
        <time>2013-02-16T09:19:10Z</time>
      </trkpt>
      <trkpt lat="42.87618" lon="0.03604">
        <ele>1228</ele>
        <time>2013-02-16T09:19:13Z</time>
      </trkpt>
      <trkpt lat="42.87616" lon="0.03602">
        <ele>1228</ele>
        <time>2013-02-16T09:19:15Z</time>
      </trkpt>
      <trkpt lat="42.87615" lon="0.036">
        <ele>1229</ele>
        <time>2013-02-16T09:19:18Z</time>
      </trkpt>
      <trkpt lat="42.87613" lon="0.03598">
        <ele>1229</ele>
        <time>2013-02-16T09:19:20Z</time>
      </trkpt>
      <trkpt lat="42.87612" lon="0.03596">
        <ele>1230</ele>
        <time>2013-02-16T09:19:22Z</time>
      </trkpt>
      <trkpt lat="42.8761" lon="0.03595">
        <ele>1231</ele>
        <time>2013-02-16T09:19:25Z</time>
      </trkpt>
      <trkpt lat="42.87608" lon="0.03593">
        <ele>1231</ele>
        <time>2013-02-16T09:19:28Z</time>
      </trkpt>
      <trkpt lat="42.87607" lon="0.03591">
        <ele>1232</ele>
        <time>2013-02-16T09:19:31Z</time>
      </trkpt>
      <trkpt lat="42.87605" lon="0.03591">
        <ele>1233</ele>
        <time>2013-02-16T09:19:34Z</time>
      </trkpt>
      <trkpt lat="42.87604" lon="0.03591">
        <ele>1233</ele>
        <time>2013-02-16T09:19:37Z</time>
      </trkpt>
      <trkpt lat="42.87603" lon="0.03593">
        <ele>1233</ele>
        <time>2013-02-16T09:19:40Z</time>
      </trkpt>
      <trkpt lat="42.87603" lon="0.03594">
        <ele>1233</ele>
        <time>2013-02-16T09:19:42Z</time>
      </trkpt>
      <trkpt lat="42.87602" lon="0.03596">
        <ele>1233</ele>
        <time>2013-02-16T09:19:45Z</time>
      </trkpt>
      <trkpt lat="42.87601" lon="0.03598">
        <ele>1234</ele>
        <time>2013-02-16T09:19:47Z</time>
      </trkpt>
      <trkpt lat="42.87601" lon="0.03599">
        <ele>1234</ele>
        <time>2013-02-16T09:19:50Z</time>
      </trkpt>
      <trkpt lat="42.876" lon="0.03602">
        <ele>1235</ele>
        <time>2013-02-16T09:19:53Z</time>
      </trkpt>
      <trkpt lat="42.876" lon="0.03604">
        <ele>1235</ele>
        <time>2013-02-16T09:19:56Z</time>
      </trkpt>
      <trkpt lat="42.87599" lon="0.03606">
        <ele>1236</ele>
        <time>2013-02-16T09:19:59Z</time>
      </trkpt>
      <trkpt lat="42.87599" lon="0.03607">
        <ele>1236</ele>
        <time>2013-02-16T09:20:01Z</time>
      </trkpt>
      <trkpt lat="42.87598" lon="0.03609">
        <ele>1236</ele>
        <time>2013-02-16T09:20:03Z</time>
      </trkpt>
      <trkpt lat="42.87598" lon="0.0361">
        <ele>1237</ele>
        <time>2013-02-16T09:20:05Z</time>
      </trkpt>
      <trkpt lat="42.87597" lon="0.03612">
        <ele>1237</ele>
        <time>2013-02-16T09:20:08Z</time>
      </trkpt>
      <trkpt lat="42.87596" lon="0.03614">
        <ele>1238</ele>
        <time>2013-02-16T09:20:10Z</time>
      </trkpt>
      <trkpt lat="42.87595" lon="0.03616">
        <ele>1239</ele>
        <time>2013-02-16T09:20:13Z</time>
      </trkpt>
      <trkpt lat="42.87595" lon="0.03617">
        <ele>1239</ele>
        <time>2013-02-16T09:20:15Z</time>
      </trkpt>
      <trkpt lat="42.87595" lon="0.03619">
        <ele>1240</ele>
        <time>2013-02-16T09:20:17Z</time>
      </trkpt>
      <trkpt lat="42.87594" lon="0.03621">
        <ele>1240</ele>
        <time>2013-02-16T09:20:20Z</time>
      </trkpt>
      <trkpt lat="42.87593" lon="0.03622">
        <ele>1241</ele>
        <time>2013-02-16T09:20:22Z</time>
      </trkpt>
      <trkpt lat="42.87592" lon="0.03624">
        <ele>1242</ele>
        <time>2013-02-16T09:20:25Z</time>
      </trkpt>
      <trkpt lat="42.87591" lon="0.03625">
        <ele>1244</ele>
        <time>2013-02-16T09:20:48Z</time>
      </trkpt>
      <trkpt lat="42.8759" lon="0.03627">
        <ele>1244</ele>
        <time>2013-02-16T09:20:51Z</time>
      </trkpt>
      <trkpt lat="42.8759" lon="0.03629">
        <ele>1244</ele>
        <time>2013-02-16T09:20:53Z</time>
      </trkpt>
      <trkpt lat="42.87589" lon="0.0363">
        <ele>1245</ele>
        <time>2013-02-16T09:20:56Z</time>
      </trkpt>
      <trkpt lat="42.87588" lon="0.03632">
        <ele>1245</ele>
        <time>2013-02-16T09:20:59Z</time>
      </trkpt>
      <trkpt lat="42.87587" lon="0.03634">
        <ele>1246</ele>
        <time>2013-02-16T09:21:02Z</time>
      </trkpt>
      <trkpt lat="42.87586" lon="0.03634">
        <ele>1246</ele>
        <time>2013-02-16T09:21:07Z</time>
      </trkpt>
      <trkpt lat="42.87585" lon="0.03632">
        <ele>1247</ele>
        <time>2013-02-16T09:21:11Z</time>
      </trkpt>
      <trkpt lat="42.87584" lon="0.0363">
        <ele>1247</ele>
        <time>2013-02-16T09:21:15Z</time>
      </trkpt>
      <trkpt lat="42.87583" lon="0.03629">
        <ele>1247</ele>
        <time>2013-02-16T09:21:18Z</time>
      </trkpt>
      <trkpt lat="42.87582" lon="0.03627">
        <ele>1248</ele>
        <time>2013-02-16T09:21:21Z</time>
      </trkpt>
      <trkpt lat="42.87582" lon="0.03625">
        <ele>1248</ele>
        <time>2013-02-16T09:21:23Z</time>
      </trkpt>
      <trkpt lat="42.8758" lon="0.03624">
        <ele>1249</ele>
        <time>2013-02-16T09:21:26Z</time>
      </trkpt>
      <trkpt lat="42.8758" lon="0.03622">
        <ele>1250</ele>
        <time>2013-02-16T09:21:28Z</time>
      </trkpt>
      <trkpt lat="42.87579" lon="0.03621">
        <ele>1250</ele>
        <time>2013-02-16T09:21:30Z</time>
      </trkpt>
      <trkpt lat="42.87578" lon="0.03619">
        <ele>1251</ele>
        <time>2013-02-16T09:21:32Z</time>
      </trkpt>
      <trkpt lat="42.87577" lon="0.03618">
        <ele>1252</ele>
        <time>2013-02-16T09:21:35Z</time>
      </trkpt>
      <trkpt lat="42.87576" lon="0.03616">
        <ele>1252</ele>
        <time>2013-02-16T09:21:38Z</time>
      </trkpt>
      <trkpt lat="42.87575" lon="0.03615">
        <ele>1253</ele>
        <time>2013-02-16T09:21:41Z</time>
      </trkpt>
      <trkpt lat="42.87574" lon="0.03613">
        <ele>1253</ele>
        <time>2013-02-16T09:21:45Z</time>
      </trkpt>
      <trkpt lat="42.87573" lon="0.03611">
        <ele>1253</ele>
        <time>2013-02-16T09:21:48Z</time>
      </trkpt>
      <trkpt lat="42.87572" lon="0.0361">
        <ele>1254</ele>
        <time>2013-02-16T09:21:51Z</time>
      </trkpt>
      <trkpt lat="42.87571" lon="0.03608">
        <ele>1254</ele>
        <time>2013-02-16T09:21:54Z</time>
      </trkpt>
      <trkpt lat="42.87569" lon="0.03607">
        <ele>1254</ele>
        <time>2013-02-16T09:21:57Z</time>
      </trkpt>
      <trkpt lat="42.87568" lon="0.03605">
        <ele>1254</ele>
        <time>2013-02-16T09:22:00Z</time>
      </trkpt>
      <trkpt lat="42.87567" lon="0.03604">
        <ele>1255</ele>
        <time>2013-02-16T09:22:04Z</time>
      </trkpt>
      <trkpt lat="42.87566" lon="0.03602">
        <ele>1255</ele>
        <time>2013-02-16T09:22:07Z</time>
      </trkpt>
      <trkpt lat="42.87566" lon="0.03604">
        <ele>1256</ele>
        <time>2013-02-16T09:22:16Z</time>
      </trkpt>
      <trkpt lat="42.87565" lon="0.03604">
        <ele>1256</ele>
        <time>2013-02-16T09:22:40Z</time>
      </trkpt>
      <trkpt lat="42.87564" lon="0.03602">
        <ele>1256</ele>
        <time>2013-02-16T09:22:43Z</time>
      </trkpt>
      <trkpt lat="42.87563" lon="0.036">
        <ele>1256</ele>
        <time>2013-02-16T09:22:45Z</time>
      </trkpt>
      <trkpt lat="42.87562" lon="0.03599">
        <ele>1256</ele>
        <time>2013-02-16T09:22:47Z</time>
      </trkpt>
      <trkpt lat="42.87561" lon="0.03598">
        <ele>1256</ele>
        <time>2013-02-16T09:22:49Z</time>
      </trkpt>
      <trkpt lat="42.8756" lon="0.03597">
        <ele>1256</ele>
        <time>2013-02-16T09:22:52Z</time>
      </trkpt>
      <trkpt lat="42.87558" lon="0.03595">
        <ele>1256</ele>
        <time>2013-02-16T09:22:55Z</time>
      </trkpt>
      <trkpt lat="42.87556" lon="0.03593">
        <ele>1257</ele>
        <time>2013-02-16T09:22:58Z</time>
      </trkpt>
      <trkpt lat="42.87555" lon="0.03593">
        <ele>1257</ele>
        <time>2013-02-16T09:23:01Z</time>
      </trkpt>
      <trkpt lat="42.87555" lon="0.03595">
        <ele>1259</ele>
        <time>2013-02-16T09:23:13Z</time>
      </trkpt>
      <trkpt lat="42.87555" lon="0.03597">
        <ele>1259</ele>
        <time>2013-02-16T09:23:15Z</time>
      </trkpt>
      <trkpt lat="42.87555" lon="0.03598">
        <ele>1259</ele>
        <time>2013-02-16T09:23:17Z</time>
      </trkpt>
      <trkpt lat="42.87554" lon="0.036">
        <ele>1260</ele>
        <time>2013-02-16T09:23:20Z</time>
      </trkpt>
      <trkpt lat="42.87553" lon="0.03602">
        <ele>1260</ele>
        <time>2013-02-16T09:23:23Z</time>
      </trkpt>
      <trkpt lat="42.87553" lon="0.03603">
        <ele>1260</ele>
        <time>2013-02-16T09:23:25Z</time>
      </trkpt>
      <trkpt lat="42.87553" lon="0.03605">
        <ele>1261</ele>
        <time>2013-02-16T09:23:27Z</time>
      </trkpt>
      <trkpt lat="42.87553" lon="0.03607">
        <ele>1261</ele>
        <time>2013-02-16T09:23:29Z</time>
      </trkpt>
      <trkpt lat="42.87553" lon="0.03609">
        <ele>1262</ele>
        <time>2013-02-16T09:23:31Z</time>
      </trkpt>
      <trkpt lat="42.87553" lon="0.03611">
        <ele>1262</ele>
        <time>2013-02-16T09:23:33Z</time>
      </trkpt>
      <trkpt lat="42.87553" lon="0.03613">
        <ele>1262</ele>
        <time>2013-02-16T09:23:35Z</time>
      </trkpt>
      <trkpt lat="42.87552" lon="0.03615">
        <ele>1262</ele>
        <time>2013-02-16T09:23:37Z</time>
      </trkpt>
      <trkpt lat="42.87552" lon="0.03616">
        <ele>1263</ele>
        <time>2013-02-16T09:23:39Z</time>
      </trkpt>
      <trkpt lat="42.87551" lon="0.03618">
        <ele>1263</ele>
        <time>2013-02-16T09:23:42Z</time>
      </trkpt>
      <trkpt lat="42.8755" lon="0.0362">
        <ele>1264</ele>
        <time>2013-02-16T09:23:44Z</time>
      </trkpt>
      <trkpt lat="42.87549" lon="0.03621">
        <ele>1264</ele>
        <time>2013-02-16T09:23:46Z</time>
      </trkpt>
      <trkpt lat="42.87548" lon="0.03622">
        <ele>1265</ele>
        <time>2013-02-16T09:23:49Z</time>
      </trkpt>
      <trkpt lat="42.87547" lon="0.03621">
        <ele>1266</ele>
        <time>2013-02-16T09:23:53Z</time>
      </trkpt>
      <trkpt lat="42.87546" lon="0.0362">
        <ele>1268</ele>
        <time>2013-02-16T09:24:12Z</time>
      </trkpt>
      <trkpt lat="42.87547" lon="0.03622">
        <ele>1268</ele>
        <time>2013-02-16T09:24:24Z</time>
      </trkpt>
      <trkpt lat="42.87548" lon="0.03623">
        <ele>1265</ele>
        <time>2013-02-16T09:24:35Z</time>
      </trkpt>
      <trkpt lat="42.87548" lon="0.03621">
        <ele>1265</ele>
        <time>2013-02-16T09:25:00Z</time>
      </trkpt>
      <trkpt lat="42.87548" lon="0.03623">
        <ele>1265</ele>
        <time>2013-02-16T09:25:03Z</time>
      </trkpt>
      <trkpt lat="42.87547" lon="0.03621">
        <ele>1265</ele>
        <time>2013-02-16T09:25:09Z</time>
      </trkpt>
      <trkpt lat="42.87548" lon="0.03623">
        <ele>1263</ele>
        <time>2013-02-16T09:25:18Z</time>
      </trkpt>
      <trkpt lat="42.87549" lon="0.03624">
        <ele>1261</ele>
        <time>2013-02-16T09:25:33Z</time>
      </trkpt>
      <trkpt lat="42.87548" lon="0.03624">
        <ele>1261</ele>
        <time>2013-02-16T09:25:57Z</time>
      </trkpt>
      <trkpt lat="42.87546" lon="0.03623">
        <ele>1261</ele>
        <time>2013-02-16T09:25:59Z</time>
      </trkpt>
      <trkpt lat="42.87545" lon="0.03622">
        <ele>1261</ele>
        <time>2013-02-16T09:26:01Z</time>
      </trkpt>
      <trkpt lat="42.87543" lon="0.0362">
        <ele>1262</ele>
        <time>2013-02-16T09:26:04Z</time>
      </trkpt>
      <trkpt lat="42.87542" lon="0.03619">
        <ele>1262</ele>
        <time>2013-02-16T09:26:06Z</time>
      </trkpt>
      <trkpt lat="42.87541" lon="0.03618">
        <ele>1263</ele>
        <time>2013-02-16T09:26:09Z</time>
      </trkpt>
      <trkpt lat="42.87539" lon="0.03617">
        <ele>1263</ele>
        <time>2013-02-16T09:26:11Z</time>
      </trkpt>
      <trkpt lat="42.87538" lon="0.03616">
        <ele>1264</ele>
        <time>2013-02-16T09:26:13Z</time>
      </trkpt>
      <trkpt lat="42.87537" lon="0.03615">
        <ele>1265</ele>
        <time>2013-02-16T09:26:15Z</time>
      </trkpt>
      <trkpt lat="42.87535" lon="0.03613">
        <ele>1265</ele>
        <time>2013-02-16T09:26:17Z</time>
      </trkpt>
      <trkpt lat="42.87534" lon="0.03613">
        <ele>1266</ele>
        <time>2013-02-16T09:26:19Z</time>
      </trkpt>
      <trkpt lat="42.87533" lon="0.03612">
        <ele>1267</ele>
        <time>2013-02-16T09:26:21Z</time>
      </trkpt>
      <trkpt lat="42.87532" lon="0.03611">
        <ele>1267</ele>
        <time>2013-02-16T09:26:23Z</time>
      </trkpt>
      <trkpt lat="42.87531" lon="0.0361">
        <ele>1267</ele>
        <time>2013-02-16T09:26:26Z</time>
      </trkpt>
      <trkpt lat="42.87529" lon="0.0361">
        <ele>1267</ele>
        <time>2013-02-16T09:26:29Z</time>
      </trkpt>
      <trkpt lat="42.87527" lon="0.03609">
        <ele>1268</ele>
        <time>2013-02-16T09:26:32Z</time>
      </trkpt>
      <trkpt lat="42.87526" lon="0.03607">
        <ele>1268</ele>
        <time>2013-02-16T09:26:34Z</time>
      </trkpt>
      <trkpt lat="42.87525" lon="0.03607">
        <ele>1268</ele>
        <time>2013-02-16T09:26:36Z</time>
      </trkpt>
      <trkpt lat="42.87523" lon="0.03605">
        <ele>1268</ele>
        <time>2013-02-16T09:26:39Z</time>
      </trkpt>
      <trkpt lat="42.87522" lon="0.03604">
        <ele>1269</ele>
        <time>2013-02-16T09:26:42Z</time>
      </trkpt>
      <trkpt lat="42.8752" lon="0.03604">
        <ele>1269</ele>
        <time>2013-02-16T09:26:44Z</time>
      </trkpt>
      <trkpt lat="42.8752" lon="0.03605">
        <ele>1269</ele>
        <time>2013-02-16T09:26:47Z</time>
      </trkpt>
      <trkpt lat="42.87519" lon="0.03607">
        <ele>1269</ele>
        <time>2013-02-16T09:26:50Z</time>
      </trkpt>
      <trkpt lat="42.87519" lon="0.03609">
        <ele>1269</ele>
        <time>2013-02-16T09:26:52Z</time>
      </trkpt>
      <trkpt lat="42.87518" lon="0.0361">
        <ele>1269</ele>
        <time>2013-02-16T09:26:54Z</time>
      </trkpt>
      <trkpt lat="42.87518" lon="0.03612">
        <ele>1269</ele>
        <time>2013-02-16T09:26:56Z</time>
      </trkpt>
      <trkpt lat="42.87517" lon="0.03614">
        <ele>1269</ele>
        <time>2013-02-16T09:26:58Z</time>
      </trkpt>
      <trkpt lat="42.87517" lon="0.03616">
        <ele>1270</ele>
        <time>2013-02-16T09:27:00Z</time>
      </trkpt>
      <trkpt lat="42.87516" lon="0.03618">
        <ele>1270</ele>
        <time>2013-02-16T09:27:02Z</time>
      </trkpt>
      <trkpt lat="42.87516" lon="0.03619">
        <ele>1270</ele>
        <time>2013-02-16T09:27:04Z</time>
      </trkpt>
      <trkpt lat="42.87516" lon="0.03621">
        <ele>1270</ele>
        <time>2013-02-16T09:27:06Z</time>
      </trkpt>
      <trkpt lat="42.87515" lon="0.03623">
        <ele>1271</ele>
        <time>2013-02-16T09:27:08Z</time>
      </trkpt>
      <trkpt lat="42.87514" lon="0.03625">
        <ele>1271</ele>
        <time>2013-02-16T09:27:10Z</time>
      </trkpt>
      <trkpt lat="42.87514" lon="0.03626">
        <ele>1271</ele>
        <time>2013-02-16T09:27:12Z</time>
      </trkpt>
      <trkpt lat="42.87513" lon="0.03628">
        <ele>1272</ele>
        <time>2013-02-16T09:27:15Z</time>
      </trkpt>
      <trkpt lat="42.87512" lon="0.0363">
        <ele>1272</ele>
        <time>2013-02-16T09:27:17Z</time>
      </trkpt>
      <trkpt lat="42.87511" lon="0.03631">
        <ele>1272</ele>
        <time>2013-02-16T09:27:19Z</time>
      </trkpt>
      <trkpt lat="42.87509" lon="0.03633">
        <ele>1273</ele>
        <time>2013-02-16T09:27:22Z</time>
      </trkpt>
      <trkpt lat="42.87508" lon="0.03635">
        <ele>1273</ele>
        <time>2013-02-16T09:27:25Z</time>
      </trkpt>
      <trkpt lat="42.87507" lon="0.03636">
        <ele>1273</ele>
        <time>2013-02-16T09:27:27Z</time>
      </trkpt>
      <trkpt lat="42.87506" lon="0.03638">
        <ele>1274</ele>
        <time>2013-02-16T09:27:30Z</time>
      </trkpt>
      <trkpt lat="42.87504" lon="0.0364">
        <ele>1274</ele>
        <time>2013-02-16T09:27:33Z</time>
      </trkpt>
      <trkpt lat="42.87503" lon="0.03641">
        <ele>1275</ele>
        <time>2013-02-16T09:27:36Z</time>
      </trkpt>
      <trkpt lat="42.87501" lon="0.03643">
        <ele>1275</ele>
        <time>2013-02-16T09:27:39Z</time>
      </trkpt>
      <trkpt lat="42.875" lon="0.03644">
        <ele>1276</ele>
        <time>2013-02-16T09:27:42Z</time>
      </trkpt>
      <trkpt lat="42.87498" lon="0.03644">
        <ele>1277</ele>
        <time>2013-02-16T09:27:45Z</time>
      </trkpt>
      <trkpt lat="42.87497" lon="0.03642">
        <ele>1277</ele>
        <time>2013-02-16T09:27:49Z</time>
      </trkpt>
      <trkpt lat="42.87496" lon="0.0364">
        <ele>1278</ele>
        <time>2013-02-16T09:27:52Z</time>
      </trkpt>
      <trkpt lat="42.87495" lon="0.03638">
        <ele>1278</ele>
        <time>2013-02-16T09:27:54Z</time>
      </trkpt>
      <trkpt lat="42.87495" lon="0.03636">
        <ele>1279</ele>
        <time>2013-02-16T09:27:56Z</time>
      </trkpt>
      <trkpt lat="42.87494" lon="0.03635">
        <ele>1280</ele>
        <time>2013-02-16T09:27:59Z</time>
      </trkpt>
      <trkpt lat="42.87493" lon="0.03633">
        <ele>1280</ele>
        <time>2013-02-16T09:28:01Z</time>
      </trkpt>
      <trkpt lat="42.87492" lon="0.03632">
        <ele>1281</ele>
        <time>2013-02-16T09:28:04Z</time>
      </trkpt>
      <trkpt lat="42.87491" lon="0.0363">
        <ele>1281</ele>
        <time>2013-02-16T09:28:06Z</time>
      </trkpt>
      <trkpt lat="42.8749" lon="0.03628">
        <ele>1282</ele>
        <time>2013-02-16T09:28:09Z</time>
      </trkpt>
      <trkpt lat="42.87489" lon="0.03626">
        <ele>1282</ele>
        <time>2013-02-16T09:28:12Z</time>
      </trkpt>
      <trkpt lat="42.87488" lon="0.03625">
        <ele>1282</ele>
        <time>2013-02-16T09:28:15Z</time>
      </trkpt>
      <trkpt lat="42.87487" lon="0.03623">
        <ele>1283</ele>
        <time>2013-02-16T09:28:18Z</time>
      </trkpt>
      <trkpt lat="42.87486" lon="0.03621">
        <ele>1283</ele>
        <time>2013-02-16T09:28:21Z</time>
      </trkpt>
      <trkpt lat="42.87484" lon="0.03619">
        <ele>1284</ele>
        <time>2013-02-16T09:28:23Z</time>
      </trkpt>
      <trkpt lat="42.87483" lon="0.03617">
        <ele>1285</ele>
        <time>2013-02-16T09:28:26Z</time>
      </trkpt>
      <trkpt lat="42.87482" lon="0.03616">
        <ele>1285</ele>
        <time>2013-02-16T09:28:29Z</time>
      </trkpt>
      <trkpt lat="42.87481" lon="0.03615">
        <ele>1285</ele>
        <time>2013-02-16T09:28:33Z</time>
      </trkpt>
      <trkpt lat="42.87479" lon="0.03613">
        <ele>1285</ele>
        <time>2013-02-16T09:28:36Z</time>
      </trkpt>
      <trkpt lat="42.87479" lon="0.03612">
        <ele>1285</ele>
        <time>2013-02-16T09:28:38Z</time>
      </trkpt>
      <trkpt lat="42.87477" lon="0.03611">
        <ele>1285</ele>
        <time>2013-02-16T09:28:41Z</time>
      </trkpt>
      <trkpt lat="42.87476" lon="0.0361">
        <ele>1286</ele>
        <time>2013-02-16T09:28:44Z</time>
      </trkpt>
      <trkpt lat="42.87474" lon="0.03609">
        <ele>1286</ele>
        <time>2013-02-16T09:28:47Z</time>
      </trkpt>
      <trkpt lat="42.87473" lon="0.03608">
        <ele>1286</ele>
        <time>2013-02-16T09:28:50Z</time>
      </trkpt>
      <trkpt lat="42.87472" lon="0.03608">
        <ele>1286</ele>
        <time>2013-02-16T09:28:52Z</time>
      </trkpt>
      <trkpt lat="42.87471" lon="0.0361">
        <ele>1287</ele>
        <time>2013-02-16T09:28:56Z</time>
      </trkpt>
      <trkpt lat="42.87471" lon="0.03611">
        <ele>1289</ele>
        <time>2013-02-16T09:29:36Z</time>
      </trkpt>
      <trkpt lat="42.8747" lon="0.03613">
        <ele>1289</ele>
        <time>2013-02-16T09:29:39Z</time>
      </trkpt>
      <trkpt lat="42.87469" lon="0.03615">
        <ele>1289</ele>
        <time>2013-02-16T09:29:41Z</time>
      </trkpt>
      <trkpt lat="42.87469" lon="0.03617">
        <ele>1289</ele>
        <time>2013-02-16T09:29:43Z</time>
      </trkpt>
      <trkpt lat="42.87468" lon="0.03618">
        <ele>1290</ele>
        <time>2013-02-16T09:29:45Z</time>
      </trkpt>
      <trkpt lat="42.87468" lon="0.0362">
        <ele>1290</ele>
        <time>2013-02-16T09:29:47Z</time>
      </trkpt>
      <trkpt lat="42.87467" lon="0.03621">
        <ele>1291</ele>
        <time>2013-02-16T09:29:49Z</time>
      </trkpt>
      <trkpt lat="42.87467" lon="0.03623">
        <ele>1291</ele>
        <time>2013-02-16T09:29:51Z</time>
      </trkpt>
      <trkpt lat="42.87466" lon="0.03624">
        <ele>1291</ele>
        <time>2013-02-16T09:29:53Z</time>
      </trkpt>
      <trkpt lat="42.87466" lon="0.03626">
        <ele>1292</ele>
        <time>2013-02-16T09:29:55Z</time>
      </trkpt>
      <trkpt lat="42.87465" lon="0.03627">
        <ele>1292</ele>
        <time>2013-02-16T09:29:57Z</time>
      </trkpt>
      <trkpt lat="42.87464" lon="0.03629">
        <ele>1292</ele>
        <time>2013-02-16T09:29:59Z</time>
      </trkpt>
      <trkpt lat="42.87463" lon="0.03631">
        <ele>1292</ele>
        <time>2013-02-16T09:30:02Z</time>
      </trkpt>
      <trkpt lat="42.87463" lon="0.03633">
        <ele>1293</ele>
        <time>2013-02-16T09:30:04Z</time>
      </trkpt>
      <trkpt lat="42.87462" lon="0.03635">
        <ele>1293</ele>
        <time>2013-02-16T09:30:06Z</time>
      </trkpt>
      <trkpt lat="42.87461" lon="0.03636">
        <ele>1293</ele>
        <time>2013-02-16T09:30:08Z</time>
      </trkpt>
      <trkpt lat="42.8746" lon="0.03638">
        <ele>1293</ele>
        <time>2013-02-16T09:30:10Z</time>
      </trkpt>
      <trkpt lat="42.87459" lon="0.03639">
        <ele>1294</ele>
        <time>2013-02-16T09:30:12Z</time>
      </trkpt>
      <trkpt lat="42.87458" lon="0.03641">
        <ele>1294</ele>
        <time>2013-02-16T09:30:14Z</time>
      </trkpt>
      <trkpt lat="42.87458" lon="0.03642">
        <ele>1295</ele>
        <time>2013-02-16T09:30:16Z</time>
      </trkpt>
      <trkpt lat="42.87456" lon="0.03642">
        <ele>1295</ele>
        <time>2013-02-16T09:30:18Z</time>
      </trkpt>
      <trkpt lat="42.87455" lon="0.03641">
        <ele>1295</ele>
        <time>2013-02-16T09:30:21Z</time>
      </trkpt>
      <trkpt lat="42.87454" lon="0.0364">
        <ele>1296</ele>
        <time>2013-02-16T09:30:24Z</time>
      </trkpt>
      <trkpt lat="42.87452" lon="0.03638">
        <ele>1296</ele>
        <time>2013-02-16T09:30:27Z</time>
      </trkpt>
      <trkpt lat="42.87451" lon="0.03637">
        <ele>1297</ele>
        <time>2013-02-16T09:30:30Z</time>
      </trkpt>
      <trkpt lat="42.8745" lon="0.03636">
        <ele>1297</ele>
        <time>2013-02-16T09:30:33Z</time>
      </trkpt>
      <trkpt lat="42.87449" lon="0.03634">
        <ele>1297</ele>
        <time>2013-02-16T09:30:35Z</time>
      </trkpt>
      <trkpt lat="42.87447" lon="0.03633">
        <ele>1298</ele>
        <time>2013-02-16T09:30:38Z</time>
      </trkpt>
      <trkpt lat="42.87446" lon="0.0363">
        <ele>1299</ele>
        <time>2013-02-16T09:30:41Z</time>
      </trkpt>
      <trkpt lat="42.87445" lon="0.03629">
        <ele>1299</ele>
        <time>2013-02-16T09:30:44Z</time>
      </trkpt>
      <trkpt lat="42.87444" lon="0.03627">
        <ele>1300</ele>
        <time>2013-02-16T09:30:47Z</time>
      </trkpt>
      <trkpt lat="42.87443" lon="0.03625">
        <ele>1300</ele>
        <time>2013-02-16T09:30:50Z</time>
      </trkpt>
      <trkpt lat="42.87442" lon="0.03624">
        <ele>1300</ele>
        <time>2013-02-16T09:30:53Z</time>
      </trkpt>
      <trkpt lat="42.8744" lon="0.03622">
        <ele>1301</ele>
        <time>2013-02-16T09:30:56Z</time>
      </trkpt>
      <trkpt lat="42.87439" lon="0.0362">
        <ele>1301</ele>
        <time>2013-02-16T09:30:59Z</time>
      </trkpt>
      <trkpt lat="42.87438" lon="0.03618">
        <ele>1301</ele>
        <time>2013-02-16T09:31:03Z</time>
      </trkpt>
      <trkpt lat="42.87437" lon="0.03617">
        <ele>1302</ele>
        <time>2013-02-16T09:31:06Z</time>
      </trkpt>
      <trkpt lat="42.87435" lon="0.03617">
        <ele>1302</ele>
        <time>2013-02-16T09:31:29Z</time>
      </trkpt>
      <trkpt lat="42.87435" lon="0.03619">
        <ele>1302</ele>
        <time>2013-02-16T09:31:31Z</time>
      </trkpt>
      <trkpt lat="42.87435" lon="0.0362">
        <ele>1302</ele>
        <time>2013-02-16T09:31:33Z</time>
      </trkpt>
      <trkpt lat="42.87434" lon="0.03622">
        <ele>1302</ele>
        <time>2013-02-16T09:31:35Z</time>
      </trkpt>
      <trkpt lat="42.87433" lon="0.03623">
        <ele>1302</ele>
        <time>2013-02-16T09:31:38Z</time>
      </trkpt>
      <trkpt lat="42.87432" lon="0.03625">
        <ele>1303</ele>
        <time>2013-02-16T09:31:40Z</time>
      </trkpt>
      <trkpt lat="42.87432" lon="0.03626">
        <ele>1303</ele>
        <time>2013-02-16T09:31:43Z</time>
      </trkpt>
      <trkpt lat="42.87431" lon="0.03628">
        <ele>1304</ele>
        <time>2013-02-16T09:31:46Z</time>
      </trkpt>
      <trkpt lat="42.8743" lon="0.0363">
        <ele>1305</ele>
        <time>2013-02-16T09:31:49Z</time>
      </trkpt>
      <trkpt lat="42.87429" lon="0.03631">
        <ele>1305</ele>
        <time>2013-02-16T09:31:51Z</time>
      </trkpt>
      <trkpt lat="42.87429" lon="0.03633">
        <ele>1306</ele>
        <time>2013-02-16T09:31:53Z</time>
      </trkpt>
      <trkpt lat="42.87428" lon="0.03634">
        <ele>1306</ele>
        <time>2013-02-16T09:31:55Z</time>
      </trkpt>
      <trkpt lat="42.87427" lon="0.03636">
        <ele>1307</ele>
        <time>2013-02-16T09:31:58Z</time>
      </trkpt>
      <trkpt lat="42.87426" lon="0.03638">
        <ele>1308</ele>
        <time>2013-02-16T09:32:01Z</time>
      </trkpt>
      <trkpt lat="42.87425" lon="0.0364">
        <ele>1309</ele>
        <time>2013-02-16T09:32:04Z</time>
      </trkpt>
      <trkpt lat="42.87424" lon="0.03641">
        <ele>1309</ele>
        <time>2013-02-16T09:32:07Z</time>
      </trkpt>
      <trkpt lat="42.87423" lon="0.03644">
        <ele>1310</ele>
        <time>2013-02-16T09:32:10Z</time>
      </trkpt>
      <trkpt lat="42.87422" lon="0.03645">
        <ele>1311</ele>
        <time>2013-02-16T09:32:13Z</time>
      </trkpt>
      <trkpt lat="42.87421" lon="0.03647">
        <ele>1312</ele>
        <time>2013-02-16T09:32:16Z</time>
      </trkpt>
      <trkpt lat="42.8742" lon="0.03649">
        <ele>1312</ele>
        <time>2013-02-16T09:32:19Z</time>
      </trkpt>
      <trkpt lat="42.87419" lon="0.03651">
        <ele>1313</ele>
        <time>2013-02-16T09:32:22Z</time>
      </trkpt>
      <trkpt lat="42.87419" lon="0.03652">
        <ele>1313</ele>
        <time>2013-02-16T09:32:24Z</time>
      </trkpt>
      <trkpt lat="42.87418" lon="0.03654">
        <ele>1314</ele>
        <time>2013-02-16T09:32:27Z</time>
      </trkpt>
      <trkpt lat="42.87417" lon="0.03656">
        <ele>1314</ele>
        <time>2013-02-16T09:32:30Z</time>
      </trkpt>
      <trkpt lat="42.87416" lon="0.03658">
        <ele>1315</ele>
        <time>2013-02-16T09:32:33Z</time>
      </trkpt>
      <trkpt lat="42.87415" lon="0.0366">
        <ele>1316</ele>
        <time>2013-02-16T09:32:36Z</time>
      </trkpt>
      <trkpt lat="42.87414" lon="0.03661">
        <ele>1317</ele>
        <time>2013-02-16T09:32:39Z</time>
      </trkpt>
      <trkpt lat="42.87413" lon="0.03663">
        <ele>1317</ele>
        <time>2013-02-16T09:32:42Z</time>
      </trkpt>
      <trkpt lat="42.87411" lon="0.03664">
        <ele>1318</ele>
        <time>2013-02-16T09:32:45Z</time>
      </trkpt>
      <trkpt lat="42.8741" lon="0.03665">
        <ele>1318</ele>
        <time>2013-02-16T09:32:48Z</time>
      </trkpt>
      <trkpt lat="42.87408" lon="0.03664">
        <ele>1319</ele>
        <time>2013-02-16T09:32:52Z</time>
      </trkpt>
      <trkpt lat="42.87407" lon="0.03663">
        <ele>1321</ele>
        <time>2013-02-16T09:33:19Z</time>
      </trkpt>
      <trkpt lat="42.87406" lon="0.03661">
        <ele>1322</ele>
        <time>2013-02-16T09:33:22Z</time>
      </trkpt>
      <trkpt lat="42.87405" lon="0.03659">
        <ele>1322</ele>
        <time>2013-02-16T09:33:24Z</time>
      </trkpt>
      <trkpt lat="42.87404" lon="0.03658">
        <ele>1323</ele>
        <time>2013-02-16T09:33:26Z</time>
      </trkpt>
      <trkpt lat="42.87403" lon="0.03655">
        <ele>1323</ele>
        <time>2013-02-16T09:33:28Z</time>
      </trkpt>
      <trkpt lat="42.87402" lon="0.03653">
        <ele>1324</ele>
        <time>2013-02-16T09:33:31Z</time>
      </trkpt>
      <trkpt lat="42.87401" lon="0.03652">
        <ele>1324</ele>
        <time>2013-02-16T09:33:33Z</time>
      </trkpt>
      <trkpt lat="42.874" lon="0.0365">
        <ele>1325</ele>
        <time>2013-02-16T09:33:36Z</time>
      </trkpt>
      <trkpt lat="42.87399" lon="0.03648">
        <ele>1325</ele>
        <time>2013-02-16T09:33:39Z</time>
      </trkpt>
      <trkpt lat="42.87397" lon="0.03646">
        <ele>1326</ele>
        <time>2013-02-16T09:33:42Z</time>
      </trkpt>
      <trkpt lat="42.87395" lon="0.03644">
        <ele>1326</ele>
        <time>2013-02-16T09:33:45Z</time>
      </trkpt>
      <trkpt lat="42.87394" lon="0.03642">
        <ele>1326</ele>
        <time>2013-02-16T09:33:47Z</time>
      </trkpt>
      <trkpt lat="42.87393" lon="0.03641">
        <ele>1327</ele>
        <time>2013-02-16T09:33:49Z</time>
      </trkpt>
      <trkpt lat="42.87392" lon="0.03639">
        <ele>1327</ele>
        <time>2013-02-16T09:33:52Z</time>
      </trkpt>
      <trkpt lat="42.8739" lon="0.03639">
        <ele>1327</ele>
        <time>2013-02-16T09:33:56Z</time>
      </trkpt>
      <trkpt lat="42.87389" lon="0.03637">
        <ele>1327</ele>
        <time>2013-02-16T09:33:59Z</time>
      </trkpt>
      <trkpt lat="42.87388" lon="0.03637">
        <ele>1327</ele>
        <time>2013-02-16T09:34:02Z</time>
      </trkpt>
      <trkpt lat="42.87386" lon="0.03637">
        <ele>1327</ele>
        <time>2013-02-16T09:34:05Z</time>
      </trkpt>
      <trkpt lat="42.87385" lon="0.03636">
        <ele>1327</ele>
        <time>2013-02-16T09:34:07Z</time>
      </trkpt>
      <trkpt lat="42.87384" lon="0.03636">
        <ele>1327</ele>
        <time>2013-02-16T09:34:09Z</time>
      </trkpt>
      <trkpt lat="42.87383" lon="0.03636">
        <ele>1328</ele>
        <time>2013-02-16T09:34:12Z</time>
      </trkpt>
      <trkpt lat="42.87381" lon="0.03636">
        <ele>1328</ele>
        <time>2013-02-16T09:34:15Z</time>
      </trkpt>
      <trkpt lat="42.87379" lon="0.03636">
        <ele>1329</ele>
        <time>2013-02-16T09:34:18Z</time>
      </trkpt>
      <trkpt lat="42.87379" lon="0.03638">
        <ele>1329</ele>
        <time>2013-02-16T09:34:20Z</time>
      </trkpt>
      <trkpt lat="42.87377" lon="0.03638">
        <ele>1332</ele>
        <time>2013-02-16T09:34:57Z</time>
      </trkpt>
      <trkpt lat="42.87376" lon="0.03638">
        <ele>1332</ele>
        <time>2013-02-16T09:35:00Z</time>
      </trkpt>
      <trkpt lat="42.87374" lon="0.03639">
        <ele>1333</ele>
        <time>2013-02-16T09:35:02Z</time>
      </trkpt>
      <trkpt lat="42.87374" lon="0.0364">
        <ele>1333</ele>
        <time>2013-02-16T09:35:04Z</time>
      </trkpt>
      <trkpt lat="42.87374" lon="0.03642">
        <ele>1333</ele>
        <time>2013-02-16T09:35:06Z</time>
      </trkpt>
      <trkpt lat="42.87373" lon="0.03644">
        <ele>1334</ele>
        <time>2013-02-16T09:35:08Z</time>
      </trkpt>
      <trkpt lat="42.87373" lon="0.03645">
        <ele>1334</ele>
        <time>2013-02-16T09:35:10Z</time>
      </trkpt>
      <trkpt lat="42.87372" lon="0.03647">
        <ele>1335</ele>
        <time>2013-02-16T09:35:12Z</time>
      </trkpt>
      <trkpt lat="42.87371" lon="0.03648">
        <ele>1335</ele>
        <time>2013-02-16T09:35:14Z</time>
      </trkpt>
      <trkpt lat="42.8737" lon="0.0365">
        <ele>1335</ele>
        <time>2013-02-16T09:35:17Z</time>
      </trkpt>
      <trkpt lat="42.87369" lon="0.03652">
        <ele>1336</ele>
        <time>2013-02-16T09:35:22Z</time>
      </trkpt>
      <trkpt lat="42.87369" lon="0.03654">
        <ele>1336</ele>
        <time>2013-02-16T09:35:24Z</time>
      </trkpt>
      <trkpt lat="42.87368" lon="0.03656">
        <ele>1336</ele>
        <time>2013-02-16T09:35:26Z</time>
      </trkpt>
      <trkpt lat="42.87368" lon="0.03658">
        <ele>1336</ele>
        <time>2013-02-16T09:35:28Z</time>
      </trkpt>
      <trkpt lat="42.87368" lon="0.03659">
        <ele>1337</ele>
        <time>2013-02-16T09:35:30Z</time>
      </trkpt>
      <trkpt lat="42.87367" lon="0.03661">
        <ele>1337</ele>
        <time>2013-02-16T09:35:32Z</time>
      </trkpt>
      <trkpt lat="42.87366" lon="0.03663">
        <ele>1338</ele>
        <time>2013-02-16T09:35:34Z</time>
      </trkpt>
      <trkpt lat="42.87365" lon="0.03665">
        <ele>1338</ele>
        <time>2013-02-16T09:35:37Z</time>
      </trkpt>
      <trkpt lat="42.87365" lon="0.03667">
        <ele>1339</ele>
        <time>2013-02-16T09:35:39Z</time>
      </trkpt>
      <trkpt lat="42.87364" lon="0.03669">
        <ele>1339</ele>
        <time>2013-02-16T09:35:41Z</time>
      </trkpt>
      <trkpt lat="42.87364" lon="0.0367">
        <ele>1339</ele>
        <time>2013-02-16T09:35:43Z</time>
      </trkpt>
      <trkpt lat="42.87363" lon="0.03672">
        <ele>1339</ele>
        <time>2013-02-16T09:35:45Z</time>
      </trkpt>
      <trkpt lat="42.87363" lon="0.03673">
        <ele>1340</ele>
        <time>2013-02-16T09:35:47Z</time>
      </trkpt>
      <trkpt lat="42.87362" lon="0.03675">
        <ele>1340</ele>
        <time>2013-02-16T09:35:49Z</time>
      </trkpt>
      <trkpt lat="42.87361" lon="0.03676">
        <ele>1340</ele>
        <time>2013-02-16T09:35:51Z</time>
      </trkpt>
      <trkpt lat="42.87361" lon="0.03678">
        <ele>1341</ele>
        <time>2013-02-16T09:35:53Z</time>
      </trkpt>
      <trkpt lat="42.8736" lon="0.0368">
        <ele>1341</ele>
        <time>2013-02-16T09:35:56Z</time>
      </trkpt>
      <trkpt lat="42.87359" lon="0.03682">
        <ele>1341</ele>
        <time>2013-02-16T09:35:59Z</time>
      </trkpt>
      <trkpt lat="42.87358" lon="0.03683">
        <ele>1342</ele>
        <time>2013-02-16T09:36:01Z</time>
      </trkpt>
      <trkpt lat="42.87357" lon="0.03685">
        <ele>1342</ele>
        <time>2013-02-16T09:36:03Z</time>
      </trkpt>
      <trkpt lat="42.87357" lon="0.03686">
        <ele>1342</ele>
        <time>2013-02-16T09:36:05Z</time>
      </trkpt>
      <trkpt lat="42.87356" lon="0.03688">
        <ele>1343</ele>
        <time>2013-02-16T09:36:07Z</time>
      </trkpt>
      <trkpt lat="42.87356" lon="0.03689">
        <ele>1343</ele>
        <time>2013-02-16T09:36:09Z</time>
      </trkpt>
      <trkpt lat="42.87355" lon="0.03691">
        <ele>1344</ele>
        <time>2013-02-16T09:36:24Z</time>
      </trkpt>
      <trkpt lat="42.87355" lon="0.03692">
        <ele>1344</ele>
        <time>2013-02-16T09:36:26Z</time>
      </trkpt>
      <trkpt lat="42.87354" lon="0.03694">
        <ele>1344</ele>
        <time>2013-02-16T09:36:28Z</time>
      </trkpt>
      <trkpt lat="42.87353" lon="0.03695">
        <ele>1344</ele>
        <time>2013-02-16T09:36:30Z</time>
      </trkpt>
      <trkpt lat="42.87352" lon="0.03697">
        <ele>1345</ele>
        <time>2013-02-16T09:36:32Z</time>
      </trkpt>
      <trkpt lat="42.87352" lon="0.03698">
        <ele>1345</ele>
        <time>2013-02-16T09:36:34Z</time>
      </trkpt>
      <trkpt lat="42.8735" lon="0.037">
        <ele>1345</ele>
        <time>2013-02-16T09:36:37Z</time>
      </trkpt>
      <trkpt lat="42.8735" lon="0.03702">
        <ele>1346</ele>
        <time>2013-02-16T09:36:39Z</time>
      </trkpt>
      <trkpt lat="42.87349" lon="0.03704">
        <ele>1346</ele>
        <time>2013-02-16T09:36:42Z</time>
      </trkpt>
      <trkpt lat="42.87347" lon="0.03705">
        <ele>1347</ele>
        <time>2013-02-16T09:36:45Z</time>
      </trkpt>
      <trkpt lat="42.87346" lon="0.03707">
        <ele>1347</ele>
        <time>2013-02-16T09:36:48Z</time>
      </trkpt>
      <trkpt lat="42.87344" lon="0.03708">
        <ele>1348</ele>
        <time>2013-02-16T09:36:51Z</time>
      </trkpt>
      <trkpt lat="42.87343" lon="0.03709">
        <ele>1349</ele>
        <time>2013-02-16T09:36:54Z</time>
      </trkpt>
      <trkpt lat="42.87342" lon="0.03709">
        <ele>1349</ele>
        <time>2013-02-16T09:36:56Z</time>
      </trkpt>
      <trkpt lat="42.87341" lon="0.03711">
        <ele>1350</ele>
        <time>2013-02-16T09:36:59Z</time>
      </trkpt>
      <trkpt lat="42.87339" lon="0.03711">
        <ele>1351</ele>
        <time>2013-02-16T09:37:02Z</time>
      </trkpt>
      <trkpt lat="42.87337" lon="0.03711">
        <ele>1352</ele>
        <time>2013-02-16T09:37:05Z</time>
      </trkpt>
      <trkpt lat="42.87336" lon="0.03709">
        <ele>1352</ele>
        <time>2013-02-16T09:37:08Z</time>
      </trkpt>
      <trkpt lat="42.87335" lon="0.03708">
        <ele>1352</ele>
        <time>2013-02-16T09:37:10Z</time>
      </trkpt>
      <trkpt lat="42.87334" lon="0.03707">
        <ele>1353</ele>
        <time>2013-02-16T09:37:12Z</time>
      </trkpt>
      <trkpt lat="42.87332" lon="0.03705">
        <ele>1353</ele>
        <time>2013-02-16T09:37:14Z</time>
      </trkpt>
      <trkpt lat="42.87331" lon="0.03704">
        <ele>1353</ele>
        <time>2013-02-16T09:37:16Z</time>
      </trkpt>
      <trkpt lat="42.8733" lon="0.03702">
        <ele>1353</ele>
        <time>2013-02-16T09:37:19Z</time>
      </trkpt>
      <trkpt lat="42.8733" lon="0.03704">
        <ele>1354</ele>
        <time>2013-02-16T09:37:31Z</time>
      </trkpt>
      <trkpt lat="42.87329" lon="0.03702">
        <ele>1354</ele>
        <time>2013-02-16T09:37:36Z</time>
      </trkpt>
      <trkpt lat="42.87328" lon="0.037">
        <ele>1354</ele>
        <time>2013-02-16T09:37:38Z</time>
      </trkpt>
      <trkpt lat="42.87327" lon="0.03699">
        <ele>1354</ele>
        <time>2013-02-16T09:37:40Z</time>
      </trkpt>
      <trkpt lat="42.87326" lon="0.03698">
        <ele>1354</ele>
        <time>2013-02-16T09:37:42Z</time>
      </trkpt>
      <trkpt lat="42.87324" lon="0.03697">
        <ele>1354</ele>
        <time>2013-02-16T09:37:44Z</time>
      </trkpt>
      <trkpt lat="42.87323" lon="0.03696">
        <ele>1354</ele>
        <time>2013-02-16T09:37:46Z</time>
      </trkpt>
      <trkpt lat="42.87322" lon="0.03695">
        <ele>1355</ele>
        <time>2013-02-16T09:37:48Z</time>
      </trkpt>
      <trkpt lat="42.8732" lon="0.03694">
        <ele>1355</ele>
        <time>2013-02-16T09:37:50Z</time>
      </trkpt>
      <trkpt lat="42.87319" lon="0.03694">
        <ele>1355</ele>
        <time>2013-02-16T09:37:52Z</time>
      </trkpt>
      <trkpt lat="42.87318" lon="0.03695">
        <ele>1356</ele>
        <time>2013-02-16T09:37:54Z</time>
      </trkpt>
      <trkpt lat="42.87318" lon="0.03697">
        <ele>1356</ele>
        <time>2013-02-16T09:37:56Z</time>
      </trkpt>
      <trkpt lat="42.87317" lon="0.03699">
        <ele>1357</ele>
        <time>2013-02-16T09:37:58Z</time>
      </trkpt>
      <trkpt lat="42.87317" lon="0.037">
        <ele>1357</ele>
        <time>2013-02-16T09:38:00Z</time>
      </trkpt>
      <trkpt lat="42.87316" lon="0.03702">
        <ele>1357</ele>
        <time>2013-02-16T09:38:02Z</time>
      </trkpt>
      <trkpt lat="42.87316" lon="0.03704">
        <ele>1357</ele>
        <time>2013-02-16T09:38:04Z</time>
      </trkpt>
      <trkpt lat="42.87315" lon="0.03706">
        <ele>1358</ele>
        <time>2013-02-16T09:38:06Z</time>
      </trkpt>
      <trkpt lat="42.87314" lon="0.03708">
        <ele>1358</ele>
        <time>2013-02-16T09:38:08Z</time>
      </trkpt>
      <trkpt lat="42.87314" lon="0.0371">
        <ele>1358</ele>
        <time>2013-02-16T09:38:10Z</time>
      </trkpt>
      <trkpt lat="42.87313" lon="0.03712">
        <ele>1358</ele>
        <time>2013-02-16T09:38:13Z</time>
      </trkpt>
      <trkpt lat="42.87312" lon="0.03713">
        <ele>1358</ele>
        <time>2013-02-16T09:38:15Z</time>
      </trkpt>
      <trkpt lat="42.87311" lon="0.03714">
        <ele>1358</ele>
        <time>2013-02-16T09:38:18Z</time>
      </trkpt>
      <trkpt lat="42.8731" lon="0.03713">
        <ele>1359</ele>
        <time>2013-02-16T09:38:22Z</time>
      </trkpt>
      <trkpt lat="42.87309" lon="0.03711">
        <ele>1359</ele>
        <time>2013-02-16T09:38:39Z</time>
      </trkpt>
      <trkpt lat="42.87307" lon="0.0371">
        <ele>1359</ele>
        <time>2013-02-16T09:38:41Z</time>
      </trkpt>
      <trkpt lat="42.87306" lon="0.03709">
        <ele>1359</ele>
        <time>2013-02-16T09:38:43Z</time>
      </trkpt>
      <trkpt lat="42.87305" lon="0.03708">
        <ele>1360</ele>
        <time>2013-02-16T09:38:45Z</time>
      </trkpt>
      <trkpt lat="42.87303" lon="0.03707">
        <ele>1360</ele>
        <time>2013-02-16T09:38:47Z</time>
      </trkpt>
      <trkpt lat="42.87302" lon="0.03707">
        <ele>1361</ele>
        <time>2013-02-16T09:38:49Z</time>
      </trkpt>
      <trkpt lat="42.873" lon="0.03707">
        <ele>1361</ele>
        <time>2013-02-16T09:38:51Z</time>
      </trkpt>
      <trkpt lat="42.87299" lon="0.03706">
        <ele>1362</ele>
        <time>2013-02-16T09:38:53Z</time>
      </trkpt>
      <trkpt lat="42.87298" lon="0.03706">
        <ele>1362</ele>
        <time>2013-02-16T09:38:55Z</time>
      </trkpt>
      <trkpt lat="42.87296" lon="0.03707">
        <ele>1362</ele>
        <time>2013-02-16T09:38:57Z</time>
      </trkpt>
      <trkpt lat="42.87295" lon="0.03707">
        <ele>1363</ele>
        <time>2013-02-16T09:38:59Z</time>
      </trkpt>
      <trkpt lat="42.87294" lon="0.03708">
        <ele>1363</ele>
        <time>2013-02-16T09:39:01Z</time>
      </trkpt>
      <trkpt lat="42.87292" lon="0.03708">
        <ele>1363</ele>
        <time>2013-02-16T09:39:03Z</time>
      </trkpt>
      <trkpt lat="42.87291" lon="0.03709">
        <ele>1364</ele>
        <time>2013-02-16T09:39:05Z</time>
      </trkpt>
      <trkpt lat="42.87289" lon="0.0371">
        <ele>1364</ele>
        <time>2013-02-16T09:39:08Z</time>
      </trkpt>
      <trkpt lat="42.87288" lon="0.03712">
        <ele>1364</ele>
        <time>2013-02-16T09:39:10Z</time>
      </trkpt>
      <trkpt lat="42.87288" lon="0.03714">
        <ele>1364</ele>
        <time>2013-02-16T09:39:12Z</time>
      </trkpt>
      <trkpt lat="42.87287" lon="0.03715">
        <ele>1364</ele>
        <time>2013-02-16T09:39:14Z</time>
      </trkpt>
      <trkpt lat="42.87285" lon="0.03717">
        <ele>1365</ele>
        <time>2013-02-16T09:39:17Z</time>
      </trkpt>
      <trkpt lat="42.87284" lon="0.03719">
        <ele>1366</ele>
        <time>2013-02-16T09:39:19Z</time>
      </trkpt>
      <trkpt lat="42.87283" lon="0.0372">
        <ele>1366</ele>
        <time>2013-02-16T09:39:21Z</time>
      </trkpt>
      <trkpt lat="42.87282" lon="0.03722">
        <ele>1366</ele>
        <time>2013-02-16T09:39:23Z</time>
      </trkpt>
      <trkpt lat="42.87281" lon="0.03724">
        <ele>1367</ele>
        <time>2013-02-16T09:39:26Z</time>
      </trkpt>
      <trkpt lat="42.8728" lon="0.03726">
        <ele>1367</ele>
        <time>2013-02-16T09:39:28Z</time>
      </trkpt>
      <trkpt lat="42.87279" lon="0.03728">
        <ele>1368</ele>
        <time>2013-02-16T09:39:30Z</time>
      </trkpt>
      <trkpt lat="42.87278" lon="0.03729">
        <ele>1368</ele>
        <time>2013-02-16T09:39:33Z</time>
      </trkpt>
      <trkpt lat="42.87277" lon="0.03731">
        <ele>1369</ele>
        <time>2013-02-16T09:39:52Z</time>
      </trkpt>
      <trkpt lat="42.87276" lon="0.03733">
        <ele>1369</ele>
        <time>2013-02-16T09:39:54Z</time>
      </trkpt>
      <trkpt lat="42.87276" lon="0.03735">
        <ele>1369</ele>
        <time>2013-02-16T09:39:56Z</time>
      </trkpt>
      <trkpt lat="42.87276" lon="0.03736">
        <ele>1369</ele>
        <time>2013-02-16T09:39:58Z</time>
      </trkpt>
      <trkpt lat="42.87277" lon="0.03738">
        <ele>1369</ele>
        <time>2013-02-16T09:40:28Z</time>
      </trkpt>
      <trkpt lat="42.87276" lon="0.03737">
        <ele>1370</ele>
        <time>2013-02-16T09:41:01Z</time>
      </trkpt>
      <trkpt lat="42.87275" lon="0.03739">
        <ele>1371</ele>
        <time>2013-02-16T09:41:57Z</time>
      </trkpt>
      <trkpt lat="42.87275" lon="0.03741">
        <ele>1371</ele>
        <time>2013-02-16T09:41:59Z</time>
      </trkpt>
      <trkpt lat="42.87275" lon="0.03739">
        <ele>1373</ele>
        <time>2013-02-16T09:42:11Z</time>
      </trkpt>
      <trkpt lat="42.87276" lon="0.03738">
        <ele>1373</ele>
        <time>2013-02-16T09:42:35Z</time>
      </trkpt>
      <trkpt lat="42.87277" lon="0.03736">
        <ele>1373</ele>
        <time>2013-02-16T09:42:45Z</time>
      </trkpt>
      <trkpt lat="42.87278" lon="0.03735">
        <ele>1373</ele>
        <time>2013-02-16T09:43:02Z</time>
      </trkpt>
      <trkpt lat="42.87278" lon="0.03736">
        <ele>1373</ele>
        <time>2013-02-16T09:43:20Z</time>
      </trkpt>
      <trkpt lat="42.87277" lon="0.03738">
        <ele>1373</ele>
        <time>2013-02-16T09:43:23Z</time>
      </trkpt>
      <trkpt lat="42.87277" lon="0.03739">
        <ele>1373</ele>
        <time>2013-02-16T09:43:29Z</time>
      </trkpt>
      <trkpt lat="42.87277" lon="0.03738">
        <ele>1373</ele>
        <time>2013-02-16T09:43:49Z</time>
      </trkpt>
      <trkpt lat="42.87277" lon="0.03736">
        <ele>1373</ele>
        <time>2013-02-16T09:44:11Z</time>
      </trkpt>
      <trkpt lat="42.87276" lon="0.03738">
        <ele>1373</ele>
        <time>2013-02-16T09:45:57Z</time>
      </trkpt>
      <trkpt lat="42.87277" lon="0.03736">
        <ele>1373</ele>
        <time>2013-02-16T09:46:10Z</time>
      </trkpt>
      <trkpt lat="42.87279" lon="0.03737">
        <ele>1373</ele>
        <time>2013-02-16T09:46:31Z</time>
      </trkpt>
      <trkpt lat="42.87278" lon="0.03737">
        <ele>1373</ele>
        <time>2013-02-16T09:46:47Z</time>
      </trkpt>
      <trkpt lat="42.87277" lon="0.0374">
        <ele>1373</ele>
        <time>2013-02-16T09:46:58Z</time>
      </trkpt>
      <trkpt lat="42.87277" lon="0.03741">
        <ele>1373</ele>
        <time>2013-02-16T09:47:00Z</time>
      </trkpt>
      <trkpt lat="42.87276" lon="0.03743">
        <ele>1373</ele>
        <time>2013-02-16T09:47:03Z</time>
      </trkpt>
      <trkpt lat="42.87276" lon="0.03745">
        <ele>1373</ele>
        <time>2013-02-16T09:47:05Z</time>
      </trkpt>
      <trkpt lat="42.87276" lon="0.03747">
        <ele>1373</ele>
        <time>2013-02-16T09:47:07Z</time>
      </trkpt>
      <trkpt lat="42.87275" lon="0.03749">
        <ele>1373</ele>
        <time>2013-02-16T09:47:09Z</time>
      </trkpt>
      <trkpt lat="42.87275" lon="0.03751">
        <ele>1373</ele>
        <time>2013-02-16T09:47:11Z</time>
      </trkpt>
      <trkpt lat="42.87275" lon="0.03753">
        <ele>1373</ele>
        <time>2013-02-16T09:47:13Z</time>
      </trkpt>
      <trkpt lat="42.87274" lon="0.03754">
        <ele>1373</ele>
        <time>2013-02-16T09:47:15Z</time>
      </trkpt>
      <trkpt lat="42.87274" lon="0.03756">
        <ele>1373</ele>
        <time>2013-02-16T09:47:17Z</time>
      </trkpt>
      <trkpt lat="42.87273" lon="0.03758">
        <ele>1373</ele>
        <time>2013-02-16T09:47:19Z</time>
      </trkpt>
      <trkpt lat="42.87273" lon="0.03759">
        <ele>1373</ele>
        <time>2013-02-16T09:47:20Z</time>
      </trkpt>
      <trkpt lat="42.87273" lon="0.03761">
        <ele>1373</ele>
        <time>2013-02-16T09:47:22Z</time>
      </trkpt>
      <trkpt lat="42.87273" lon="0.03763">
        <ele>1373</ele>
        <time>2013-02-16T09:47:24Z</time>
      </trkpt>
      <trkpt lat="42.87273" lon="0.03765">
        <ele>1374</ele>
        <time>2013-02-16T09:47:26Z</time>
      </trkpt>
      <trkpt lat="42.87272" lon="0.03766">
        <ele>1374</ele>
        <time>2013-02-16T09:47:28Z</time>
      </trkpt>
      <trkpt lat="42.87271" lon="0.03768">
        <ele>1374</ele>
        <time>2013-02-16T09:47:30Z</time>
      </trkpt>
      <trkpt lat="42.87271" lon="0.0377">
        <ele>1374</ele>
        <time>2013-02-16T09:47:32Z</time>
      </trkpt>
      <trkpt lat="42.8727" lon="0.03771">
        <ele>1374</ele>
        <time>2013-02-16T09:47:34Z</time>
      </trkpt>
      <trkpt lat="42.87269" lon="0.03773">
        <ele>1374</ele>
        <time>2013-02-16T09:47:36Z</time>
      </trkpt>
      <trkpt lat="42.87269" lon="0.03774">
        <ele>1374</ele>
        <time>2013-02-16T09:47:38Z</time>
      </trkpt>
      <trkpt lat="42.87268" lon="0.03776">
        <ele>1374</ele>
        <time>2013-02-16T09:47:40Z</time>
      </trkpt>
      <trkpt lat="42.87268" lon="0.03778">
        <ele>1374</ele>
        <time>2013-02-16T09:47:42Z</time>
      </trkpt>
      <trkpt lat="42.87267" lon="0.0378">
        <ele>1374</ele>
        <time>2013-02-16T09:47:44Z</time>
      </trkpt>
      <trkpt lat="42.87267" lon="0.03782">
        <ele>1374</ele>
        <time>2013-02-16T09:47:46Z</time>
      </trkpt>
      <trkpt lat="42.87267" lon="0.03784">
        <ele>1374</ele>
        <time>2013-02-16T09:47:48Z</time>
      </trkpt>
      <trkpt lat="42.87266" lon="0.03786">
        <ele>1375</ele>
        <time>2013-02-16T09:47:50Z</time>
      </trkpt>
      <trkpt lat="42.87266" lon="0.03788">
        <ele>1375</ele>
        <time>2013-02-16T09:47:52Z</time>
      </trkpt>
      <trkpt lat="42.87265" lon="0.0379">
        <ele>1375</ele>
        <time>2013-02-16T09:47:54Z</time>
      </trkpt>
      <trkpt lat="42.87265" lon="0.03791">
        <ele>1375</ele>
        <time>2013-02-16T09:47:56Z</time>
      </trkpt>
      <trkpt lat="42.87265" lon="0.03793">
        <ele>1376</ele>
        <time>2013-02-16T09:47:58Z</time>
      </trkpt>
      <trkpt lat="42.87265" lon="0.03795">
        <ele>1376</ele>
        <time>2013-02-16T09:48:00Z</time>
      </trkpt>
      <trkpt lat="42.87265" lon="0.03796">
        <ele>1376</ele>
        <time>2013-02-16T09:48:02Z</time>
      </trkpt>
      <trkpt lat="42.87264" lon="0.03798">
        <ele>1376</ele>
        <time>2013-02-16T09:48:04Z</time>
      </trkpt>
      <trkpt lat="42.87264" lon="0.038">
        <ele>1376</ele>
        <time>2013-02-16T09:48:06Z</time>
      </trkpt>
      <trkpt lat="42.87264" lon="0.03802">
        <ele>1377</ele>
        <time>2013-02-16T09:48:08Z</time>
      </trkpt>
      <trkpt lat="42.87263" lon="0.03804">
        <ele>1377</ele>
        <time>2013-02-16T09:48:10Z</time>
      </trkpt>
      <trkpt lat="42.87263" lon="0.03805">
        <ele>1377</ele>
        <time>2013-02-16T09:48:12Z</time>
      </trkpt>
      <trkpt lat="42.87263" lon="0.03807">
        <ele>1377</ele>
        <time>2013-02-16T09:48:14Z</time>
      </trkpt>
      <trkpt lat="42.87263" lon="0.03808">
        <ele>1378</ele>
        <time>2013-02-16T09:48:16Z</time>
      </trkpt>
      <trkpt lat="42.87263" lon="0.0381">
        <ele>1378</ele>
        <time>2013-02-16T09:48:18Z</time>
      </trkpt>
      <trkpt lat="42.87263" lon="0.03812">
        <ele>1378</ele>
        <time>2013-02-16T09:48:20Z</time>
      </trkpt>
      <trkpt lat="42.87263" lon="0.03814">
        <ele>1379</ele>
        <time>2013-02-16T09:48:22Z</time>
      </trkpt>
      <trkpt lat="42.87263" lon="0.03816">
        <ele>1379</ele>
        <time>2013-02-16T09:48:24Z</time>
      </trkpt>
      <trkpt lat="42.87263" lon="0.03818">
        <ele>1379</ele>
        <time>2013-02-16T09:48:26Z</time>
      </trkpt>
      <trkpt lat="42.87264" lon="0.03819">
        <ele>1379</ele>
        <time>2013-02-16T09:48:28Z</time>
      </trkpt>
      <trkpt lat="42.87264" lon="0.03821">
        <ele>1380</ele>
        <time>2013-02-16T09:48:30Z</time>
      </trkpt>
      <trkpt lat="42.87264" lon="0.03823">
        <ele>1380</ele>
        <time>2013-02-16T09:48:32Z</time>
      </trkpt>
      <trkpt lat="42.87264" lon="0.03824">
        <ele>1380</ele>
        <time>2013-02-16T09:48:34Z</time>
      </trkpt>
      <trkpt lat="42.87264" lon="0.03826">
        <ele>1381</ele>
        <time>2013-02-16T09:48:36Z</time>
      </trkpt>
      <trkpt lat="42.87264" lon="0.03827">
        <ele>1381</ele>
        <time>2013-02-16T09:48:38Z</time>
      </trkpt>
      <trkpt lat="42.87264" lon="0.03829">
        <ele>1381</ele>
        <time>2013-02-16T09:48:40Z</time>
      </trkpt>
      <trkpt lat="42.87265" lon="0.03831">
        <ele>1381</ele>
        <time>2013-02-16T09:48:42Z</time>
      </trkpt>
      <trkpt lat="42.87265" lon="0.03833">
        <ele>1382</ele>
        <time>2013-02-16T09:48:44Z</time>
      </trkpt>
      <trkpt lat="42.87265" lon="0.03835">
        <ele>1382</ele>
        <time>2013-02-16T09:48:46Z</time>
      </trkpt>
      <trkpt lat="42.87265" lon="0.03836">
        <ele>1382</ele>
        <time>2013-02-16T09:48:48Z</time>
      </trkpt>
      <trkpt lat="42.87265" lon="0.03838">
        <ele>1383</ele>
        <time>2013-02-16T09:48:50Z</time>
      </trkpt>
      <trkpt lat="42.87265" lon="0.03839">
        <ele>1383</ele>
        <time>2013-02-16T09:48:52Z</time>
      </trkpt>
      <trkpt lat="42.87264" lon="0.0384">
        <ele>1383</ele>
        <time>2013-02-16T09:48:56Z</time>
      </trkpt>
      <trkpt lat="42.87263" lon="0.03839">
        <ele>1384</ele>
        <time>2013-02-16T09:48:58Z</time>
      </trkpt>
      <trkpt lat="42.87261" lon="0.03837">
        <ele>1384</ele>
        <time>2013-02-16T09:49:01Z</time>
      </trkpt>
      <trkpt lat="42.8726" lon="0.03836">
        <ele>1384</ele>
        <time>2013-02-16T09:49:04Z</time>
      </trkpt>
      <trkpt lat="42.87259" lon="0.03835">
        <ele>1384</ele>
        <time>2013-02-16T09:49:06Z</time>
      </trkpt>
      <trkpt lat="42.87257" lon="0.03833">
        <ele>1384</ele>
        <time>2013-02-16T09:49:09Z</time>
      </trkpt>
      <trkpt lat="42.87256" lon="0.03832">
        <ele>1385</ele>
        <time>2013-02-16T09:49:12Z</time>
      </trkpt>
      <trkpt lat="42.87254" lon="0.03831">
        <ele>1385</ele>
        <time>2013-02-16T09:49:15Z</time>
      </trkpt>
      <trkpt lat="42.87253" lon="0.0383">
        <ele>1385</ele>
        <time>2013-02-16T09:49:18Z</time>
      </trkpt>
      <trkpt lat="42.87252" lon="0.03829">
        <ele>1385</ele>
        <time>2013-02-16T09:49:20Z</time>
      </trkpt>
      <trkpt lat="42.8725" lon="0.03828">
        <ele>1385</ele>
        <time>2013-02-16T09:49:23Z</time>
      </trkpt>
      <trkpt lat="42.87249" lon="0.03826">
        <ele>1385</ele>
        <time>2013-02-16T09:49:26Z</time>
      </trkpt>
      <trkpt lat="42.87247" lon="0.03825">
        <ele>1386</ele>
        <time>2013-02-16T09:49:29Z</time>
      </trkpt>
      <trkpt lat="42.87246" lon="0.03823">
        <ele>1387</ele>
        <time>2013-02-16T09:49:32Z</time>
      </trkpt>
      <trkpt lat="42.87245" lon="0.03822">
        <ele>1388</ele>
        <time>2013-02-16T09:49:43Z</time>
      </trkpt>
      <trkpt lat="42.87244" lon="0.0382">
        <ele>1388</ele>
        <time>2013-02-16T09:49:46Z</time>
      </trkpt>
      <trkpt lat="42.87242" lon="0.03818">
        <ele>1389</ele>
        <time>2013-02-16T09:49:49Z</time>
      </trkpt>
      <trkpt lat="42.87241" lon="0.03818">
        <ele>1389</ele>
        <time>2013-02-16T09:49:52Z</time>
      </trkpt>
      <trkpt lat="42.8724" lon="0.03819">
        <ele>1389</ele>
        <time>2013-02-16T09:49:55Z</time>
      </trkpt>
      <trkpt lat="42.8724" lon="0.03821">
        <ele>1389</ele>
        <time>2013-02-16T09:49:57Z</time>
      </trkpt>
      <trkpt lat="42.8724" lon="0.03823">
        <ele>1389</ele>
        <time>2013-02-16T09:49:59Z</time>
      </trkpt>
      <trkpt lat="42.87241" lon="0.03824">
        <ele>1390</ele>
        <time>2013-02-16T09:50:01Z</time>
      </trkpt>
      <trkpt lat="42.87241" lon="0.03826">
        <ele>1390</ele>
        <time>2013-02-16T09:50:03Z</time>
      </trkpt>
      <trkpt lat="42.87241" lon="0.03828">
        <ele>1390</ele>
        <time>2013-02-16T09:50:05Z</time>
      </trkpt>
      <trkpt lat="42.87241" lon="0.0383">
        <ele>1391</ele>
        <time>2013-02-16T09:50:07Z</time>
      </trkpt>
      <trkpt lat="42.87241" lon="0.03831">
        <ele>1391</ele>
        <time>2013-02-16T09:50:09Z</time>
      </trkpt>
      <trkpt lat="42.87242" lon="0.03833">
        <ele>1391</ele>
        <time>2013-02-16T09:50:11Z</time>
      </trkpt>
      <trkpt lat="42.87242" lon="0.03834">
        <ele>1392</ele>
        <time>2013-02-16T09:50:13Z</time>
      </trkpt>
      <trkpt lat="42.87242" lon="0.03836">
        <ele>1392</ele>
        <time>2013-02-16T09:50:15Z</time>
      </trkpt>
      <trkpt lat="42.87242" lon="0.03838">
        <ele>1392</ele>
        <time>2013-02-16T09:50:17Z</time>
      </trkpt>
      <trkpt lat="42.87242" lon="0.03839">
        <ele>1393</ele>
        <time>2013-02-16T09:50:19Z</time>
      </trkpt>
      <trkpt lat="42.87243" lon="0.03841">
        <ele>1393</ele>
        <time>2013-02-16T09:50:21Z</time>
      </trkpt>
      <trkpt lat="42.87243" lon="0.03843">
        <ele>1393</ele>
        <time>2013-02-16T09:50:23Z</time>
      </trkpt>
      <trkpt lat="42.87243" lon="0.03844">
        <ele>1394</ele>
        <time>2013-02-16T09:50:25Z</time>
      </trkpt>
      <trkpt lat="42.87243" lon="0.03846">
        <ele>1394</ele>
        <time>2013-02-16T09:50:27Z</time>
      </trkpt>
      <trkpt lat="42.87244" lon="0.03848">
        <ele>1394</ele>
        <time>2013-02-16T09:50:29Z</time>
      </trkpt>
      <trkpt lat="42.87244" lon="0.0385">
        <ele>1395</ele>
        <time>2013-02-16T09:50:31Z</time>
      </trkpt>
      <trkpt lat="42.87244" lon="0.03851">
        <ele>1395</ele>
        <time>2013-02-16T09:50:33Z</time>
      </trkpt>
      <trkpt lat="42.87244" lon="0.03853">
        <ele>1395</ele>
        <time>2013-02-16T09:50:35Z</time>
      </trkpt>
      <trkpt lat="42.87244" lon="0.03855">
        <ele>1395</ele>
        <time>2013-02-16T09:50:37Z</time>
      </trkpt>
      <trkpt lat="42.87244" lon="0.03857">
        <ele>1395</ele>
        <time>2013-02-16T09:50:39Z</time>
      </trkpt>
      <trkpt lat="42.87245" lon="0.03858">
        <ele>1395</ele>
        <time>2013-02-16T09:50:41Z</time>
      </trkpt>
      <trkpt lat="42.87245" lon="0.0386">
        <ele>1396</ele>
        <time>2013-02-16T09:50:43Z</time>
      </trkpt>
      <trkpt lat="42.87244" lon="0.03859">
        <ele>1396</ele>
        <time>2013-02-16T09:50:59Z</time>
      </trkpt>
      <trkpt lat="42.87242" lon="0.03858">
        <ele>1396</ele>
        <time>2013-02-16T09:51:01Z</time>
      </trkpt>
      <trkpt lat="42.87241" lon="0.03857">
        <ele>1396</ele>
        <time>2013-02-16T09:51:04Z</time>
      </trkpt>
      <trkpt lat="42.8724" lon="0.03856">
        <ele>1397</ele>
        <time>2013-02-16T09:51:07Z</time>
      </trkpt>
      <trkpt lat="42.87238" lon="0.03855">
        <ele>1397</ele>
        <time>2013-02-16T09:51:09Z</time>
      </trkpt>
      <trkpt lat="42.87237" lon="0.03854">
        <ele>1398</ele>
        <time>2013-02-16T09:51:12Z</time>
      </trkpt>
      <trkpt lat="42.87236" lon="0.03852">
        <ele>1398</ele>
        <time>2013-02-16T09:51:14Z</time>
      </trkpt>
      <trkpt lat="42.87235" lon="0.03851">
        <ele>1399</ele>
        <time>2013-02-16T09:51:17Z</time>
      </trkpt>
      <trkpt lat="42.87233" lon="0.0385">
        <ele>1399</ele>
        <time>2013-02-16T09:51:20Z</time>
      </trkpt>
      <trkpt lat="42.87232" lon="0.03849">
        <ele>1399</ele>
        <time>2013-02-16T09:51:23Z</time>
      </trkpt>
      <trkpt lat="42.87231" lon="0.03847">
        <ele>1400</ele>
        <time>2013-02-16T09:51:26Z</time>
      </trkpt>
      <trkpt lat="42.87229" lon="0.03846">
        <ele>1400</ele>
        <time>2013-02-16T09:51:29Z</time>
      </trkpt>
      <trkpt lat="42.87228" lon="0.03845">
        <ele>1400</ele>
        <time>2013-02-16T09:51:32Z</time>
      </trkpt>
      <trkpt lat="42.87228" lon="0.03844">
        <ele>1402</ele>
        <time>2013-02-16T09:51:42Z</time>
      </trkpt>
      <trkpt lat="42.87226" lon="0.03842">
        <ele>1403</ele>
        <time>2013-02-16T09:51:48Z</time>
      </trkpt>
      <trkpt lat="42.87225" lon="0.03841">
        <ele>1404</ele>
        <time>2013-02-16T09:51:51Z</time>
      </trkpt>
      <trkpt lat="42.87223" lon="0.03839">
        <ele>1405</ele>
        <time>2013-02-16T09:51:54Z</time>
      </trkpt>
      <trkpt lat="42.87222" lon="0.03837">
        <ele>1405</ele>
        <time>2013-02-16T09:51:57Z</time>
      </trkpt>
      <trkpt lat="42.87221" lon="0.03836">
        <ele>1406</ele>
        <time>2013-02-16T09:52:00Z</time>
      </trkpt>
      <trkpt lat="42.87219" lon="0.03835">
        <ele>1406</ele>
        <time>2013-02-16T09:52:03Z</time>
      </trkpt>
      <trkpt lat="42.87218" lon="0.03834">
        <ele>1406</ele>
        <time>2013-02-16T09:52:06Z</time>
      </trkpt>
      <trkpt lat="42.87217" lon="0.03833">
        <ele>1407</ele>
        <time>2013-02-16T09:52:10Z</time>
      </trkpt>
      <trkpt lat="42.87215" lon="0.03831">
        <ele>1408</ele>
        <time>2013-02-16T09:52:13Z</time>
      </trkpt>
      <trkpt lat="42.87214" lon="0.0383">
        <ele>1408</ele>
        <time>2013-02-16T09:52:16Z</time>
      </trkpt>
      <trkpt lat="42.87212" lon="0.03829">
        <ele>1409</ele>
        <time>2013-02-16T09:52:19Z</time>
      </trkpt>
      <trkpt lat="42.87211" lon="0.03828">
        <ele>1409</ele>
        <time>2013-02-16T09:52:22Z</time>
      </trkpt>
      <trkpt lat="42.87209" lon="0.03827">
        <ele>1409</ele>
        <time>2013-02-16T09:52:25Z</time>
      </trkpt>
      <trkpt lat="42.87208" lon="0.03826">
        <ele>1409</ele>
        <time>2013-02-16T09:52:28Z</time>
      </trkpt>
      <trkpt lat="42.87207" lon="0.03825">
        <ele>1410</ele>
        <time>2013-02-16T09:52:31Z</time>
      </trkpt>
      <trkpt lat="42.87205" lon="0.03824">
        <ele>1410</ele>
        <time>2013-02-16T09:52:34Z</time>
      </trkpt>
      <trkpt lat="42.87204" lon="0.03823">
        <ele>1410</ele>
        <time>2013-02-16T09:52:39Z</time>
      </trkpt>
      <trkpt lat="42.87203" lon="0.03821">
        <ele>1410</ele>
        <time>2013-02-16T09:52:41Z</time>
      </trkpt>
      <trkpt lat="42.87202" lon="0.0382">
        <ele>1410</ele>
        <time>2013-02-16T09:52:44Z</time>
      </trkpt>
      <trkpt lat="42.872" lon="0.0382">
        <ele>1411</ele>
        <time>2013-02-16T09:52:47Z</time>
      </trkpt>
      <trkpt lat="42.87199" lon="0.03819">
        <ele>1411</ele>
        <time>2013-02-16T09:52:50Z</time>
      </trkpt>
      <trkpt lat="42.87197" lon="0.03819">
        <ele>1411</ele>
        <time>2013-02-16T09:52:53Z</time>
      </trkpt>
      <trkpt lat="42.87196" lon="0.03818">
        <ele>1411</ele>
        <time>2013-02-16T09:52:55Z</time>
      </trkpt>
      <trkpt lat="42.87195" lon="0.03818">
        <ele>1411</ele>
        <time>2013-02-16T09:53:16Z</time>
      </trkpt>
      <trkpt lat="42.87194" lon="0.03816">
        <ele>1411</ele>
        <time>2013-02-16T09:53:18Z</time>
      </trkpt>
      <trkpt lat="42.87193" lon="0.03816">
        <ele>1411</ele>
        <time>2013-02-16T09:53:20Z</time>
      </trkpt>
      <trkpt lat="42.87191" lon="0.03815">
        <ele>1411</ele>
        <time>2013-02-16T09:53:22Z</time>
      </trkpt>
      <trkpt lat="42.8719" lon="0.03814">
        <ele>1412</ele>
        <time>2013-02-16T09:53:24Z</time>
      </trkpt>
      <trkpt lat="42.87189" lon="0.03814">
        <ele>1412</ele>
        <time>2013-02-16T09:53:26Z</time>
      </trkpt>
      <trkpt lat="42.87187" lon="0.03813">
        <ele>1412</ele>
        <time>2013-02-16T09:53:29Z</time>
      </trkpt>
      <trkpt lat="42.87186" lon="0.03813">
        <ele>1413</ele>
        <time>2013-02-16T09:53:32Z</time>
      </trkpt>
      <trkpt lat="42.87184" lon="0.03812">
        <ele>1413</ele>
        <time>2013-02-16T09:53:34Z</time>
      </trkpt>
      <trkpt lat="42.87183" lon="0.03812">
        <ele>1413</ele>
        <time>2013-02-16T09:53:36Z</time>
      </trkpt>
      <trkpt lat="42.87182" lon="0.03813">
        <ele>1413</ele>
        <time>2013-02-16T09:53:39Z</time>
      </trkpt>
      <trkpt lat="42.87181" lon="0.03815">
        <ele>1414</ele>
        <time>2013-02-16T09:53:41Z</time>
      </trkpt>
      <trkpt lat="42.87182" lon="0.03817">
        <ele>1414</ele>
        <time>2013-02-16T09:53:43Z</time>
      </trkpt>
      <trkpt lat="42.87182" lon="0.03819">
        <ele>1415</ele>
        <time>2013-02-16T09:53:45Z</time>
      </trkpt>
      <trkpt lat="42.87182" lon="0.0382">
        <ele>1415</ele>
        <time>2013-02-16T09:53:51Z</time>
      </trkpt>
      <trkpt lat="42.87182" lon="0.03822">
        <ele>1415</ele>
        <time>2013-02-16T09:53:53Z</time>
      </trkpt>
      <trkpt lat="42.87183" lon="0.03823">
        <ele>1415</ele>
        <time>2013-02-16T09:53:55Z</time>
      </trkpt>
      <trkpt lat="42.87183" lon="0.03825">
        <ele>1415</ele>
        <time>2013-02-16T09:53:57Z</time>
      </trkpt>
      <trkpt lat="42.87183" lon="0.03827">
        <ele>1415</ele>
        <time>2013-02-16T09:53:59Z</time>
      </trkpt>
      <trkpt lat="42.87183" lon="0.03828">
        <ele>1415</ele>
        <time>2013-02-16T09:54:01Z</time>
      </trkpt>
      <trkpt lat="42.87184" lon="0.0383">
        <ele>1416</ele>
        <time>2013-02-16T09:54:03Z</time>
      </trkpt>
      <trkpt lat="42.87184" lon="0.03831">
        <ele>1416</ele>
        <time>2013-02-16T09:54:05Z</time>
      </trkpt>
      <trkpt lat="42.87185" lon="0.03833">
        <ele>1416</ele>
        <time>2013-02-16T09:54:07Z</time>
      </trkpt>
      <trkpt lat="42.87186" lon="0.03835">
        <ele>1417</ele>
        <time>2013-02-16T09:54:10Z</time>
      </trkpt>
      <trkpt lat="42.87187" lon="0.03836">
        <ele>1417</ele>
        <time>2013-02-16T09:54:12Z</time>
      </trkpt>
      <trkpt lat="42.87187" lon="0.03838">
        <ele>1417</ele>
        <time>2013-02-16T09:54:14Z</time>
      </trkpt>
      <trkpt lat="42.87187" lon="0.03841">
        <ele>1418</ele>
        <time>2013-02-16T09:54:17Z</time>
      </trkpt>
      <trkpt lat="42.87187" lon="0.03842">
        <ele>1418</ele>
        <time>2013-02-16T09:54:19Z</time>
      </trkpt>
      <trkpt lat="42.87187" lon="0.03844">
        <ele>1420</ele>
        <time>2013-02-16T09:54:38Z</time>
      </trkpt>
      <trkpt lat="42.87188" lon="0.03846">
        <ele>1421</ele>
        <time>2013-02-16T09:54:41Z</time>
      </trkpt>
      <trkpt lat="42.87188" lon="0.03847">
        <ele>1421</ele>
        <time>2013-02-16T09:54:43Z</time>
      </trkpt>
      <trkpt lat="42.87188" lon="0.03849">
        <ele>1421</ele>
        <time>2013-02-16T09:54:45Z</time>
      </trkpt>
      <trkpt lat="42.87189" lon="0.0385">
        <ele>1422</ele>
        <time>2013-02-16T09:54:48Z</time>
      </trkpt>
      <trkpt lat="42.87189" lon="0.03852">
        <ele>1422</ele>
        <time>2013-02-16T09:54:52Z</time>
      </trkpt>
      <trkpt lat="42.87189" lon="0.03853">
        <ele>1422</ele>
        <time>2013-02-16T09:54:54Z</time>
      </trkpt>
      <trkpt lat="42.8719" lon="0.03855">
        <ele>1423</ele>
        <time>2013-02-16T09:54:57Z</time>
      </trkpt>
      <trkpt lat="42.8719" lon="0.03857">
        <ele>1423</ele>
        <time>2013-02-16T09:54:59Z</time>
      </trkpt>
      <trkpt lat="42.87191" lon="0.03858">
        <ele>1423</ele>
        <time>2013-02-16T09:55:02Z</time>
      </trkpt>
      <trkpt lat="42.8719" lon="0.03857">
        <ele>1426</ele>
        <time>2013-02-16T09:55:13Z</time>
      </trkpt>
      <trkpt lat="42.87189" lon="0.03856">
        <ele>1426</ele>
        <time>2013-02-16T09:55:19Z</time>
      </trkpt>
      <trkpt lat="42.87188" lon="0.03856">
        <ele>1426</ele>
        <time>2013-02-16T09:55:21Z</time>
      </trkpt>
      <trkpt lat="42.87186" lon="0.03856">
        <ele>1426</ele>
        <time>2013-02-16T09:55:25Z</time>
      </trkpt>
      <trkpt lat="42.87185" lon="0.03856">
        <ele>1427</ele>
        <time>2013-02-16T09:55:28Z</time>
      </trkpt>
      <trkpt lat="42.87184" lon="0.03855">
        <ele>1427</ele>
        <time>2013-02-16T09:55:31Z</time>
      </trkpt>
      <trkpt lat="42.87183" lon="0.03855">
        <ele>1428</ele>
        <time>2013-02-16T09:55:40Z</time>
      </trkpt>
      <trkpt lat="42.87181" lon="0.03853">
        <ele>1428</ele>
        <time>2013-02-16T09:55:44Z</time>
      </trkpt>
      <trkpt lat="42.8718" lon="0.03853">
        <ele>1429</ele>
        <time>2013-02-16T09:55:46Z</time>
      </trkpt>
      <trkpt lat="42.87178" lon="0.03853">
        <ele>1429</ele>
        <time>2013-02-16T09:55:49Z</time>
      </trkpt>
      <trkpt lat="42.87177" lon="0.03853">
        <ele>1429</ele>
        <time>2013-02-16T09:55:52Z</time>
      </trkpt>
      <trkpt lat="42.87176" lon="0.03852">
        <ele>1430</ele>
        <time>2013-02-16T09:55:55Z</time>
      </trkpt>
      <trkpt lat="42.87175" lon="0.03852">
        <ele>1430</ele>
        <time>2013-02-16T09:55:58Z</time>
      </trkpt>
      <trkpt lat="42.87173" lon="0.03851">
        <ele>1430</ele>
        <time>2013-02-16T09:56:00Z</time>
      </trkpt>
      <trkpt lat="42.87172" lon="0.0385">
        <ele>1430</ele>
        <time>2013-02-16T09:56:02Z</time>
      </trkpt>
      <trkpt lat="42.87171" lon="0.0385">
        <ele>1430</ele>
        <time>2013-02-16T09:56:05Z</time>
      </trkpt>
      <trkpt lat="42.87169" lon="0.03849">
        <ele>1430</ele>
        <time>2013-02-16T09:56:08Z</time>
      </trkpt>
      <trkpt lat="42.87168" lon="0.03849">
        <ele>1430</ele>
        <time>2013-02-16T09:56:11Z</time>
      </trkpt>
      <trkpt lat="42.87167" lon="0.03849">
        <ele>1430</ele>
        <time>2013-02-16T09:56:14Z</time>
      </trkpt>
      <trkpt lat="42.87166" lon="0.03847">
        <ele>1431</ele>
        <time>2013-02-16T09:56:18Z</time>
      </trkpt>
      <trkpt lat="42.87165" lon="0.03846">
        <ele>1432</ele>
        <time>2013-02-16T09:56:23Z</time>
      </trkpt>
      <trkpt lat="42.87164" lon="0.03847">
        <ele>1433</ele>
        <time>2013-02-16T09:56:30Z</time>
      </trkpt>
      <trkpt lat="42.87164" lon="0.03849">
        <ele>1433</ele>
        <time>2013-02-16T09:56:33Z</time>
      </trkpt>
      <trkpt lat="42.87164" lon="0.0385">
        <ele>1433</ele>
        <time>2013-02-16T09:56:35Z</time>
      </trkpt>
      <trkpt lat="42.87164" lon="0.03852">
        <ele>1433</ele>
        <time>2013-02-16T09:56:37Z</time>
      </trkpt>
      <trkpt lat="42.87164" lon="0.03853">
        <ele>1434</ele>
        <time>2013-02-16T09:56:39Z</time>
      </trkpt>
      <trkpt lat="42.87163" lon="0.03855">
        <ele>1434</ele>
        <time>2013-02-16T09:56:42Z</time>
      </trkpt>
      <trkpt lat="42.87164" lon="0.03857">
        <ele>1434</ele>
        <time>2013-02-16T09:56:44Z</time>
      </trkpt>
      <trkpt lat="42.87164" lon="0.03858">
        <ele>1435</ele>
        <time>2013-02-16T09:56:46Z</time>
      </trkpt>
      <trkpt lat="42.87164" lon="0.0386">
        <ele>1435</ele>
        <time>2013-02-16T09:56:48Z</time>
      </trkpt>
      <trkpt lat="42.87164" lon="0.03861">
        <ele>1436</ele>
        <time>2013-02-16T09:56:52Z</time>
      </trkpt>
      <trkpt lat="42.87165" lon="0.03863">
        <ele>1436</ele>
        <time>2013-02-16T09:56:55Z</time>
      </trkpt>
      <trkpt lat="42.87165" lon="0.03865">
        <ele>1436</ele>
        <time>2013-02-16T09:56:57Z</time>
      </trkpt>
      <trkpt lat="42.87166" lon="0.03867">
        <ele>1436</ele>
        <time>2013-02-16T09:56:59Z</time>
      </trkpt>
      <trkpt lat="42.87166" lon="0.03869">
        <ele>1437</ele>
        <time>2013-02-16T09:57:02Z</time>
      </trkpt>
      <trkpt lat="42.87166" lon="0.0387">
        <ele>1437</ele>
        <time>2013-02-16T09:57:04Z</time>
      </trkpt>
      <trkpt lat="42.87166" lon="0.03872">
        <ele>1437</ele>
        <time>2013-02-16T09:57:06Z</time>
      </trkpt>
      <trkpt lat="42.87166" lon="0.03873">
        <ele>1437</ele>
        <time>2013-02-16T09:57:08Z</time>
      </trkpt>
      <trkpt lat="42.87167" lon="0.03875">
        <ele>1438</ele>
        <time>2013-02-16T09:57:10Z</time>
      </trkpt>
      <trkpt lat="42.87167" lon="0.03877">
        <ele>1438</ele>
        <time>2013-02-16T09:57:12Z</time>
      </trkpt>
      <trkpt lat="42.87167" lon="0.03879">
        <ele>1438</ele>
        <time>2013-02-16T09:57:14Z</time>
      </trkpt>
      <trkpt lat="42.87168" lon="0.0388">
        <ele>1438</ele>
        <time>2013-02-16T09:57:16Z</time>
      </trkpt>
      <trkpt lat="42.87168" lon="0.03882">
        <ele>1438</ele>
        <time>2013-02-16T09:57:18Z</time>
      </trkpt>
      <trkpt lat="42.87169" lon="0.03884">
        <ele>1439</ele>
        <time>2013-02-16T09:57:20Z</time>
      </trkpt>
      <trkpt lat="42.87169" lon="0.03885">
        <ele>1439</ele>
        <time>2013-02-16T09:57:22Z</time>
      </trkpt>
      <trkpt lat="42.87169" lon="0.03887">
        <ele>1440</ele>
        <time>2013-02-16T09:57:34Z</time>
      </trkpt>
      <trkpt lat="42.8717" lon="0.03888">
        <ele>1440</ele>
        <time>2013-02-16T09:57:40Z</time>
      </trkpt>
      <trkpt lat="42.87171" lon="0.03888">
        <ele>1440</ele>
        <time>2013-02-16T09:57:54Z</time>
      </trkpt>
      <trkpt lat="42.87171" lon="0.03889">
        <ele>1440</ele>
        <time>2013-02-16T09:58:06Z</time>
      </trkpt>
      <trkpt lat="42.87172" lon="0.03892">
        <ele>1441</ele>
        <time>2013-02-16T09:58:09Z</time>
      </trkpt>
      <trkpt lat="42.87172" lon="0.03893">
        <ele>1441</ele>
        <time>2013-02-16T09:58:11Z</time>
      </trkpt>
      <trkpt lat="42.87171" lon="0.03895">
        <ele>1442</ele>
        <time>2013-02-16T09:58:15Z</time>
      </trkpt>
      <trkpt lat="42.8717" lon="0.03894">
        <ele>1442</ele>
        <time>2013-02-16T09:58:17Z</time>
      </trkpt>
      <trkpt lat="42.87168" lon="0.03893">
        <ele>1443</ele>
        <time>2013-02-16T09:58:20Z</time>
      </trkpt>
      <trkpt lat="42.87167" lon="0.03892">
        <ele>1444</ele>
        <time>2013-02-16T09:58:23Z</time>
      </trkpt>
      <trkpt lat="42.87165" lon="0.03891">
        <ele>1444</ele>
        <time>2013-02-16T09:58:25Z</time>
      </trkpt>
      <trkpt lat="42.87164" lon="0.0389">
        <ele>1444</ele>
        <time>2013-02-16T09:58:28Z</time>
      </trkpt>
      <trkpt lat="42.87163" lon="0.03889">
        <ele>1445</ele>
        <time>2013-02-16T09:58:30Z</time>
      </trkpt>
      <trkpt lat="42.87161" lon="0.03888">
        <ele>1446</ele>
        <time>2013-02-16T09:58:33Z</time>
      </trkpt>
      <trkpt lat="42.87159" lon="0.03887">
        <ele>1446</ele>
        <time>2013-02-16T09:58:36Z</time>
      </trkpt>
      <trkpt lat="42.87158" lon="0.03886">
        <ele>1447</ele>
        <time>2013-02-16T09:58:38Z</time>
      </trkpt>
      <trkpt lat="42.87157" lon="0.03885">
        <ele>1447</ele>
        <time>2013-02-16T09:58:41Z</time>
      </trkpt>
      <trkpt lat="42.87155" lon="0.03884">
        <ele>1448</ele>
        <time>2013-02-16T09:58:44Z</time>
      </trkpt>
      <trkpt lat="42.87154" lon="0.03883">
        <ele>1448</ele>
        <time>2013-02-16T09:58:47Z</time>
      </trkpt>
      <trkpt lat="42.87152" lon="0.03882">
        <ele>1448</ele>
        <time>2013-02-16T09:58:51Z</time>
      </trkpt>
      <trkpt lat="42.87151" lon="0.03881">
        <ele>1449</ele>
        <time>2013-02-16T09:58:55Z</time>
      </trkpt>
      <trkpt lat="42.8715" lon="0.03881">
        <ele>1449</ele>
        <time>2013-02-16T09:58:57Z</time>
      </trkpt>
      <trkpt lat="42.87149" lon="0.0388">
        <ele>1449</ele>
        <time>2013-02-16T09:58:59Z</time>
      </trkpt>
      <trkpt lat="42.87147" lon="0.0388">
        <ele>1450</ele>
        <time>2013-02-16T09:59:02Z</time>
      </trkpt>
      <trkpt lat="42.87148" lon="0.03881">
        <ele>1451</ele>
        <time>2013-02-16T09:59:10Z</time>
      </trkpt>
      <trkpt lat="42.87148" lon="0.03883">
        <ele>1452</ele>
        <time>2013-02-16T09:59:13Z</time>
      </trkpt>
      <trkpt lat="42.87148" lon="0.03885">
        <ele>1452</ele>
        <time>2013-02-16T09:59:15Z</time>
      </trkpt>
      <trkpt lat="42.87149" lon="0.03887">
        <ele>1452</ele>
        <time>2013-02-16T09:59:17Z</time>
      </trkpt>
      <trkpt lat="42.87147" lon="0.03885">
        <ele>1453</ele>
        <time>2013-02-16T09:59:28Z</time>
      </trkpt>
      <trkpt lat="42.87146" lon="0.03884">
        <ele>1453</ele>
        <time>2013-02-16T09:59:31Z</time>
      </trkpt>
      <trkpt lat="42.87145" lon="0.03884">
        <ele>1453</ele>
        <time>2013-02-16T09:59:33Z</time>
      </trkpt>
      <trkpt lat="42.87143" lon="0.03882">
        <ele>1453</ele>
        <time>2013-02-16T09:59:36Z</time>
      </trkpt>
      <trkpt lat="42.87142" lon="0.03881">
        <ele>1454</ele>
        <time>2013-02-16T09:59:39Z</time>
      </trkpt>
      <trkpt lat="42.8714" lon="0.03879">
        <ele>1454</ele>
        <time>2013-02-16T09:59:42Z</time>
      </trkpt>
      <trkpt lat="42.87139" lon="0.03878">
        <ele>1454</ele>
        <time>2013-02-16T09:59:45Z</time>
      </trkpt>
      <trkpt lat="42.87138" lon="0.03877">
        <ele>1455</ele>
        <time>2013-02-16T09:59:50Z</time>
      </trkpt>
      <trkpt lat="42.87138" lon="0.03878">
        <ele>1455</ele>
        <time>2013-02-16T09:59:54Z</time>
      </trkpt>
      <trkpt lat="42.87139" lon="0.03881">
        <ele>1455</ele>
        <time>2013-02-16T09:59:57Z</time>
      </trkpt>
      <trkpt lat="42.8714" lon="0.03882">
        <ele>1455</ele>
        <time>2013-02-16T09:59:59Z</time>
      </trkpt>
      <trkpt lat="42.8714" lon="0.03884">
        <ele>1455</ele>
        <time>2013-02-16T10:00:01Z</time>
      </trkpt>
      <trkpt lat="42.87141" lon="0.03885">
        <ele>1455</ele>
        <time>2013-02-16T10:00:03Z</time>
      </trkpt>
      <trkpt lat="42.87141" lon="0.03887">
        <ele>1455</ele>
        <time>2013-02-16T10:00:06Z</time>
      </trkpt>
      <trkpt lat="42.87141" lon="0.03889">
        <ele>1456</ele>
        <time>2013-02-16T10:00:08Z</time>
      </trkpt>
      <trkpt lat="42.87141" lon="0.0389">
        <ele>1456</ele>
        <time>2013-02-16T10:00:10Z</time>
      </trkpt>
      <trkpt lat="42.87142" lon="0.03892">
        <ele>1456</ele>
        <time>2013-02-16T10:00:12Z</time>
      </trkpt>
      <trkpt lat="42.87142" lon="0.03893">
        <ele>1457</ele>
        <time>2013-02-16T10:00:14Z</time>
      </trkpt>
      <trkpt lat="42.87142" lon="0.03895">
        <ele>1457</ele>
        <time>2013-02-16T10:00:16Z</time>
      </trkpt>
      <trkpt lat="42.87141" lon="0.03895">
        <ele>1458</ele>
        <time>2013-02-16T10:00:25Z</time>
      </trkpt>
      <trkpt lat="42.87139" lon="0.03893">
        <ele>1459</ele>
        <time>2013-02-16T10:00:28Z</time>
      </trkpt>
      <trkpt lat="42.87138" lon="0.03893">
        <ele>1459</ele>
        <time>2013-02-16T10:00:30Z</time>
      </trkpt>
      <trkpt lat="42.87136" lon="0.03891">
        <ele>1459</ele>
        <time>2013-02-16T10:00:34Z</time>
      </trkpt>
      <trkpt lat="42.87135" lon="0.0389">
        <ele>1460</ele>
        <time>2013-02-16T10:00:37Z</time>
      </trkpt>
      <trkpt lat="42.87133" lon="0.03889">
        <ele>1460</ele>
        <time>2013-02-16T10:00:39Z</time>
      </trkpt>
      <trkpt lat="42.87132" lon="0.03888">
        <ele>1460</ele>
        <time>2013-02-16T10:00:42Z</time>
      </trkpt>
      <trkpt lat="42.87131" lon="0.03888">
        <ele>1460</ele>
        <time>2013-02-16T10:01:04Z</time>
      </trkpt>
      <trkpt lat="42.87132" lon="0.03889">
        <ele>1461</ele>
        <time>2013-02-16T10:01:10Z</time>
      </trkpt>
      <trkpt lat="42.87132" lon="0.03891">
        <ele>1461</ele>
        <time>2013-02-16T10:01:12Z</time>
      </trkpt>
      <trkpt lat="42.87132" lon="0.03893">
        <ele>1461</ele>
        <time>2013-02-16T10:01:14Z</time>
      </trkpt>
      <trkpt lat="42.87133" lon="0.03895">
        <ele>1461</ele>
        <time>2013-02-16T10:01:16Z</time>
      </trkpt>
      <trkpt lat="42.87134" lon="0.03897">
        <ele>1461</ele>
        <time>2013-02-16T10:01:18Z</time>
      </trkpt>
      <trkpt lat="42.87135" lon="0.03899">
        <ele>1461</ele>
        <time>2013-02-16T10:01:20Z</time>
      </trkpt>
      <trkpt lat="42.87135" lon="0.039">
        <ele>1461</ele>
        <time>2013-02-16T10:01:22Z</time>
      </trkpt>
      <trkpt lat="42.87136" lon="0.03902">
        <ele>1461</ele>
        <time>2013-02-16T10:01:24Z</time>
      </trkpt>
      <trkpt lat="42.87136" lon="0.03903">
        <ele>1461</ele>
        <time>2013-02-16T10:01:26Z</time>
      </trkpt>
      <trkpt lat="42.87137" lon="0.03905">
        <ele>1461</ele>
        <time>2013-02-16T10:01:28Z</time>
      </trkpt>
      <trkpt lat="42.87137" lon="0.03907">
        <ele>1461</ele>
        <time>2013-02-16T10:01:30Z</time>
      </trkpt>
      <trkpt lat="42.87138" lon="0.03908">
        <ele>1461</ele>
        <time>2013-02-16T10:01:32Z</time>
      </trkpt>
      <trkpt lat="42.87138" lon="0.0391">
        <ele>1461</ele>
        <time>2013-02-16T10:01:34Z</time>
      </trkpt>
      <trkpt lat="42.87138" lon="0.03912">
        <ele>1461</ele>
        <time>2013-02-16T10:01:36Z</time>
      </trkpt>
      <trkpt lat="42.87139" lon="0.03914">
        <ele>1462</ele>
        <time>2013-02-16T10:01:38Z</time>
      </trkpt>
      <trkpt lat="42.87139" lon="0.03915">
        <ele>1462</ele>
        <time>2013-02-16T10:01:40Z</time>
      </trkpt>
      <trkpt lat="42.8714" lon="0.03917">
        <ele>1463</ele>
        <time>2013-02-16T10:01:42Z</time>
      </trkpt>
      <trkpt lat="42.8714" lon="0.03919">
        <ele>1463</ele>
        <time>2013-02-16T10:01:44Z</time>
      </trkpt>
      <trkpt lat="42.8714" lon="0.03921">
        <ele>1463</ele>
        <time>2013-02-16T10:01:46Z</time>
      </trkpt>
      <trkpt lat="42.87141" lon="0.03923">
        <ele>1463</ele>
        <time>2013-02-16T10:01:48Z</time>
      </trkpt>
      <trkpt lat="42.87141" lon="0.03924">
        <ele>1463</ele>
        <time>2013-02-16T10:01:50Z</time>
      </trkpt>
      <trkpt lat="42.87142" lon="0.03926">
        <ele>1463</ele>
        <time>2013-02-16T10:01:52Z</time>
      </trkpt>
      <trkpt lat="42.87142" lon="0.03927">
        <ele>1463</ele>
        <time>2013-02-16T10:01:54Z</time>
      </trkpt>
      <trkpt lat="42.87143" lon="0.03929">
        <ele>1463</ele>
        <time>2013-02-16T10:01:56Z</time>
      </trkpt>
      <trkpt lat="42.87143" lon="0.03931">
        <ele>1464</ele>
        <time>2013-02-16T10:01:59Z</time>
      </trkpt>
      <trkpt lat="42.87143" lon="0.03932">
        <ele>1464</ele>
        <time>2013-02-16T10:02:01Z</time>
      </trkpt>
      <trkpt lat="42.87144" lon="0.03934">
        <ele>1464</ele>
        <time>2013-02-16T10:02:03Z</time>
      </trkpt>
      <trkpt lat="42.87144" lon="0.03935">
        <ele>1464</ele>
        <time>2013-02-16T10:02:05Z</time>
      </trkpt>
      <trkpt lat="42.87144" lon="0.03937">
        <ele>1464</ele>
        <time>2013-02-16T10:02:07Z</time>
      </trkpt>
      <trkpt lat="42.87144" lon="0.03939">
        <ele>1464</ele>
        <time>2013-02-16T10:02:09Z</time>
      </trkpt>
      <trkpt lat="42.87144" lon="0.0394">
        <ele>1465</ele>
        <time>2013-02-16T10:02:11Z</time>
      </trkpt>
      <trkpt lat="42.87144" lon="0.03942">
        <ele>1465</ele>
        <time>2013-02-16T10:02:13Z</time>
      </trkpt>
      <trkpt lat="42.87144" lon="0.03944">
        <ele>1466</ele>
        <time>2013-02-16T10:02:16Z</time>
      </trkpt>
      <trkpt lat="42.87145" lon="0.03945">
        <ele>1466</ele>
        <time>2013-02-16T10:02:18Z</time>
      </trkpt>
      <trkpt lat="42.87145" lon="0.03947">
        <ele>1466</ele>
        <time>2013-02-16T10:02:20Z</time>
      </trkpt>
      <trkpt lat="42.87146" lon="0.03949">
        <ele>1467</ele>
        <time>2013-02-16T10:02:22Z</time>
      </trkpt>
      <trkpt lat="42.87146" lon="0.0395">
        <ele>1467</ele>
        <time>2013-02-16T10:02:24Z</time>
      </trkpt>
      <trkpt lat="42.87146" lon="0.03952">
        <ele>1467</ele>
        <time>2013-02-16T10:02:26Z</time>
      </trkpt>
      <trkpt lat="42.87146" lon="0.03954">
        <ele>1468</ele>
        <time>2013-02-16T10:02:28Z</time>
      </trkpt>
      <trkpt lat="42.87147" lon="0.03955">
        <ele>1468</ele>
        <time>2013-02-16T10:02:30Z</time>
      </trkpt>
      <trkpt lat="42.87147" lon="0.03957">
        <ele>1468</ele>
        <time>2013-02-16T10:02:32Z</time>
      </trkpt>
      <trkpt lat="42.87148" lon="0.03959">
        <ele>1468</ele>
        <time>2013-02-16T10:02:34Z</time>
      </trkpt>
      <trkpt lat="42.87148" lon="0.03961">
        <ele>1468</ele>
        <time>2013-02-16T10:02:36Z</time>
      </trkpt>
      <trkpt lat="42.87148" lon="0.03963">
        <ele>1468</ele>
        <time>2013-02-16T10:02:38Z</time>
      </trkpt>
      <trkpt lat="42.87148" lon="0.03965">
        <ele>1468</ele>
        <time>2013-02-16T10:02:40Z</time>
      </trkpt>
      <trkpt lat="42.87149" lon="0.03966">
        <ele>1468</ele>
        <time>2013-02-16T10:02:42Z</time>
      </trkpt>
      <trkpt lat="42.87149" lon="0.03968">
        <ele>1469</ele>
        <time>2013-02-16T10:02:47Z</time>
      </trkpt>
      <trkpt lat="42.87149" lon="0.0397">
        <ele>1469</ele>
        <time>2013-02-16T10:02:49Z</time>
      </trkpt>
      <trkpt lat="42.8715" lon="0.03972">
        <ele>1469</ele>
        <time>2013-02-16T10:02:51Z</time>
      </trkpt>
      <trkpt lat="42.8715" lon="0.03975">
        <ele>1469</ele>
        <time>2013-02-16T10:02:53Z</time>
      </trkpt>
      <trkpt lat="42.8715" lon="0.03976">
        <ele>1469</ele>
        <time>2013-02-16T10:02:55Z</time>
      </trkpt>
      <trkpt lat="42.87151" lon="0.03978">
        <ele>1469</ele>
        <time>2013-02-16T10:02:57Z</time>
      </trkpt>
      <trkpt lat="42.87151" lon="0.03979">
        <ele>1469</ele>
        <time>2013-02-16T10:02:59Z</time>
      </trkpt>
      <trkpt lat="42.87151" lon="0.03981">
        <ele>1469</ele>
        <time>2013-02-16T10:03:01Z</time>
      </trkpt>
      <trkpt lat="42.87151" lon="0.03982">
        <ele>1469</ele>
        <time>2013-02-16T10:03:03Z</time>
      </trkpt>
      <trkpt lat="42.87151" lon="0.03984">
        <ele>1470</ele>
        <time>2013-02-16T10:03:05Z</time>
      </trkpt>
      <trkpt lat="42.87152" lon="0.03985">
        <ele>1470</ele>
        <time>2013-02-16T10:03:07Z</time>
      </trkpt>
      <trkpt lat="42.87152" lon="0.03987">
        <ele>1471</ele>
        <time>2013-02-16T10:03:09Z</time>
      </trkpt>
      <trkpt lat="42.87152" lon="0.03989">
        <ele>1471</ele>
        <time>2013-02-16T10:03:11Z</time>
      </trkpt>
      <trkpt lat="42.87152" lon="0.0399">
        <ele>1472</ele>
        <time>2013-02-16T10:03:13Z</time>
      </trkpt>
      <trkpt lat="42.87153" lon="0.03992">
        <ele>1472</ele>
        <time>2013-02-16T10:03:15Z</time>
      </trkpt>
      <trkpt lat="42.87153" lon="0.03994">
        <ele>1472</ele>
        <time>2013-02-16T10:03:17Z</time>
      </trkpt>
      <trkpt lat="42.87153" lon="0.03995">
        <ele>1472</ele>
        <time>2013-02-16T10:03:19Z</time>
      </trkpt>
      <trkpt lat="42.87153" lon="0.03997">
        <ele>1473</ele>
        <time>2013-02-16T10:03:21Z</time>
      </trkpt>
      <trkpt lat="42.87152" lon="0.03999">
        <ele>1473</ele>
        <time>2013-02-16T10:03:24Z</time>
      </trkpt>
      <trkpt lat="42.87152" lon="0.04">
        <ele>1474</ele>
        <time>2013-02-16T10:03:29Z</time>
      </trkpt>
      <trkpt lat="42.87151" lon="0.03999">
        <ele>1475</ele>
        <time>2013-02-16T10:03:32Z</time>
      </trkpt>
      <trkpt lat="42.87149" lon="0.03999">
        <ele>1475</ele>
        <time>2013-02-16T10:03:35Z</time>
      </trkpt>
      <trkpt lat="42.87148" lon="0.03997">
        <ele>1477</ele>
        <time>2013-02-16T10:03:47Z</time>
      </trkpt>
      <trkpt lat="42.87147" lon="0.03996">
        <ele>1477</ele>
        <time>2013-02-16T10:03:53Z</time>
      </trkpt>
      <trkpt lat="42.87146" lon="0.03995">
        <ele>1478</ele>
        <time>2013-02-16T10:03:55Z</time>
      </trkpt>
      <trkpt lat="42.87144" lon="0.03994">
        <ele>1478</ele>
        <time>2013-02-16T10:03:57Z</time>
      </trkpt>
      <trkpt lat="42.87143" lon="0.03992">
        <ele>1478</ele>
        <time>2013-02-16T10:04:00Z</time>
      </trkpt>
      <trkpt lat="42.87141" lon="0.03991">
        <ele>1479</ele>
        <time>2013-02-16T10:04:03Z</time>
      </trkpt>
      <trkpt lat="42.8714" lon="0.03991">
        <ele>1479</ele>
        <time>2013-02-16T10:04:06Z</time>
      </trkpt>
      <trkpt lat="42.87139" lon="0.0399">
        <ele>1480</ele>
        <time>2013-02-16T10:04:09Z</time>
      </trkpt>
      <trkpt lat="42.87137" lon="0.03988">
        <ele>1480</ele>
        <time>2013-02-16T10:04:12Z</time>
      </trkpt>
      <trkpt lat="42.87136" lon="0.03987">
        <ele>1480</ele>
        <time>2013-02-16T10:04:15Z</time>
      </trkpt>
      <trkpt lat="42.87135" lon="0.03985">
        <ele>1481</ele>
        <time>2013-02-16T10:04:18Z</time>
      </trkpt>
      <trkpt lat="42.87133" lon="0.03984">
        <ele>1482</ele>
        <time>2013-02-16T10:04:21Z</time>
      </trkpt>
      <trkpt lat="42.87132" lon="0.03982">
        <ele>1483</ele>
        <time>2013-02-16T10:04:24Z</time>
      </trkpt>
      <trkpt lat="42.8713" lon="0.03981">
        <ele>1483</ele>
        <time>2013-02-16T10:04:27Z</time>
      </trkpt>
      <trkpt lat="42.87129" lon="0.0398">
        <ele>1484</ele>
        <time>2013-02-16T10:04:30Z</time>
      </trkpt>
      <trkpt lat="42.87128" lon="0.03979">
        <ele>1485</ele>
        <time>2013-02-16T10:04:33Z</time>
      </trkpt>
      <trkpt lat="42.87127" lon="0.03978">
        <ele>1485</ele>
        <time>2013-02-16T10:04:36Z</time>
      </trkpt>
      <trkpt lat="42.87125" lon="0.03977">
        <ele>1489</ele>
        <time>2013-02-16T10:04:59Z</time>
      </trkpt>
      <trkpt lat="42.87124" lon="0.03976">
        <ele>1490</ele>
        <time>2013-02-16T10:05:07Z</time>
      </trkpt>
      <trkpt lat="42.87123" lon="0.03975">
        <ele>1490</ele>
        <time>2013-02-16T10:05:10Z</time>
      </trkpt>
      <trkpt lat="42.87121" lon="0.03973">
        <ele>1491</ele>
        <time>2013-02-16T10:05:13Z</time>
      </trkpt>
      <trkpt lat="42.87119" lon="0.03972">
        <ele>1491</ele>
        <time>2013-02-16T10:05:16Z</time>
      </trkpt>
      <trkpt lat="42.87118" lon="0.03971">
        <ele>1491</ele>
        <time>2013-02-16T10:05:20Z</time>
      </trkpt>
      <trkpt lat="42.87117" lon="0.03969">
        <ele>1491</ele>
        <time>2013-02-16T10:05:23Z</time>
      </trkpt>
      <trkpt lat="42.87115" lon="0.03968">
        <ele>1491</ele>
        <time>2013-02-16T10:05:26Z</time>
      </trkpt>
      <trkpt lat="42.87114" lon="0.03966">
        <ele>1491</ele>
        <time>2013-02-16T10:05:28Z</time>
      </trkpt>
      <trkpt lat="42.87113" lon="0.03965">
        <ele>1492</ele>
        <time>2013-02-16T10:05:31Z</time>
      </trkpt>
      <trkpt lat="42.87112" lon="0.03963">
        <ele>1492</ele>
        <time>2013-02-16T10:05:34Z</time>
      </trkpt>
      <trkpt lat="42.8711" lon="0.03962">
        <ele>1493</ele>
        <time>2013-02-16T10:05:37Z</time>
      </trkpt>
      <trkpt lat="42.87109" lon="0.03961">
        <ele>1493</ele>
        <time>2013-02-16T10:05:40Z</time>
      </trkpt>
      <trkpt lat="42.87108" lon="0.0396">
        <ele>1494</ele>
        <time>2013-02-16T10:05:42Z</time>
      </trkpt>
      <trkpt lat="42.87106" lon="0.03959">
        <ele>1494</ele>
        <time>2013-02-16T10:05:45Z</time>
      </trkpt>
      <trkpt lat="42.87105" lon="0.03957">
        <ele>1495</ele>
        <time>2013-02-16T10:05:48Z</time>
      </trkpt>
      <trkpt lat="42.87103" lon="0.03956">
        <ele>1495</ele>
        <time>2013-02-16T10:05:51Z</time>
      </trkpt>
      <trkpt lat="42.87102" lon="0.03954">
        <ele>1496</ele>
        <time>2013-02-16T10:05:54Z</time>
      </trkpt>
      <trkpt lat="42.871" lon="0.03953">
        <ele>1497</ele>
        <time>2013-02-16T10:05:57Z</time>
      </trkpt>
      <trkpt lat="42.87099" lon="0.03951">
        <ele>1497</ele>
        <time>2013-02-16T10:06:00Z</time>
      </trkpt>
      <trkpt lat="42.87098" lon="0.0395">
        <ele>1498</ele>
        <time>2013-02-16T10:06:03Z</time>
      </trkpt>
      <trkpt lat="42.87096" lon="0.03949">
        <ele>1498</ele>
        <time>2013-02-16T10:06:05Z</time>
      </trkpt>
      <trkpt lat="42.87095" lon="0.03947">
        <ele>1498</ele>
        <time>2013-02-16T10:06:08Z</time>
      </trkpt>
      <trkpt lat="42.87093" lon="0.03946">
        <ele>1498</ele>
        <time>2013-02-16T10:06:11Z</time>
      </trkpt>
      <trkpt lat="42.87092" lon="0.03946">
        <ele>1498</ele>
        <time>2013-02-16T10:06:14Z</time>
      </trkpt>
      <trkpt lat="42.87091" lon="0.03945">
        <ele>1498</ele>
        <time>2013-02-16T10:06:17Z</time>
      </trkpt>
      <trkpt lat="42.87089" lon="0.03944">
        <ele>1499</ele>
        <time>2013-02-16T10:06:20Z</time>
      </trkpt>
      <trkpt lat="42.87088" lon="0.03943">
        <ele>1499</ele>
        <time>2013-02-16T10:06:23Z</time>
      </trkpt>
      <trkpt lat="42.87088" lon="0.03945">
        <ele>1499</ele>
        <time>2013-02-16T10:06:31Z</time>
      </trkpt>
      <trkpt lat="42.87087" lon="0.03945">
        <ele>1499</ele>
        <time>2013-02-16T10:06:41Z</time>
      </trkpt>
      <trkpt lat="42.87085" lon="0.03944">
        <ele>1499</ele>
        <time>2013-02-16T10:06:44Z</time>
      </trkpt>
      <trkpt lat="42.87084" lon="0.03942">
        <ele>1499</ele>
        <time>2013-02-16T10:06:47Z</time>
      </trkpt>
      <trkpt lat="42.87083" lon="0.03941">
        <ele>1499</ele>
        <time>2013-02-16T10:06:49Z</time>
      </trkpt>
      <trkpt lat="42.87081" lon="0.0394">
        <ele>1499</ele>
        <time>2013-02-16T10:06:52Z</time>
      </trkpt>
      <trkpt lat="42.8708" lon="0.03939">
        <ele>1499</ele>
        <time>2013-02-16T10:06:54Z</time>
      </trkpt>
      <trkpt lat="42.87078" lon="0.03937">
        <ele>1500</ele>
        <time>2013-02-16T10:06:57Z</time>
      </trkpt>
      <trkpt lat="42.87077" lon="0.03937">
        <ele>1500</ele>
        <time>2013-02-16T10:06:59Z</time>
      </trkpt>
      <trkpt lat="42.87075" lon="0.03935">
        <ele>1500</ele>
        <time>2013-02-16T10:07:02Z</time>
      </trkpt>
      <trkpt lat="42.87074" lon="0.03934">
        <ele>1500</ele>
        <time>2013-02-16T10:07:05Z</time>
      </trkpt>
      <trkpt lat="42.87072" lon="0.03933">
        <ele>1500</ele>
        <time>2013-02-16T10:07:08Z</time>
      </trkpt>
      <trkpt lat="42.8707" lon="0.03932">
        <ele>1501</ele>
        <time>2013-02-16T10:07:11Z</time>
      </trkpt>
      <trkpt lat="42.87069" lon="0.0393">
        <ele>1501</ele>
        <time>2013-02-16T10:07:14Z</time>
      </trkpt>
      <trkpt lat="42.87068" lon="0.03929">
        <ele>1501</ele>
        <time>2013-02-16T10:07:16Z</time>
      </trkpt>
      <trkpt lat="42.87066" lon="0.03927">
        <ele>1502</ele>
        <time>2013-02-16T10:07:19Z</time>
      </trkpt>
      <trkpt lat="42.87065" lon="0.03926">
        <ele>1502</ele>
        <time>2013-02-16T10:07:22Z</time>
      </trkpt>
      <trkpt lat="42.87064" lon="0.03924">
        <ele>1502</ele>
        <time>2013-02-16T10:07:24Z</time>
      </trkpt>
      <trkpt lat="42.87062" lon="0.03923">
        <ele>1502</ele>
        <time>2013-02-16T10:07:27Z</time>
      </trkpt>
      <trkpt lat="42.87061" lon="0.03921">
        <ele>1503</ele>
        <time>2013-02-16T10:07:30Z</time>
      </trkpt>
      <trkpt lat="42.87059" lon="0.0392">
        <ele>1505</ele>
        <time>2013-02-16T10:07:46Z</time>
      </trkpt>
      <trkpt lat="42.87058" lon="0.03919">
        <ele>1505</ele>
        <time>2013-02-16T10:07:49Z</time>
      </trkpt>
      <trkpt lat="42.87056" lon="0.03918">
        <ele>1505</ele>
        <time>2013-02-16T10:07:52Z</time>
      </trkpt>
      <trkpt lat="42.87055" lon="0.03916">
        <ele>1506</ele>
        <time>2013-02-16T10:07:55Z</time>
      </trkpt>
      <trkpt lat="42.87053" lon="0.03915">
        <ele>1506</ele>
        <time>2013-02-16T10:07:58Z</time>
      </trkpt>
      <trkpt lat="42.87052" lon="0.03914">
        <ele>1506</ele>
        <time>2013-02-16T10:08:00Z</time>
      </trkpt>
      <trkpt lat="42.87051" lon="0.03913">
        <ele>1507</ele>
        <time>2013-02-16T10:08:03Z</time>
      </trkpt>
      <trkpt lat="42.87049" lon="0.03912">
        <ele>1507</ele>
        <time>2013-02-16T10:08:05Z</time>
      </trkpt>
      <trkpt lat="42.87048" lon="0.03911">
        <ele>1507</ele>
        <time>2013-02-16T10:08:08Z</time>
      </trkpt>
      <trkpt lat="42.87046" lon="0.0391">
        <ele>1508</ele>
        <time>2013-02-16T10:08:11Z</time>
      </trkpt>
      <trkpt lat="42.87045" lon="0.03909">
        <ele>1508</ele>
        <time>2013-02-16T10:08:13Z</time>
      </trkpt>
      <trkpt lat="42.87044" lon="0.03908">
        <ele>1508</ele>
        <time>2013-02-16T10:08:15Z</time>
      </trkpt>
      <trkpt lat="42.87043" lon="0.03907">
        <ele>1509</ele>
        <time>2013-02-16T10:08:18Z</time>
      </trkpt>
      <trkpt lat="42.87041" lon="0.03906">
        <ele>1509</ele>
        <time>2013-02-16T10:08:21Z</time>
      </trkpt>
      <trkpt lat="42.8704" lon="0.03904">
        <ele>1510</ele>
        <time>2013-02-16T10:08:24Z</time>
      </trkpt>
      <trkpt lat="42.87038" lon="0.03903">
        <ele>1510</ele>
        <time>2013-02-16T10:08:27Z</time>
      </trkpt>
      <trkpt lat="42.87037" lon="0.03903">
        <ele>1511</ele>
        <time>2013-02-16T10:08:30Z</time>
      </trkpt>
      <trkpt lat="42.87035" lon="0.03901">
        <ele>1511</ele>
        <time>2013-02-16T10:08:33Z</time>
      </trkpt>
      <trkpt lat="42.87034" lon="0.03901">
        <ele>1512</ele>
        <time>2013-02-16T10:08:35Z</time>
      </trkpt>
      <trkpt lat="42.87033" lon="0.039">
        <ele>1512</ele>
        <time>2013-02-16T10:08:37Z</time>
      </trkpt>
      <trkpt lat="42.87032" lon="0.03899">
        <ele>1513</ele>
        <time>2013-02-16T10:08:39Z</time>
      </trkpt>
      <trkpt lat="42.87031" lon="0.03898">
        <ele>1513</ele>
        <time>2013-02-16T10:08:41Z</time>
      </trkpt>
      <trkpt lat="42.8703" lon="0.03897">
        <ele>1513</ele>
        <time>2013-02-16T10:08:43Z</time>
      </trkpt>
      <trkpt lat="42.87028" lon="0.03895">
        <ele>1513</ele>
        <time>2013-02-16T10:08:46Z</time>
      </trkpt>
      <trkpt lat="42.87027" lon="0.03895">
        <ele>1513</ele>
        <time>2013-02-16T10:08:48Z</time>
      </trkpt>
      <trkpt lat="42.87025" lon="0.03894">
        <ele>1514</ele>
        <time>2013-02-16T10:08:51Z</time>
      </trkpt>
      <trkpt lat="42.87024" lon="0.03892">
        <ele>1514</ele>
        <time>2013-02-16T10:08:54Z</time>
      </trkpt>
      <trkpt lat="42.87022" lon="0.03892">
        <ele>1517</ele>
        <time>2013-02-16T10:09:24Z</time>
      </trkpt>
      <trkpt lat="42.87021" lon="0.03892">
        <ele>1517</ele>
        <time>2013-02-16T10:09:26Z</time>
      </trkpt>
      <trkpt lat="42.8702" lon="0.0389">
        <ele>1518</ele>
        <time>2013-02-16T10:09:29Z</time>
      </trkpt>
      <trkpt lat="42.87018" lon="0.03889">
        <ele>1518</ele>
        <time>2013-02-16T10:09:32Z</time>
      </trkpt>
      <trkpt lat="42.87017" lon="0.03888">
        <ele>1518</ele>
        <time>2013-02-16T10:09:35Z</time>
      </trkpt>
      <trkpt lat="42.87015" lon="0.03886">
        <ele>1518</ele>
        <time>2013-02-16T10:09:38Z</time>
      </trkpt>
      <trkpt lat="42.87013" lon="0.03885">
        <ele>1519</ele>
        <time>2013-02-16T10:09:41Z</time>
      </trkpt>
      <trkpt lat="42.87012" lon="0.03884">
        <ele>1519</ele>
        <time>2013-02-16T10:09:43Z</time>
      </trkpt>
      <trkpt lat="42.87011" lon="0.03883">
        <ele>1519</ele>
        <time>2013-02-16T10:09:45Z</time>
      </trkpt>
      <trkpt lat="42.8701" lon="0.03881">
        <ele>1519</ele>
        <time>2013-02-16T10:09:47Z</time>
      </trkpt>
      <trkpt lat="42.87009" lon="0.0388">
        <ele>1519</ele>
        <time>2013-02-16T10:09:49Z</time>
      </trkpt>
      <trkpt lat="42.87007" lon="0.03878">
        <ele>1520</ele>
        <time>2013-02-16T10:09:51Z</time>
      </trkpt>
      <trkpt lat="42.87006" lon="0.03877">
        <ele>1520</ele>
        <time>2013-02-16T10:09:53Z</time>
      </trkpt>
      <trkpt lat="42.87005" lon="0.03876">
        <ele>1520</ele>
        <time>2013-02-16T10:09:55Z</time>
      </trkpt>
      <trkpt lat="42.87003" lon="0.03875">
        <ele>1520</ele>
        <time>2013-02-16T10:09:57Z</time>
      </trkpt>
      <trkpt lat="42.87002" lon="0.03874">
        <ele>1521</ele>
        <time>2013-02-16T10:10:00Z</time>
      </trkpt>
      <trkpt lat="42.87001" lon="0.03873">
        <ele>1521</ele>
        <time>2013-02-16T10:10:02Z</time>
      </trkpt>
      <trkpt lat="42.86999" lon="0.03871">
        <ele>1521</ele>
        <time>2013-02-16T10:10:05Z</time>
      </trkpt>
      <trkpt lat="42.86998" lon="0.03871">
        <ele>1522</ele>
        <time>2013-02-16T10:10:07Z</time>
      </trkpt>
      <trkpt lat="42.86996" lon="0.0387">
        <ele>1522</ele>
        <time>2013-02-16T10:10:10Z</time>
      </trkpt>
      <trkpt lat="42.86995" lon="0.03868">
        <ele>1522</ele>
        <time>2013-02-16T10:10:13Z</time>
      </trkpt>
      <trkpt lat="42.86993" lon="0.03867">
        <ele>1523</ele>
        <time>2013-02-16T10:10:16Z</time>
      </trkpt>
      <trkpt lat="42.86992" lon="0.03866">
        <ele>1523</ele>
        <time>2013-02-16T10:10:18Z</time>
      </trkpt>
      <trkpt lat="42.8699" lon="0.03865">
        <ele>1524</ele>
        <time>2013-02-16T10:10:21Z</time>
      </trkpt>
      <trkpt lat="42.86989" lon="0.03864">
        <ele>1524</ele>
        <time>2013-02-16T10:10:24Z</time>
      </trkpt>
      <trkpt lat="42.86987" lon="0.03862">
        <ele>1525</ele>
        <time>2013-02-16T10:10:27Z</time>
      </trkpt>
      <trkpt lat="42.86986" lon="0.03862">
        <ele>1525</ele>
        <time>2013-02-16T10:10:29Z</time>
      </trkpt>
      <trkpt lat="42.86985" lon="0.0386">
        <ele>1525</ele>
        <time>2013-02-16T10:10:32Z</time>
      </trkpt>
      <trkpt lat="42.86983" lon="0.03859">
        <ele>1526</ele>
        <time>2013-02-16T10:10:35Z</time>
      </trkpt>
      <trkpt lat="42.86982" lon="0.03858">
        <ele>1526</ele>
        <time>2013-02-16T10:10:38Z</time>
      </trkpt>
      <trkpt lat="42.8698" lon="0.03857">
        <ele>1526</ele>
        <time>2013-02-16T10:10:41Z</time>
      </trkpt>
      <trkpt lat="42.86979" lon="0.03857">
        <ele>1526</ele>
        <time>2013-02-16T10:10:44Z</time>
      </trkpt>
      <trkpt lat="42.86978" lon="0.03856">
        <ele>1526</ele>
        <time>2013-02-16T10:10:47Z</time>
      </trkpt>
      <trkpt lat="42.86977" lon="0.03855">
        <ele>1527</ele>
        <time>2013-02-16T10:10:50Z</time>
      </trkpt>
      <trkpt lat="42.86975" lon="0.03853">
        <ele>1528</ele>
        <time>2013-02-16T10:10:53Z</time>
      </trkpt>
      <trkpt lat="42.86974" lon="0.03852">
        <ele>1529</ele>
        <time>2013-02-16T10:10:56Z</time>
      </trkpt>
      <trkpt lat="42.86973" lon="0.0385">
        <ele>1529</ele>
        <time>2013-02-16T10:10:59Z</time>
      </trkpt>
      <trkpt lat="42.86971" lon="0.03849">
        <ele>1530</ele>
        <time>2013-02-16T10:11:02Z</time>
      </trkpt>
      <trkpt lat="42.8697" lon="0.03847">
        <ele>1530</ele>
        <time>2013-02-16T10:11:05Z</time>
      </trkpt>
      <trkpt lat="42.86969" lon="0.03847">
        <ele>1532</ele>
        <time>2013-02-16T10:11:22Z</time>
      </trkpt>
      <trkpt lat="42.86968" lon="0.03845">
        <ele>1533</ele>
        <time>2013-02-16T10:11:26Z</time>
      </trkpt>
      <trkpt lat="42.86967" lon="0.03844">
        <ele>1533</ele>
        <time>2013-02-16T10:11:28Z</time>
      </trkpt>
      <trkpt lat="42.86966" lon="0.03843">
        <ele>1534</ele>
        <time>2013-02-16T10:11:30Z</time>
      </trkpt>
      <trkpt lat="42.86964" lon="0.03841">
        <ele>1534</ele>
        <time>2013-02-16T10:11:33Z</time>
      </trkpt>
      <trkpt lat="42.86963" lon="0.0384">
        <ele>1535</ele>
        <time>2013-02-16T10:11:36Z</time>
      </trkpt>
      <trkpt lat="42.86962" lon="0.03839">
        <ele>1535</ele>
        <time>2013-02-16T10:11:38Z</time>
      </trkpt>
      <trkpt lat="42.86961" lon="0.03838">
        <ele>1536</ele>
        <time>2013-02-16T10:11:40Z</time>
      </trkpt>
      <trkpt lat="42.86959" lon="0.03836">
        <ele>1536</ele>
        <time>2013-02-16T10:11:43Z</time>
      </trkpt>
      <trkpt lat="42.86958" lon="0.03835">
        <ele>1536</ele>
        <time>2013-02-16T10:11:46Z</time>
      </trkpt>
      <trkpt lat="42.86956" lon="0.03833">
        <ele>1536</ele>
        <time>2013-02-16T10:11:49Z</time>
      </trkpt>
      <trkpt lat="42.86955" lon="0.03832">
        <ele>1537</ele>
        <time>2013-02-16T10:11:52Z</time>
      </trkpt>
      <trkpt lat="42.86956" lon="0.03834">
        <ele>1537</ele>
        <time>2013-02-16T10:12:21Z</time>
      </trkpt>
      <trkpt lat="42.86957" lon="0.03834">
        <ele>1537</ele>
        <time>2013-02-16T10:12:25Z</time>
      </trkpt>
      <trkpt lat="42.86957" lon="0.03832">
        <ele>1537</ele>
        <time>2013-02-16T10:12:33Z</time>
      </trkpt>
      <trkpt lat="42.86957" lon="0.03831">
        <ele>1538</ele>
        <time>2013-02-16T10:12:45Z</time>
      </trkpt>
      <trkpt lat="42.86956" lon="0.0383">
        <ele>1540</ele>
        <time>2013-02-16T10:13:09Z</time>
      </trkpt>
      <trkpt lat="42.86954" lon="0.03828">
        <ele>1540</ele>
        <time>2013-02-16T10:13:16Z</time>
      </trkpt>
      <trkpt lat="42.86953" lon="0.03827">
        <ele>1540</ele>
        <time>2013-02-16T10:13:19Z</time>
      </trkpt>
      <trkpt lat="42.86951" lon="0.03826">
        <ele>1540</ele>
        <time>2013-02-16T10:13:21Z</time>
      </trkpt>
      <trkpt lat="42.8695" lon="0.03825">
        <ele>1540</ele>
        <time>2013-02-16T10:13:24Z</time>
      </trkpt>
      <trkpt lat="42.86949" lon="0.03823">
        <ele>1541</ele>
        <time>2013-02-16T10:13:27Z</time>
      </trkpt>
      <trkpt lat="42.86948" lon="0.03821">
        <ele>1541</ele>
        <time>2013-02-16T10:13:29Z</time>
      </trkpt>
      <trkpt lat="42.86947" lon="0.03823">
        <ele>1541</ele>
        <time>2013-02-16T10:13:42Z</time>
      </trkpt>
      <trkpt lat="42.86946" lon="0.03821">
        <ele>1541</ele>
        <time>2013-02-16T10:13:48Z</time>
      </trkpt>
      <trkpt lat="42.86945" lon="0.03819">
        <ele>1541</ele>
        <time>2013-02-16T10:13:50Z</time>
      </trkpt>
      <trkpt lat="42.86944" lon="0.03817">
        <ele>1541</ele>
        <time>2013-02-16T10:13:52Z</time>
      </trkpt>
      <trkpt lat="42.86943" lon="0.03816">
        <ele>1541</ele>
        <time>2013-02-16T10:13:54Z</time>
      </trkpt>
      <trkpt lat="42.86942" lon="0.03814">
        <ele>1541</ele>
        <time>2013-02-16T10:13:56Z</time>
      </trkpt>
      <trkpt lat="42.86941" lon="0.03812">
        <ele>1541</ele>
        <time>2013-02-16T10:13:58Z</time>
      </trkpt>
      <trkpt lat="42.8694" lon="0.0381">
        <ele>1541</ele>
        <time>2013-02-16T10:14:00Z</time>
      </trkpt>
      <trkpt lat="42.86938" lon="0.03808">
        <ele>1541</ele>
        <time>2013-02-16T10:14:03Z</time>
      </trkpt>
      <trkpt lat="42.86937" lon="0.03807">
        <ele>1541</ele>
        <time>2013-02-16T10:14:05Z</time>
      </trkpt>
      <trkpt lat="42.86936" lon="0.03805">
        <ele>1541</ele>
        <time>2013-02-16T10:14:07Z</time>
      </trkpt>
      <trkpt lat="42.86935" lon="0.03804">
        <ele>1541</ele>
        <time>2013-02-16T10:14:09Z</time>
      </trkpt>
      <trkpt lat="42.86934" lon="0.03802">
        <ele>1541</ele>
        <time>2013-02-16T10:14:11Z</time>
      </trkpt>
      <trkpt lat="42.86933" lon="0.038">
        <ele>1541</ele>
        <time>2013-02-16T10:14:13Z</time>
      </trkpt>
      <trkpt lat="42.86932" lon="0.03799">
        <ele>1541</ele>
        <time>2013-02-16T10:14:15Z</time>
      </trkpt>
      <trkpt lat="42.86931" lon="0.03797">
        <ele>1541</ele>
        <time>2013-02-16T10:14:17Z</time>
      </trkpt>
      <trkpt lat="42.86929" lon="0.03796">
        <ele>1541</ele>
        <time>2013-02-16T10:14:19Z</time>
      </trkpt>
      <trkpt lat="42.86928" lon="0.03793">
        <ele>1541</ele>
        <time>2013-02-16T10:14:22Z</time>
      </trkpt>
      <trkpt lat="42.86927" lon="0.03792">
        <ele>1541</ele>
        <time>2013-02-16T10:14:24Z</time>
      </trkpt>
      <trkpt lat="42.86926" lon="0.03791">
        <ele>1541</ele>
        <time>2013-02-16T10:14:26Z</time>
      </trkpt>
      <trkpt lat="42.86925" lon="0.03789">
        <ele>1541</ele>
        <time>2013-02-16T10:14:28Z</time>
      </trkpt>
      <trkpt lat="42.86924" lon="0.03787">
        <ele>1541</ele>
        <time>2013-02-16T10:14:30Z</time>
      </trkpt>
      <trkpt lat="42.86923" lon="0.03786">
        <ele>1541</ele>
        <time>2013-02-16T10:14:32Z</time>
      </trkpt>
      <trkpt lat="42.86922" lon="0.03784">
        <ele>1541</ele>
        <time>2013-02-16T10:14:34Z</time>
      </trkpt>
      <trkpt lat="42.86921" lon="0.03783">
        <ele>1541</ele>
        <time>2013-02-16T10:14:36Z</time>
      </trkpt>
      <trkpt lat="42.86919" lon="0.03781">
        <ele>1541</ele>
        <time>2013-02-16T10:14:38Z</time>
      </trkpt>
      <trkpt lat="42.86919" lon="0.03779">
        <ele>1541</ele>
        <time>2013-02-16T10:14:40Z</time>
      </trkpt>
      <trkpt lat="42.86917" lon="0.03777">
        <ele>1542</ele>
        <time>2013-02-16T10:14:42Z</time>
      </trkpt>
      <trkpt lat="42.86916" lon="0.03775">
        <ele>1542</ele>
        <time>2013-02-16T10:14:45Z</time>
      </trkpt>
      <trkpt lat="42.86915" lon="0.03773">
        <ele>1542</ele>
        <time>2013-02-16T10:14:47Z</time>
      </trkpt>
      <trkpt lat="42.86914" lon="0.03772">
        <ele>1542</ele>
        <time>2013-02-16T10:14:49Z</time>
      </trkpt>
      <trkpt lat="42.86913" lon="0.0377">
        <ele>1543</ele>
        <time>2013-02-16T10:14:51Z</time>
      </trkpt>
      <trkpt lat="42.86911" lon="0.03768">
        <ele>1543</ele>
        <time>2013-02-16T10:14:53Z</time>
      </trkpt>
      <trkpt lat="42.8691" lon="0.03766">
        <ele>1543</ele>
        <time>2013-02-16T10:14:56Z</time>
      </trkpt>
      <trkpt lat="42.86909" lon="0.03765">
        <ele>1543</ele>
        <time>2013-02-16T10:14:58Z</time>
      </trkpt>
      <trkpt lat="42.86908" lon="0.03763">
        <ele>1543</ele>
        <time>2013-02-16T10:15:00Z</time>
      </trkpt>
      <trkpt lat="42.86908" lon="0.03761">
        <ele>1543</ele>
        <time>2013-02-16T10:15:02Z</time>
      </trkpt>
      <trkpt lat="42.86906" lon="0.03759">
        <ele>1543</ele>
        <time>2013-02-16T10:15:04Z</time>
      </trkpt>
      <trkpt lat="42.86906" lon="0.03757">
        <ele>1543</ele>
        <time>2013-02-16T10:15:06Z</time>
      </trkpt>
      <trkpt lat="42.86905" lon="0.03755">
        <ele>1543</ele>
        <time>2013-02-16T10:15:08Z</time>
      </trkpt>
      <trkpt lat="42.86904" lon="0.03753">
        <ele>1544</ele>
        <time>2013-02-16T10:15:10Z</time>
      </trkpt>
      <trkpt lat="42.86903" lon="0.03752">
        <ele>1544</ele>
        <time>2013-02-16T10:15:12Z</time>
      </trkpt>
      <trkpt lat="42.86903" lon="0.0375">
        <ele>1544</ele>
        <time>2013-02-16T10:15:14Z</time>
      </trkpt>
      <trkpt lat="42.86902" lon="0.03748">
        <ele>1545</ele>
        <time>2013-02-16T10:15:16Z</time>
      </trkpt>
      <trkpt lat="42.86902" lon="0.03746">
        <ele>1545</ele>
        <time>2013-02-16T10:15:18Z</time>
      </trkpt>
      <trkpt lat="42.86902" lon="0.03745">
        <ele>1545</ele>
        <time>2013-02-16T10:15:20Z</time>
      </trkpt>
      <trkpt lat="42.86901" lon="0.03743">
        <ele>1546</ele>
        <time>2013-02-16T10:15:22Z</time>
      </trkpt>
      <trkpt lat="42.86901" lon="0.0374">
        <ele>1546</ele>
        <time>2013-02-16T10:15:25Z</time>
      </trkpt>
      <trkpt lat="42.869" lon="0.03739">
        <ele>1546</ele>
        <time>2013-02-16T10:15:27Z</time>
      </trkpt>
      <trkpt lat="42.869" lon="0.03737">
        <ele>1546</ele>
        <time>2013-02-16T10:15:29Z</time>
      </trkpt>
      <trkpt lat="42.869" lon="0.03736">
        <ele>1546</ele>
        <time>2013-02-16T10:15:31Z</time>
      </trkpt>
      <trkpt lat="42.86899" lon="0.03734">
        <ele>1547</ele>
        <time>2013-02-16T10:15:33Z</time>
      </trkpt>
      <trkpt lat="42.86899" lon="0.03732">
        <ele>1547</ele>
        <time>2013-02-16T10:15:35Z</time>
      </trkpt>
      <trkpt lat="42.86898" lon="0.03731">
        <ele>1548</ele>
        <time>2013-02-16T10:15:37Z</time>
      </trkpt>
      <trkpt lat="42.86898" lon="0.03729">
        <ele>1548</ele>
        <time>2013-02-16T10:15:39Z</time>
      </trkpt>
      <trkpt lat="42.86898" lon="0.03727">
        <ele>1548</ele>
        <time>2013-02-16T10:15:41Z</time>
      </trkpt>
      <trkpt lat="42.86897" lon="0.03725">
        <ele>1548</ele>
        <time>2013-02-16T10:15:43Z</time>
      </trkpt>
      <trkpt lat="42.86897" lon="0.03723">
        <ele>1548</ele>
        <time>2013-02-16T10:15:45Z</time>
      </trkpt>
      <trkpt lat="42.86897" lon="0.03722">
        <ele>1549</ele>
        <time>2013-02-16T10:15:47Z</time>
      </trkpt>
      <trkpt lat="42.86896" lon="0.0372">
        <ele>1549</ele>
        <time>2013-02-16T10:15:49Z</time>
      </trkpt>
      <trkpt lat="42.86896" lon="0.03719">
        <ele>1549</ele>
        <time>2013-02-16T10:15:51Z</time>
      </trkpt>
      <trkpt lat="42.86896" lon="0.03717">
        <ele>1549</ele>
        <time>2013-02-16T10:15:53Z</time>
      </trkpt>
      <trkpt lat="42.86896" lon="0.03715">
        <ele>1549</ele>
        <time>2013-02-16T10:15:55Z</time>
      </trkpt>
      <trkpt lat="42.86896" lon="0.03713">
        <ele>1549</ele>
        <time>2013-02-16T10:15:57Z</time>
      </trkpt>
      <trkpt lat="42.86897" lon="0.03711">
        <ele>1549</ele>
        <time>2013-02-16T10:15:59Z</time>
      </trkpt>
      <trkpt lat="42.86898" lon="0.03709">
        <ele>1549</ele>
        <time>2013-02-16T10:16:02Z</time>
      </trkpt>
      <trkpt lat="42.86899" lon="0.03708">
        <ele>1550</ele>
        <time>2013-02-16T10:16:05Z</time>
      </trkpt>
      <trkpt lat="42.869" lon="0.03706">
        <ele>1550</ele>
        <time>2013-02-16T10:16:08Z</time>
      </trkpt>
      <trkpt lat="42.869" lon="0.03704">
        <ele>1550</ele>
        <time>2013-02-16T10:16:10Z</time>
      </trkpt>
      <trkpt lat="42.869" lon="0.03703">
        <ele>1551</ele>
        <time>2013-02-16T10:16:12Z</time>
      </trkpt>
      <trkpt lat="42.869" lon="0.03701">
        <ele>1551</ele>
        <time>2013-02-16T10:16:14Z</time>
      </trkpt>
      <trkpt lat="42.869" lon="0.03699">
        <ele>1551</ele>
        <time>2013-02-16T10:16:16Z</time>
      </trkpt>
      <trkpt lat="42.86899" lon="0.03698">
        <ele>1551</ele>
        <time>2013-02-16T10:16:18Z</time>
      </trkpt>
      <trkpt lat="42.86898" lon="0.03696">
        <ele>1551</ele>
        <time>2013-02-16T10:16:35Z</time>
      </trkpt>
      <trkpt lat="42.86898" lon="0.03694">
        <ele>1551</ele>
        <time>2013-02-16T10:16:37Z</time>
      </trkpt>
      <trkpt lat="42.86898" lon="0.03692">
        <ele>1551</ele>
        <time>2013-02-16T10:16:39Z</time>
      </trkpt>
      <trkpt lat="42.86897" lon="0.03691">
        <ele>1551</ele>
        <time>2013-02-16T10:16:41Z</time>
      </trkpt>
      <trkpt lat="42.86897" lon="0.03689">
        <ele>1551</ele>
        <time>2013-02-16T10:16:43Z</time>
      </trkpt>
      <trkpt lat="42.86897" lon="0.03687">
        <ele>1551</ele>
        <time>2013-02-16T10:16:45Z</time>
      </trkpt>
      <trkpt lat="42.86896" lon="0.03686">
        <ele>1552</ele>
        <time>2013-02-16T10:16:47Z</time>
      </trkpt>
      <trkpt lat="42.86895" lon="0.03684">
        <ele>1552</ele>
        <time>2013-02-16T10:16:49Z</time>
      </trkpt>
      <trkpt lat="42.86894" lon="0.03682">
        <ele>1553</ele>
        <time>2013-02-16T10:16:51Z</time>
      </trkpt>
      <trkpt lat="42.86893" lon="0.03681">
        <ele>1553</ele>
        <time>2013-02-16T10:16:53Z</time>
      </trkpt>
      <trkpt lat="42.86892" lon="0.03679">
        <ele>1553</ele>
        <time>2013-02-16T10:16:56Z</time>
      </trkpt>
      <trkpt lat="42.8689" lon="0.03677">
        <ele>1554</ele>
        <time>2013-02-16T10:16:59Z</time>
      </trkpt>
      <trkpt lat="42.86889" lon="0.03676">
        <ele>1554</ele>
        <time>2013-02-16T10:17:01Z</time>
      </trkpt>
      <trkpt lat="42.86887" lon="0.03674">
        <ele>1554</ele>
        <time>2013-02-16T10:17:04Z</time>
      </trkpt>
      <trkpt lat="42.86886" lon="0.03673">
        <ele>1555</ele>
        <time>2013-02-16T10:17:06Z</time>
      </trkpt>
      <trkpt lat="42.86885" lon="0.03672">
        <ele>1555</ele>
        <time>2013-02-16T10:17:08Z</time>
      </trkpt>
      <trkpt lat="42.86884" lon="0.0367">
        <ele>1555</ele>
        <time>2013-02-16T10:17:10Z</time>
      </trkpt>
      <trkpt lat="42.86883" lon="0.03669">
        <ele>1556</ele>
        <time>2013-02-16T10:17:12Z</time>
      </trkpt>
      <trkpt lat="42.86881" lon="0.03669">
        <ele>1556</ele>
        <time>2013-02-16T10:17:14Z</time>
      </trkpt>
      <trkpt lat="42.8688" lon="0.03667">
        <ele>1556</ele>
        <time>2013-02-16T10:17:16Z</time>
      </trkpt>
      <trkpt lat="42.86879" lon="0.03667">
        <ele>1556</ele>
        <time>2013-02-16T10:17:18Z</time>
      </trkpt>
      <trkpt lat="42.86877" lon="0.03665">
        <ele>1556</ele>
        <time>2013-02-16T10:17:20Z</time>
      </trkpt>
      <trkpt lat="42.86876" lon="0.03664">
        <ele>1556</ele>
        <time>2013-02-16T10:17:22Z</time>
      </trkpt>
      <trkpt lat="42.86875" lon="0.03663">
        <ele>1556</ele>
        <time>2013-02-16T10:17:30Z</time>
      </trkpt>
      <trkpt lat="42.86874" lon="0.03662">
        <ele>1556</ele>
        <time>2013-02-16T10:17:32Z</time>
      </trkpt>
      <trkpt lat="42.86872" lon="0.03661">
        <ele>1556</ele>
        <time>2013-02-16T10:17:34Z</time>
      </trkpt>
      <trkpt lat="42.86871" lon="0.03661">
        <ele>1556</ele>
        <time>2013-02-16T10:17:36Z</time>
      </trkpt>
      <trkpt lat="42.86869" lon="0.0366">
        <ele>1556</ele>
        <time>2013-02-16T10:17:38Z</time>
      </trkpt>
      <trkpt lat="42.86868" lon="0.03659">
        <ele>1556</ele>
        <time>2013-02-16T10:17:40Z</time>
      </trkpt>
      <trkpt lat="42.86867" lon="0.03659">
        <ele>1556</ele>
        <time>2013-02-16T10:17:42Z</time>
      </trkpt>
      <trkpt lat="42.86865" lon="0.03658">
        <ele>1556</ele>
        <time>2013-02-16T10:17:45Z</time>
      </trkpt>
      <trkpt lat="42.86864" lon="0.03658">
        <ele>1556</ele>
        <time>2013-02-16T10:17:47Z</time>
      </trkpt>
      <trkpt lat="42.86863" lon="0.03657">
        <ele>1556</ele>
        <time>2013-02-16T10:17:49Z</time>
      </trkpt>
      <trkpt lat="42.86861" lon="0.03656">
        <ele>1556</ele>
        <time>2013-02-16T10:17:51Z</time>
      </trkpt>
      <trkpt lat="42.8686" lon="0.03655">
        <ele>1557</ele>
        <time>2013-02-16T10:17:54Z</time>
      </trkpt>
      <trkpt lat="42.86858" lon="0.03653">
        <ele>1558</ele>
        <time>2013-02-16T10:17:57Z</time>
      </trkpt>
      <trkpt lat="42.86858" lon="0.03651">
        <ele>1559</ele>
        <time>2013-02-16T10:18:00Z</time>
      </trkpt>
      <trkpt lat="42.86857" lon="0.03649">
        <ele>1559</ele>
        <time>2013-02-16T10:18:02Z</time>
      </trkpt>
      <trkpt lat="42.86857" lon="0.03647">
        <ele>1559</ele>
        <time>2013-02-16T10:18:04Z</time>
      </trkpt>
      <trkpt lat="42.86857" lon="0.03645">
        <ele>1560</ele>
        <time>2013-02-16T10:18:06Z</time>
      </trkpt>
      <trkpt lat="42.86857" lon="0.03644">
        <ele>1560</ele>
        <time>2013-02-16T10:18:08Z</time>
      </trkpt>
      <trkpt lat="42.86857" lon="0.03642">
        <ele>1561</ele>
        <time>2013-02-16T10:18:10Z</time>
      </trkpt>
      <trkpt lat="42.86857" lon="0.0364">
        <ele>1561</ele>
        <time>2013-02-16T10:18:13Z</time>
      </trkpt>
      <trkpt lat="42.86857" lon="0.03639">
        <ele>1561</ele>
        <time>2013-02-16T10:18:15Z</time>
      </trkpt>
      <trkpt lat="42.86858" lon="0.03637">
        <ele>1561</ele>
        <time>2013-02-16T10:18:17Z</time>
      </trkpt>
      <trkpt lat="42.86858" lon="0.03636">
        <ele>1561</ele>
        <time>2013-02-16T10:18:19Z</time>
      </trkpt>
      <trkpt lat="42.86857" lon="0.03634">
        <ele>1562</ele>
        <time>2013-02-16T10:18:21Z</time>
      </trkpt>
      <trkpt lat="42.86857" lon="0.03633">
        <ele>1562</ele>
        <time>2013-02-16T10:18:23Z</time>
      </trkpt>
      <trkpt lat="42.86857" lon="0.03631">
        <ele>1562</ele>
        <time>2013-02-16T10:18:25Z</time>
      </trkpt>
      <trkpt lat="42.86857" lon="0.03629">
        <ele>1562</ele>
        <time>2013-02-16T10:18:27Z</time>
      </trkpt>
      <trkpt lat="42.86857" lon="0.03628">
        <ele>1562</ele>
        <time>2013-02-16T10:18:29Z</time>
      </trkpt>
      <trkpt lat="42.86857" lon="0.03626">
        <ele>1562</ele>
        <time>2013-02-16T10:18:31Z</time>
      </trkpt>
      <trkpt lat="42.86858" lon="0.03625">
        <ele>1562</ele>
        <time>2013-02-16T10:18:33Z</time>
      </trkpt>
      <trkpt lat="42.86858" lon="0.03623">
        <ele>1562</ele>
        <time>2013-02-16T10:18:35Z</time>
      </trkpt>
      <trkpt lat="42.86858" lon="0.03622">
        <ele>1563</ele>
        <time>2013-02-16T10:18:37Z</time>
      </trkpt>
      <trkpt lat="42.86859" lon="0.0362">
        <ele>1563</ele>
        <time>2013-02-16T10:18:39Z</time>
      </trkpt>
      <trkpt lat="42.86859" lon="0.03618">
        <ele>1564</ele>
        <time>2013-02-16T10:18:41Z</time>
      </trkpt>
      <trkpt lat="42.8686" lon="0.03616">
        <ele>1565</ele>
        <time>2013-02-16T10:18:43Z</time>
      </trkpt>
      <trkpt lat="42.86859" lon="0.03615">
        <ele>1565</ele>
        <time>2013-02-16T10:18:45Z</time>
      </trkpt>
      <trkpt lat="42.86859" lon="0.03613">
        <ele>1566</ele>
        <time>2013-02-16T10:18:47Z</time>
      </trkpt>
      <trkpt lat="42.86859" lon="0.03611">
        <ele>1566</ele>
        <time>2013-02-16T10:18:49Z</time>
      </trkpt>
      <trkpt lat="42.86858" lon="0.0361">
        <ele>1566</ele>
        <time>2013-02-16T10:18:51Z</time>
      </trkpt>
      <trkpt lat="42.86858" lon="0.03608">
        <ele>1567</ele>
        <time>2013-02-16T10:18:53Z</time>
      </trkpt>
      <trkpt lat="42.86858" lon="0.03606">
        <ele>1567</ele>
        <time>2013-02-16T10:18:55Z</time>
      </trkpt>
      <trkpt lat="42.86858" lon="0.03604">
        <ele>1567</ele>
        <time>2013-02-16T10:18:57Z</time>
      </trkpt>
      <trkpt lat="42.86857" lon="0.03603">
        <ele>1568</ele>
        <time>2013-02-16T10:18:59Z</time>
      </trkpt>
      <trkpt lat="42.86857" lon="0.03602">
        <ele>1568</ele>
        <time>2013-02-16T10:19:01Z</time>
      </trkpt>
      <trkpt lat="42.86856" lon="0.03599">
        <ele>1569</ele>
        <time>2013-02-16T10:19:03Z</time>
      </trkpt>
      <trkpt lat="42.86856" lon="0.03598">
        <ele>1569</ele>
        <time>2013-02-16T10:19:05Z</time>
      </trkpt>
      <trkpt lat="42.86855" lon="0.03596">
        <ele>1570</ele>
        <time>2013-02-16T10:19:07Z</time>
      </trkpt>
      <trkpt lat="42.86855" lon="0.03594">
        <ele>1573</ele>
        <time>2013-02-16T10:19:21Z</time>
      </trkpt>
      <trkpt lat="42.86855" lon="0.03593">
        <ele>1573</ele>
        <time>2013-02-16T10:19:23Z</time>
      </trkpt>
      <trkpt lat="42.86854" lon="0.0359">
        <ele>1573</ele>
        <time>2013-02-16T10:19:25Z</time>
      </trkpt>
      <trkpt lat="42.86853" lon="0.03589">
        <ele>1573</ele>
        <time>2013-02-16T10:19:27Z</time>
      </trkpt>
      <trkpt lat="42.86853" lon="0.03587">
        <ele>1574</ele>
        <time>2013-02-16T10:19:29Z</time>
      </trkpt>
      <trkpt lat="42.86853" lon="0.03585">
        <ele>1574</ele>
        <time>2013-02-16T10:19:31Z</time>
      </trkpt>
      <trkpt lat="42.86852" lon="0.03583">
        <ele>1574</ele>
        <time>2013-02-16T10:19:33Z</time>
      </trkpt>
      <trkpt lat="42.86851" lon="0.0358">
        <ele>1574</ele>
        <time>2013-02-16T10:19:35Z</time>
      </trkpt>
      <trkpt lat="42.8685" lon="0.03578">
        <ele>1575</ele>
        <time>2013-02-16T10:19:37Z</time>
      </trkpt>
      <trkpt lat="42.8685" lon="0.03576">
        <ele>1575</ele>
        <time>2013-02-16T10:19:39Z</time>
      </trkpt>
      <trkpt lat="42.86849" lon="0.03575">
        <ele>1575</ele>
        <time>2013-02-16T10:19:41Z</time>
      </trkpt>
      <trkpt lat="42.86849" lon="0.03573">
        <ele>1575</ele>
        <time>2013-02-16T10:19:43Z</time>
      </trkpt>
      <trkpt lat="42.86848" lon="0.03571">
        <ele>1575</ele>
        <time>2013-02-16T10:19:45Z</time>
      </trkpt>
      <trkpt lat="42.86848" lon="0.03569">
        <ele>1575</ele>
        <time>2013-02-16T10:19:47Z</time>
      </trkpt>
      <trkpt lat="42.86847" lon="0.03567">
        <ele>1575</ele>
        <time>2013-02-16T10:19:49Z</time>
      </trkpt>
      <trkpt lat="42.86846" lon="0.03565">
        <ele>1575</ele>
        <time>2013-02-16T10:19:51Z</time>
      </trkpt>
      <trkpt lat="42.86846" lon="0.03563">
        <ele>1575</ele>
        <time>2013-02-16T10:19:53Z</time>
      </trkpt>
      <trkpt lat="42.86845" lon="0.03561">
        <ele>1575</ele>
        <time>2013-02-16T10:19:55Z</time>
      </trkpt>
      <trkpt lat="42.86845" lon="0.0356">
        <ele>1575</ele>
        <time>2013-02-16T10:19:57Z</time>
      </trkpt>
      <trkpt lat="42.86845" lon="0.03558">
        <ele>1575</ele>
        <time>2013-02-16T10:19:59Z</time>
      </trkpt>
      <trkpt lat="42.86845" lon="0.03556">
        <ele>1575</ele>
        <time>2013-02-16T10:20:01Z</time>
      </trkpt>
      <trkpt lat="42.86845" lon="0.03554">
        <ele>1575</ele>
        <time>2013-02-16T10:20:03Z</time>
      </trkpt>
      <trkpt lat="42.86845" lon="0.03553">
        <ele>1575</ele>
        <time>2013-02-16T10:20:05Z</time>
      </trkpt>
      <trkpt lat="42.86845" lon="0.03551">
        <ele>1576</ele>
        <time>2013-02-16T10:20:07Z</time>
      </trkpt>
      <trkpt lat="42.86844" lon="0.03549">
        <ele>1576</ele>
        <time>2013-02-16T10:20:09Z</time>
      </trkpt>
      <trkpt lat="42.86844" lon="0.03547">
        <ele>1577</ele>
        <time>2013-02-16T10:20:11Z</time>
      </trkpt>
      <trkpt lat="42.86844" lon="0.03545">
        <ele>1577</ele>
        <time>2013-02-16T10:20:13Z</time>
      </trkpt>
      <trkpt lat="42.86843" lon="0.03544">
        <ele>1577</ele>
        <time>2013-02-16T10:20:15Z</time>
      </trkpt>
      <trkpt lat="42.86843" lon="0.03542">
        <ele>1578</ele>
        <time>2013-02-16T10:20:17Z</time>
      </trkpt>
      <trkpt lat="42.86843" lon="0.0354">
        <ele>1578</ele>
        <time>2013-02-16T10:20:19Z</time>
      </trkpt>
      <trkpt lat="42.86842" lon="0.03538">
        <ele>1579</ele>
        <time>2013-02-16T10:20:22Z</time>
      </trkpt>
      <trkpt lat="42.86842" lon="0.03536">
        <ele>1579</ele>
        <time>2013-02-16T10:20:24Z</time>
      </trkpt>
      <trkpt lat="42.86842" lon="0.03534">
        <ele>1579</ele>
        <time>2013-02-16T10:20:26Z</time>
      </trkpt>
      <trkpt lat="42.86841" lon="0.03532">
        <ele>1579</ele>
        <time>2013-02-16T10:20:28Z</time>
      </trkpt>
      <trkpt lat="42.8684" lon="0.03531">
        <ele>1579</ele>
        <time>2013-02-16T10:20:30Z</time>
      </trkpt>
      <trkpt lat="42.86839" lon="0.03531">
        <ele>1579</ele>
        <time>2013-02-16T10:20:32Z</time>
      </trkpt>
      <trkpt lat="42.86838" lon="0.03531">
        <ele>1579</ele>
        <time>2013-02-16T10:20:34Z</time>
      </trkpt>
      <trkpt lat="42.86836" lon="0.03531">
        <ele>1579</ele>
        <time>2013-02-16T10:20:36Z</time>
      </trkpt>
      <trkpt lat="42.86835" lon="0.03532">
        <ele>1579</ele>
        <time>2013-02-16T10:20:38Z</time>
      </trkpt>
      <trkpt lat="42.86833" lon="0.03533">
        <ele>1579</ele>
        <time>2013-02-16T10:20:41Z</time>
      </trkpt>
      <trkpt lat="42.86832" lon="0.03534">
        <ele>1579</ele>
        <time>2013-02-16T10:20:43Z</time>
      </trkpt>
      <trkpt lat="42.86831" lon="0.03535">
        <ele>1580</ele>
        <time>2013-02-16T10:20:45Z</time>
      </trkpt>
      <trkpt lat="42.86829" lon="0.03535">
        <ele>1580</ele>
        <time>2013-02-16T10:20:48Z</time>
      </trkpt>
      <trkpt lat="42.86828" lon="0.03534">
        <ele>1580</ele>
        <time>2013-02-16T10:20:50Z</time>
      </trkpt>
      <trkpt lat="42.86826" lon="0.03534">
        <ele>1581</ele>
        <time>2013-02-16T10:20:52Z</time>
      </trkpt>
      <trkpt lat="42.86825" lon="0.03533">
        <ele>1581</ele>
        <time>2013-02-16T10:20:54Z</time>
      </trkpt>
      <trkpt lat="42.86824" lon="0.03533">
        <ele>1581</ele>
        <time>2013-02-16T10:20:56Z</time>
      </trkpt>
      <trkpt lat="42.86823" lon="0.03532">
        <ele>1581</ele>
        <time>2013-02-16T10:20:58Z</time>
      </trkpt>
      <trkpt lat="42.86822" lon="0.03532">
        <ele>1582</ele>
        <time>2013-02-16T10:21:00Z</time>
      </trkpt>
      <trkpt lat="42.86821" lon="0.03532">
        <ele>1582</ele>
        <time>2013-02-16T10:21:02Z</time>
      </trkpt>
      <trkpt lat="42.86819" lon="0.03531">
        <ele>1583</ele>
        <time>2013-02-16T10:21:19Z</time>
      </trkpt>
      <trkpt lat="42.86818" lon="0.03531">
        <ele>1583</ele>
        <time>2013-02-16T10:21:21Z</time>
      </trkpt>
      <trkpt lat="42.86817" lon="0.03531">
        <ele>1583</ele>
        <time>2013-02-16T10:21:23Z</time>
      </trkpt>
      <trkpt lat="42.86816" lon="0.03531">
        <ele>1583</ele>
        <time>2013-02-16T10:21:25Z</time>
      </trkpt>
      <trkpt lat="42.86814" lon="0.03531">
        <ele>1583</ele>
        <time>2013-02-16T10:21:27Z</time>
      </trkpt>
      <trkpt lat="42.86813" lon="0.03531">
        <ele>1583</ele>
        <time>2013-02-16T10:21:29Z</time>
      </trkpt>
      <trkpt lat="42.86812" lon="0.03531">
        <ele>1583</ele>
        <time>2013-02-16T10:21:31Z</time>
      </trkpt>
      <trkpt lat="42.8681" lon="0.03531">
        <ele>1584</ele>
        <time>2013-02-16T10:21:33Z</time>
      </trkpt>
      <trkpt lat="42.86809" lon="0.03531">
        <ele>1584</ele>
        <time>2013-02-16T10:21:35Z</time>
      </trkpt>
      <trkpt lat="42.86808" lon="0.03531">
        <ele>1584</ele>
        <time>2013-02-16T10:21:37Z</time>
      </trkpt>
      <trkpt lat="42.86807" lon="0.03531">
        <ele>1585</ele>
        <time>2013-02-16T10:21:39Z</time>
      </trkpt>
      <trkpt lat="42.86805" lon="0.03531">
        <ele>1585</ele>
        <time>2013-02-16T10:21:41Z</time>
      </trkpt>
      <trkpt lat="42.86804" lon="0.03531">
        <ele>1586</ele>
        <time>2013-02-16T10:21:43Z</time>
      </trkpt>
      <trkpt lat="42.86803" lon="0.03532">
        <ele>1586</ele>
        <time>2013-02-16T10:21:45Z</time>
      </trkpt>
      <trkpt lat="42.86802" lon="0.03533">
        <ele>1587</ele>
        <time>2013-02-16T10:21:47Z</time>
      </trkpt>
      <trkpt lat="42.868" lon="0.03534">
        <ele>1587</ele>
        <time>2013-02-16T10:21:49Z</time>
      </trkpt>
      <trkpt lat="42.86799" lon="0.03535">
        <ele>1587</ele>
        <time>2013-02-16T10:21:51Z</time>
      </trkpt>
      <trkpt lat="42.86797" lon="0.03536">
        <ele>1588</ele>
        <time>2013-02-16T10:21:53Z</time>
      </trkpt>
      <trkpt lat="42.86796" lon="0.03537">
        <ele>1588</ele>
        <time>2013-02-16T10:21:55Z</time>
      </trkpt>
      <trkpt lat="42.86795" lon="0.03539">
        <ele>1588</ele>
        <time>2013-02-16T10:21:57Z</time>
      </trkpt>
      <trkpt lat="42.86794" lon="0.0354">
        <ele>1589</ele>
        <time>2013-02-16T10:21:59Z</time>
      </trkpt>
      <trkpt lat="42.86792" lon="0.03541">
        <ele>1589</ele>
        <time>2013-02-16T10:22:01Z</time>
      </trkpt>
      <trkpt lat="42.86791" lon="0.03542">
        <ele>1589</ele>
        <time>2013-02-16T10:22:03Z</time>
      </trkpt>
      <trkpt lat="42.8679" lon="0.03543">
        <ele>1590</ele>
        <time>2013-02-16T10:22:05Z</time>
      </trkpt>
      <trkpt lat="42.86788" lon="0.03543">
        <ele>1590</ele>
        <time>2013-02-16T10:22:07Z</time>
      </trkpt>
      <trkpt lat="42.86787" lon="0.03541">
        <ele>1590</ele>
        <time>2013-02-16T10:22:10Z</time>
      </trkpt>
      <trkpt lat="42.86786" lon="0.03539">
        <ele>1591</ele>
        <time>2013-02-16T10:22:12Z</time>
      </trkpt>
      <trkpt lat="42.86785" lon="0.03537">
        <ele>1591</ele>
        <time>2013-02-16T10:22:14Z</time>
      </trkpt>
      <trkpt lat="42.86784" lon="0.03535">
        <ele>1592</ele>
        <time>2013-02-16T10:22:16Z</time>
      </trkpt>
      <trkpt lat="42.86783" lon="0.03533">
        <ele>1592</ele>
        <time>2013-02-16T10:22:18Z</time>
      </trkpt>
      <trkpt lat="42.86782" lon="0.03532">
        <ele>1592</ele>
        <time>2013-02-16T10:22:20Z</time>
      </trkpt>
      <trkpt lat="42.8678" lon="0.03532">
        <ele>1593</ele>
        <time>2013-02-16T10:22:22Z</time>
      </trkpt>
      <trkpt lat="42.86779" lon="0.03533">
        <ele>1593</ele>
        <time>2013-02-16T10:22:24Z</time>
      </trkpt>
      <trkpt lat="42.86778" lon="0.03534">
        <ele>1593</ele>
        <time>2013-02-16T10:22:26Z</time>
      </trkpt>
      <trkpt lat="42.86776" lon="0.03534">
        <ele>1594</ele>
        <time>2013-02-16T10:22:41Z</time>
      </trkpt>
      <trkpt lat="42.86775" lon="0.03535">
        <ele>1594</ele>
        <time>2013-02-16T10:22:43Z</time>
      </trkpt>
      <trkpt lat="42.86773" lon="0.03536">
        <ele>1594</ele>
        <time>2013-02-16T10:22:45Z</time>
      </trkpt>
      <trkpt lat="42.86772" lon="0.03536">
        <ele>1594</ele>
        <time>2013-02-16T10:22:47Z</time>
      </trkpt>
      <trkpt lat="42.86771" lon="0.03537">
        <ele>1594</ele>
        <time>2013-02-16T10:22:49Z</time>
      </trkpt>
      <trkpt lat="42.86769" lon="0.03539">
        <ele>1594</ele>
        <time>2013-02-16T10:22:51Z</time>
      </trkpt>
      <trkpt lat="42.86768" lon="0.03541">
        <ele>1595</ele>
        <time>2013-02-16T10:22:54Z</time>
      </trkpt>
      <trkpt lat="42.86767" lon="0.03542">
        <ele>1595</ele>
        <time>2013-02-16T10:22:56Z</time>
      </trkpt>
      <trkpt lat="42.86766" lon="0.03543">
        <ele>1595</ele>
        <time>2013-02-16T10:22:58Z</time>
      </trkpt>
      <trkpt lat="42.86765" lon="0.03545">
        <ele>1595</ele>
        <time>2013-02-16T10:23:00Z</time>
      </trkpt>
      <trkpt lat="42.86763" lon="0.03547">
        <ele>1595</ele>
        <time>2013-02-16T10:23:03Z</time>
      </trkpt>
      <trkpt lat="42.86762" lon="0.03549">
        <ele>1595</ele>
        <time>2013-02-16T10:23:06Z</time>
      </trkpt>
      <trkpt lat="42.8676" lon="0.0355">
        <ele>1596</ele>
        <time>2013-02-16T10:23:08Z</time>
      </trkpt>
      <trkpt lat="42.86759" lon="0.03551">
        <ele>1596</ele>
        <time>2013-02-16T10:23:11Z</time>
      </trkpt>
      <trkpt lat="42.86758" lon="0.03553">
        <ele>1597</ele>
        <time>2013-02-16T10:23:14Z</time>
      </trkpt>
      <trkpt lat="42.86756" lon="0.03554">
        <ele>1597</ele>
        <time>2013-02-16T10:23:17Z</time>
      </trkpt>
      <trkpt lat="42.86755" lon="0.03556">
        <ele>1598</ele>
        <time>2013-02-16T10:23:20Z</time>
      </trkpt>
      <trkpt lat="42.86753" lon="0.03558">
        <ele>1599</ele>
        <time>2013-02-16T10:23:23Z</time>
      </trkpt>
      <trkpt lat="42.86752" lon="0.03559">
        <ele>1599</ele>
        <time>2013-02-16T10:23:25Z</time>
      </trkpt>
      <trkpt lat="42.8675" lon="0.03559">
        <ele>1599</ele>
        <time>2013-02-16T10:23:27Z</time>
      </trkpt>
      <trkpt lat="42.86749" lon="0.0356">
        <ele>1600</ele>
        <time>2013-02-16T10:23:29Z</time>
      </trkpt>
      <trkpt lat="42.86748" lon="0.0356">
        <ele>1600</ele>
        <time>2013-02-16T10:23:35Z</time>
      </trkpt>
      <trkpt lat="42.86747" lon="0.03559">
        <ele>1601</ele>
        <time>2013-02-16T10:23:43Z</time>
      </trkpt>
      <trkpt lat="42.86745" lon="0.03559">
        <ele>1601</ele>
        <time>2013-02-16T10:23:46Z</time>
      </trkpt>
      <trkpt lat="42.86744" lon="0.03559">
        <ele>1602</ele>
        <time>2013-02-16T10:23:48Z</time>
      </trkpt>
      <trkpt lat="42.86743" lon="0.03559">
        <ele>1602</ele>
        <time>2013-02-16T10:23:50Z</time>
      </trkpt>
      <trkpt lat="42.86742" lon="0.03558">
        <ele>1602</ele>
        <time>2013-02-16T10:23:52Z</time>
      </trkpt>
      <trkpt lat="42.8674" lon="0.03558">
        <ele>1602</ele>
        <time>2013-02-16T10:23:54Z</time>
      </trkpt>
      <trkpt lat="42.86739" lon="0.03558">
        <ele>1602</ele>
        <time>2013-02-16T10:23:56Z</time>
      </trkpt>
      <trkpt lat="42.86738" lon="0.03558">
        <ele>1603</ele>
        <time>2013-02-16T10:23:58Z</time>
      </trkpt>
      <trkpt lat="42.86737" lon="0.03558">
        <ele>1603</ele>
        <time>2013-02-16T10:24:00Z</time>
      </trkpt>
      <trkpt lat="42.86735" lon="0.03558">
        <ele>1603</ele>
        <time>2013-02-16T10:24:02Z</time>
      </trkpt>
      <trkpt lat="42.86734" lon="0.03558">
        <ele>1603</ele>
        <time>2013-02-16T10:24:04Z</time>
      </trkpt>
      <trkpt lat="42.86733" lon="0.03557">
        <ele>1604</ele>
        <time>2013-02-16T10:24:06Z</time>
      </trkpt>
      <trkpt lat="42.86731" lon="0.03557">
        <ele>1604</ele>
        <time>2013-02-16T10:24:08Z</time>
      </trkpt>
      <trkpt lat="42.8673" lon="0.03557">
        <ele>1604</ele>
        <time>2013-02-16T10:24:10Z</time>
      </trkpt>
      <trkpt lat="42.86729" lon="0.03557">
        <ele>1605</ele>
        <time>2013-02-16T10:24:12Z</time>
      </trkpt>
      <trkpt lat="42.86728" lon="0.03556">
        <ele>1605</ele>
        <time>2013-02-16T10:24:14Z</time>
      </trkpt>
      <trkpt lat="42.86726" lon="0.03556">
        <ele>1605</ele>
        <time>2013-02-16T10:24:16Z</time>
      </trkpt>
      <trkpt lat="42.86725" lon="0.03555">
        <ele>1605</ele>
        <time>2013-02-16T10:24:18Z</time>
      </trkpt>
      <trkpt lat="42.86723" lon="0.03554">
        <ele>1606</ele>
        <time>2013-02-16T10:24:20Z</time>
      </trkpt>
      <trkpt lat="42.86722" lon="0.03554">
        <ele>1606</ele>
        <time>2013-02-16T10:24:22Z</time>
      </trkpt>
      <trkpt lat="42.86721" lon="0.03553">
        <ele>1606</ele>
        <time>2013-02-16T10:24:24Z</time>
      </trkpt>
      <trkpt lat="42.8672" lon="0.03553">
        <ele>1609</ele>
        <time>2013-02-16T10:27:51Z</time>
      </trkpt>
      <trkpt lat="42.86719" lon="0.03552">
        <ele>1609</ele>
        <time>2013-02-16T10:27:55Z</time>
      </trkpt>
      <trkpt lat="42.86718" lon="0.0355">
        <ele>1609</ele>
        <time>2013-02-16T10:28:00Z</time>
      </trkpt>
      <trkpt lat="42.86716" lon="0.03549">
        <ele>1609</ele>
        <time>2013-02-16T10:28:03Z</time>
      </trkpt>
      <trkpt lat="42.86715" lon="0.03548">
        <ele>1609</ele>
        <time>2013-02-16T10:28:06Z</time>
      </trkpt>
      <trkpt lat="42.86714" lon="0.03547">
        <ele>1609</ele>
        <time>2013-02-16T10:28:10Z</time>
      </trkpt>
      <trkpt lat="42.86714" lon="0.03545">
        <ele>1610</ele>
        <time>2013-02-16T10:28:13Z</time>
      </trkpt>
      <trkpt lat="42.86713" lon="0.03543">
        <ele>1611</ele>
        <time>2013-02-16T10:28:16Z</time>
      </trkpt>
      <trkpt lat="42.86713" lon="0.03541">
        <ele>1611</ele>
        <time>2013-02-16T10:28:19Z</time>
      </trkpt>
      <trkpt lat="42.86713" lon="0.0354">
        <ele>1612</ele>
        <time>2013-02-16T10:28:21Z</time>
      </trkpt>
      <trkpt lat="42.86713" lon="0.03537">
        <ele>1612</ele>
        <time>2013-02-16T10:28:24Z</time>
      </trkpt>
      <trkpt lat="42.86713" lon="0.03536">
        <ele>1613</ele>
        <time>2013-02-16T10:28:26Z</time>
      </trkpt>
      <trkpt lat="42.86713" lon="0.03534">
        <ele>1613</ele>
        <time>2013-02-16T10:28:29Z</time>
      </trkpt>
      <trkpt lat="42.86712" lon="0.03532">
        <ele>1614</ele>
        <time>2013-02-16T10:28:32Z</time>
      </trkpt>
      <trkpt lat="42.86712" lon="0.03531">
        <ele>1614</ele>
        <time>2013-02-16T10:28:35Z</time>
      </trkpt>
      <trkpt lat="42.86712" lon="0.03529">
        <ele>1615</ele>
        <time>2013-02-16T10:28:38Z</time>
      </trkpt>
      <trkpt lat="42.86712" lon="0.03527">
        <ele>1615</ele>
        <time>2013-02-16T10:28:41Z</time>
      </trkpt>
      <trkpt lat="42.86711" lon="0.03525">
        <ele>1615</ele>
        <time>2013-02-16T10:28:44Z</time>
      </trkpt>
      <trkpt lat="42.86711" lon="0.03524">
        <ele>1616</ele>
        <time>2013-02-16T10:28:47Z</time>
      </trkpt>
      <trkpt lat="42.86711" lon="0.03522">
        <ele>1617</ele>
        <time>2013-02-16T10:28:49Z</time>
      </trkpt>
      <trkpt lat="42.86711" lon="0.03521">
        <ele>1618</ele>
        <time>2013-02-16T10:28:54Z</time>
      </trkpt>
      <trkpt lat="42.86711" lon="0.03519">
        <ele>1618</ele>
        <time>2013-02-16T10:28:56Z</time>
      </trkpt>
      <trkpt lat="42.8671" lon="0.03517">
        <ele>1619</ele>
        <time>2013-02-16T10:28:59Z</time>
      </trkpt>
      <trkpt lat="42.8671" lon="0.03516">
        <ele>1619</ele>
        <time>2013-02-16T10:29:02Z</time>
      </trkpt>
      <trkpt lat="42.8671" lon="0.03514">
        <ele>1620</ele>
        <time>2013-02-16T10:29:05Z</time>
      </trkpt>
      <trkpt lat="42.86709" lon="0.03512">
        <ele>1620</ele>
        <time>2013-02-16T10:29:08Z</time>
      </trkpt>
      <trkpt lat="42.86709" lon="0.03511">
        <ele>1620</ele>
        <time>2013-02-16T10:29:11Z</time>
      </trkpt>
      <trkpt lat="42.86708" lon="0.03509">
        <ele>1621</ele>
        <time>2013-02-16T10:29:14Z</time>
      </trkpt>
      <trkpt lat="42.86708" lon="0.03507">
        <ele>1621</ele>
        <time>2013-02-16T10:29:17Z</time>
      </trkpt>
      <trkpt lat="42.86708" lon="0.03505">
        <ele>1621</ele>
        <time>2013-02-16T10:29:20Z</time>
      </trkpt>
      <trkpt lat="42.86707" lon="0.03503">
        <ele>1622</ele>
        <time>2013-02-16T10:29:23Z</time>
      </trkpt>
      <trkpt lat="42.86707" lon="0.03502">
        <ele>1622</ele>
        <time>2013-02-16T10:29:26Z</time>
      </trkpt>
      <trkpt lat="42.86706" lon="0.035">
        <ele>1622</ele>
        <time>2013-02-16T10:29:29Z</time>
      </trkpt>
      <trkpt lat="42.86706" lon="0.03499">
        <ele>1622</ele>
        <time>2013-02-16T10:29:31Z</time>
      </trkpt>
      <trkpt lat="42.86705" lon="0.03497">
        <ele>1623</ele>
        <time>2013-02-16T10:29:34Z</time>
      </trkpt>
      <trkpt lat="42.86705" lon="0.03495">
        <ele>1623</ele>
        <time>2013-02-16T10:29:37Z</time>
      </trkpt>
      <trkpt lat="42.86704" lon="0.03493">
        <ele>1624</ele>
        <time>2013-02-16T10:29:40Z</time>
      </trkpt>
      <trkpt lat="42.86703" lon="0.03492">
        <ele>1624</ele>
        <time>2013-02-16T10:29:43Z</time>
      </trkpt>
      <trkpt lat="42.86702" lon="0.0349">
        <ele>1624</ele>
        <time>2013-02-16T10:29:46Z</time>
      </trkpt>
      <trkpt lat="42.86701" lon="0.03489">
        <ele>1624</ele>
        <time>2013-02-16T10:29:49Z</time>
      </trkpt>
      <trkpt lat="42.867" lon="0.03487">
        <ele>1624</ele>
        <time>2013-02-16T10:29:52Z</time>
      </trkpt>
      <trkpt lat="42.867" lon="0.03486">
        <ele>1624</ele>
        <time>2013-02-16T10:29:54Z</time>
      </trkpt>
      <trkpt lat="42.867" lon="0.03484">
        <ele>1625</ele>
        <time>2013-02-16T10:29:56Z</time>
      </trkpt>
      <trkpt lat="42.867" lon="0.03482">
        <ele>1625</ele>
        <time>2013-02-16T10:29:58Z</time>
      </trkpt>
      <trkpt lat="42.867" lon="0.03481">
        <ele>1626</ele>
        <time>2013-02-16T10:30:00Z</time>
      </trkpt>
      <trkpt lat="42.86699" lon="0.03479">
        <ele>1627</ele>
        <time>2013-02-16T10:30:03Z</time>
      </trkpt>
      <trkpt lat="42.86699" lon="0.03478">
        <ele>1627</ele>
        <time>2013-02-16T10:30:06Z</time>
      </trkpt>
      <trkpt lat="42.86699" lon="0.03476">
        <ele>1627</ele>
        <time>2013-02-16T10:30:09Z</time>
      </trkpt>
      <trkpt lat="42.86698" lon="0.03475">
        <ele>1627</ele>
        <time>2013-02-16T10:30:12Z</time>
      </trkpt>
      <trkpt lat="42.86698" lon="0.03472">
        <ele>1628</ele>
        <time>2013-02-16T10:30:15Z</time>
      </trkpt>
      <trkpt lat="42.86697" lon="0.03471">
        <ele>1628</ele>
        <time>2013-02-16T10:30:18Z</time>
      </trkpt>
      <trkpt lat="42.86696" lon="0.03469">
        <ele>1628</ele>
        <time>2013-02-16T10:30:21Z</time>
      </trkpt>
      <trkpt lat="42.86695" lon="0.03467">
        <ele>1629</ele>
        <time>2013-02-16T10:30:24Z</time>
      </trkpt>
      <trkpt lat="42.86694" lon="0.03467">
        <ele>1629</ele>
        <time>2013-02-16T10:30:27Z</time>
      </trkpt>
      <trkpt lat="42.86693" lon="0.03466">
        <ele>1629</ele>
        <time>2013-02-16T10:30:30Z</time>
      </trkpt>
      <trkpt lat="42.86692" lon="0.03467">
        <ele>1629</ele>
        <time>2013-02-16T10:30:33Z</time>
      </trkpt>
      <trkpt lat="42.8669" lon="0.03468">
        <ele>1630</ele>
        <time>2013-02-16T10:30:36Z</time>
      </trkpt>
      <trkpt lat="42.86689" lon="0.03468">
        <ele>1631</ele>
        <time>2013-02-16T10:30:39Z</time>
      </trkpt>
      <trkpt lat="42.86688" lon="0.03469">
        <ele>1631</ele>
        <time>2013-02-16T10:30:41Z</time>
      </trkpt>
      <trkpt lat="42.86686" lon="0.03469">
        <ele>1631</ele>
        <time>2013-02-16T10:30:44Z</time>
      </trkpt>
      <trkpt lat="42.86685" lon="0.03471">
        <ele>1632</ele>
        <time>2013-02-16T10:30:47Z</time>
      </trkpt>
      <trkpt lat="42.86684" lon="0.03471">
        <ele>1632</ele>
        <time>2013-02-16T10:30:50Z</time>
      </trkpt>
      <trkpt lat="42.86682" lon="0.03472">
        <ele>1632</ele>
        <time>2013-02-16T10:30:54Z</time>
      </trkpt>
      <trkpt lat="42.86681" lon="0.03473">
        <ele>1632</ele>
        <time>2013-02-16T10:30:57Z</time>
      </trkpt>
      <trkpt lat="42.8668" lon="0.03474">
        <ele>1632</ele>
        <time>2013-02-16T10:31:00Z</time>
      </trkpt>
      <trkpt lat="42.86678" lon="0.03475">
        <ele>1633</ele>
        <time>2013-02-16T10:31:03Z</time>
      </trkpt>
      <trkpt lat="42.86677" lon="0.03475">
        <ele>1633</ele>
        <time>2013-02-16T10:31:06Z</time>
      </trkpt>
      <trkpt lat="42.86676" lon="0.03476">
        <ele>1633</ele>
        <time>2013-02-16T10:31:08Z</time>
      </trkpt>
      <trkpt lat="42.86675" lon="0.03476">
        <ele>1633</ele>
        <time>2013-02-16T10:31:11Z</time>
      </trkpt>
      <trkpt lat="42.86673" lon="0.03477">
        <ele>1633</ele>
        <time>2013-02-16T10:31:14Z</time>
      </trkpt>
      <trkpt lat="42.86672" lon="0.03477">
        <ele>1634</ele>
        <time>2013-02-16T10:31:16Z</time>
      </trkpt>
      <trkpt lat="42.86671" lon="0.03478">
        <ele>1634</ele>
        <time>2013-02-16T10:31:18Z</time>
      </trkpt>
      <trkpt lat="42.86669" lon="0.03478">
        <ele>1634</ele>
        <time>2013-02-16T10:31:21Z</time>
      </trkpt>
      <trkpt lat="42.86668" lon="0.03479">
        <ele>1635</ele>
        <time>2013-02-16T10:31:24Z</time>
      </trkpt>
      <trkpt lat="42.86667" lon="0.0348">
        <ele>1635</ele>
        <time>2013-02-16T10:31:26Z</time>
      </trkpt>
      <trkpt lat="42.86665" lon="0.0348">
        <ele>1635</ele>
        <time>2013-02-16T10:31:29Z</time>
      </trkpt>
      <trkpt lat="42.86664" lon="0.03481">
        <ele>1636</ele>
        <time>2013-02-16T10:31:31Z</time>
      </trkpt>
      <trkpt lat="42.86663" lon="0.03481">
        <ele>1636</ele>
        <time>2013-02-16T10:31:33Z</time>
      </trkpt>
      <trkpt lat="42.86662" lon="0.03482">
        <ele>1636</ele>
        <time>2013-02-16T10:31:35Z</time>
      </trkpt>
      <trkpt lat="42.8666" lon="0.03483">
        <ele>1636</ele>
        <time>2013-02-16T10:31:37Z</time>
      </trkpt>
      <trkpt lat="42.86659" lon="0.03484">
        <ele>1637</ele>
        <time>2013-02-16T10:31:40Z</time>
      </trkpt>
      <trkpt lat="42.86657" lon="0.03485">
        <ele>1637</ele>
        <time>2013-02-16T10:31:43Z</time>
      </trkpt>
      <trkpt lat="42.86656" lon="0.03486">
        <ele>1637</ele>
        <time>2013-02-16T10:31:46Z</time>
      </trkpt>
      <trkpt lat="42.86654" lon="0.03486">
        <ele>1637</ele>
        <time>2013-02-16T10:31:49Z</time>
      </trkpt>
      <trkpt lat="42.86653" lon="0.03487">
        <ele>1638</ele>
        <time>2013-02-16T10:31:52Z</time>
      </trkpt>
      <trkpt lat="42.86651" lon="0.03488">
        <ele>1638</ele>
        <time>2013-02-16T10:31:55Z</time>
      </trkpt>
      <trkpt lat="42.8665" lon="0.03489">
        <ele>1639</ele>
        <time>2013-02-16T10:31:58Z</time>
      </trkpt>
      <trkpt lat="42.86649" lon="0.0349">
        <ele>1639</ele>
        <time>2013-02-16T10:32:01Z</time>
      </trkpt>
      <trkpt lat="42.86647" lon="0.03491">
        <ele>1639</ele>
        <time>2013-02-16T10:32:04Z</time>
      </trkpt>
      <trkpt lat="42.86646" lon="0.03491">
        <ele>1639</ele>
        <time>2013-02-16T10:32:07Z</time>
      </trkpt>
      <trkpt lat="42.86644" lon="0.03492">
        <ele>1640</ele>
        <time>2013-02-16T10:32:09Z</time>
      </trkpt>
      <trkpt lat="42.86643" lon="0.03493">
        <ele>1641</ele>
        <time>2013-02-16T10:32:12Z</time>
      </trkpt>
      <trkpt lat="42.86642" lon="0.03493">
        <ele>1641</ele>
        <time>2013-02-16T10:32:14Z</time>
      </trkpt>
      <trkpt lat="42.86641" lon="0.03494">
        <ele>1642</ele>
        <time>2013-02-16T10:32:17Z</time>
      </trkpt>
      <trkpt lat="42.86639" lon="0.03494">
        <ele>1642</ele>
        <time>2013-02-16T10:32:20Z</time>
      </trkpt>
      <trkpt lat="42.86638" lon="0.03495">
        <ele>1642</ele>
        <time>2013-02-16T10:32:22Z</time>
      </trkpt>
      <trkpt lat="42.86637" lon="0.03495">
        <ele>1642</ele>
        <time>2013-02-16T10:32:24Z</time>
      </trkpt>
      <trkpt lat="42.86635" lon="0.03496">
        <ele>1642</ele>
        <time>2013-02-16T10:32:27Z</time>
      </trkpt>
      <trkpt lat="42.86634" lon="0.03497">
        <ele>1642</ele>
        <time>2013-02-16T10:32:29Z</time>
      </trkpt>
      <trkpt lat="42.86633" lon="0.03498">
        <ele>1642</ele>
        <time>2013-02-16T10:32:32Z</time>
      </trkpt>
      <trkpt lat="42.86631" lon="0.03499">
        <ele>1642</ele>
        <time>2013-02-16T10:32:35Z</time>
      </trkpt>
      <trkpt lat="42.8663" lon="0.03499">
        <ele>1642</ele>
        <time>2013-02-16T10:32:37Z</time>
      </trkpt>
      <trkpt lat="42.86628" lon="0.035">
        <ele>1643</ele>
        <time>2013-02-16T10:32:40Z</time>
      </trkpt>
      <trkpt lat="42.86627" lon="0.03501">
        <ele>1643</ele>
        <time>2013-02-16T10:32:43Z</time>
      </trkpt>
      <trkpt lat="42.86626" lon="0.03502">
        <ele>1643</ele>
        <time>2013-02-16T10:32:46Z</time>
      </trkpt>
      <trkpt lat="42.86624" lon="0.03503">
        <ele>1643</ele>
        <time>2013-02-16T10:32:49Z</time>
      </trkpt>
      <trkpt lat="42.86623" lon="0.03504">
        <ele>1644</ele>
        <time>2013-02-16T10:32:52Z</time>
      </trkpt>
      <trkpt lat="42.86621" lon="0.03505">
        <ele>1644</ele>
        <time>2013-02-16T10:32:55Z</time>
      </trkpt>
      <trkpt lat="42.8662" lon="0.03506">
        <ele>1644</ele>
        <time>2013-02-16T10:32:58Z</time>
      </trkpt>
      <trkpt lat="42.86619" lon="0.03507">
        <ele>1645</ele>
        <time>2013-02-16T10:33:01Z</time>
      </trkpt>
      <trkpt lat="42.86617" lon="0.03508">
        <ele>1645</ele>
        <time>2013-02-16T10:33:04Z</time>
      </trkpt>
      <trkpt lat="42.86616" lon="0.03509">
        <ele>1646</ele>
        <time>2013-02-16T10:33:07Z</time>
      </trkpt>
      <trkpt lat="42.86615" lon="0.0351">
        <ele>1646</ele>
        <time>2013-02-16T10:33:10Z</time>
      </trkpt>
      <trkpt lat="42.86613" lon="0.03511">
        <ele>1646</ele>
        <time>2013-02-16T10:33:13Z</time>
      </trkpt>
      <trkpt lat="42.86612" lon="0.03511">
        <ele>1647</ele>
        <time>2013-02-16T10:33:16Z</time>
      </trkpt>
      <trkpt lat="42.8661" lon="0.03512">
        <ele>1647</ele>
        <time>2013-02-16T10:33:19Z</time>
      </trkpt>
      <trkpt lat="42.86609" lon="0.03513">
        <ele>1647</ele>
        <time>2013-02-16T10:33:22Z</time>
      </trkpt>
      <trkpt lat="42.86607" lon="0.03514">
        <ele>1648</ele>
        <time>2013-02-16T10:33:25Z</time>
      </trkpt>
      <trkpt lat="42.86606" lon="0.03514">
        <ele>1649</ele>
        <time>2013-02-16T10:33:28Z</time>
      </trkpt>
      <trkpt lat="42.86605" lon="0.03515">
        <ele>1649</ele>
        <time>2013-02-16T10:33:31Z</time>
      </trkpt>
      <trkpt lat="42.86604" lon="0.03516">
        <ele>1650</ele>
        <time>2013-02-16T10:33:34Z</time>
      </trkpt>
      <trkpt lat="42.86602" lon="0.03517">
        <ele>1650</ele>
        <time>2013-02-16T10:33:37Z</time>
      </trkpt>
      <trkpt lat="42.86601" lon="0.03518">
        <ele>1651</ele>
        <time>2013-02-16T10:33:40Z</time>
      </trkpt>
      <trkpt lat="42.86599" lon="0.03519">
        <ele>1651</ele>
        <time>2013-02-16T10:33:43Z</time>
      </trkpt>
      <trkpt lat="42.86598" lon="0.03519">
        <ele>1651</ele>
        <time>2013-02-16T10:33:46Z</time>
      </trkpt>
      <trkpt lat="42.86596" lon="0.0352">
        <ele>1651</ele>
        <time>2013-02-16T10:33:49Z</time>
      </trkpt>
      <trkpt lat="42.86595" lon="0.03521">
        <ele>1651</ele>
        <time>2013-02-16T10:33:51Z</time>
      </trkpt>
      <trkpt lat="42.86594" lon="0.03522">
        <ele>1652</ele>
        <time>2013-02-16T10:33:54Z</time>
      </trkpt>
      <trkpt lat="42.86592" lon="0.03522">
        <ele>1652</ele>
        <time>2013-02-16T10:33:57Z</time>
      </trkpt>
      <trkpt lat="42.86591" lon="0.03523">
        <ele>1652</ele>
        <time>2013-02-16T10:34:00Z</time>
      </trkpt>
      <trkpt lat="42.86589" lon="0.03524">
        <ele>1652</ele>
        <time>2013-02-16T10:34:03Z</time>
      </trkpt>
      <trkpt lat="42.86588" lon="0.03525">
        <ele>1653</ele>
        <time>2013-02-16T10:34:06Z</time>
      </trkpt>
      <trkpt lat="42.86586" lon="0.03525">
        <ele>1653</ele>
        <time>2013-02-16T10:34:08Z</time>
      </trkpt>
      <trkpt lat="42.86585" lon="0.03526">
        <ele>1654</ele>
        <time>2013-02-16T10:34:11Z</time>
      </trkpt>
      <trkpt lat="42.86584" lon="0.03527">
        <ele>1654</ele>
        <time>2013-02-16T10:34:14Z</time>
      </trkpt>
      <trkpt lat="42.86582" lon="0.03528">
        <ele>1654</ele>
        <time>2013-02-16T10:34:17Z</time>
      </trkpt>
      <trkpt lat="42.86581" lon="0.03529">
        <ele>1655</ele>
        <time>2013-02-16T10:34:20Z</time>
      </trkpt>
      <trkpt lat="42.8658" lon="0.03529">
        <ele>1655</ele>
        <time>2013-02-16T10:34:23Z</time>
      </trkpt>
      <trkpt lat="42.86578" lon="0.0353">
        <ele>1655</ele>
        <time>2013-02-16T10:34:26Z</time>
      </trkpt>
      <trkpt lat="42.86577" lon="0.03531">
        <ele>1656</ele>
        <time>2013-02-16T10:34:28Z</time>
      </trkpt>
      <trkpt lat="42.86575" lon="0.03531">
        <ele>1657</ele>
        <time>2013-02-16T10:34:31Z</time>
      </trkpt>
      <trkpt lat="42.86574" lon="0.03532">
        <ele>1658</ele>
        <time>2013-02-16T10:34:34Z</time>
      </trkpt>
      <trkpt lat="42.86573" lon="0.03532">
        <ele>1658</ele>
        <time>2013-02-16T10:34:36Z</time>
      </trkpt>
      <trkpt lat="42.86571" lon="0.03533">
        <ele>1659</ele>
        <time>2013-02-16T10:34:39Z</time>
      </trkpt>
      <trkpt lat="42.8657" lon="0.03534">
        <ele>1659</ele>
        <time>2013-02-16T10:34:42Z</time>
      </trkpt>
      <trkpt lat="42.86568" lon="0.03534">
        <ele>1660</ele>
        <time>2013-02-16T10:34:45Z</time>
      </trkpt>
      <trkpt lat="42.86567" lon="0.03535">
        <ele>1660</ele>
        <time>2013-02-16T10:34:47Z</time>
      </trkpt>
      <trkpt lat="42.86565" lon="0.03535">
        <ele>1661</ele>
        <time>2013-02-16T10:34:49Z</time>
      </trkpt>
      <trkpt lat="42.86564" lon="0.03536">
        <ele>1661</ele>
        <time>2013-02-16T10:34:52Z</time>
      </trkpt>
      <trkpt lat="42.86562" lon="0.03537">
        <ele>1661</ele>
        <time>2013-02-16T10:34:55Z</time>
      </trkpt>
      <trkpt lat="42.86561" lon="0.03539">
        <ele>1662</ele>
        <time>2013-02-16T10:34:58Z</time>
      </trkpt>
      <trkpt lat="42.8656" lon="0.03539">
        <ele>1662</ele>
        <time>2013-02-16T10:35:01Z</time>
      </trkpt>
      <trkpt lat="42.86559" lon="0.0354">
        <ele>1662</ele>
        <time>2013-02-16T10:35:03Z</time>
      </trkpt>
      <trkpt lat="42.86557" lon="0.03541">
        <ele>1662</ele>
        <time>2013-02-16T10:35:06Z</time>
      </trkpt>
      <trkpt lat="42.86556" lon="0.03542">
        <ele>1662</ele>
        <time>2013-02-16T10:35:09Z</time>
      </trkpt>
      <trkpt lat="42.86554" lon="0.03542">
        <ele>1663</ele>
        <time>2013-02-16T10:35:12Z</time>
      </trkpt>
      <trkpt lat="42.86553" lon="0.03543">
        <ele>1663</ele>
        <time>2013-02-16T10:35:14Z</time>
      </trkpt>
      <trkpt lat="42.86552" lon="0.03544">
        <ele>1663</ele>
        <time>2013-02-16T10:35:17Z</time>
      </trkpt>
      <trkpt lat="42.8655" lon="0.03545">
        <ele>1663</ele>
        <time>2013-02-16T10:35:20Z</time>
      </trkpt>
      <trkpt lat="42.86549" lon="0.03546">
        <ele>1664</ele>
        <time>2013-02-16T10:35:23Z</time>
      </trkpt>
      <trkpt lat="42.86548" lon="0.03547">
        <ele>1664</ele>
        <time>2013-02-16T10:35:26Z</time>
      </trkpt>
      <trkpt lat="42.86546" lon="0.03548">
        <ele>1665</ele>
        <time>2013-02-16T10:35:29Z</time>
      </trkpt>
      <trkpt lat="42.86545" lon="0.03549">
        <ele>1665</ele>
        <time>2013-02-16T10:35:32Z</time>
      </trkpt>
      <trkpt lat="42.86544" lon="0.0355">
        <ele>1666</ele>
        <time>2013-02-16T10:35:35Z</time>
      </trkpt>
      <trkpt lat="42.86542" lon="0.03551">
        <ele>1666</ele>
        <time>2013-02-16T10:35:38Z</time>
      </trkpt>
      <trkpt lat="42.86541" lon="0.03552">
        <ele>1667</ele>
        <time>2013-02-16T10:35:41Z</time>
      </trkpt>
      <trkpt lat="42.86539" lon="0.03553">
        <ele>1667</ele>
        <time>2013-02-16T10:35:44Z</time>
      </trkpt>
      <trkpt lat="42.86538" lon="0.03554">
        <ele>1668</ele>
        <time>2013-02-16T10:35:47Z</time>
      </trkpt>
      <trkpt lat="42.86537" lon="0.03554">
        <ele>1668</ele>
        <time>2013-02-16T10:35:49Z</time>
      </trkpt>
      <trkpt lat="42.86536" lon="0.03555">
        <ele>1668</ele>
        <time>2013-02-16T10:35:52Z</time>
      </trkpt>
      <trkpt lat="42.86534" lon="0.03556">
        <ele>1669</ele>
        <time>2013-02-16T10:35:55Z</time>
      </trkpt>
      <trkpt lat="42.86533" lon="0.03557">
        <ele>1669</ele>
        <time>2013-02-16T10:35:58Z</time>
      </trkpt>
      <trkpt lat="42.86531" lon="0.03558">
        <ele>1670</ele>
        <time>2013-02-16T10:36:01Z</time>
      </trkpt>
      <trkpt lat="42.8653" lon="0.03559">
        <ele>1670</ele>
        <time>2013-02-16T10:36:04Z</time>
      </trkpt>
      <trkpt lat="42.86528" lon="0.0356">
        <ele>1670</ele>
        <time>2013-02-16T10:36:07Z</time>
      </trkpt>
      <trkpt lat="42.86527" lon="0.03561">
        <ele>1671</ele>
        <time>2013-02-16T10:36:10Z</time>
      </trkpt>
      <trkpt lat="42.86526" lon="0.03562">
        <ele>1671</ele>
        <time>2013-02-16T10:36:19Z</time>
      </trkpt>
      <trkpt lat="42.86525" lon="0.03564">
        <ele>1671</ele>
        <time>2013-02-16T10:36:21Z</time>
      </trkpt>
      <trkpt lat="42.86524" lon="0.03565">
        <ele>1671</ele>
        <time>2013-02-16T10:36:24Z</time>
      </trkpt>
      <trkpt lat="42.86523" lon="0.03567">
        <ele>1671</ele>
        <time>2013-02-16T10:36:27Z</time>
      </trkpt>
      <trkpt lat="42.86521" lon="0.03568">
        <ele>1672</ele>
        <time>2013-02-16T10:36:30Z</time>
      </trkpt>
      <trkpt lat="42.8652" lon="0.03569">
        <ele>1672</ele>
        <time>2013-02-16T10:36:33Z</time>
      </trkpt>
      <trkpt lat="42.86519" lon="0.0357">
        <ele>1672</ele>
        <time>2013-02-16T10:36:36Z</time>
      </trkpt>
      <trkpt lat="42.86517" lon="0.03571">
        <ele>1672</ele>
        <time>2013-02-16T10:36:39Z</time>
      </trkpt>
      <trkpt lat="42.86516" lon="0.03572">
        <ele>1673</ele>
        <time>2013-02-16T10:36:42Z</time>
      </trkpt>
      <trkpt lat="42.86515" lon="0.03573">
        <ele>1673</ele>
        <time>2013-02-16T10:36:45Z</time>
      </trkpt>
      <trkpt lat="42.86513" lon="0.03574">
        <ele>1674</ele>
        <time>2013-02-16T10:36:48Z</time>
      </trkpt>
      <trkpt lat="42.86512" lon="0.03574">
        <ele>1674</ele>
        <time>2013-02-16T10:36:51Z</time>
      </trkpt>
      <trkpt lat="42.86511" lon="0.03575">
        <ele>1675</ele>
        <time>2013-02-16T10:36:54Z</time>
      </trkpt>
      <trkpt lat="42.86509" lon="0.03576">
        <ele>1675</ele>
        <time>2013-02-16T10:36:57Z</time>
      </trkpt>
      <trkpt lat="42.86508" lon="0.03577">
        <ele>1676</ele>
        <time>2013-02-16T10:37:00Z</time>
      </trkpt>
      <trkpt lat="42.86507" lon="0.03578">
        <ele>1676</ele>
        <time>2013-02-16T10:37:03Z</time>
      </trkpt>
      <trkpt lat="42.86506" lon="0.03579">
        <ele>1677</ele>
        <time>2013-02-16T10:37:06Z</time>
      </trkpt>
      <trkpt lat="42.86504" lon="0.03579">
        <ele>1677</ele>
        <time>2013-02-16T10:37:09Z</time>
      </trkpt>
      <trkpt lat="42.86503" lon="0.03581">
        <ele>1677</ele>
        <time>2013-02-16T10:37:12Z</time>
      </trkpt>
      <trkpt lat="42.86502" lon="0.03582">
        <ele>1678</ele>
        <time>2013-02-16T10:37:15Z</time>
      </trkpt>
      <trkpt lat="42.86501" lon="0.03582">
        <ele>1678</ele>
        <time>2013-02-16T10:37:18Z</time>
      </trkpt>
      <trkpt lat="42.86499" lon="0.03583">
        <ele>1678</ele>
        <time>2013-02-16T10:37:21Z</time>
      </trkpt>
      <trkpt lat="42.86498" lon="0.03584">
        <ele>1679</ele>
        <time>2013-02-16T10:37:24Z</time>
      </trkpt>
      <trkpt lat="42.86497" lon="0.03585">
        <ele>1679</ele>
        <time>2013-02-16T10:37:27Z</time>
      </trkpt>
      <trkpt lat="42.86496" lon="0.03586">
        <ele>1680</ele>
        <time>2013-02-16T10:37:30Z</time>
      </trkpt>
      <trkpt lat="42.86494" lon="0.03587">
        <ele>1680</ele>
        <time>2013-02-16T10:37:33Z</time>
      </trkpt>
      <trkpt lat="42.86493" lon="0.03588">
        <ele>1681</ele>
        <time>2013-02-16T10:37:36Z</time>
      </trkpt>
      <trkpt lat="42.86492" lon="0.03589">
        <ele>1681</ele>
        <time>2013-02-16T10:37:39Z</time>
      </trkpt>
      <trkpt lat="42.8649" lon="0.0359">
        <ele>1681</ele>
        <time>2013-02-16T10:37:42Z</time>
      </trkpt>
      <trkpt lat="42.86489" lon="0.0359">
        <ele>1682</ele>
        <time>2013-02-16T10:37:45Z</time>
      </trkpt>
      <trkpt lat="42.86488" lon="0.03591">
        <ele>1682</ele>
        <time>2013-02-16T10:37:48Z</time>
      </trkpt>
      <trkpt lat="42.86487" lon="0.03592">
        <ele>1683</ele>
        <time>2013-02-16T10:37:51Z</time>
      </trkpt>
      <trkpt lat="42.86485" lon="0.03593">
        <ele>1683</ele>
        <time>2013-02-16T10:37:54Z</time>
      </trkpt>
      <trkpt lat="42.86484" lon="0.03594">
        <ele>1684</ele>
        <time>2013-02-16T10:37:57Z</time>
      </trkpt>
      <trkpt lat="42.86483" lon="0.03596">
        <ele>1684</ele>
        <time>2013-02-16T10:38:00Z</time>
      </trkpt>
      <trkpt lat="42.86481" lon="0.03596">
        <ele>1684</ele>
        <time>2013-02-16T10:38:03Z</time>
      </trkpt>
      <trkpt lat="42.8648" lon="0.03598">
        <ele>1685</ele>
        <time>2013-02-16T10:38:06Z</time>
      </trkpt>
      <trkpt lat="42.86479" lon="0.03598">
        <ele>1685</ele>
        <time>2013-02-16T10:38:09Z</time>
      </trkpt>
      <trkpt lat="42.86478" lon="0.03599">
        <ele>1685</ele>
        <time>2013-02-16T10:38:12Z</time>
      </trkpt>
      <trkpt lat="42.86476" lon="0.036">
        <ele>1686</ele>
        <time>2013-02-16T10:38:15Z</time>
      </trkpt>
      <trkpt lat="42.86475" lon="0.03601">
        <ele>1686</ele>
        <time>2013-02-16T10:38:18Z</time>
      </trkpt>
      <trkpt lat="42.86473" lon="0.03602">
        <ele>1687</ele>
        <time>2013-02-16T10:38:21Z</time>
      </trkpt>
      <trkpt lat="42.86472" lon="0.03603">
        <ele>1687</ele>
        <time>2013-02-16T10:38:24Z</time>
      </trkpt>
      <trkpt lat="42.86471" lon="0.03604">
        <ele>1688</ele>
        <time>2013-02-16T10:38:27Z</time>
      </trkpt>
      <trkpt lat="42.86469" lon="0.03605">
        <ele>1688</ele>
        <time>2013-02-16T10:38:30Z</time>
      </trkpt>
      <trkpt lat="42.86468" lon="0.03605">
        <ele>1689</ele>
        <time>2013-02-16T10:38:32Z</time>
      </trkpt>
      <trkpt lat="42.86467" lon="0.03606">
        <ele>1689</ele>
        <time>2013-02-16T10:38:35Z</time>
      </trkpt>
      <trkpt lat="42.86465" lon="0.03607">
        <ele>1689</ele>
        <time>2013-02-16T10:38:37Z</time>
      </trkpt>
      <trkpt lat="42.86464" lon="0.03607">
        <ele>1689</ele>
        <time>2013-02-16T10:38:40Z</time>
      </trkpt>
      <trkpt lat="42.86463" lon="0.03608">
        <ele>1690</ele>
        <time>2013-02-16T10:38:43Z</time>
      </trkpt>
      <trkpt lat="42.86461" lon="0.03609">
        <ele>1690</ele>
        <time>2013-02-16T10:38:46Z</time>
      </trkpt>
      <trkpt lat="42.8646" lon="0.0361">
        <ele>1690</ele>
        <time>2013-02-16T10:38:49Z</time>
      </trkpt>
      <trkpt lat="42.86458" lon="0.03611">
        <ele>1690</ele>
        <time>2013-02-16T10:38:52Z</time>
      </trkpt>
      <trkpt lat="42.86457" lon="0.03612">
        <ele>1691</ele>
        <time>2013-02-16T10:38:55Z</time>
      </trkpt>
      <trkpt lat="42.86455" lon="0.03613">
        <ele>1691</ele>
        <time>2013-02-16T10:38:58Z</time>
      </trkpt>
      <trkpt lat="42.86454" lon="0.03614">
        <ele>1691</ele>
        <time>2013-02-16T10:39:01Z</time>
      </trkpt>
      <trkpt lat="42.86452" lon="0.03615">
        <ele>1691</ele>
        <time>2013-02-16T10:39:04Z</time>
      </trkpt>
      <trkpt lat="42.86451" lon="0.03616">
        <ele>1692</ele>
        <time>2013-02-16T10:39:06Z</time>
      </trkpt>
      <trkpt lat="42.86449" lon="0.03616">
        <ele>1692</ele>
        <time>2013-02-16T10:39:08Z</time>
      </trkpt>
      <trkpt lat="42.86448" lon="0.03617">
        <ele>1692</ele>
        <time>2013-02-16T10:39:10Z</time>
      </trkpt>
      <trkpt lat="42.86447" lon="0.03618">
        <ele>1692</ele>
        <time>2013-02-16T10:39:13Z</time>
      </trkpt>
      <trkpt lat="42.86445" lon="0.03619">
        <ele>1693</ele>
        <time>2013-02-16T10:39:16Z</time>
      </trkpt>
      <trkpt lat="42.86444" lon="0.0362">
        <ele>1693</ele>
        <time>2013-02-16T10:39:19Z</time>
      </trkpt>
      <trkpt lat="42.86442" lon="0.03621">
        <ele>1693</ele>
        <time>2013-02-16T10:39:22Z</time>
      </trkpt>
      <trkpt lat="42.86441" lon="0.03622">
        <ele>1694</ele>
        <time>2013-02-16T10:39:25Z</time>
      </trkpt>
      <trkpt lat="42.8644" lon="0.03623">
        <ele>1694</ele>
        <time>2013-02-16T10:39:27Z</time>
      </trkpt>
      <trkpt lat="42.86438" lon="0.03624">
        <ele>1694</ele>
        <time>2013-02-16T10:39:30Z</time>
      </trkpt>
      <trkpt lat="42.86437" lon="0.03624">
        <ele>1695</ele>
        <time>2013-02-16T10:39:33Z</time>
      </trkpt>
      <trkpt lat="42.86436" lon="0.03626">
        <ele>1695</ele>
        <time>2013-02-16T10:39:36Z</time>
      </trkpt>
      <trkpt lat="42.86434" lon="0.03627">
        <ele>1695</ele>
        <time>2013-02-16T10:39:39Z</time>
      </trkpt>
      <trkpt lat="42.86433" lon="0.03627">
        <ele>1696</ele>
        <time>2013-02-16T10:39:42Z</time>
      </trkpt>
      <trkpt lat="42.86432" lon="0.03628">
        <ele>1696</ele>
        <time>2013-02-16T10:39:45Z</time>
      </trkpt>
      <trkpt lat="42.8643" lon="0.03629">
        <ele>1697</ele>
        <time>2013-02-16T10:39:48Z</time>
      </trkpt>
      <trkpt lat="42.86429" lon="0.0363">
        <ele>1698</ele>
        <time>2013-02-16T10:39:51Z</time>
      </trkpt>
      <trkpt lat="42.86428" lon="0.03631">
        <ele>1698</ele>
        <time>2013-02-16T10:39:54Z</time>
      </trkpt>
      <trkpt lat="42.86427" lon="0.03632">
        <ele>1698</ele>
        <time>2013-02-16T10:39:57Z</time>
      </trkpt>
      <trkpt lat="42.86426" lon="0.03633">
        <ele>1699</ele>
        <time>2013-02-16T10:40:00Z</time>
      </trkpt>
      <trkpt lat="42.86424" lon="0.03634">
        <ele>1699</ele>
        <time>2013-02-16T10:40:03Z</time>
      </trkpt>
      <trkpt lat="42.86423" lon="0.03635">
        <ele>1700</ele>
        <time>2013-02-16T10:40:07Z</time>
      </trkpt>
      <trkpt lat="42.86422" lon="0.03636">
        <ele>1700</ele>
        <time>2013-02-16T10:40:10Z</time>
      </trkpt>
      <trkpt lat="42.86421" lon="0.03638">
        <ele>1700</ele>
        <time>2013-02-16T10:40:13Z</time>
      </trkpt>
      <trkpt lat="42.86419" lon="0.03639">
        <ele>1701</ele>
        <time>2013-02-16T10:40:17Z</time>
      </trkpt>
      <trkpt lat="42.86418" lon="0.0364">
        <ele>1701</ele>
        <time>2013-02-16T10:40:20Z</time>
      </trkpt>
      <trkpt lat="42.86417" lon="0.03641">
        <ele>1702</ele>
        <time>2013-02-16T10:40:23Z</time>
      </trkpt>
      <trkpt lat="42.86416" lon="0.03642">
        <ele>1702</ele>
        <time>2013-02-16T10:40:26Z</time>
      </trkpt>
      <trkpt lat="42.86414" lon="0.03643">
        <ele>1702</ele>
        <time>2013-02-16T10:40:30Z</time>
      </trkpt>
      <trkpt lat="42.86413" lon="0.03644">
        <ele>1703</ele>
        <time>2013-02-16T10:40:33Z</time>
      </trkpt>
      <trkpt lat="42.86412" lon="0.03645">
        <ele>1704</ele>
        <time>2013-02-16T10:40:37Z</time>
      </trkpt>
      <trkpt lat="42.86411" lon="0.03647">
        <ele>1704</ele>
        <time>2013-02-16T10:40:41Z</time>
      </trkpt>
      <trkpt lat="42.86409" lon="0.03647">
        <ele>1705</ele>
        <time>2013-02-16T10:40:44Z</time>
      </trkpt>
      <trkpt lat="42.86408" lon="0.03649">
        <ele>1705</ele>
        <time>2013-02-16T10:40:47Z</time>
      </trkpt>
      <trkpt lat="42.86407" lon="0.0365">
        <ele>1706</ele>
        <time>2013-02-16T10:40:51Z</time>
      </trkpt>
      <trkpt lat="42.86406" lon="0.03651">
        <ele>1706</ele>
        <time>2013-02-16T10:40:55Z</time>
      </trkpt>
      <trkpt lat="42.86404" lon="0.03652">
        <ele>1706</ele>
        <time>2013-02-16T10:40:59Z</time>
      </trkpt>
      <trkpt lat="42.86403" lon="0.03654">
        <ele>1707</ele>
        <time>2013-02-16T10:41:03Z</time>
      </trkpt>
      <trkpt lat="42.86402" lon="0.03655">
        <ele>1707</ele>
        <time>2013-02-16T10:41:07Z</time>
      </trkpt>
      <trkpt lat="42.86401" lon="0.03656">
        <ele>1708</ele>
        <time>2013-02-16T10:41:10Z</time>
      </trkpt>
      <trkpt lat="42.86399" lon="0.03656">
        <ele>1708</ele>
        <time>2013-02-16T10:41:13Z</time>
      </trkpt>
      <trkpt lat="42.86398" lon="0.03657">
        <ele>1709</ele>
        <time>2013-02-16T10:41:16Z</time>
      </trkpt>
      <trkpt lat="42.86396" lon="0.03658">
        <ele>1709</ele>
        <time>2013-02-16T10:41:20Z</time>
      </trkpt>
      <trkpt lat="42.86395" lon="0.03659">
        <ele>1710</ele>
        <time>2013-02-16T10:41:23Z</time>
      </trkpt>
      <trkpt lat="42.86394" lon="0.0366">
        <ele>1711</ele>
        <time>2013-02-16T10:41:26Z</time>
      </trkpt>
      <trkpt lat="42.86393" lon="0.03661">
        <ele>1712</ele>
        <time>2013-02-16T10:41:29Z</time>
      </trkpt>
      <trkpt lat="42.86391" lon="0.03661">
        <ele>1712</ele>
        <time>2013-02-16T10:41:32Z</time>
      </trkpt>
      <trkpt lat="42.8639" lon="0.03663">
        <ele>1713</ele>
        <time>2013-02-16T10:41:35Z</time>
      </trkpt>
      <trkpt lat="42.86389" lon="0.03664">
        <ele>1713</ele>
        <time>2013-02-16T10:41:38Z</time>
      </trkpt>
      <trkpt lat="42.86388" lon="0.03665">
        <ele>1714</ele>
        <time>2013-02-16T10:41:42Z</time>
      </trkpt>
      <trkpt lat="42.86386" lon="0.03667">
        <ele>1714</ele>
        <time>2013-02-16T10:41:46Z</time>
      </trkpt>
      <trkpt lat="42.86385" lon="0.03668">
        <ele>1714</ele>
        <time>2013-02-16T10:41:50Z</time>
      </trkpt>
      <trkpt lat="42.86383" lon="0.03669">
        <ele>1715</ele>
        <time>2013-02-16T10:41:53Z</time>
      </trkpt>
      <trkpt lat="42.86382" lon="0.0367">
        <ele>1715</ele>
        <time>2013-02-16T10:41:56Z</time>
      </trkpt>
      <trkpt lat="42.86381" lon="0.03671">
        <ele>1716</ele>
        <time>2013-02-16T10:41:59Z</time>
      </trkpt>
      <trkpt lat="42.8638" lon="0.03672">
        <ele>1716</ele>
        <time>2013-02-16T10:42:02Z</time>
      </trkpt>
      <trkpt lat="42.86378" lon="0.03673">
        <ele>1716</ele>
        <time>2013-02-16T10:42:05Z</time>
      </trkpt>
      <trkpt lat="42.86377" lon="0.03674">
        <ele>1717</ele>
        <time>2013-02-16T10:42:08Z</time>
      </trkpt>
      <trkpt lat="42.86376" lon="0.03675">
        <ele>1717</ele>
        <time>2013-02-16T10:42:11Z</time>
      </trkpt>
      <trkpt lat="42.86375" lon="0.03677">
        <ele>1717</ele>
        <time>2013-02-16T10:42:15Z</time>
      </trkpt>
      <trkpt lat="42.86373" lon="0.03678">
        <ele>1718</ele>
        <time>2013-02-16T10:42:19Z</time>
      </trkpt>
      <trkpt lat="42.86372" lon="0.03679">
        <ele>1718</ele>
        <time>2013-02-16T10:42:23Z</time>
      </trkpt>
      <trkpt lat="42.86371" lon="0.0368">
        <ele>1719</ele>
        <time>2013-02-16T10:42:26Z</time>
      </trkpt>
      <trkpt lat="42.86369" lon="0.03681">
        <ele>1719</ele>
        <time>2013-02-16T10:42:29Z</time>
      </trkpt>
      <trkpt lat="42.86368" lon="0.03682">
        <ele>1720</ele>
        <time>2013-02-16T10:42:33Z</time>
      </trkpt>
      <trkpt lat="42.86367" lon="0.03683">
        <ele>1720</ele>
        <time>2013-02-16T10:42:37Z</time>
      </trkpt>
      <trkpt lat="42.86365" lon="0.03685">
        <ele>1720</ele>
        <time>2013-02-16T10:42:41Z</time>
      </trkpt>
      <trkpt lat="42.86364" lon="0.03686">
        <ele>1720</ele>
        <time>2013-02-16T10:42:45Z</time>
      </trkpt>
      <trkpt lat="42.86363" lon="0.03687">
        <ele>1720</ele>
        <time>2013-02-16T10:42:48Z</time>
      </trkpt>
      <trkpt lat="42.86361" lon="0.03689">
        <ele>1721</ele>
        <time>2013-02-16T10:42:51Z</time>
      </trkpt>
      <trkpt lat="42.8636" lon="0.0369">
        <ele>1721</ele>
        <time>2013-02-16T10:42:54Z</time>
      </trkpt>
      <trkpt lat="42.86359" lon="0.03691">
        <ele>1721</ele>
        <time>2013-02-16T10:42:58Z</time>
      </trkpt>
      <trkpt lat="42.86358" lon="0.03692">
        <ele>1722</ele>
        <time>2013-02-16T10:43:02Z</time>
      </trkpt>
      <trkpt lat="42.86356" lon="0.03694">
        <ele>1722</ele>
        <time>2013-02-16T10:43:06Z</time>
      </trkpt>
      <trkpt lat="42.86355" lon="0.03696">
        <ele>1723</ele>
        <time>2013-02-16T10:43:10Z</time>
      </trkpt>
      <trkpt lat="42.86354" lon="0.03697">
        <ele>1723</ele>
        <time>2013-02-16T10:43:13Z</time>
      </trkpt>
      <trkpt lat="42.86353" lon="0.03698">
        <ele>1723</ele>
        <time>2013-02-16T10:43:17Z</time>
      </trkpt>
      <trkpt lat="42.86351" lon="0.037">
        <ele>1723</ele>
        <time>2013-02-16T10:43:21Z</time>
      </trkpt>
      <trkpt lat="42.8635" lon="0.03701">
        <ele>1724</ele>
        <time>2013-02-16T10:43:25Z</time>
      </trkpt>
      <trkpt lat="42.86349" lon="0.03703">
        <ele>1724</ele>
        <time>2013-02-16T10:43:29Z</time>
      </trkpt>
      <trkpt lat="42.86348" lon="0.03704">
        <ele>1724</ele>
        <time>2013-02-16T10:43:33Z</time>
      </trkpt>
      <trkpt lat="42.86346" lon="0.03706">
        <ele>1725</ele>
        <time>2013-02-16T10:43:37Z</time>
      </trkpt>
      <trkpt lat="42.86345" lon="0.03707">
        <ele>1725</ele>
        <time>2013-02-16T10:43:41Z</time>
      </trkpt>
      <trkpt lat="42.86344" lon="0.03708">
        <ele>1725</ele>
        <time>2013-02-16T10:43:44Z</time>
      </trkpt>
      <trkpt lat="42.86343" lon="0.03709">
        <ele>1726</ele>
        <time>2013-02-16T10:43:47Z</time>
      </trkpt>
      <trkpt lat="42.86341" lon="0.0371">
        <ele>1726</ele>
        <time>2013-02-16T10:43:51Z</time>
      </trkpt>
      <trkpt lat="42.8634" lon="0.03711">
        <ele>1727</ele>
        <time>2013-02-16T10:43:55Z</time>
      </trkpt>
      <trkpt lat="42.86338" lon="0.03713">
        <ele>1727</ele>
        <time>2013-02-16T10:43:59Z</time>
      </trkpt>
      <trkpt lat="42.86337" lon="0.03714">
        <ele>1727</ele>
        <time>2013-02-16T10:44:03Z</time>
      </trkpt>
      <trkpt lat="42.86336" lon="0.03715">
        <ele>1728</ele>
        <time>2013-02-16T10:44:06Z</time>
      </trkpt>
      <trkpt lat="42.86335" lon="0.03717">
        <ele>1728</ele>
        <time>2013-02-16T10:44:10Z</time>
      </trkpt>
      <trkpt lat="42.86333" lon="0.03717">
        <ele>1729</ele>
        <time>2013-02-16T10:44:13Z</time>
      </trkpt>
      <trkpt lat="42.86332" lon="0.03719">
        <ele>1729</ele>
        <time>2013-02-16T10:44:16Z</time>
      </trkpt>
      <trkpt lat="42.86331" lon="0.0372">
        <ele>1729</ele>
        <time>2013-02-16T10:44:19Z</time>
      </trkpt>
      <trkpt lat="42.8633" lon="0.03721">
        <ele>1729</ele>
        <time>2013-02-16T10:44:22Z</time>
      </trkpt>
      <trkpt lat="42.86329" lon="0.03722">
        <ele>1730</ele>
        <time>2013-02-16T10:44:25Z</time>
      </trkpt>
      <trkpt lat="42.86327" lon="0.03723">
        <ele>1731</ele>
        <time>2013-02-16T10:44:28Z</time>
      </trkpt>
      <trkpt lat="42.86326" lon="0.03723">
        <ele>1732</ele>
        <time>2013-02-16T10:44:31Z</time>
      </trkpt>
      <trkpt lat="42.86325" lon="0.03724">
        <ele>1732</ele>
        <time>2013-02-16T10:44:34Z</time>
      </trkpt>
      <trkpt lat="42.86323" lon="0.03726">
        <ele>1733</ele>
        <time>2013-02-16T10:44:37Z</time>
      </trkpt>
      <trkpt lat="42.86322" lon="0.03726">
        <ele>1734</ele>
        <time>2013-02-16T10:44:40Z</time>
      </trkpt>
      <trkpt lat="42.86321" lon="0.03728">
        <ele>1734</ele>
        <time>2013-02-16T10:44:44Z</time>
      </trkpt>
      <trkpt lat="42.86319" lon="0.03729">
        <ele>1735</ele>
        <time>2013-02-16T10:44:47Z</time>
      </trkpt>
      <trkpt lat="42.86318" lon="0.0373">
        <ele>1735</ele>
        <time>2013-02-16T10:44:50Z</time>
      </trkpt>
      <trkpt lat="42.86317" lon="0.03732">
        <ele>1736</ele>
        <time>2013-02-16T10:44:53Z</time>
      </trkpt>
      <trkpt lat="42.86316" lon="0.03733">
        <ele>1736</ele>
        <time>2013-02-16T10:44:57Z</time>
      </trkpt>
      <trkpt lat="42.86315" lon="0.03735">
        <ele>1736</ele>
        <time>2013-02-16T10:45:00Z</time>
      </trkpt>
      <trkpt lat="42.86314" lon="0.03736">
        <ele>1737</ele>
        <time>2013-02-16T10:45:03Z</time>
      </trkpt>
      <trkpt lat="42.86313" lon="0.03738">
        <ele>1737</ele>
        <time>2013-02-16T10:45:06Z</time>
      </trkpt>
      <trkpt lat="42.86311" lon="0.03739">
        <ele>1737</ele>
        <time>2013-02-16T10:45:10Z</time>
      </trkpt>
      <trkpt lat="42.8631" lon="0.03741">
        <ele>1737</ele>
        <time>2013-02-16T10:45:14Z</time>
      </trkpt>
      <trkpt lat="42.86309" lon="0.03742">
        <ele>1737</ele>
        <time>2013-02-16T10:45:17Z</time>
      </trkpt>
      <trkpt lat="42.86308" lon="0.03744">
        <ele>1737</ele>
        <time>2013-02-16T10:45:20Z</time>
      </trkpt>
      <trkpt lat="42.86307" lon="0.03745">
        <ele>1737</ele>
        <time>2013-02-16T10:45:23Z</time>
      </trkpt>
      <trkpt lat="42.86306" lon="0.03745">
        <ele>1737</ele>
        <time>2013-02-16T10:45:26Z</time>
      </trkpt>
      <trkpt lat="42.86304" lon="0.03746">
        <ele>1738</ele>
        <time>2013-02-16T10:45:29Z</time>
      </trkpt>
      <trkpt lat="42.86303" lon="0.03748">
        <ele>1739</ele>
        <time>2013-02-16T10:45:33Z</time>
      </trkpt>
      <trkpt lat="42.86302" lon="0.03749">
        <ele>1740</ele>
        <time>2013-02-16T10:45:37Z</time>
      </trkpt>
      <trkpt lat="42.86301" lon="0.0375">
        <ele>1740</ele>
        <time>2013-02-16T10:45:40Z</time>
      </trkpt>
      <trkpt lat="42.863" lon="0.03752">
        <ele>1741</ele>
        <time>2013-02-16T10:45:43Z</time>
      </trkpt>
      <trkpt lat="42.86298" lon="0.03753">
        <ele>1741</ele>
        <time>2013-02-16T10:45:46Z</time>
      </trkpt>
      <trkpt lat="42.86298" lon="0.03754">
        <ele>1741</ele>
        <time>2013-02-16T10:45:49Z</time>
      </trkpt>
      <trkpt lat="42.86296" lon="0.03756">
        <ele>1742</ele>
        <time>2013-02-16T10:45:52Z</time>
      </trkpt>
      <trkpt lat="42.86295" lon="0.03758">
        <ele>1742</ele>
        <time>2013-02-16T10:45:55Z</time>
      </trkpt>
      <trkpt lat="42.86294" lon="0.03759">
        <ele>1742</ele>
        <time>2013-02-16T10:45:58Z</time>
      </trkpt>
      <trkpt lat="42.86293" lon="0.03761">
        <ele>1742</ele>
        <time>2013-02-16T10:46:01Z</time>
      </trkpt>
      <trkpt lat="42.86292" lon="0.03762">
        <ele>1743</ele>
        <time>2013-02-16T10:46:04Z</time>
      </trkpt>
      <trkpt lat="42.86291" lon="0.03764">
        <ele>1743</ele>
        <time>2013-02-16T10:46:07Z</time>
      </trkpt>
      <trkpt lat="42.8629" lon="0.03766">
        <ele>1743</ele>
        <time>2013-02-16T10:46:11Z</time>
      </trkpt>
      <trkpt lat="42.86288" lon="0.03768">
        <ele>1743</ele>
        <time>2013-02-16T10:46:15Z</time>
      </trkpt>
      <trkpt lat="42.86287" lon="0.03769">
        <ele>1744</ele>
        <time>2013-02-16T10:46:18Z</time>
      </trkpt>
      <trkpt lat="42.86286" lon="0.03771">
        <ele>1744</ele>
        <time>2013-02-16T10:46:22Z</time>
      </trkpt>
      <trkpt lat="42.86285" lon="0.03773">
        <ele>1744</ele>
        <time>2013-02-16T10:46:25Z</time>
      </trkpt>
      <trkpt lat="42.86284" lon="0.03774">
        <ele>1744</ele>
        <time>2013-02-16T10:46:28Z</time>
      </trkpt>
      <trkpt lat="42.86283" lon="0.03776">
        <ele>1745</ele>
        <time>2013-02-16T10:46:32Z</time>
      </trkpt>
      <trkpt lat="42.86282" lon="0.03777">
        <ele>1745</ele>
        <time>2013-02-16T10:46:35Z</time>
      </trkpt>
      <trkpt lat="42.86281" lon="0.03779">
        <ele>1745</ele>
        <time>2013-02-16T10:46:38Z</time>
      </trkpt>
      <trkpt lat="42.8628" lon="0.0378">
        <ele>1745</ele>
        <time>2013-02-16T10:46:41Z</time>
      </trkpt>
      <trkpt lat="42.86279" lon="0.03782">
        <ele>1746</ele>
        <time>2013-02-16T10:46:44Z</time>
      </trkpt>
      <trkpt lat="42.86279" lon="0.03783">
        <ele>1746</ele>
        <time>2013-02-16T10:46:47Z</time>
      </trkpt>
      <trkpt lat="42.86278" lon="0.03785">
        <ele>1747</ele>
        <time>2013-02-16T10:46:50Z</time>
      </trkpt>
      <trkpt lat="42.86277" lon="0.03786">
        <ele>1747</ele>
        <time>2013-02-16T10:46:53Z</time>
      </trkpt>
      <trkpt lat="42.86276" lon="0.03788">
        <ele>1747</ele>
        <time>2013-02-16T10:46:56Z</time>
      </trkpt>
      <trkpt lat="42.86275" lon="0.0379">
        <ele>1747</ele>
        <time>2013-02-16T10:46:59Z</time>
      </trkpt>
      <trkpt lat="42.86274" lon="0.03791">
        <ele>1748</ele>
        <time>2013-02-16T10:47:02Z</time>
      </trkpt>
      <trkpt lat="42.86274" lon="0.03793">
        <ele>1748</ele>
        <time>2013-02-16T10:47:05Z</time>
      </trkpt>
      <trkpt lat="42.86273" lon="0.03794">
        <ele>1748</ele>
        <time>2013-02-16T10:47:08Z</time>
      </trkpt>
      <trkpt lat="42.86272" lon="0.03796">
        <ele>1749</ele>
        <time>2013-02-16T10:47:11Z</time>
      </trkpt>
      <trkpt lat="42.86271" lon="0.03797">
        <ele>1750</ele>
        <time>2013-02-16T10:47:14Z</time>
      </trkpt>
      <trkpt lat="42.86271" lon="0.03799">
        <ele>1750</ele>
        <time>2013-02-16T10:47:17Z</time>
      </trkpt>
      <trkpt lat="42.86269" lon="0.03801">
        <ele>1750</ele>
        <time>2013-02-16T10:47:21Z</time>
      </trkpt>
      <trkpt lat="42.86268" lon="0.03802">
        <ele>1751</ele>
        <time>2013-02-16T10:47:25Z</time>
      </trkpt>
      <trkpt lat="42.86267" lon="0.03804">
        <ele>1752</ele>
        <time>2013-02-16T10:47:28Z</time>
      </trkpt>
      <trkpt lat="42.86266" lon="0.03805">
        <ele>1753</ele>
        <time>2013-02-16T10:47:32Z</time>
      </trkpt>
      <trkpt lat="42.86266" lon="0.03807">
        <ele>1753</ele>
        <time>2013-02-16T10:47:35Z</time>
      </trkpt>
      <trkpt lat="42.86264" lon="0.03809">
        <ele>1754</ele>
        <time>2013-02-16T10:47:39Z</time>
      </trkpt>
      <trkpt lat="42.86264" lon="0.0381">
        <ele>1754</ele>
        <time>2013-02-16T10:47:42Z</time>
      </trkpt>
      <trkpt lat="42.86263" lon="0.03812">
        <ele>1754</ele>
        <time>2013-02-16T10:47:45Z</time>
      </trkpt>
      <trkpt lat="42.86262" lon="0.03813">
        <ele>1755</ele>
        <time>2013-02-16T10:47:48Z</time>
      </trkpt>
      <trkpt lat="42.86261" lon="0.03815">
        <ele>1755</ele>
        <time>2013-02-16T10:47:51Z</time>
      </trkpt>
      <trkpt lat="42.8626" lon="0.03816">
        <ele>1755</ele>
        <time>2013-02-16T10:47:54Z</time>
      </trkpt>
      <trkpt lat="42.86259" lon="0.03818">
        <ele>1756</ele>
        <time>2013-02-16T10:47:58Z</time>
      </trkpt>
      <trkpt lat="42.86258" lon="0.03819">
        <ele>1756</ele>
        <time>2013-02-16T10:48:01Z</time>
      </trkpt>
      <trkpt lat="42.86258" lon="0.03821">
        <ele>1757</ele>
        <time>2013-02-16T10:48:04Z</time>
      </trkpt>
      <trkpt lat="42.86257" lon="0.03822">
        <ele>1757</ele>
        <time>2013-02-16T10:48:07Z</time>
      </trkpt>
      <trkpt lat="42.86256" lon="0.03824">
        <ele>1757</ele>
        <time>2013-02-16T10:48:11Z</time>
      </trkpt>
      <trkpt lat="42.86256" lon="0.03825">
        <ele>1758</ele>
        <time>2013-02-16T10:48:14Z</time>
      </trkpt>
      <trkpt lat="42.86255" lon="0.03827">
        <ele>1758</ele>
        <time>2013-02-16T10:48:17Z</time>
      </trkpt>
      <trkpt lat="42.86254" lon="0.03828">
        <ele>1758</ele>
        <time>2013-02-16T10:48:20Z</time>
      </trkpt>
      <trkpt lat="42.86253" lon="0.0383">
        <ele>1759</ele>
        <time>2013-02-16T10:48:23Z</time>
      </trkpt>
      <trkpt lat="42.86252" lon="0.03831">
        <ele>1759</ele>
        <time>2013-02-16T10:48:26Z</time>
      </trkpt>
      <trkpt lat="42.86252" lon="0.03833">
        <ele>1759</ele>
        <time>2013-02-16T10:48:29Z</time>
      </trkpt>
      <trkpt lat="42.86251" lon="0.03835">
        <ele>1759</ele>
        <time>2013-02-16T10:48:32Z</time>
      </trkpt>
      <trkpt lat="42.8625" lon="0.03837">
        <ele>1760</ele>
        <time>2013-02-16T10:48:35Z</time>
      </trkpt>
      <trkpt lat="42.86249" lon="0.03839">
        <ele>1760</ele>
        <time>2013-02-16T10:48:38Z</time>
      </trkpt>
      <trkpt lat="42.86248" lon="0.0384">
        <ele>1760</ele>
        <time>2013-02-16T10:48:41Z</time>
      </trkpt>
      <trkpt lat="42.86248" lon="0.03842">
        <ele>1760</ele>
        <time>2013-02-16T10:48:44Z</time>
      </trkpt>
      <trkpt lat="42.86247" lon="0.03843">
        <ele>1761</ele>
        <time>2013-02-16T10:48:47Z</time>
      </trkpt>
      <trkpt lat="42.86246" lon="0.03845">
        <ele>1761</ele>
        <time>2013-02-16T10:48:50Z</time>
      </trkpt>
      <trkpt lat="42.86246" lon="0.03847">
        <ele>1761</ele>
        <time>2013-02-16T10:48:53Z</time>
      </trkpt>
      <trkpt lat="42.86245" lon="0.03849">
        <ele>1761</ele>
        <time>2013-02-16T10:48:56Z</time>
      </trkpt>
      <trkpt lat="42.86245" lon="0.0385">
        <ele>1762</ele>
        <time>2013-02-16T10:48:59Z</time>
      </trkpt>
      <trkpt lat="42.86244" lon="0.03853">
        <ele>1762</ele>
        <time>2013-02-16T10:49:02Z</time>
      </trkpt>
      <trkpt lat="42.86244" lon="0.03854">
        <ele>1762</ele>
        <time>2013-02-16T10:49:05Z</time>
      </trkpt>
      <trkpt lat="42.86244" lon="0.03856">
        <ele>1762</ele>
        <time>2013-02-16T10:49:08Z</time>
      </trkpt>
      <trkpt lat="42.86243" lon="0.03858">
        <ele>1763</ele>
        <time>2013-02-16T10:49:11Z</time>
      </trkpt>
      <trkpt lat="42.86243" lon="0.03859">
        <ele>1763</ele>
        <time>2013-02-16T10:49:14Z</time>
      </trkpt>
      <trkpt lat="42.86242" lon="0.03861">
        <ele>1763</ele>
        <time>2013-02-16T10:49:17Z</time>
      </trkpt>
      <trkpt lat="42.86242" lon="0.03863">
        <ele>1763</ele>
        <time>2013-02-16T10:49:20Z</time>
      </trkpt>
      <trkpt lat="42.86241" lon="0.03864">
        <ele>1764</ele>
        <time>2013-02-16T10:49:23Z</time>
      </trkpt>
      <trkpt lat="42.8624" lon="0.03866">
        <ele>1764</ele>
        <time>2013-02-16T10:49:27Z</time>
      </trkpt>
      <trkpt lat="42.8624" lon="0.03868">
        <ele>1764</ele>
        <time>2013-02-16T10:49:31Z</time>
      </trkpt>
      <trkpt lat="42.86239" lon="0.03869">
        <ele>1765</ele>
        <time>2013-02-16T10:49:34Z</time>
      </trkpt>
      <trkpt lat="42.86238" lon="0.03871">
        <ele>1765</ele>
        <time>2013-02-16T10:49:38Z</time>
      </trkpt>
      <trkpt lat="42.86237" lon="0.03872">
        <ele>1766</ele>
        <time>2013-02-16T10:49:41Z</time>
      </trkpt>
      <trkpt lat="42.86237" lon="0.03874">
        <ele>1766</ele>
        <time>2013-02-16T10:49:44Z</time>
      </trkpt>
      <trkpt lat="42.86236" lon="0.03875">
        <ele>1766</ele>
        <time>2013-02-16T10:49:48Z</time>
      </trkpt>
      <trkpt lat="42.86235" lon="0.03877">
        <ele>1767</ele>
        <time>2013-02-16T10:49:52Z</time>
      </trkpt>
      <trkpt lat="42.86234" lon="0.03879">
        <ele>1768</ele>
        <time>2013-02-16T10:49:56Z</time>
      </trkpt>
      <trkpt lat="42.86233" lon="0.0388">
        <ele>1768</ele>
        <time>2013-02-16T10:49:59Z</time>
      </trkpt>
      <trkpt lat="42.86232" lon="0.03882">
        <ele>1769</ele>
        <time>2013-02-16T10:50:03Z</time>
      </trkpt>
      <trkpt lat="42.86231" lon="0.03884">
        <ele>1770</ele>
        <time>2013-02-16T10:50:07Z</time>
      </trkpt>
      <trkpt lat="42.8623" lon="0.03885">
        <ele>1770</ele>
        <time>2013-02-16T10:50:10Z</time>
      </trkpt>
      <trkpt lat="42.8623" lon="0.03887">
        <ele>1771</ele>
        <time>2013-02-16T10:50:14Z</time>
      </trkpt>
      <trkpt lat="42.8623" lon="0.03888">
        <ele>1772</ele>
        <time>2013-02-16T10:50:17Z</time>
      </trkpt>
      <trkpt lat="42.86229" lon="0.0389">
        <ele>1773</ele>
        <time>2013-02-16T10:50:20Z</time>
      </trkpt>
      <trkpt lat="42.86228" lon="0.03892">
        <ele>1773</ele>
        <time>2013-02-16T10:50:23Z</time>
      </trkpt>
      <trkpt lat="42.86227" lon="0.03893">
        <ele>1773</ele>
        <time>2013-02-16T10:50:25Z</time>
      </trkpt>
      <trkpt lat="42.86227" lon="0.03895">
        <ele>1773</ele>
        <time>2013-02-16T10:50:28Z</time>
      </trkpt>
      <trkpt lat="42.86227" lon="0.03897">
        <ele>1774</ele>
        <time>2013-02-16T10:50:32Z</time>
      </trkpt>
      <trkpt lat="42.86226" lon="0.03898">
        <ele>1775</ele>
        <time>2013-02-16T10:50:35Z</time>
      </trkpt>
      <trkpt lat="42.86225" lon="0.03899">
        <ele>1775</ele>
        <time>2013-02-16T10:50:38Z</time>
      </trkpt>
      <trkpt lat="42.86223" lon="0.039">
        <ele>1775</ele>
        <time>2013-02-16T10:50:42Z</time>
      </trkpt>
      <trkpt lat="42.86222" lon="0.03902">
        <ele>1776</ele>
        <time>2013-02-16T10:50:46Z</time>
      </trkpt>
      <trkpt lat="42.86221" lon="0.03903">
        <ele>1776</ele>
        <time>2013-02-16T10:50:49Z</time>
      </trkpt>
      <trkpt lat="42.8622" lon="0.03904">
        <ele>1776</ele>
        <time>2013-02-16T10:50:52Z</time>
      </trkpt>
      <trkpt lat="42.86219" lon="0.03906">
        <ele>1776</ele>
        <time>2013-02-16T10:50:56Z</time>
      </trkpt>
      <trkpt lat="42.86217" lon="0.03907">
        <ele>1776</ele>
        <time>2013-02-16T10:50:59Z</time>
      </trkpt>
      <trkpt lat="42.86217" lon="0.03909">
        <ele>1777</ele>
        <time>2013-02-16T10:51:05Z</time>
      </trkpt>
      <trkpt lat="42.86216" lon="0.0391">
        <ele>1777</ele>
        <time>2013-02-16T10:51:08Z</time>
      </trkpt>
      <trkpt lat="42.86214" lon="0.03912">
        <ele>1777</ele>
        <time>2013-02-16T10:51:11Z</time>
      </trkpt>
      <trkpt lat="42.86214" lon="0.03913">
        <ele>1777</ele>
        <time>2013-02-16T10:51:14Z</time>
      </trkpt>
      <trkpt lat="42.86213" lon="0.03915">
        <ele>1777</ele>
        <time>2013-02-16T10:51:17Z</time>
      </trkpt>
      <trkpt lat="42.86212" lon="0.03916">
        <ele>1778</ele>
        <time>2013-02-16T10:51:20Z</time>
      </trkpt>
      <trkpt lat="42.86211" lon="0.03918">
        <ele>1778</ele>
        <time>2013-02-16T10:51:24Z</time>
      </trkpt>
      <trkpt lat="42.8621" lon="0.03919">
        <ele>1778</ele>
        <time>2013-02-16T10:51:27Z</time>
      </trkpt>
      <trkpt lat="42.86209" lon="0.03921">
        <ele>1779</ele>
        <time>2013-02-16T10:51:30Z</time>
      </trkpt>
      <trkpt lat="42.86208" lon="0.03923">
        <ele>1779</ele>
        <time>2013-02-16T10:51:33Z</time>
      </trkpt>
      <trkpt lat="42.86208" lon="0.03925">
        <ele>1779</ele>
        <time>2013-02-16T10:51:37Z</time>
      </trkpt>
      <trkpt lat="42.86206" lon="0.03926">
        <ele>1780</ele>
        <time>2013-02-16T10:51:41Z</time>
      </trkpt>
      <trkpt lat="42.86206" lon="0.03928">
        <ele>1781</ele>
        <time>2013-02-16T10:51:44Z</time>
      </trkpt>
      <trkpt lat="42.86205" lon="0.0393">
        <ele>1781</ele>
        <time>2013-02-16T10:51:47Z</time>
      </trkpt>
      <trkpt lat="42.86204" lon="0.03932">
        <ele>1782</ele>
        <time>2013-02-16T10:51:52Z</time>
      </trkpt>
      <trkpt lat="42.86203" lon="0.03933">
        <ele>1782</ele>
        <time>2013-02-16T10:51:56Z</time>
      </trkpt>
      <trkpt lat="42.86202" lon="0.03935">
        <ele>1783</ele>
        <time>2013-02-16T10:51:59Z</time>
      </trkpt>
      <trkpt lat="42.86201" lon="0.03936">
        <ele>1783</ele>
        <time>2013-02-16T10:52:03Z</time>
      </trkpt>
      <trkpt lat="42.862" lon="0.03938">
        <ele>1784</ele>
        <time>2013-02-16T10:52:08Z</time>
      </trkpt>
      <trkpt lat="42.862" lon="0.03939">
        <ele>1784</ele>
        <time>2013-02-16T10:52:11Z</time>
      </trkpt>
      <trkpt lat="42.86199" lon="0.03941">
        <ele>1785</ele>
        <time>2013-02-16T10:52:15Z</time>
      </trkpt>
      <trkpt lat="42.86198" lon="0.03943">
        <ele>1785</ele>
        <time>2013-02-16T10:52:19Z</time>
      </trkpt>
      <trkpt lat="42.86197" lon="0.03944">
        <ele>1785</ele>
        <time>2013-02-16T10:52:22Z</time>
      </trkpt>
      <trkpt lat="42.86196" lon="0.03946">
        <ele>1785</ele>
        <time>2013-02-16T10:52:26Z</time>
      </trkpt>
      <trkpt lat="42.86195" lon="0.03948">
        <ele>1785</ele>
        <time>2013-02-16T10:52:30Z</time>
      </trkpt>
      <trkpt lat="42.86194" lon="0.03949">
        <ele>1786</ele>
        <time>2013-02-16T10:52:34Z</time>
      </trkpt>
      <trkpt lat="42.86193" lon="0.03951">
        <ele>1787</ele>
        <time>2013-02-16T10:52:38Z</time>
      </trkpt>
      <trkpt lat="42.86192" lon="0.03952">
        <ele>1787</ele>
        <time>2013-02-16T10:52:42Z</time>
      </trkpt>
      <trkpt lat="42.86191" lon="0.03954">
        <ele>1788</ele>
        <time>2013-02-16T10:52:46Z</time>
      </trkpt>
      <trkpt lat="42.8619" lon="0.03955">
        <ele>1788</ele>
        <time>2013-02-16T10:52:50Z</time>
      </trkpt>
      <trkpt lat="42.86189" lon="0.03957">
        <ele>1789</ele>
        <time>2013-02-16T10:52:54Z</time>
      </trkpt>
      <trkpt lat="42.86188" lon="0.03958">
        <ele>1789</ele>
        <time>2013-02-16T10:52:57Z</time>
      </trkpt>
      <trkpt lat="42.86187" lon="0.0396">
        <ele>1789</ele>
        <time>2013-02-16T10:53:01Z</time>
      </trkpt>
      <trkpt lat="42.86186" lon="0.03961">
        <ele>1790</ele>
        <time>2013-02-16T10:53:04Z</time>
      </trkpt>
      <trkpt lat="42.86185" lon="0.03963">
        <ele>1790</ele>
        <time>2013-02-16T10:53:07Z</time>
      </trkpt>
      <trkpt lat="42.86184" lon="0.03965">
        <ele>1790</ele>
        <time>2013-02-16T10:53:11Z</time>
      </trkpt>
      <trkpt lat="42.86183" lon="0.03966">
        <ele>1791</ele>
        <time>2013-02-16T10:53:14Z</time>
      </trkpt>
      <trkpt lat="42.86182" lon="0.03968">
        <ele>1791</ele>
        <time>2013-02-16T10:53:18Z</time>
      </trkpt>
      <trkpt lat="42.86181" lon="0.03969">
        <ele>1792</ele>
        <time>2013-02-16T10:53:21Z</time>
      </trkpt>
      <trkpt lat="42.86179" lon="0.03971">
        <ele>1792</ele>
        <time>2013-02-16T10:53:25Z</time>
      </trkpt>
      <trkpt lat="42.86178" lon="0.03971">
        <ele>1792</ele>
        <time>2013-02-16T10:53:28Z</time>
      </trkpt>
      <trkpt lat="42.86177" lon="0.03971">
        <ele>1793</ele>
        <time>2013-02-16T10:53:31Z</time>
      </trkpt>
      <trkpt lat="42.86175" lon="0.03972">
        <ele>1794</ele>
        <time>2013-02-16T10:53:34Z</time>
      </trkpt>
      <trkpt lat="42.86174" lon="0.03972">
        <ele>1794</ele>
        <time>2013-02-16T10:53:37Z</time>
      </trkpt>
      <trkpt lat="42.86173" lon="0.03973">
        <ele>1794</ele>
        <time>2013-02-16T10:53:40Z</time>
      </trkpt>
      <trkpt lat="42.86171" lon="0.03973">
        <ele>1795</ele>
        <time>2013-02-16T10:53:43Z</time>
      </trkpt>
      <trkpt lat="42.8617" lon="0.03974">
        <ele>1795</ele>
        <time>2013-02-16T10:53:47Z</time>
      </trkpt>
      <trkpt lat="42.86169" lon="0.03974">
        <ele>1795</ele>
        <time>2013-02-16T10:53:50Z</time>
      </trkpt>
      <trkpt lat="42.86167" lon="0.03976">
        <ele>1796</ele>
        <time>2013-02-16T10:53:53Z</time>
      </trkpt>
      <trkpt lat="42.86167" lon="0.03977">
        <ele>1796</ele>
        <time>2013-02-16T10:53:57Z</time>
      </trkpt>
      <trkpt lat="42.86166" lon="0.03979">
        <ele>1796</ele>
        <time>2013-02-16T10:54:00Z</time>
      </trkpt>
      <trkpt lat="42.86166" lon="0.0398">
        <ele>1796</ele>
        <time>2013-02-16T10:54:03Z</time>
      </trkpt>
      <trkpt lat="42.86166" lon="0.03982">
        <ele>1796</ele>
        <time>2013-02-16T10:54:06Z</time>
      </trkpt>
      <trkpt lat="42.86165" lon="0.03984">
        <ele>1797</ele>
        <time>2013-02-16T10:54:09Z</time>
      </trkpt>
      <trkpt lat="42.86164" lon="0.03985">
        <ele>1797</ele>
        <time>2013-02-16T10:54:12Z</time>
      </trkpt>
      <trkpt lat="42.86164" lon="0.03987">
        <ele>1797</ele>
        <time>2013-02-16T10:54:15Z</time>
      </trkpt>
      <trkpt lat="42.86163" lon="0.03988">
        <ele>1797</ele>
        <time>2013-02-16T10:54:18Z</time>
      </trkpt>
      <trkpt lat="42.86163" lon="0.0399">
        <ele>1798</ele>
        <time>2013-02-16T10:54:21Z</time>
      </trkpt>
      <trkpt lat="42.86162" lon="0.03992">
        <ele>1798</ele>
        <time>2013-02-16T10:54:24Z</time>
      </trkpt>
      <trkpt lat="42.86161" lon="0.03993">
        <ele>1798</ele>
        <time>2013-02-16T10:54:27Z</time>
      </trkpt>
      <trkpt lat="42.86161" lon="0.03995">
        <ele>1798</ele>
        <time>2013-02-16T10:54:30Z</time>
      </trkpt>
      <trkpt lat="42.86161" lon="0.03996">
        <ele>1799</ele>
        <time>2013-02-16T10:54:33Z</time>
      </trkpt>
      <trkpt lat="42.86161" lon="0.03998">
        <ele>1799</ele>
        <time>2013-02-16T10:54:36Z</time>
      </trkpt>
      <trkpt lat="42.8616" lon="0.04">
        <ele>1799</ele>
        <time>2013-02-16T10:54:39Z</time>
      </trkpt>
      <trkpt lat="42.8616" lon="0.04002">
        <ele>1799</ele>
        <time>2013-02-16T10:54:42Z</time>
      </trkpt>
      <trkpt lat="42.8616" lon="0.04003">
        <ele>1800</ele>
        <time>2013-02-16T10:54:45Z</time>
      </trkpt>
      <trkpt lat="42.86159" lon="0.04005">
        <ele>1800</ele>
        <time>2013-02-16T10:54:48Z</time>
      </trkpt>
      <trkpt lat="42.86159" lon="0.04007">
        <ele>1800</ele>
        <time>2013-02-16T10:54:51Z</time>
      </trkpt>
      <trkpt lat="42.86158" lon="0.04008">
        <ele>1801</ele>
        <time>2013-02-16T10:54:54Z</time>
      </trkpt>
      <trkpt lat="42.86158" lon="0.0401">
        <ele>1801</ele>
        <time>2013-02-16T10:54:57Z</time>
      </trkpt>
      <trkpt lat="42.86158" lon="0.04012">
        <ele>1801</ele>
        <time>2013-02-16T10:55:00Z</time>
      </trkpt>
      <trkpt lat="42.86158" lon="0.04013">
        <ele>1801</ele>
        <time>2013-02-16T10:55:03Z</time>
      </trkpt>
      <trkpt lat="42.86158" lon="0.04015">
        <ele>1802</ele>
        <time>2013-02-16T10:55:06Z</time>
      </trkpt>
      <trkpt lat="42.86157" lon="0.04017">
        <ele>1802</ele>
        <time>2013-02-16T10:55:09Z</time>
      </trkpt>
      <trkpt lat="42.86157" lon="0.04019">
        <ele>1802</ele>
        <time>2013-02-16T10:55:12Z</time>
      </trkpt>
      <trkpt lat="42.86156" lon="0.0402">
        <ele>1803</ele>
        <time>2013-02-16T10:55:17Z</time>
      </trkpt>
      <trkpt lat="42.86155" lon="0.04021">
        <ele>1803</ele>
        <time>2013-02-16T10:55:20Z</time>
      </trkpt>
      <trkpt lat="42.86153" lon="0.04021">
        <ele>1804</ele>
        <time>2013-02-16T10:55:23Z</time>
      </trkpt>
      <trkpt lat="42.86152" lon="0.0402">
        <ele>1804</ele>
        <time>2013-02-16T10:55:26Z</time>
      </trkpt>
      <trkpt lat="42.8615" lon="0.0402">
        <ele>1804</ele>
        <time>2013-02-16T10:55:29Z</time>
      </trkpt>
      <trkpt lat="42.86149" lon="0.04019">
        <ele>1805</ele>
        <time>2013-02-16T10:55:32Z</time>
      </trkpt>
      <trkpt lat="42.86147" lon="0.04019">
        <ele>1805</ele>
        <time>2013-02-16T10:55:35Z</time>
      </trkpt>
      <trkpt lat="42.86146" lon="0.04019">
        <ele>1805</ele>
        <time>2013-02-16T10:55:38Z</time>
      </trkpt>
      <trkpt lat="42.86145" lon="0.04018">
        <ele>1806</ele>
        <time>2013-02-16T10:55:41Z</time>
      </trkpt>
      <trkpt lat="42.86143" lon="0.04018">
        <ele>1806</ele>
        <time>2013-02-16T10:55:44Z</time>
      </trkpt>
      <trkpt lat="42.86142" lon="0.04017">
        <ele>1807</ele>
        <time>2013-02-16T10:55:47Z</time>
      </trkpt>
      <trkpt lat="42.8614" lon="0.04016">
        <ele>1808</ele>
        <time>2013-02-16T10:55:53Z</time>
      </trkpt>
      <trkpt lat="42.86139" lon="0.04016">
        <ele>1808</ele>
        <time>2013-02-16T10:55:55Z</time>
      </trkpt>
      <trkpt lat="42.86138" lon="0.04015">
        <ele>1808</ele>
        <time>2013-02-16T10:55:57Z</time>
      </trkpt>
      <trkpt lat="42.86137" lon="0.04014">
        <ele>1808</ele>
        <time>2013-02-16T10:56:00Z</time>
      </trkpt>
      <trkpt lat="42.86135" lon="0.04013">
        <ele>1809</ele>
        <time>2013-02-16T10:56:03Z</time>
      </trkpt>
      <trkpt lat="42.86134" lon="0.04013">
        <ele>1809</ele>
        <time>2013-02-16T10:56:06Z</time>
      </trkpt>
      <trkpt lat="42.86133" lon="0.04012">
        <ele>1810</ele>
        <time>2013-02-16T10:56:09Z</time>
      </trkpt>
      <trkpt lat="42.86131" lon="0.04012">
        <ele>1810</ele>
        <time>2013-02-16T10:56:12Z</time>
      </trkpt>
      <trkpt lat="42.8613" lon="0.04011">
        <ele>1810</ele>
        <time>2013-02-16T10:56:15Z</time>
      </trkpt>
      <trkpt lat="42.86129" lon="0.04011">
        <ele>1811</ele>
        <time>2013-02-16T10:56:18Z</time>
      </trkpt>
      <trkpt lat="42.86127" lon="0.04011">
        <ele>1811</ele>
        <time>2013-02-16T10:56:21Z</time>
      </trkpt>
      <trkpt lat="42.86126" lon="0.0401">
        <ele>1811</ele>
        <time>2013-02-16T10:56:24Z</time>
      </trkpt>
      <trkpt lat="42.86125" lon="0.04009">
        <ele>1811</ele>
        <time>2013-02-16T10:56:28Z</time>
      </trkpt>
      <trkpt lat="42.86123" lon="0.04008">
        <ele>1812</ele>
        <time>2013-02-16T10:56:32Z</time>
      </trkpt>
      <trkpt lat="42.86122" lon="0.04007">
        <ele>1813</ele>
        <time>2013-02-16T10:56:35Z</time>
      </trkpt>
      <trkpt lat="42.86121" lon="0.04005">
        <ele>1813</ele>
        <time>2013-02-16T10:56:38Z</time>
      </trkpt>
      <trkpt lat="42.8612" lon="0.04004">
        <ele>1813</ele>
        <time>2013-02-16T10:56:41Z</time>
      </trkpt>
      <trkpt lat="42.86119" lon="0.04003">
        <ele>1813</ele>
        <time>2013-02-16T10:56:44Z</time>
      </trkpt>
      <trkpt lat="42.86117" lon="0.04001">
        <ele>1814</ele>
        <time>2013-02-16T10:56:48Z</time>
      </trkpt>
      <trkpt lat="42.86116" lon="0.04">
        <ele>1814</ele>
        <time>2013-02-16T10:56:53Z</time>
      </trkpt>
      <trkpt lat="42.86115" lon="0.03998">
        <ele>1815</ele>
        <time>2013-02-16T10:56:57Z</time>
      </trkpt>
      <trkpt lat="42.86113" lon="0.03996">
        <ele>1816</ele>
        <time>2013-02-16T10:57:01Z</time>
      </trkpt>
      <trkpt lat="42.86112" lon="0.03995">
        <ele>1816</ele>
        <time>2013-02-16T10:57:05Z</time>
      </trkpt>
      <trkpt lat="42.86111" lon="0.03993">
        <ele>1817</ele>
        <time>2013-02-16T10:57:09Z</time>
      </trkpt>
      <trkpt lat="42.8611" lon="0.03991">
        <ele>1817</ele>
        <time>2013-02-16T10:57:13Z</time>
      </trkpt>
      <trkpt lat="42.86108" lon="0.0399">
        <ele>1817</ele>
        <time>2013-02-16T10:57:17Z</time>
      </trkpt>
      <trkpt lat="42.86107" lon="0.03988">
        <ele>1818</ele>
        <time>2013-02-16T10:57:21Z</time>
      </trkpt>
      <trkpt lat="42.86106" lon="0.03986">
        <ele>1818</ele>
        <time>2013-02-16T10:57:25Z</time>
      </trkpt>
      <trkpt lat="42.86105" lon="0.03985">
        <ele>1818</ele>
        <time>2013-02-16T10:57:28Z</time>
      </trkpt>
      <trkpt lat="42.86104" lon="0.03983">
        <ele>1819</ele>
        <time>2013-02-16T10:57:31Z</time>
      </trkpt>
      <trkpt lat="42.86103" lon="0.03982">
        <ele>1819</ele>
        <time>2013-02-16T10:57:35Z</time>
      </trkpt>
      <trkpt lat="42.86102" lon="0.0398">
        <ele>1820</ele>
        <time>2013-02-16T10:57:39Z</time>
      </trkpt>
      <trkpt lat="42.861" lon="0.03979">
        <ele>1820</ele>
        <time>2013-02-16T10:57:43Z</time>
      </trkpt>
      <trkpt lat="42.86099" lon="0.03978">
        <ele>1820</ele>
        <time>2013-02-16T10:57:47Z</time>
      </trkpt>
      <trkpt lat="42.86098" lon="0.03976">
        <ele>1821</ele>
        <time>2013-02-16T10:57:51Z</time>
      </trkpt>
      <trkpt lat="42.86097" lon="0.03975">
        <ele>1821</ele>
        <time>2013-02-16T10:57:54Z</time>
      </trkpt>
      <trkpt lat="42.86096" lon="0.03973">
        <ele>1821</ele>
        <time>2013-02-16T10:57:57Z</time>
      </trkpt>
      <trkpt lat="42.86095" lon="0.03972">
        <ele>1822</ele>
        <time>2013-02-16T10:58:01Z</time>
      </trkpt>
      <trkpt lat="42.86095" lon="0.0397">
        <ele>1823</ele>
        <time>2013-02-16T10:58:05Z</time>
      </trkpt>
      <trkpt lat="42.86094" lon="0.03969">
        <ele>1824</ele>
        <time>2013-02-16T10:58:08Z</time>
      </trkpt>
      <trkpt lat="42.86092" lon="0.03967">
        <ele>1824</ele>
        <time>2013-02-16T10:58:12Z</time>
      </trkpt>
      <trkpt lat="42.86091" lon="0.03966">
        <ele>1824</ele>
        <time>2013-02-16T10:58:16Z</time>
      </trkpt>
      <trkpt lat="42.8609" lon="0.03964">
        <ele>1825</ele>
        <time>2013-02-16T10:58:20Z</time>
      </trkpt>
      <trkpt lat="42.86089" lon="0.03963">
        <ele>1825</ele>
        <time>2013-02-16T10:58:23Z</time>
      </trkpt>
      <trkpt lat="42.86088" lon="0.03961">
        <ele>1826</ele>
        <time>2013-02-16T10:58:27Z</time>
      </trkpt>
      <trkpt lat="42.86087" lon="0.0396">
        <ele>1826</ele>
        <time>2013-02-16T10:58:30Z</time>
      </trkpt>
      <trkpt lat="42.86087" lon="0.03958">
        <ele>1826</ele>
        <time>2013-02-16T10:58:33Z</time>
      </trkpt>
      <trkpt lat="42.86086" lon="0.03957">
        <ele>1827</ele>
        <time>2013-02-16T10:58:37Z</time>
      </trkpt>
      <trkpt lat="42.86085" lon="0.03955">
        <ele>1828</ele>
        <time>2013-02-16T10:58:40Z</time>
      </trkpt>
      <trkpt lat="42.86084" lon="0.03954">
        <ele>1828</ele>
        <time>2013-02-16T10:58:43Z</time>
      </trkpt>
      <trkpt lat="42.86083" lon="0.03952">
        <ele>1829</ele>
        <time>2013-02-16T10:58:47Z</time>
      </trkpt>
      <trkpt lat="42.86082" lon="0.0395">
        <ele>1830</ele>
        <time>2013-02-16T10:58:51Z</time>
      </trkpt>
      <trkpt lat="42.86081" lon="0.03949">
        <ele>1830</ele>
        <time>2013-02-16T10:58:55Z</time>
      </trkpt>
      <trkpt lat="42.8608" lon="0.03947">
        <ele>1831</ele>
        <time>2013-02-16T10:58:59Z</time>
      </trkpt>
      <trkpt lat="42.86079" lon="0.03946">
        <ele>1831</ele>
        <time>2013-02-16T10:59:02Z</time>
      </trkpt>
      <trkpt lat="42.86078" lon="0.03944">
        <ele>1831</ele>
        <time>2013-02-16T10:59:06Z</time>
      </trkpt>
      <trkpt lat="42.86077" lon="0.03942">
        <ele>1832</ele>
        <time>2013-02-16T10:59:10Z</time>
      </trkpt>
      <trkpt lat="42.86076" lon="0.03941">
        <ele>1833</ele>
        <time>2013-02-16T10:59:13Z</time>
      </trkpt>
      <trkpt lat="42.86076" lon="0.03939">
        <ele>1834</ele>
        <time>2013-02-16T10:59:16Z</time>
      </trkpt>
      <trkpt lat="42.86075" lon="0.03938">
        <ele>1834</ele>
        <time>2013-02-16T10:59:19Z</time>
      </trkpt>
      <trkpt lat="42.86074" lon="0.03936">
        <ele>1835</ele>
        <time>2013-02-16T10:59:22Z</time>
      </trkpt>
      <trkpt lat="42.86073" lon="0.03935">
        <ele>1836</ele>
        <time>2013-02-16T10:59:25Z</time>
      </trkpt>
      <trkpt lat="42.86072" lon="0.03933">
        <ele>1837</ele>
        <time>2013-02-16T10:59:29Z</time>
      </trkpt>
      <trkpt lat="42.86071" lon="0.03932">
        <ele>1838</ele>
        <time>2013-02-16T10:59:33Z</time>
      </trkpt>
      <trkpt lat="42.86071" lon="0.0393">
        <ele>1838</ele>
        <time>2013-02-16T10:59:36Z</time>
      </trkpt>
      <trkpt lat="42.86069" lon="0.0393">
        <ele>1838</ele>
        <time>2013-02-16T10:59:42Z</time>
      </trkpt>
      <trkpt lat="42.86068" lon="0.03932">
        <ele>1838</ele>
        <time>2013-02-16T10:59:45Z</time>
      </trkpt>
      <trkpt lat="42.86068" lon="0.03934">
        <ele>1838</ele>
        <time>2013-02-16T10:59:47Z</time>
      </trkpt>
      <trkpt lat="42.86067" lon="0.03935">
        <ele>1838</ele>
        <time>2013-02-16T10:59:53Z</time>
      </trkpt>
      <trkpt lat="42.86066" lon="0.03937">
        <ele>1838</ele>
        <time>2013-02-16T10:59:56Z</time>
      </trkpt>
      <trkpt lat="42.86066" lon="0.0394">
        <ele>1838</ele>
        <time>2013-02-16T10:59:59Z</time>
      </trkpt>
      <trkpt lat="42.86065" lon="0.03941">
        <ele>1838</ele>
        <time>2013-02-16T11:00:02Z</time>
      </trkpt>
      <trkpt lat="42.86064" lon="0.03943">
        <ele>1838</ele>
        <time>2013-02-16T11:00:05Z</time>
      </trkpt>
      <trkpt lat="42.86064" lon="0.03945">
        <ele>1838</ele>
        <time>2013-02-16T11:00:08Z</time>
      </trkpt>
      <trkpt lat="42.86063" lon="0.03946">
        <ele>1838</ele>
        <time>2013-02-16T11:00:11Z</time>
      </trkpt>
      <trkpt lat="42.86063" lon="0.03948">
        <ele>1838</ele>
        <time>2013-02-16T11:00:14Z</time>
      </trkpt>
      <trkpt lat="42.86062" lon="0.03949">
        <ele>1839</ele>
        <time>2013-02-16T11:00:17Z</time>
      </trkpt>
      <trkpt lat="42.86061" lon="0.03951">
        <ele>1839</ele>
        <time>2013-02-16T11:00:21Z</time>
      </trkpt>
      <trkpt lat="42.86061" lon="0.03953">
        <ele>1839</ele>
        <time>2013-02-16T11:00:24Z</time>
      </trkpt>
      <trkpt lat="42.86061" lon="0.03954">
        <ele>1839</ele>
        <time>2013-02-16T11:00:27Z</time>
      </trkpt>
      <trkpt lat="42.8606" lon="0.03956">
        <ele>1839</ele>
        <time>2013-02-16T11:00:30Z</time>
      </trkpt>
      <trkpt lat="42.8606" lon="0.03957">
        <ele>1840</ele>
        <time>2013-02-16T11:00:35Z</time>
      </trkpt>
      <trkpt lat="42.8606" lon="0.03959">
        <ele>1840</ele>
        <time>2013-02-16T11:00:37Z</time>
      </trkpt>
      <trkpt lat="42.86059" lon="0.03961">
        <ele>1840</ele>
        <time>2013-02-16T11:00:40Z</time>
      </trkpt>
      <trkpt lat="42.86059" lon="0.03963">
        <ele>1841</ele>
        <time>2013-02-16T11:00:43Z</time>
      </trkpt>
      <trkpt lat="42.86058" lon="0.03964">
        <ele>1841</ele>
        <time>2013-02-16T11:00:46Z</time>
      </trkpt>
      <trkpt lat="42.86058" lon="0.03966">
        <ele>1841</ele>
        <time>2013-02-16T11:00:49Z</time>
      </trkpt>
      <trkpt lat="42.86058" lon="0.03968">
        <ele>1841</ele>
        <time>2013-02-16T11:00:52Z</time>
      </trkpt>
      <trkpt lat="42.86057" lon="0.03969">
        <ele>1842</ele>
        <time>2013-02-16T11:00:55Z</time>
      </trkpt>
      <trkpt lat="42.86057" lon="0.03971">
        <ele>1842</ele>
        <time>2013-02-16T11:00:58Z</time>
      </trkpt>
      <trkpt lat="42.86056" lon="0.03973">
        <ele>1842</ele>
        <time>2013-02-16T11:01:09Z</time>
      </trkpt>
      <trkpt lat="42.86055" lon="0.03971">
        <ele>1843</ele>
        <time>2013-02-16T11:01:18Z</time>
      </trkpt>
      <trkpt lat="42.86055" lon="0.03969">
        <ele>1843</ele>
        <time>2013-02-16T11:01:24Z</time>
      </trkpt>
      <trkpt lat="42.86053" lon="0.03967">
        <ele>1843</ele>
        <time>2013-02-16T11:01:27Z</time>
      </trkpt>
      <trkpt lat="42.86053" lon="0.03965">
        <ele>1843</ele>
        <time>2013-02-16T11:01:29Z</time>
      </trkpt>
      <trkpt lat="42.86052" lon="0.03964">
        <ele>1844</ele>
        <time>2013-02-16T11:01:32Z</time>
      </trkpt>
      <trkpt lat="42.86051" lon="0.03962">
        <ele>1844</ele>
        <time>2013-02-16T11:01:34Z</time>
      </trkpt>
      <trkpt lat="42.8605" lon="0.0396">
        <ele>1845</ele>
        <time>2013-02-16T11:01:37Z</time>
      </trkpt>
      <trkpt lat="42.86049" lon="0.03959">
        <ele>1845</ele>
        <time>2013-02-16T11:01:40Z</time>
      </trkpt>
      <trkpt lat="42.86048" lon="0.03957">
        <ele>1846</ele>
        <time>2013-02-16T11:01:43Z</time>
      </trkpt>
      <trkpt lat="42.86047" lon="0.03956">
        <ele>1847</ele>
        <time>2013-02-16T11:01:46Z</time>
      </trkpt>
      <trkpt lat="42.86046" lon="0.03954">
        <ele>1847</ele>
        <time>2013-02-16T11:01:49Z</time>
      </trkpt>
      <trkpt lat="42.86045" lon="0.03952">
        <ele>1848</ele>
        <time>2013-02-16T11:01:52Z</time>
      </trkpt>
      <trkpt lat="42.86045" lon="0.03951">
        <ele>1849</ele>
        <time>2013-02-16T11:01:56Z</time>
      </trkpt>
      <trkpt lat="42.86044" lon="0.03949">
        <ele>1849</ele>
        <time>2013-02-16T11:01:59Z</time>
      </trkpt>
      <trkpt lat="42.86043" lon="0.03948">
        <ele>1849</ele>
        <time>2013-02-16T11:02:02Z</time>
      </trkpt>
      <trkpt lat="42.86043" lon="0.03946">
        <ele>1850</ele>
        <time>2013-02-16T11:02:05Z</time>
      </trkpt>
      <trkpt lat="42.86042" lon="0.03945">
        <ele>1851</ele>
        <time>2013-02-16T11:02:09Z</time>
      </trkpt>
      <trkpt lat="42.86041" lon="0.03943">
        <ele>1852</ele>
        <time>2013-02-16T11:02:12Z</time>
      </trkpt>
      <trkpt lat="42.8604" lon="0.03942">
        <ele>1852</ele>
        <time>2013-02-16T11:02:15Z</time>
      </trkpt>
      <trkpt lat="42.86039" lon="0.0394">
        <ele>1852</ele>
        <time>2013-02-16T11:02:18Z</time>
      </trkpt>
      <trkpt lat="42.86039" lon="0.03939">
        <ele>1853</ele>
        <time>2013-02-16T11:02:21Z</time>
      </trkpt>
      <trkpt lat="42.86038" lon="0.03937">
        <ele>1854</ele>
        <time>2013-02-16T11:02:25Z</time>
      </trkpt>
      <trkpt lat="42.86037" lon="0.03935">
        <ele>1854</ele>
        <time>2013-02-16T11:02:29Z</time>
      </trkpt>
      <trkpt lat="42.86037" lon="0.03934">
        <ele>1854</ele>
        <time>2013-02-16T11:02:32Z</time>
      </trkpt>
      <trkpt lat="42.86036" lon="0.03932">
        <ele>1855</ele>
        <time>2013-02-16T11:02:35Z</time>
      </trkpt>
      <trkpt lat="42.86036" lon="0.03931">
        <ele>1855</ele>
        <time>2013-02-16T11:02:38Z</time>
      </trkpt>
      <trkpt lat="42.86035" lon="0.03929">
        <ele>1856</ele>
        <time>2013-02-16T11:02:41Z</time>
      </trkpt>
      <trkpt lat="42.86034" lon="0.03927">
        <ele>1856</ele>
        <time>2013-02-16T11:02:44Z</time>
      </trkpt>
      <trkpt lat="42.86034" lon="0.03926">
        <ele>1857</ele>
        <time>2013-02-16T11:02:47Z</time>
      </trkpt>
      <trkpt lat="42.86033" lon="0.03924">
        <ele>1857</ele>
        <time>2013-02-16T11:02:50Z</time>
      </trkpt>
      <trkpt lat="42.86033" lon="0.03923">
        <ele>1858</ele>
        <time>2013-02-16T11:02:53Z</time>
      </trkpt>
      <trkpt lat="42.86032" lon="0.03921">
        <ele>1859</ele>
        <time>2013-02-16T11:02:57Z</time>
      </trkpt>
      <trkpt lat="42.86032" lon="0.03919">
        <ele>1859</ele>
        <time>2013-02-16T11:03:01Z</time>
      </trkpt>
      <trkpt lat="42.86031" lon="0.03918">
        <ele>1860</ele>
        <time>2013-02-16T11:03:04Z</time>
      </trkpt>
      <trkpt lat="42.86031" lon="0.03916">
        <ele>1860</ele>
        <time>2013-02-16T11:03:08Z</time>
      </trkpt>
      <trkpt lat="42.86031" lon="0.03914">
        <ele>1861</ele>
        <time>2013-02-16T11:03:10Z</time>
      </trkpt>
      <trkpt lat="42.8603" lon="0.03913">
        <ele>1862</ele>
        <time>2013-02-16T11:03:13Z</time>
      </trkpt>
      <trkpt lat="42.86029" lon="0.03911">
        <ele>1862</ele>
        <time>2013-02-16T11:03:17Z</time>
      </trkpt>
      <trkpt lat="42.86029" lon="0.03909">
        <ele>1862</ele>
        <time>2013-02-16T11:03:21Z</time>
      </trkpt>
      <trkpt lat="42.86029" lon="0.03908">
        <ele>1862</ele>
        <time>2013-02-16T11:03:24Z</time>
      </trkpt>
      <trkpt lat="42.86028" lon="0.03906">
        <ele>1862</ele>
        <time>2013-02-16T11:03:26Z</time>
      </trkpt>
      <trkpt lat="42.86028" lon="0.03905">
        <ele>1863</ele>
        <time>2013-02-16T11:03:29Z</time>
      </trkpt>
      <trkpt lat="42.86027" lon="0.03903">
        <ele>1864</ele>
        <time>2013-02-16T11:03:31Z</time>
      </trkpt>
      <trkpt lat="42.86027" lon="0.03901">
        <ele>1865</ele>
        <time>2013-02-16T11:03:34Z</time>
      </trkpt>
      <trkpt lat="42.86026" lon="0.039">
        <ele>1866</ele>
        <time>2013-02-16T11:03:37Z</time>
      </trkpt>
      <trkpt lat="42.86026" lon="0.03898">
        <ele>1867</ele>
        <time>2013-02-16T11:03:40Z</time>
      </trkpt>
      <trkpt lat="42.86025" lon="0.03896">
        <ele>1868</ele>
        <time>2013-02-16T11:03:43Z</time>
      </trkpt>
      <trkpt lat="42.86025" lon="0.03895">
        <ele>1868</ele>
        <time>2013-02-16T11:03:46Z</time>
      </trkpt>
      <trkpt lat="42.86024" lon="0.03893">
        <ele>1868</ele>
        <time>2013-02-16T11:03:49Z</time>
      </trkpt>
      <trkpt lat="42.86023" lon="0.03891">
        <ele>1869</ele>
        <time>2013-02-16T11:04:05Z</time>
      </trkpt>
      <trkpt lat="42.86023" lon="0.03889">
        <ele>1869</ele>
        <time>2013-02-16T11:04:08Z</time>
      </trkpt>
      <trkpt lat="42.86022" lon="0.03888">
        <ele>1869</ele>
        <time>2013-02-16T11:04:10Z</time>
      </trkpt>
      <trkpt lat="42.86021" lon="0.03886">
        <ele>1869</ele>
        <time>2013-02-16T11:04:13Z</time>
      </trkpt>
      <trkpt lat="42.86021" lon="0.03884">
        <ele>1870</ele>
        <time>2013-02-16T11:04:16Z</time>
      </trkpt>
      <trkpt lat="42.8602" lon="0.03883">
        <ele>1871</ele>
        <time>2013-02-16T11:04:19Z</time>
      </trkpt>
      <trkpt lat="42.8602" lon="0.03881">
        <ele>1871</ele>
        <time>2013-02-16T11:04:22Z</time>
      </trkpt>
      <trkpt lat="42.86018" lon="0.03878">
        <ele>1871</ele>
        <time>2013-02-16T11:04:25Z</time>
      </trkpt>
      <trkpt lat="42.86018" lon="0.03877">
        <ele>1871</ele>
        <time>2013-02-16T11:04:27Z</time>
      </trkpt>
      <trkpt lat="42.86017" lon="0.03875">
        <ele>1872</ele>
        <time>2013-02-16T11:04:30Z</time>
      </trkpt>
      <trkpt lat="42.86016" lon="0.03873">
        <ele>1872</ele>
        <time>2013-02-16T11:04:33Z</time>
      </trkpt>
      <trkpt lat="42.86015" lon="0.03872">
        <ele>1873</ele>
        <time>2013-02-16T11:04:36Z</time>
      </trkpt>
      <trkpt lat="42.86014" lon="0.0387">
        <ele>1873</ele>
        <time>2013-02-16T11:04:40Z</time>
      </trkpt>
      <trkpt lat="42.86013" lon="0.03869">
        <ele>1873</ele>
        <time>2013-02-16T11:04:44Z</time>
      </trkpt>
      <trkpt lat="42.86012" lon="0.03867">
        <ele>1874</ele>
        <time>2013-02-16T11:04:48Z</time>
      </trkpt>
      <trkpt lat="42.86011" lon="0.03866">
        <ele>1874</ele>
        <time>2013-02-16T11:04:52Z</time>
      </trkpt>
      <trkpt lat="42.8601" lon="0.03865">
        <ele>1875</ele>
        <time>2013-02-16T11:04:55Z</time>
      </trkpt>
      <trkpt lat="42.86009" lon="0.03865">
        <ele>1875</ele>
        <time>2013-02-16T11:04:57Z</time>
      </trkpt>
      <trkpt lat="42.86007" lon="0.03866">
        <ele>1875</ele>
        <time>2013-02-16T11:05:00Z</time>
      </trkpt>
      <trkpt lat="42.86006" lon="0.03867">
        <ele>1875</ele>
        <time>2013-02-16T11:05:03Z</time>
      </trkpt>
      <trkpt lat="42.86005" lon="0.03869">
        <ele>1875</ele>
        <time>2013-02-16T11:05:06Z</time>
      </trkpt>
      <trkpt lat="42.86004" lon="0.03871">
        <ele>1875</ele>
        <time>2013-02-16T11:05:10Z</time>
      </trkpt>
      <trkpt lat="42.86003" lon="0.03872">
        <ele>1875</ele>
        <time>2013-02-16T11:05:13Z</time>
      </trkpt>
      <trkpt lat="42.86002" lon="0.03874">
        <ele>1875</ele>
        <time>2013-02-16T11:05:17Z</time>
      </trkpt>
      <trkpt lat="42.86" lon="0.03876">
        <ele>1875</ele>
        <time>2013-02-16T11:05:21Z</time>
      </trkpt>
      <trkpt lat="42.86" lon="0.03877">
        <ele>1875</ele>
        <time>2013-02-16T11:05:24Z</time>
      </trkpt>
      <trkpt lat="42.85999" lon="0.03879">
        <ele>1875</ele>
        <time>2013-02-16T11:05:27Z</time>
      </trkpt>
      <trkpt lat="42.85998" lon="0.0388">
        <ele>1875</ele>
        <time>2013-02-16T11:05:31Z</time>
      </trkpt>
      <trkpt lat="42.85997" lon="0.03882">
        <ele>1875</ele>
        <time>2013-02-16T11:05:35Z</time>
      </trkpt>
      <trkpt lat="42.85996" lon="0.03883">
        <ele>1875</ele>
        <time>2013-02-16T11:05:38Z</time>
      </trkpt>
      <trkpt lat="42.85995" lon="0.03885">
        <ele>1875</ele>
        <time>2013-02-16T11:05:42Z</time>
      </trkpt>
      <trkpt lat="42.85994" lon="0.03887">
        <ele>1875</ele>
        <time>2013-02-16T11:05:45Z</time>
      </trkpt>
      <trkpt lat="42.85993" lon="0.03889">
        <ele>1875</ele>
        <time>2013-02-16T11:05:49Z</time>
      </trkpt>
      <trkpt lat="42.85992" lon="0.0389">
        <ele>1875</ele>
        <time>2013-02-16T11:05:52Z</time>
      </trkpt>
      <trkpt lat="42.85992" lon="0.03892">
        <ele>1875</ele>
        <time>2013-02-16T11:05:55Z</time>
      </trkpt>
      <trkpt lat="42.85991" lon="0.03893">
        <ele>1876</ele>
        <time>2013-02-16T11:05:58Z</time>
      </trkpt>
      <trkpt lat="42.8599" lon="0.03895">
        <ele>1876</ele>
        <time>2013-02-16T11:06:02Z</time>
      </trkpt>
      <trkpt lat="42.8599" lon="0.03896">
        <ele>1876</ele>
        <time>2013-02-16T11:06:05Z</time>
      </trkpt>
      <trkpt lat="42.85989" lon="0.03898">
        <ele>1877</ele>
        <time>2013-02-16T11:06:08Z</time>
      </trkpt>
      <trkpt lat="42.85989" lon="0.03899">
        <ele>1877</ele>
        <time>2013-02-16T11:06:11Z</time>
      </trkpt>
      <trkpt lat="42.85988" lon="0.03901">
        <ele>1877</ele>
        <time>2013-02-16T11:06:14Z</time>
      </trkpt>
      <trkpt lat="42.85987" lon="0.03902">
        <ele>1878</ele>
        <time>2013-02-16T11:06:18Z</time>
      </trkpt>
      <trkpt lat="42.85986" lon="0.03904">
        <ele>1878</ele>
        <time>2013-02-16T11:06:21Z</time>
      </trkpt>
      <trkpt lat="42.85985" lon="0.03905">
        <ele>1878</ele>
        <time>2013-02-16T11:06:25Z</time>
      </trkpt>
      <trkpt lat="42.85984" lon="0.03907">
        <ele>1879</ele>
        <time>2013-02-16T11:06:30Z</time>
      </trkpt>
      <trkpt lat="42.85983" lon="0.03908">
        <ele>1879</ele>
        <time>2013-02-16T11:06:33Z</time>
      </trkpt>
      <trkpt lat="42.85982" lon="0.0391">
        <ele>1879</ele>
        <time>2013-02-16T11:06:37Z</time>
      </trkpt>
      <trkpt lat="42.85981" lon="0.03912">
        <ele>1879</ele>
        <time>2013-02-16T11:06:41Z</time>
      </trkpt>
      <trkpt lat="42.8598" lon="0.03914">
        <ele>1879</ele>
        <time>2013-02-16T11:06:45Z</time>
      </trkpt>
      <trkpt lat="42.85979" lon="0.03915">
        <ele>1880</ele>
        <time>2013-02-16T11:06:49Z</time>
      </trkpt>
      <trkpt lat="42.85978" lon="0.03917">
        <ele>1880</ele>
        <time>2013-02-16T11:06:53Z</time>
      </trkpt>
      <trkpt lat="42.85978" lon="0.03918">
        <ele>1880</ele>
        <time>2013-02-16T11:06:56Z</time>
      </trkpt>
      <trkpt lat="42.85977" lon="0.0392">
        <ele>1881</ele>
        <time>2013-02-16T11:07:00Z</time>
      </trkpt>
      <trkpt lat="42.85976" lon="0.03921">
        <ele>1881</ele>
        <time>2013-02-16T11:07:03Z</time>
      </trkpt>
      <trkpt lat="42.85975" lon="0.03923">
        <ele>1881</ele>
        <time>2013-02-16T11:07:07Z</time>
      </trkpt>
      <trkpt lat="42.85974" lon="0.03925">
        <ele>1882</ele>
        <time>2013-02-16T11:07:11Z</time>
      </trkpt>
      <trkpt lat="42.85973" lon="0.03926">
        <ele>1882</ele>
        <time>2013-02-16T11:07:15Z</time>
      </trkpt>
      <trkpt lat="42.85972" lon="0.03928">
        <ele>1883</ele>
        <time>2013-02-16T11:07:18Z</time>
      </trkpt>
      <trkpt lat="42.85971" lon="0.03929">
        <ele>1883</ele>
        <time>2013-02-16T11:07:22Z</time>
      </trkpt>
      <trkpt lat="42.8597" lon="0.03931">
        <ele>1883</ele>
        <time>2013-02-16T11:07:26Z</time>
      </trkpt>
      <trkpt lat="42.85969" lon="0.03932">
        <ele>1884</ele>
        <time>2013-02-16T11:07:32Z</time>
      </trkpt>
      <trkpt lat="42.85968" lon="0.03931">
        <ele>1884</ele>
        <time>2013-02-16T11:07:36Z</time>
      </trkpt>
      <trkpt lat="42.85967" lon="0.03929">
        <ele>1885</ele>
        <time>2013-02-16T11:07:40Z</time>
      </trkpt>
      <trkpt lat="42.85965" lon="0.03928">
        <ele>1886</ele>
        <time>2013-02-16T11:07:45Z</time>
      </trkpt>
      <trkpt lat="42.85964" lon="0.03926">
        <ele>1887</ele>
        <time>2013-02-16T11:07:49Z</time>
      </trkpt>
      <trkpt lat="42.85963" lon="0.03925">
        <ele>1887</ele>
        <time>2013-02-16T11:07:53Z</time>
      </trkpt>
      <trkpt lat="42.85962" lon="0.03924">
        <ele>1888</ele>
        <time>2013-02-16T11:07:57Z</time>
      </trkpt>
      <trkpt lat="42.85961" lon="0.03923">
        <ele>1888</ele>
        <time>2013-02-16T11:08:00Z</time>
      </trkpt>
      <trkpt lat="42.8596" lon="0.03922">
        <ele>1888</ele>
        <time>2013-02-16T11:08:04Z</time>
      </trkpt>
      <trkpt lat="42.85958" lon="0.0392">
        <ele>1888</ele>
        <time>2013-02-16T11:08:08Z</time>
      </trkpt>
      <trkpt lat="42.85957" lon="0.03919">
        <ele>1888</ele>
        <time>2013-02-16T11:08:12Z</time>
      </trkpt>
      <trkpt lat="42.85956" lon="0.03917">
        <ele>1889</ele>
        <time>2013-02-16T11:08:15Z</time>
      </trkpt>
      <trkpt lat="42.85955" lon="0.03915">
        <ele>1889</ele>
        <time>2013-02-16T11:08:18Z</time>
      </trkpt>
      <trkpt lat="42.85954" lon="0.03914">
        <ele>1890</ele>
        <time>2013-02-16T11:08:22Z</time>
      </trkpt>
      <trkpt lat="42.85953" lon="0.03912">
        <ele>1891</ele>
        <time>2013-02-16T11:08:25Z</time>
      </trkpt>
      <trkpt lat="42.85952" lon="0.0391">
        <ele>1891</ele>
        <time>2013-02-16T11:08:28Z</time>
      </trkpt>
      <trkpt lat="42.85952" lon="0.03909">
        <ele>1891</ele>
        <time>2013-02-16T11:08:31Z</time>
      </trkpt>
      <trkpt lat="42.85951" lon="0.03907">
        <ele>1891</ele>
        <time>2013-02-16T11:08:34Z</time>
      </trkpt>
      <trkpt lat="42.8595" lon="0.03906">
        <ele>1892</ele>
        <time>2013-02-16T11:08:38Z</time>
      </trkpt>
      <trkpt lat="42.85949" lon="0.03904">
        <ele>1893</ele>
        <time>2013-02-16T11:08:42Z</time>
      </trkpt>
      <trkpt lat="42.85948" lon="0.03902">
        <ele>1893</ele>
        <time>2013-02-16T11:08:45Z</time>
      </trkpt>
      <trkpt lat="42.85947" lon="0.03901">
        <ele>1893</ele>
        <time>2013-02-16T11:08:49Z</time>
      </trkpt>
      <trkpt lat="42.85947" lon="0.03899">
        <ele>1894</ele>
        <time>2013-02-16T11:08:52Z</time>
      </trkpt>
      <trkpt lat="42.85946" lon="0.03897">
        <ele>1894</ele>
        <time>2013-02-16T11:08:55Z</time>
      </trkpt>
      <trkpt lat="42.85946" lon="0.03895">
        <ele>1895</ele>
        <time>2013-02-16T11:08:58Z</time>
      </trkpt>
      <trkpt lat="42.85945" lon="0.03894">
        <ele>1896</ele>
        <time>2013-02-16T11:09:01Z</time>
      </trkpt>
      <trkpt lat="42.85944" lon="0.03892">
        <ele>1896</ele>
        <time>2013-02-16T11:09:04Z</time>
      </trkpt>
      <trkpt lat="42.85944" lon="0.03891">
        <ele>1897</ele>
        <time>2013-02-16T11:09:07Z</time>
      </trkpt>
      <trkpt lat="42.85944" lon="0.03889">
        <ele>1897</ele>
        <time>2013-02-16T11:09:10Z</time>
      </trkpt>
      <trkpt lat="42.85943" lon="0.03887">
        <ele>1897</ele>
        <time>2013-02-16T11:09:13Z</time>
      </trkpt>
      <trkpt lat="42.85943" lon="0.03886">
        <ele>1898</ele>
        <time>2013-02-16T11:09:16Z</time>
      </trkpt>
      <trkpt lat="42.85942" lon="0.03884">
        <ele>1898</ele>
        <time>2013-02-16T11:09:19Z</time>
      </trkpt>
      <trkpt lat="42.85942" lon="0.03883">
        <ele>1899</ele>
        <time>2013-02-16T11:09:22Z</time>
      </trkpt>
      <trkpt lat="42.85941" lon="0.03881">
        <ele>1900</ele>
        <time>2013-02-16T11:09:26Z</time>
      </trkpt>
      <trkpt lat="42.85941" lon="0.03879">
        <ele>1900</ele>
        <time>2013-02-16T11:09:29Z</time>
      </trkpt>
      <trkpt lat="42.85941" lon="0.03877">
        <ele>1901</ele>
        <time>2013-02-16T11:09:32Z</time>
      </trkpt>
      <trkpt lat="42.8594" lon="0.03875">
        <ele>1901</ele>
        <time>2013-02-16T11:09:46Z</time>
      </trkpt>
      <trkpt lat="42.85939" lon="0.03874">
        <ele>1901</ele>
        <time>2013-02-16T11:09:48Z</time>
      </trkpt>
      <trkpt lat="42.85939" lon="0.03872">
        <ele>1901</ele>
        <time>2013-02-16T11:09:51Z</time>
      </trkpt>
      <trkpt lat="42.85938" lon="0.0387">
        <ele>1901</ele>
        <time>2013-02-16T11:09:54Z</time>
      </trkpt>
      <trkpt lat="42.85938" lon="0.03868">
        <ele>1902</ele>
        <time>2013-02-16T11:09:56Z</time>
      </trkpt>
      <trkpt lat="42.85937" lon="0.03866">
        <ele>1902</ele>
        <time>2013-02-16T11:09:59Z</time>
      </trkpt>
      <trkpt lat="42.85936" lon="0.03864">
        <ele>1903</ele>
        <time>2013-02-16T11:10:02Z</time>
      </trkpt>
      <trkpt lat="42.85935" lon="0.03862">
        <ele>1903</ele>
        <time>2013-02-16T11:10:05Z</time>
      </trkpt>
      <trkpt lat="42.85934" lon="0.03861">
        <ele>1904</ele>
        <time>2013-02-16T11:10:07Z</time>
      </trkpt>
      <trkpt lat="42.85934" lon="0.03859">
        <ele>1904</ele>
        <time>2013-02-16T11:10:10Z</time>
      </trkpt>
      <trkpt lat="42.85933" lon="0.03857">
        <ele>1905</ele>
        <time>2013-02-16T11:10:14Z</time>
      </trkpt>
      <trkpt lat="42.85932" lon="0.03855">
        <ele>1905</ele>
        <time>2013-02-16T11:10:17Z</time>
      </trkpt>
      <trkpt lat="42.85932" lon="0.03854">
        <ele>1905</ele>
        <time>2013-02-16T11:10:20Z</time>
      </trkpt>
      <trkpt lat="42.85931" lon="0.03852">
        <ele>1906</ele>
        <time>2013-02-16T11:10:23Z</time>
      </trkpt>
      <trkpt lat="42.8593" lon="0.03851">
        <ele>1907</ele>
        <time>2013-02-16T11:10:26Z</time>
      </trkpt>
      <trkpt lat="42.8593" lon="0.03849">
        <ele>1907</ele>
        <time>2013-02-16T11:10:30Z</time>
      </trkpt>
      <trkpt lat="42.85929" lon="0.03848">
        <ele>1907</ele>
        <time>2013-02-16T11:10:33Z</time>
      </trkpt>
      <trkpt lat="42.85928" lon="0.03847">
        <ele>1908</ele>
        <time>2013-02-16T11:10:36Z</time>
      </trkpt>
      <trkpt lat="42.85926" lon="0.03847">
        <ele>1908</ele>
        <time>2013-02-16T11:10:39Z</time>
      </trkpt>
      <trkpt lat="42.85925" lon="0.03849">
        <ele>1909</ele>
        <time>2013-02-16T11:10:42Z</time>
      </trkpt>
      <trkpt lat="42.85924" lon="0.0385">
        <ele>1909</ele>
        <time>2013-02-16T11:10:46Z</time>
      </trkpt>
      <trkpt lat="42.85923" lon="0.03852">
        <ele>1910</ele>
        <time>2013-02-16T11:10:50Z</time>
      </trkpt>
      <trkpt lat="42.85921" lon="0.03853">
        <ele>1910</ele>
        <time>2013-02-16T11:10:53Z</time>
      </trkpt>
      <trkpt lat="42.8592" lon="0.03854">
        <ele>1910</ele>
        <time>2013-02-16T11:10:56Z</time>
      </trkpt>
      <trkpt lat="42.85919" lon="0.03855">
        <ele>1910</ele>
        <time>2013-02-16T11:10:59Z</time>
      </trkpt>
      <trkpt lat="42.85918" lon="0.03855">
        <ele>1911</ele>
        <time>2013-02-16T11:11:03Z</time>
      </trkpt>
      <trkpt lat="42.85916" lon="0.03853">
        <ele>1911</ele>
        <time>2013-02-16T11:11:10Z</time>
      </trkpt>
      <trkpt lat="42.85916" lon="0.03852">
        <ele>1912</ele>
        <time>2013-02-16T11:11:13Z</time>
      </trkpt>
      <trkpt lat="42.85915" lon="0.0385">
        <ele>1912</ele>
        <time>2013-02-16T11:11:17Z</time>
      </trkpt>
      <trkpt lat="42.85914" lon="0.03849">
        <ele>1913</ele>
        <time>2013-02-16T11:11:21Z</time>
      </trkpt>
      <trkpt lat="42.85914" lon="0.03847">
        <ele>1913</ele>
        <time>2013-02-16T11:11:25Z</time>
      </trkpt>
      <trkpt lat="42.85913" lon="0.03845">
        <ele>1913</ele>
        <time>2013-02-16T11:11:28Z</time>
      </trkpt>
      <trkpt lat="42.85913" lon="0.03844">
        <ele>1913</ele>
        <time>2013-02-16T11:11:32Z</time>
      </trkpt>
      <trkpt lat="42.85912" lon="0.03842">
        <ele>1913</ele>
        <time>2013-02-16T11:11:35Z</time>
      </trkpt>
      <trkpt lat="42.85912" lon="0.03841">
        <ele>1913</ele>
        <time>2013-02-16T11:11:37Z</time>
      </trkpt>
      <trkpt lat="42.85912" lon="0.03839">
        <ele>1914</ele>
        <time>2013-02-16T11:11:40Z</time>
      </trkpt>
      <trkpt lat="42.85912" lon="0.03837">
        <ele>1914</ele>
        <time>2013-02-16T11:11:43Z</time>
      </trkpt>
      <trkpt lat="42.85912" lon="0.03835">
        <ele>1914</ele>
        <time>2013-02-16T11:11:47Z</time>
      </trkpt>
      <trkpt lat="42.85912" lon="0.03833">
        <ele>1914</ele>
        <time>2013-02-16T11:11:50Z</time>
      </trkpt>
      <trkpt lat="42.85912" lon="0.03832">
        <ele>1915</ele>
        <time>2013-02-16T11:11:52Z</time>
      </trkpt>
      <trkpt lat="42.85911" lon="0.0383">
        <ele>1915</ele>
        <time>2013-02-16T11:11:54Z</time>
      </trkpt>
      <trkpt lat="42.85911" lon="0.03829">
        <ele>1916</ele>
        <time>2013-02-16T11:11:56Z</time>
      </trkpt>
      <trkpt lat="42.85911" lon="0.03827">
        <ele>1916</ele>
        <time>2013-02-16T11:11:59Z</time>
      </trkpt>
      <trkpt lat="42.8591" lon="0.03825">
        <ele>1917</ele>
        <time>2013-02-16T11:12:02Z</time>
      </trkpt>
      <trkpt lat="42.8591" lon="0.03823">
        <ele>1917</ele>
        <time>2013-02-16T11:12:05Z</time>
      </trkpt>
      <trkpt lat="42.8591" lon="0.03821">
        <ele>1918</ele>
        <time>2013-02-16T11:12:08Z</time>
      </trkpt>
      <trkpt lat="42.8591" lon="0.0382">
        <ele>1918</ele>
        <time>2013-02-16T11:12:11Z</time>
      </trkpt>
      <trkpt lat="42.8591" lon="0.03818">
        <ele>1918</ele>
        <time>2013-02-16T11:12:13Z</time>
      </trkpt>
      <trkpt lat="42.85909" lon="0.03817">
        <ele>1919</ele>
        <time>2013-02-16T11:12:15Z</time>
      </trkpt>
      <trkpt lat="42.85909" lon="0.03815">
        <ele>1919</ele>
        <time>2013-02-16T11:12:17Z</time>
      </trkpt>
      <trkpt lat="42.85909" lon="0.03813">
        <ele>1919</ele>
        <time>2013-02-16T11:12:21Z</time>
      </trkpt>
      <trkpt lat="42.85908" lon="0.03812">
        <ele>1919</ele>
        <time>2013-02-16T11:12:24Z</time>
      </trkpt>
      <trkpt lat="42.85908" lon="0.0381">
        <ele>1919</ele>
        <time>2013-02-16T11:12:27Z</time>
      </trkpt>
      <trkpt lat="42.85908" lon="0.03808">
        <ele>1920</ele>
        <time>2013-02-16T11:12:30Z</time>
      </trkpt>
      <trkpt lat="42.85907" lon="0.03807">
        <ele>1920</ele>
        <time>2013-02-16T11:12:32Z</time>
      </trkpt>
      <trkpt lat="42.85907" lon="0.03805">
        <ele>1920</ele>
        <time>2013-02-16T11:12:35Z</time>
      </trkpt>
      <trkpt lat="42.85907" lon="0.03803">
        <ele>1920</ele>
        <time>2013-02-16T11:12:38Z</time>
      </trkpt>
      <trkpt lat="42.85906" lon="0.03802">
        <ele>1920</ele>
        <time>2013-02-16T11:12:43Z</time>
      </trkpt>
      <trkpt lat="42.85906" lon="0.038">
        <ele>1920</ele>
        <time>2013-02-16T11:12:45Z</time>
      </trkpt>
      <trkpt lat="42.85905" lon="0.03798">
        <ele>1920</ele>
        <time>2013-02-16T11:12:47Z</time>
      </trkpt>
      <trkpt lat="42.85905" lon="0.03797">
        <ele>1920</ele>
        <time>2013-02-16T11:12:49Z</time>
      </trkpt>
      <trkpt lat="42.85905" lon="0.03795">
        <ele>1921</ele>
        <time>2013-02-16T11:12:51Z</time>
      </trkpt>
      <trkpt lat="42.85905" lon="0.03794">
        <ele>1921</ele>
        <time>2013-02-16T11:12:53Z</time>
      </trkpt>
      <trkpt lat="42.85905" lon="0.03792">
        <ele>1921</ele>
        <time>2013-02-16T11:12:55Z</time>
      </trkpt>
      <trkpt lat="42.85905" lon="0.0379">
        <ele>1922</ele>
        <time>2013-02-16T11:12:58Z</time>
      </trkpt>
      <trkpt lat="42.85904" lon="0.03789">
        <ele>1922</ele>
        <time>2013-02-16T11:13:00Z</time>
      </trkpt>
      <trkpt lat="42.85904" lon="0.03787">
        <ele>1922</ele>
        <time>2013-02-16T11:13:13Z</time>
      </trkpt>
      <trkpt lat="42.85902" lon="0.03785">
        <ele>1922</ele>
        <time>2013-02-16T11:13:19Z</time>
      </trkpt>
      <trkpt lat="42.85902" lon="0.03783">
        <ele>1922</ele>
        <time>2013-02-16T11:13:21Z</time>
      </trkpt>
      <trkpt lat="42.85902" lon="0.03782">
        <ele>1922</ele>
        <time>2013-02-16T11:13:24Z</time>
      </trkpt>
      <trkpt lat="42.85902" lon="0.0378">
        <ele>1922</ele>
        <time>2013-02-16T11:13:27Z</time>
      </trkpt>
      <trkpt lat="42.85903" lon="0.03778">
        <ele>1922</ele>
        <time>2013-02-16T11:13:33Z</time>
      </trkpt>
      <trkpt lat="42.85903" lon="0.03777">
        <ele>1922</ele>
        <time>2013-02-16T11:13:41Z</time>
      </trkpt>
      <trkpt lat="42.85903" lon="0.03775">
        <ele>1922</ele>
        <time>2013-02-16T11:13:43Z</time>
      </trkpt>
      <trkpt lat="42.85903" lon="0.03773">
        <ele>1922</ele>
        <time>2013-02-16T11:13:45Z</time>
      </trkpt>
      <trkpt lat="42.85903" lon="0.03772">
        <ele>1922</ele>
        <time>2013-02-16T11:13:47Z</time>
      </trkpt>
      <trkpt lat="42.85903" lon="0.0377">
        <ele>1922</ele>
        <time>2013-02-16T11:13:49Z</time>
      </trkpt>
      <trkpt lat="42.85903" lon="0.03769">
        <ele>1922</ele>
        <time>2013-02-16T11:13:51Z</time>
      </trkpt>
      <trkpt lat="42.85904" lon="0.03767">
        <ele>1923</ele>
        <time>2013-02-16T11:13:53Z</time>
      </trkpt>
      <trkpt lat="42.85904" lon="0.03765">
        <ele>1923</ele>
        <time>2013-02-16T11:13:55Z</time>
      </trkpt>
      <trkpt lat="42.85904" lon="0.03763">
        <ele>1924</ele>
        <time>2013-02-16T11:13:57Z</time>
      </trkpt>
      <trkpt lat="42.85904" lon="0.03762">
        <ele>1924</ele>
        <time>2013-02-16T11:13:59Z</time>
      </trkpt>
      <trkpt lat="42.85904" lon="0.0376">
        <ele>1925</ele>
        <time>2013-02-16T11:14:01Z</time>
      </trkpt>
      <trkpt lat="42.85904" lon="0.03759">
        <ele>1925</ele>
        <time>2013-02-16T11:14:03Z</time>
      </trkpt>
      <trkpt lat="42.85904" lon="0.03757">
        <ele>1925</ele>
        <time>2013-02-16T11:14:05Z</time>
      </trkpt>
      <trkpt lat="42.85904" lon="0.03756">
        <ele>1925</ele>
        <time>2013-02-16T11:14:07Z</time>
      </trkpt>
      <trkpt lat="42.85905" lon="0.03754">
        <ele>1925</ele>
        <time>2013-02-16T11:14:09Z</time>
      </trkpt>
      <trkpt lat="42.85905" lon="0.03752">
        <ele>1926</ele>
        <time>2013-02-16T11:14:11Z</time>
      </trkpt>
      <trkpt lat="42.85905" lon="0.03751">
        <ele>1926</ele>
        <time>2013-02-16T11:14:13Z</time>
      </trkpt>
      <trkpt lat="42.85905" lon="0.03749">
        <ele>1926</ele>
        <time>2013-02-16T11:14:15Z</time>
      </trkpt>
      <trkpt lat="42.85905" lon="0.03747">
        <ele>1927</ele>
        <time>2013-02-16T11:14:17Z</time>
      </trkpt>
      <trkpt lat="42.85906" lon="0.03745">
        <ele>1927</ele>
        <time>2013-02-16T11:14:19Z</time>
      </trkpt>
      <trkpt lat="42.85906" lon="0.03744">
        <ele>1927</ele>
        <time>2013-02-16T11:14:21Z</time>
      </trkpt>
      <trkpt lat="42.85906" lon="0.03742">
        <ele>1928</ele>
        <time>2013-02-16T11:14:23Z</time>
      </trkpt>
      <trkpt lat="42.85906" lon="0.0374">
        <ele>1928</ele>
        <time>2013-02-16T11:14:56Z</time>
      </trkpt>
      <trkpt lat="42.85907" lon="0.03738">
        <ele>1928</ele>
        <time>2013-02-16T11:14:58Z</time>
      </trkpt>
      <trkpt lat="42.85907" lon="0.03736">
        <ele>1928</ele>
        <time>2013-02-16T11:15:00Z</time>
      </trkpt>
      <trkpt lat="42.85907" lon="0.03735">
        <ele>1930</ele>
        <time>2013-02-16T11:15:30Z</time>
      </trkpt>
      <trkpt lat="42.85906" lon="0.03735">
        <ele>1930</ele>
        <time>2013-02-16T11:15:35Z</time>
      </trkpt>
      <trkpt lat="42.85904" lon="0.03736">
        <ele>1930</ele>
        <time>2013-02-16T11:15:38Z</time>
      </trkpt>
      <trkpt lat="42.85903" lon="0.03737">
        <ele>1930</ele>
        <time>2013-02-16T11:15:40Z</time>
      </trkpt>
      <trkpt lat="42.85902" lon="0.03738">
        <ele>1930</ele>
        <time>2013-02-16T11:15:42Z</time>
      </trkpt>
      <trkpt lat="42.85901" lon="0.03739">
        <ele>1931</ele>
        <time>2013-02-16T11:15:45Z</time>
      </trkpt>
      <trkpt lat="42.859" lon="0.0374">
        <ele>1932</ele>
        <time>2013-02-16T11:15:50Z</time>
      </trkpt>
      <trkpt lat="42.85899" lon="0.03741">
        <ele>1932</ele>
        <time>2013-02-16T11:15:52Z</time>
      </trkpt>
      <trkpt lat="42.85897" lon="0.03742">
        <ele>1932</ele>
        <time>2013-02-16T11:15:55Z</time>
      </trkpt>
      <trkpt lat="42.85895" lon="0.03744">
        <ele>1932</ele>
        <time>2013-02-16T11:15:58Z</time>
      </trkpt>
      <trkpt lat="42.85894" lon="0.03746">
        <ele>1933</ele>
        <time>2013-02-16T11:16:01Z</time>
      </trkpt>
      <trkpt lat="42.85892" lon="0.03747">
        <ele>1933</ele>
        <time>2013-02-16T11:16:04Z</time>
      </trkpt>
      <trkpt lat="42.85891" lon="0.03749">
        <ele>1933</ele>
        <time>2013-02-16T11:16:07Z</time>
      </trkpt>
      <trkpt lat="42.85889" lon="0.0375">
        <ele>1933</ele>
        <time>2013-02-16T11:16:10Z</time>
      </trkpt>
      <trkpt lat="42.85888" lon="0.03752">
        <ele>1933</ele>
        <time>2013-02-16T11:16:13Z</time>
      </trkpt>
      <trkpt lat="42.85886" lon="0.03753">
        <ele>1934</ele>
        <time>2013-02-16T11:16:15Z</time>
      </trkpt>
      <trkpt lat="42.85885" lon="0.03754">
        <ele>1934</ele>
        <time>2013-02-16T11:16:18Z</time>
      </trkpt>
      <trkpt lat="42.85883" lon="0.03756">
        <ele>1934</ele>
        <time>2013-02-16T11:16:21Z</time>
      </trkpt>
      <trkpt lat="42.85882" lon="0.03757">
        <ele>1934</ele>
        <time>2013-02-16T11:16:23Z</time>
      </trkpt>
      <trkpt lat="42.85881" lon="0.03759">
        <ele>1935</ele>
        <time>2013-02-16T11:16:26Z</time>
      </trkpt>
      <trkpt lat="42.85879" lon="0.0376">
        <ele>1935</ele>
        <time>2013-02-16T11:16:29Z</time>
      </trkpt>
      <trkpt lat="42.85878" lon="0.03761">
        <ele>1935</ele>
        <time>2013-02-16T11:16:32Z</time>
      </trkpt>
      <trkpt lat="42.85876" lon="0.03762">
        <ele>1935</ele>
        <time>2013-02-16T11:16:34Z</time>
      </trkpt>
      <trkpt lat="42.85875" lon="0.03763">
        <ele>1936</ele>
        <time>2013-02-16T11:16:36Z</time>
      </trkpt>
      <trkpt lat="42.85874" lon="0.03765">
        <ele>1936</ele>
        <time>2013-02-16T11:16:38Z</time>
      </trkpt>
      <trkpt lat="42.85874" lon="0.03766">
        <ele>1937</ele>
        <time>2013-02-16T11:17:08Z</time>
      </trkpt>
      <trkpt lat="42.85874" lon="0.03764">
        <ele>1937</ele>
        <time>2013-02-16T11:17:17Z</time>
      </trkpt>
      <trkpt lat="42.85874" lon="0.03763">
        <ele>1937</ele>
        <time>2013-02-16T11:17:19Z</time>
      </trkpt>
      <trkpt lat="42.85873" lon="0.03761">
        <ele>1937</ele>
        <time>2013-02-16T11:17:26Z</time>
      </trkpt>
      <trkpt lat="42.85873" lon="0.03759">
        <ele>1937</ele>
        <time>2013-02-16T11:17:29Z</time>
      </trkpt>
      <trkpt lat="42.85873" lon="0.03757">
        <ele>1937</ele>
        <time>2013-02-16T11:17:32Z</time>
      </trkpt>
      <trkpt lat="42.85873" lon="0.03755">
        <ele>1937</ele>
        <time>2013-02-16T11:17:35Z</time>
      </trkpt>
      <trkpt lat="42.85873" lon="0.03753">
        <ele>1938</ele>
        <time>2013-02-16T11:17:38Z</time>
      </trkpt>
      <trkpt lat="42.85873" lon="0.03751">
        <ele>1938</ele>
        <time>2013-02-16T11:17:40Z</time>
      </trkpt>
      <trkpt lat="42.85873" lon="0.03749">
        <ele>1939</ele>
        <time>2013-02-16T11:17:42Z</time>
      </trkpt>
      <trkpt lat="42.85872" lon="0.03748">
        <ele>1940</ele>
        <time>2013-02-16T11:17:44Z</time>
      </trkpt>
      <trkpt lat="42.85872" lon="0.03746">
        <ele>1941</ele>
        <time>2013-02-16T11:17:46Z</time>
      </trkpt>
      <trkpt lat="42.85872" lon="0.03744">
        <ele>1941</ele>
        <time>2013-02-16T11:17:49Z</time>
      </trkpt>
      <trkpt lat="42.85872" lon="0.03742">
        <ele>1942</ele>
        <time>2013-02-16T11:17:51Z</time>
      </trkpt>
      <trkpt lat="42.85871" lon="0.0374">
        <ele>1943</ele>
        <time>2013-02-16T11:17:54Z</time>
      </trkpt>
      <trkpt lat="42.85871" lon="0.03739">
        <ele>1943</ele>
        <time>2013-02-16T11:17:57Z</time>
      </trkpt>
      <trkpt lat="42.8587" lon="0.03737">
        <ele>1944</ele>
        <time>2013-02-16T11:17:59Z</time>
      </trkpt>
      <trkpt lat="42.8587" lon="0.03736">
        <ele>1944</ele>
        <time>2013-02-16T11:18:01Z</time>
      </trkpt>
      <trkpt lat="42.8587" lon="0.03734">
        <ele>1945</ele>
        <time>2013-02-16T11:18:04Z</time>
      </trkpt>
      <trkpt lat="42.8587" lon="0.03732">
        <ele>1945</ele>
        <time>2013-02-16T11:18:06Z</time>
      </trkpt>
      <trkpt lat="42.8587" lon="0.03731">
        <ele>1946</ele>
        <time>2013-02-16T11:18:30Z</time>
      </trkpt>
      <trkpt lat="42.85869" lon="0.03729">
        <ele>1946</ele>
        <time>2013-02-16T11:18:32Z</time>
      </trkpt>
      <trkpt lat="42.85869" lon="0.03727">
        <ele>1947</ele>
        <time>2013-02-16T11:18:35Z</time>
      </trkpt>
      <trkpt lat="42.85869" lon="0.03725">
        <ele>1947</ele>
        <time>2013-02-16T11:18:37Z</time>
      </trkpt>
      <trkpt lat="42.85869" lon="0.03724">
        <ele>1948</ele>
        <time>2013-02-16T11:18:39Z</time>
      </trkpt>
      <trkpt lat="42.85869" lon="0.03722">
        <ele>1948</ele>
        <time>2013-02-16T11:18:41Z</time>
      </trkpt>
      <trkpt lat="42.85868" lon="0.0372">
        <ele>1948</ele>
        <time>2013-02-16T11:18:43Z</time>
      </trkpt>
      <trkpt lat="42.85868" lon="0.03719">
        <ele>1949</ele>
        <time>2013-02-16T11:18:45Z</time>
      </trkpt>
      <trkpt lat="42.85868" lon="0.03717">
        <ele>1949</ele>
        <time>2013-02-16T11:18:47Z</time>
      </trkpt>
      <trkpt lat="42.85868" lon="0.03716">
        <ele>1950</ele>
        <time>2013-02-16T11:18:49Z</time>
      </trkpt>
      <trkpt lat="42.85868" lon="0.03714">
        <ele>1950</ele>
        <time>2013-02-16T11:18:52Z</time>
      </trkpt>
      <trkpt lat="42.85868" lon="0.03712">
        <ele>1950</ele>
        <time>2013-02-16T11:18:54Z</time>
      </trkpt>
      <trkpt lat="42.85868" lon="0.03711">
        <ele>1950</ele>
        <time>2013-02-16T11:18:56Z</time>
      </trkpt>
      <trkpt lat="42.85868" lon="0.03709">
        <ele>1951</ele>
        <time>2013-02-16T11:18:58Z</time>
      </trkpt>
      <trkpt lat="42.85868" lon="0.03707">
        <ele>1951</ele>
        <time>2013-02-16T11:19:00Z</time>
      </trkpt>
      <trkpt lat="42.85868" lon="0.03706">
        <ele>1952</ele>
        <time>2013-02-16T11:19:02Z</time>
      </trkpt>
      <trkpt lat="42.85868" lon="0.03704">
        <ele>1952</ele>
        <time>2013-02-16T11:19:04Z</time>
      </trkpt>
      <trkpt lat="42.85868" lon="0.03703">
        <ele>1953</ele>
        <time>2013-02-16T11:19:06Z</time>
      </trkpt>
      <trkpt lat="42.85868" lon="0.03701">
        <ele>1953</ele>
        <time>2013-02-16T11:19:08Z</time>
      </trkpt>
      <trkpt lat="42.85868" lon="0.037">
        <ele>1954</ele>
        <time>2013-02-16T11:19:12Z</time>
      </trkpt>
      <trkpt lat="42.85867" lon="0.037">
        <ele>1955</ele>
        <time>2013-02-16T11:19:36Z</time>
      </trkpt>
      <trkpt lat="42.85865" lon="0.03702">
        <ele>1955</ele>
        <time>2013-02-16T11:19:39Z</time>
      </trkpt>
      <trkpt lat="42.85863" lon="0.03703">
        <ele>1955</ele>
        <time>2013-02-16T11:19:42Z</time>
      </trkpt>
      <trkpt lat="42.85862" lon="0.03704">
        <ele>1955</ele>
        <time>2013-02-16T11:19:44Z</time>
      </trkpt>
      <trkpt lat="42.85861" lon="0.03705">
        <ele>1955</ele>
        <time>2013-02-16T11:19:47Z</time>
      </trkpt>
      <trkpt lat="42.85859" lon="0.03706">
        <ele>1956</ele>
        <time>2013-02-16T11:19:50Z</time>
      </trkpt>
      <trkpt lat="42.85858" lon="0.03706">
        <ele>1956</ele>
        <time>2013-02-16T11:20:00Z</time>
      </trkpt>
      <trkpt lat="42.85857" lon="0.03707">
        <ele>1956</ele>
        <time>2013-02-16T11:20:14Z</time>
      </trkpt>
      <trkpt lat="42.85856" lon="0.03708">
        <ele>1956</ele>
        <time>2013-02-16T11:20:17Z</time>
      </trkpt>
      <trkpt lat="42.85854" lon="0.03709">
        <ele>1956</ele>
        <time>2013-02-16T11:20:19Z</time>
      </trkpt>
      <trkpt lat="42.85853" lon="0.03709">
        <ele>1956</ele>
        <time>2013-02-16T11:20:21Z</time>
      </trkpt>
      <trkpt lat="42.85852" lon="0.0371">
        <ele>1956</ele>
        <time>2013-02-16T11:20:23Z</time>
      </trkpt>
      <trkpt lat="42.85851" lon="0.03711">
        <ele>1956</ele>
        <time>2013-02-16T11:20:25Z</time>
      </trkpt>
      <trkpt lat="42.85849" lon="0.03712">
        <ele>1956</ele>
        <time>2013-02-16T11:20:27Z</time>
      </trkpt>
      <trkpt lat="42.85848" lon="0.03714">
        <ele>1956</ele>
        <time>2013-02-16T11:20:30Z</time>
      </trkpt>
      <trkpt lat="42.85846" lon="0.03715">
        <ele>1956</ele>
        <time>2013-02-16T11:20:33Z</time>
      </trkpt>
      <trkpt lat="42.85845" lon="0.03715">
        <ele>1956</ele>
        <time>2013-02-16T11:20:35Z</time>
      </trkpt>
      <trkpt lat="42.85844" lon="0.03716">
        <ele>1957</ele>
        <time>2013-02-16T11:20:37Z</time>
      </trkpt>
      <trkpt lat="42.85843" lon="0.03718">
        <ele>1957</ele>
        <time>2013-02-16T11:20:40Z</time>
      </trkpt>
      <trkpt lat="42.85842" lon="0.03716">
        <ele>1959</ele>
        <time>2013-02-16T11:20:51Z</time>
      </trkpt>
      <trkpt lat="42.85842" lon="0.03714">
        <ele>1959</ele>
        <time>2013-02-16T11:20:53Z</time>
      </trkpt>
      <trkpt lat="42.85842" lon="0.03713">
        <ele>1959</ele>
        <time>2013-02-16T11:20:56Z</time>
      </trkpt>
      <trkpt lat="42.85842" lon="0.03714">
        <ele>1959</ele>
        <time>2013-02-16T11:21:13Z</time>
      </trkpt>
      <trkpt lat="42.85842" lon="0.03712">
        <ele>1959</ele>
        <time>2013-02-16T11:21:20Z</time>
      </trkpt>
      <trkpt lat="42.85842" lon="0.03711">
        <ele>1959</ele>
        <time>2013-02-16T11:21:22Z</time>
      </trkpt>
      <trkpt lat="42.85842" lon="0.03709">
        <ele>1959</ele>
        <time>2013-02-16T11:21:24Z</time>
      </trkpt>
      <trkpt lat="42.85842" lon="0.03707">
        <ele>1960</ele>
        <time>2013-02-16T11:21:26Z</time>
      </trkpt>
      <trkpt lat="42.85841" lon="0.03705">
        <ele>1960</ele>
        <time>2013-02-16T11:21:28Z</time>
      </trkpt>
      <trkpt lat="42.85841" lon="0.03704">
        <ele>1960</ele>
        <time>2013-02-16T11:21:29Z</time>
      </trkpt>
      <trkpt lat="42.85841" lon="0.03702">
        <ele>1961</ele>
        <time>2013-02-16T11:21:31Z</time>
      </trkpt>
      <trkpt lat="42.85841" lon="0.037">
        <ele>1961</ele>
        <time>2013-02-16T11:21:33Z</time>
      </trkpt>
      <trkpt lat="42.85841" lon="0.03699">
        <ele>1962</ele>
        <time>2013-02-16T11:21:35Z</time>
      </trkpt>
      <trkpt lat="42.85841" lon="0.03697">
        <ele>1962</ele>
        <time>2013-02-16T11:21:37Z</time>
      </trkpt>
      <trkpt lat="42.85842" lon="0.03695">
        <ele>1963</ele>
        <time>2013-02-16T11:21:39Z</time>
      </trkpt>
      <trkpt lat="42.85842" lon="0.03694">
        <ele>1963</ele>
        <time>2013-02-16T11:21:41Z</time>
      </trkpt>
      <trkpt lat="42.85842" lon="0.03692">
        <ele>1963</ele>
        <time>2013-02-16T11:21:43Z</time>
      </trkpt>
      <trkpt lat="42.85842" lon="0.0369">
        <ele>1964</ele>
        <time>2013-02-16T11:21:45Z</time>
      </trkpt>
      <trkpt lat="42.85842" lon="0.03689">
        <ele>1965</ele>
        <time>2013-02-16T11:21:47Z</time>
      </trkpt>
      <trkpt lat="42.85843" lon="0.03687">
        <ele>1965</ele>
        <time>2013-02-16T11:21:49Z</time>
      </trkpt>
      <trkpt lat="42.85843" lon="0.03685">
        <ele>1966</ele>
        <time>2013-02-16T11:21:51Z</time>
      </trkpt>
      <trkpt lat="42.85843" lon="0.03684">
        <ele>1967</ele>
        <time>2013-02-16T11:22:23Z</time>
      </trkpt>
      <trkpt lat="42.85843" lon="0.03682">
        <ele>1967</ele>
        <time>2013-02-16T11:22:25Z</time>
      </trkpt>
      <trkpt lat="42.85843" lon="0.0368">
        <ele>1967</ele>
        <time>2013-02-16T11:22:27Z</time>
      </trkpt>
      <trkpt lat="42.85843" lon="0.03678">
        <ele>1967</ele>
        <time>2013-02-16T11:22:29Z</time>
      </trkpt>
      <trkpt lat="42.85843" lon="0.03676">
        <ele>1968</ele>
        <time>2013-02-16T11:22:31Z</time>
      </trkpt>
      <trkpt lat="42.85843" lon="0.03674">
        <ele>1969</ele>
        <time>2013-02-16T11:22:33Z</time>
      </trkpt>
      <trkpt lat="42.85843" lon="0.03673">
        <ele>1969</ele>
        <time>2013-02-16T11:22:35Z</time>
      </trkpt>
      <trkpt lat="42.85843" lon="0.03671">
        <ele>1970</ele>
        <time>2013-02-16T11:22:37Z</time>
      </trkpt>
      <trkpt lat="42.85843" lon="0.03669">
        <ele>1970</ele>
        <time>2013-02-16T11:22:39Z</time>
      </trkpt>
      <trkpt lat="42.85842" lon="0.03668">
        <ele>1970</ele>
        <time>2013-02-16T11:22:42Z</time>
      </trkpt>
      <trkpt lat="42.8584" lon="0.03666">
        <ele>1971</ele>
        <time>2013-02-16T11:22:45Z</time>
      </trkpt>
      <trkpt lat="42.85839" lon="0.03666">
        <ele>1971</ele>
        <time>2013-02-16T11:22:47Z</time>
      </trkpt>
      <trkpt lat="42.85838" lon="0.03665">
        <ele>1972</ele>
        <time>2013-02-16T11:22:51Z</time>
      </trkpt>
      <trkpt lat="42.85837" lon="0.03667">
        <ele>1973</ele>
        <time>2013-02-16T11:23:11Z</time>
      </trkpt>
      <trkpt lat="42.85836" lon="0.03667">
        <ele>1973</ele>
        <time>2013-02-16T11:23:13Z</time>
      </trkpt>
      <trkpt lat="42.85834" lon="0.03667">
        <ele>1973</ele>
        <time>2013-02-16T11:23:15Z</time>
      </trkpt>
      <trkpt lat="42.85833" lon="0.03667">
        <ele>1973</ele>
        <time>2013-02-16T11:23:17Z</time>
      </trkpt>
      <trkpt lat="42.85831" lon="0.03668">
        <ele>1973</ele>
        <time>2013-02-16T11:23:19Z</time>
      </trkpt>
      <trkpt lat="42.8583" lon="0.03669">
        <ele>1973</ele>
        <time>2013-02-16T11:23:21Z</time>
      </trkpt>
      <trkpt lat="42.85828" lon="0.03669">
        <ele>1973</ele>
        <time>2013-02-16T11:23:23Z</time>
      </trkpt>
      <trkpt lat="42.85826" lon="0.03669">
        <ele>1973</ele>
        <time>2013-02-16T11:23:25Z</time>
      </trkpt>
      <trkpt lat="42.85825" lon="0.03669">
        <ele>1973</ele>
        <time>2013-02-16T11:23:27Z</time>
      </trkpt>
      <trkpt lat="42.85823" lon="0.0367">
        <ele>1973</ele>
        <time>2013-02-16T11:23:29Z</time>
      </trkpt>
      <trkpt lat="42.85822" lon="0.0367">
        <ele>1974</ele>
        <time>2013-02-16T11:23:31Z</time>
      </trkpt>
      <trkpt lat="42.8582" lon="0.0367">
        <ele>1974</ele>
        <time>2013-02-16T11:23:33Z</time>
      </trkpt>
      <trkpt lat="42.85819" lon="0.03671">
        <ele>1974</ele>
        <time>2013-02-16T11:23:35Z</time>
      </trkpt>
      <trkpt lat="42.85817" lon="0.03671">
        <ele>1974</ele>
        <time>2013-02-16T11:23:37Z</time>
      </trkpt>
      <trkpt lat="42.85816" lon="0.03672">
        <ele>1975</ele>
        <time>2013-02-16T11:23:39Z</time>
      </trkpt>
      <trkpt lat="42.85814" lon="0.03672">
        <ele>1975</ele>
        <time>2013-02-16T11:23:41Z</time>
      </trkpt>
      <trkpt lat="42.85813" lon="0.03673">
        <ele>1975</ele>
        <time>2013-02-16T11:23:43Z</time>
      </trkpt>
      <trkpt lat="42.85812" lon="0.03674">
        <ele>1975</ele>
        <time>2013-02-16T11:24:06Z</time>
      </trkpt>
      <trkpt lat="42.8581" lon="0.03675">
        <ele>1975</ele>
        <time>2013-02-16T11:24:08Z</time>
      </trkpt>
      <trkpt lat="42.85809" lon="0.03675">
        <ele>1975</ele>
        <time>2013-02-16T11:24:10Z</time>
      </trkpt>
      <trkpt lat="42.85807" lon="0.03676">
        <ele>1976</ele>
        <time>2013-02-16T11:24:12Z</time>
      </trkpt>
      <trkpt lat="42.85806" lon="0.03677">
        <ele>1976</ele>
        <time>2013-02-16T11:24:14Z</time>
      </trkpt>
      <trkpt lat="42.85805" lon="0.03678">
        <ele>1976</ele>
        <time>2013-02-16T11:24:16Z</time>
      </trkpt>
      <trkpt lat="42.85804" lon="0.03678">
        <ele>1976</ele>
        <time>2013-02-16T11:24:18Z</time>
      </trkpt>
      <trkpt lat="42.85802" lon="0.03679">
        <ele>1976</ele>
        <time>2013-02-16T11:24:20Z</time>
      </trkpt>
      <trkpt lat="42.85801" lon="0.0368">
        <ele>1976</ele>
        <time>2013-02-16T11:24:22Z</time>
      </trkpt>
      <trkpt lat="42.85799" lon="0.0368">
        <ele>1976</ele>
        <time>2013-02-16T11:24:24Z</time>
      </trkpt>
      <trkpt lat="42.85797" lon="0.03681">
        <ele>1977</ele>
        <time>2013-02-16T11:24:26Z</time>
      </trkpt>
      <trkpt lat="42.85796" lon="0.03681">
        <ele>1977</ele>
        <time>2013-02-16T11:24:28Z</time>
      </trkpt>
      <trkpt lat="42.85794" lon="0.03682">
        <ele>1977</ele>
        <time>2013-02-16T11:24:30Z</time>
      </trkpt>
      <trkpt lat="42.85793" lon="0.03683">
        <ele>1977</ele>
        <time>2013-02-16T11:24:32Z</time>
      </trkpt>
      <trkpt lat="42.85791" lon="0.03683">
        <ele>1978</ele>
        <time>2013-02-16T11:24:34Z</time>
      </trkpt>
      <trkpt lat="42.8579" lon="0.03683">
        <ele>1978</ele>
        <time>2013-02-16T11:24:36Z</time>
      </trkpt>
      <trkpt lat="42.85788" lon="0.03684">
        <ele>1979</ele>
        <time>2013-02-16T11:25:27Z</time>
      </trkpt>
      <trkpt lat="42.85787" lon="0.03684">
        <ele>1983</ele>
        <time>2013-02-16T11:28:47Z</time>
      </trkpt>
      <trkpt lat="42.85786" lon="0.03684">
        <ele>1983</ele>
        <time>2013-02-16T11:28:58Z</time>
      </trkpt>
      <trkpt lat="42.85787" lon="0.03684">
        <ele>1985</ele>
        <time>2013-02-16T11:29:31Z</time>
      </trkpt>
      <trkpt lat="42.85787" lon="0.03683">
        <ele>1987</ele>
        <time>2013-02-16T11:30:51Z</time>
      </trkpt>
      <trkpt lat="42.85788" lon="0.03683">
        <ele>1988</ele>
        <time>2013-02-16T11:31:47Z</time>
      </trkpt>
      <trkpt lat="42.85789" lon="0.03682">
        <ele>1988</ele>
        <time>2013-02-16T11:33:19Z</time>
      </trkpt>
      <trkpt lat="42.85789" lon="0.03684">
        <ele>1984</ele>
        <time>2013-02-16T11:35:09Z</time>
      </trkpt>
      <trkpt lat="42.85788" lon="0.03685">
        <ele>1984</ele>
        <time>2013-02-16T11:37:23Z</time>
      </trkpt>
      <trkpt lat="42.85787" lon="0.03686">
        <ele>1984</ele>
        <time>2013-02-16T11:37:26Z</time>
      </trkpt>
      <trkpt lat="42.85786" lon="0.03688">
        <ele>1984</ele>
        <time>2013-02-16T11:37:29Z</time>
      </trkpt>
      <trkpt lat="42.85785" lon="0.03689">
        <ele>1984</ele>
        <time>2013-02-16T11:37:31Z</time>
      </trkpt>
      <trkpt lat="42.85784" lon="0.03691">
        <ele>1984</ele>
        <time>2013-02-16T11:37:33Z</time>
      </trkpt>
      <trkpt lat="42.85783" lon="0.03693">
        <ele>1984</ele>
        <time>2013-02-16T11:37:36Z</time>
      </trkpt>
      <trkpt lat="42.85782" lon="0.03695">
        <ele>1984</ele>
        <time>2013-02-16T11:37:39Z</time>
      </trkpt>
      <trkpt lat="42.85781" lon="0.03697">
        <ele>1984</ele>
        <time>2013-02-16T11:37:41Z</time>
      </trkpt>
      <trkpt lat="42.8578" lon="0.03698">
        <ele>1984</ele>
        <time>2013-02-16T11:37:43Z</time>
      </trkpt>
      <trkpt lat="42.85779" lon="0.037">
        <ele>1984</ele>
        <time>2013-02-16T11:37:45Z</time>
      </trkpt>
      <trkpt lat="42.85778" lon="0.03701">
        <ele>1984</ele>
        <time>2013-02-16T11:37:47Z</time>
      </trkpt>
      <trkpt lat="42.85777" lon="0.03703">
        <ele>1984</ele>
        <time>2013-02-16T11:37:49Z</time>
      </trkpt>
      <trkpt lat="42.85776" lon="0.03704">
        <ele>1984</ele>
        <time>2013-02-16T11:37:51Z</time>
      </trkpt>
      <trkpt lat="42.85775" lon="0.03706">
        <ele>1984</ele>
        <time>2013-02-16T11:37:53Z</time>
      </trkpt>
      <trkpt lat="42.85774" lon="0.03708">
        <ele>1984</ele>
        <time>2013-02-16T11:37:55Z</time>
      </trkpt>
      <trkpt lat="42.85773" lon="0.03709">
        <ele>1984</ele>
        <time>2013-02-16T11:37:57Z</time>
      </trkpt>
      <trkpt lat="42.85773" lon="0.03711">
        <ele>1984</ele>
        <time>2013-02-16T11:37:59Z</time>
      </trkpt>
      <trkpt lat="42.85772" lon="0.03713">
        <ele>1984</ele>
        <time>2013-02-16T11:38:02Z</time>
      </trkpt>
      <trkpt lat="42.85771" lon="0.03714">
        <ele>1984</ele>
        <time>2013-02-16T11:38:05Z</time>
      </trkpt>
      <trkpt lat="42.8577" lon="0.03716">
        <ele>1984</ele>
        <time>2013-02-16T11:38:10Z</time>
      </trkpt>
      <trkpt lat="42.8577" lon="0.03718">
        <ele>1984</ele>
        <time>2013-02-16T11:38:14Z</time>
      </trkpt>
      <trkpt lat="42.85769" lon="0.0372">
        <ele>1984</ele>
        <time>2013-02-16T11:38:17Z</time>
      </trkpt>
      <trkpt lat="42.85768" lon="0.03721">
        <ele>1985</ele>
        <time>2013-02-16T11:38:20Z</time>
      </trkpt>
      <trkpt lat="42.85767" lon="0.03723">
        <ele>1985</ele>
        <time>2013-02-16T11:38:23Z</time>
      </trkpt>
      <trkpt lat="42.85766" lon="0.03725">
        <ele>1986</ele>
        <time>2013-02-16T11:38:26Z</time>
      </trkpt>
      <trkpt lat="42.85765" lon="0.03726">
        <ele>1986</ele>
        <time>2013-02-16T11:38:29Z</time>
      </trkpt>
      <trkpt lat="42.85764" lon="0.03728">
        <ele>1987</ele>
        <time>2013-02-16T11:38:32Z</time>
      </trkpt>
      <trkpt lat="42.85763" lon="0.0373">
        <ele>1987</ele>
        <time>2013-02-16T11:38:35Z</time>
      </trkpt>
      <trkpt lat="42.85762" lon="0.0373">
        <ele>1988</ele>
        <time>2013-02-16T11:38:37Z</time>
      </trkpt>
      <trkpt lat="42.8576" lon="0.03731">
        <ele>1988</ele>
        <time>2013-02-16T11:38:40Z</time>
      </trkpt>
      <trkpt lat="42.85759" lon="0.03732">
        <ele>1988</ele>
        <time>2013-02-16T11:38:42Z</time>
      </trkpt>
      <trkpt lat="42.85757" lon="0.03733">
        <ele>1989</ele>
        <time>2013-02-16T11:38:45Z</time>
      </trkpt>
      <trkpt lat="42.85756" lon="0.03734">
        <ele>1990</ele>
        <time>2013-02-16T11:38:50Z</time>
      </trkpt>
      <trkpt lat="42.85755" lon="0.03735">
        <ele>1991</ele>
        <time>2013-02-16T11:38:57Z</time>
      </trkpt>
      <trkpt lat="42.85754" lon="0.03737">
        <ele>1991</ele>
        <time>2013-02-16T11:39:12Z</time>
      </trkpt>
      <trkpt lat="42.85754" lon="0.03739">
        <ele>1991</ele>
        <time>2013-02-16T11:39:14Z</time>
      </trkpt>
      <trkpt lat="42.85754" lon="0.0374">
        <ele>1991</ele>
        <time>2013-02-16T11:39:16Z</time>
      </trkpt>
      <trkpt lat="42.85753" lon="0.03742">
        <ele>1991</ele>
        <time>2013-02-16T11:39:18Z</time>
      </trkpt>
      <trkpt lat="42.85753" lon="0.03744">
        <ele>1992</ele>
        <time>2013-02-16T11:39:20Z</time>
      </trkpt>
      <trkpt lat="42.85752" lon="0.03746">
        <ele>1992</ele>
        <time>2013-02-16T11:39:22Z</time>
      </trkpt>
      <trkpt lat="42.85751" lon="0.03748">
        <ele>1993</ele>
        <time>2013-02-16T11:39:25Z</time>
      </trkpt>
      <trkpt lat="42.8575" lon="0.03749">
        <ele>1994</ele>
        <time>2013-02-16T11:39:27Z</time>
      </trkpt>
      <trkpt lat="42.85749" lon="0.03751">
        <ele>1995</ele>
        <time>2013-02-16T11:39:29Z</time>
      </trkpt>
      <trkpt lat="42.85749" lon="0.03752">
        <ele>1995</ele>
        <time>2013-02-16T11:39:31Z</time>
      </trkpt>
      <trkpt lat="42.85748" lon="0.03754">
        <ele>1996</ele>
        <time>2013-02-16T11:39:34Z</time>
      </trkpt>
      <trkpt lat="42.85747" lon="0.03756">
        <ele>1997</ele>
        <time>2013-02-16T11:39:37Z</time>
      </trkpt>
      <trkpt lat="42.85746" lon="0.03757">
        <ele>1998</ele>
        <time>2013-02-16T11:39:40Z</time>
      </trkpt>
      <trkpt lat="42.85746" lon="0.03759">
        <ele>1998</ele>
        <time>2013-02-16T11:39:43Z</time>
      </trkpt>
      <trkpt lat="42.85745" lon="0.03761">
        <ele>1999</ele>
        <time>2013-02-16T11:39:46Z</time>
      </trkpt>
      <trkpt lat="42.85744" lon="0.03762">
        <ele>1999</ele>
        <time>2013-02-16T11:39:49Z</time>
      </trkpt>
      <trkpt lat="42.85743" lon="0.03764">
        <ele>2000</ele>
        <time>2013-02-16T11:39:52Z</time>
      </trkpt>
      <trkpt lat="42.85742" lon="0.03766">
        <ele>2000</ele>
        <time>2013-02-16T11:39:55Z</time>
      </trkpt>
      <trkpt lat="42.85741" lon="0.03768">
        <ele>2001</ele>
        <time>2013-02-16T11:39:58Z</time>
      </trkpt>
      <trkpt lat="42.85741" lon="0.03769">
        <ele>2001</ele>
        <time>2013-02-16T11:40:01Z</time>
      </trkpt>
      <trkpt lat="42.8574" lon="0.03771">
        <ele>2002</ele>
        <time>2013-02-16T11:40:04Z</time>
      </trkpt>
      <trkpt lat="42.85739" lon="0.03773">
        <ele>2002</ele>
        <time>2013-02-16T11:40:07Z</time>
      </trkpt>
      <trkpt lat="42.85738" lon="0.03775">
        <ele>2002</ele>
        <time>2013-02-16T11:40:10Z</time>
      </trkpt>
      <trkpt lat="42.85737" lon="0.03777">
        <ele>2003</ele>
        <time>2013-02-16T11:40:13Z</time>
      </trkpt>
      <trkpt lat="42.85736" lon="0.03778">
        <ele>2003</ele>
        <time>2013-02-16T11:40:16Z</time>
      </trkpt>
      <trkpt lat="42.85735" lon="0.0378">
        <ele>2003</ele>
        <time>2013-02-16T11:40:19Z</time>
      </trkpt>
      <trkpt lat="42.85735" lon="0.03782">
        <ele>2004</ele>
        <time>2013-02-16T11:40:22Z</time>
      </trkpt>
      <trkpt lat="42.85734" lon="0.03784">
        <ele>2005</ele>
        <time>2013-02-16T11:40:25Z</time>
      </trkpt>
      <trkpt lat="42.85733" lon="0.03785">
        <ele>2005</ele>
        <time>2013-02-16T11:40:28Z</time>
      </trkpt>
      <trkpt lat="42.85732" lon="0.03787">
        <ele>2005</ele>
        <time>2013-02-16T11:40:31Z</time>
      </trkpt>
      <trkpt lat="42.85731" lon="0.03789">
        <ele>2006</ele>
        <time>2013-02-16T11:40:34Z</time>
      </trkpt>
      <trkpt lat="42.8573" lon="0.03791">
        <ele>2007</ele>
        <time>2013-02-16T11:40:38Z</time>
      </trkpt>
      <trkpt lat="42.85729" lon="0.03793">
        <ele>2007</ele>
        <time>2013-02-16T11:40:41Z</time>
      </trkpt>
      <trkpt lat="42.85728" lon="0.03794">
        <ele>2007</ele>
        <time>2013-02-16T11:40:44Z</time>
      </trkpt>
      <trkpt lat="42.85728" lon="0.03796">
        <ele>2008</ele>
        <time>2013-02-16T11:40:47Z</time>
      </trkpt>
      <trkpt lat="42.85727" lon="0.03797">
        <ele>2008</ele>
        <time>2013-02-16T11:40:50Z</time>
      </trkpt>
      <trkpt lat="42.85727" lon="0.03799">
        <ele>2008</ele>
        <time>2013-02-16T11:40:53Z</time>
      </trkpt>
      <trkpt lat="42.85726" lon="0.03801">
        <ele>2009</ele>
        <time>2013-02-16T11:40:56Z</time>
      </trkpt>
      <trkpt lat="42.85725" lon="0.03802">
        <ele>2009</ele>
        <time>2013-02-16T11:40:59Z</time>
      </trkpt>
      <trkpt lat="42.85725" lon="0.03804">
        <ele>2009</ele>
        <time>2013-02-16T11:41:02Z</time>
      </trkpt>
      <trkpt lat="42.85724" lon="0.03805">
        <ele>2009</ele>
        <time>2013-02-16T11:41:05Z</time>
      </trkpt>
      <trkpt lat="42.85723" lon="0.03807">
        <ele>2010</ele>
        <time>2013-02-16T11:41:09Z</time>
      </trkpt>
      <trkpt lat="42.85723" lon="0.03809">
        <ele>2010</ele>
        <time>2013-02-16T11:41:12Z</time>
      </trkpt>
      <trkpt lat="42.85722" lon="0.0381">
        <ele>2011</ele>
        <time>2013-02-16T11:41:15Z</time>
      </trkpt>
      <trkpt lat="42.85721" lon="0.03812">
        <ele>2011</ele>
        <time>2013-02-16T11:41:18Z</time>
      </trkpt>
      <trkpt lat="42.8572" lon="0.03813">
        <ele>2011</ele>
        <time>2013-02-16T11:41:21Z</time>
      </trkpt>
      <trkpt lat="42.8572" lon="0.03815">
        <ele>2012</ele>
        <time>2013-02-16T11:41:25Z</time>
      </trkpt>
      <trkpt lat="42.85719" lon="0.03817">
        <ele>2012</ele>
        <time>2013-02-16T11:41:28Z</time>
      </trkpt>
      <trkpt lat="42.85718" lon="0.03818">
        <ele>2012</ele>
        <time>2013-02-16T11:41:31Z</time>
      </trkpt>
      <trkpt lat="42.85717" lon="0.0382">
        <ele>2012</ele>
        <time>2013-02-16T11:41:34Z</time>
      </trkpt>
      <trkpt lat="42.85717" lon="0.03822">
        <ele>2013</ele>
        <time>2013-02-16T11:41:38Z</time>
      </trkpt>
      <trkpt lat="42.85716" lon="0.03823">
        <ele>2013</ele>
        <time>2013-02-16T11:41:42Z</time>
      </trkpt>
      <trkpt lat="42.85715" lon="0.03824">
        <ele>2013</ele>
        <time>2013-02-16T11:41:45Z</time>
      </trkpt>
      <trkpt lat="42.85715" lon="0.03826">
        <ele>2013</ele>
        <time>2013-02-16T11:41:48Z</time>
      </trkpt>
      <trkpt lat="42.85714" lon="0.03828">
        <ele>2014</ele>
        <time>2013-02-16T11:41:51Z</time>
      </trkpt>
      <trkpt lat="42.85714" lon="0.03829">
        <ele>2014</ele>
        <time>2013-02-16T11:41:54Z</time>
      </trkpt>
      <trkpt lat="42.85713" lon="0.03831">
        <ele>2014</ele>
        <time>2013-02-16T11:41:57Z</time>
      </trkpt>
      <trkpt lat="42.85712" lon="0.03833">
        <ele>2015</ele>
        <time>2013-02-16T11:42:01Z</time>
      </trkpt>
      <trkpt lat="42.85712" lon="0.03835">
        <ele>2015</ele>
        <time>2013-02-16T11:42:04Z</time>
      </trkpt>
      <trkpt lat="42.85711" lon="0.03836">
        <ele>2016</ele>
        <time>2013-02-16T11:42:07Z</time>
      </trkpt>
      <trkpt lat="42.85711" lon="0.03838">
        <ele>2016</ele>
        <time>2013-02-16T11:42:10Z</time>
      </trkpt>
      <trkpt lat="42.8571" lon="0.03839">
        <ele>2016</ele>
        <time>2013-02-16T11:42:13Z</time>
      </trkpt>
      <trkpt lat="42.85709" lon="0.03841">
        <ele>2017</ele>
        <time>2013-02-16T11:42:16Z</time>
      </trkpt>
      <trkpt lat="42.85709" lon="0.03843">
        <ele>2017</ele>
        <time>2013-02-16T11:42:19Z</time>
      </trkpt>
      <trkpt lat="42.85708" lon="0.03845">
        <ele>2018</ele>
        <time>2013-02-16T11:42:23Z</time>
      </trkpt>
      <trkpt lat="42.85708" lon="0.03847">
        <ele>2018</ele>
        <time>2013-02-16T11:42:26Z</time>
      </trkpt>
      <trkpt lat="42.85707" lon="0.03848">
        <ele>2018</ele>
        <time>2013-02-16T11:42:29Z</time>
      </trkpt>
      <trkpt lat="42.85706" lon="0.0385">
        <ele>2019</ele>
        <time>2013-02-16T11:42:33Z</time>
      </trkpt>
      <trkpt lat="42.85706" lon="0.03852">
        <ele>2019</ele>
        <time>2013-02-16T11:42:36Z</time>
      </trkpt>
      <trkpt lat="42.85705" lon="0.03853">
        <ele>2020</ele>
        <time>2013-02-16T11:42:39Z</time>
      </trkpt>
      <trkpt lat="42.85705" lon="0.03855">
        <ele>2020</ele>
        <time>2013-02-16T11:42:43Z</time>
      </trkpt>
      <trkpt lat="42.85704" lon="0.03857">
        <ele>2020</ele>
        <time>2013-02-16T11:42:49Z</time>
      </trkpt>
      <trkpt lat="42.85704" lon="0.03858">
        <ele>2020</ele>
        <time>2013-02-16T11:42:51Z</time>
      </trkpt>
      <trkpt lat="42.85704" lon="0.0386">
        <ele>2020</ele>
        <time>2013-02-16T11:42:53Z</time>
      </trkpt>
      <trkpt lat="42.85704" lon="0.03862">
        <ele>2021</ele>
        <time>2013-02-16T11:42:55Z</time>
      </trkpt>
      <trkpt lat="42.85704" lon="0.03863">
        <ele>2021</ele>
        <time>2013-02-16T11:42:57Z</time>
      </trkpt>
      <trkpt lat="42.85704" lon="0.03865">
        <ele>2021</ele>
        <time>2013-02-16T11:42:59Z</time>
      </trkpt>
      <trkpt lat="42.85704" lon="0.03866">
        <ele>2022</ele>
        <time>2013-02-16T11:43:02Z</time>
      </trkpt>
      <trkpt lat="42.85704" lon="0.03868">
        <ele>2022</ele>
        <time>2013-02-16T11:43:05Z</time>
      </trkpt>
      <trkpt lat="42.85705" lon="0.0387">
        <ele>2023</ele>
        <time>2013-02-16T11:43:08Z</time>
      </trkpt>
      <trkpt lat="42.85705" lon="0.03871">
        <ele>2023</ele>
        <time>2013-02-16T11:43:11Z</time>
      </trkpt>
      <trkpt lat="42.85705" lon="0.03873">
        <ele>2024</ele>
        <time>2013-02-16T11:43:14Z</time>
      </trkpt>
      <trkpt lat="42.85705" lon="0.03875">
        <ele>2024</ele>
        <time>2013-02-16T11:43:17Z</time>
      </trkpt>
      <trkpt lat="42.85705" lon="0.03876">
        <ele>2024</ele>
        <time>2013-02-16T11:43:20Z</time>
      </trkpt>
      <trkpt lat="42.85705" lon="0.03878">
        <ele>2024</ele>
        <time>2013-02-16T11:43:22Z</time>
      </trkpt>
      <trkpt lat="42.85705" lon="0.0388">
        <ele>2025</ele>
        <time>2013-02-16T11:43:25Z</time>
      </trkpt>
      <trkpt lat="42.85704" lon="0.03881">
        <ele>2025</ele>
        <time>2013-02-16T11:43:28Z</time>
      </trkpt>
      <trkpt lat="42.85704" lon="0.03883">
        <ele>2025</ele>
        <time>2013-02-16T11:43:31Z</time>
      </trkpt>
      <trkpt lat="42.85704" lon="0.03885">
        <ele>2025</ele>
        <time>2013-02-16T11:43:34Z</time>
      </trkpt>
      <trkpt lat="42.85705" lon="0.03887">
        <ele>2026</ele>
        <time>2013-02-16T11:43:45Z</time>
      </trkpt>
      <trkpt lat="42.85707" lon="0.03889">
        <ele>2026</ele>
        <time>2013-02-16T11:43:48Z</time>
      </trkpt>
      <trkpt lat="42.85708" lon="0.0389">
        <ele>2026</ele>
        <time>2013-02-16T11:43:51Z</time>
      </trkpt>
      <trkpt lat="42.8571" lon="0.0389">
        <ele>2026</ele>
        <time>2013-02-16T11:43:53Z</time>
      </trkpt>
      <trkpt lat="42.85711" lon="0.03891">
        <ele>2027</ele>
        <time>2013-02-16T11:43:56Z</time>
      </trkpt>
      <trkpt lat="42.85712" lon="0.03891">
        <ele>2027</ele>
        <time>2013-02-16T11:43:59Z</time>
      </trkpt>
      <trkpt lat="42.85714" lon="0.03891">
        <ele>2028</ele>
        <time>2013-02-16T11:44:03Z</time>
      </trkpt>
      <trkpt lat="42.85715" lon="0.03892">
        <ele>2028</ele>
        <time>2013-02-16T11:44:07Z</time>
      </trkpt>
      <trkpt lat="42.85716" lon="0.03892">
        <ele>2028</ele>
        <time>2013-02-16T11:44:09Z</time>
      </trkpt>
      <trkpt lat="42.85717" lon="0.03892">
        <ele>2028</ele>
        <time>2013-02-16T11:44:11Z</time>
      </trkpt>
      <trkpt lat="42.85719" lon="0.03893">
        <ele>2029</ele>
        <time>2013-02-16T11:44:14Z</time>
      </trkpt>
      <trkpt lat="42.85719" lon="0.03895">
        <ele>2029</ele>
        <time>2013-02-16T11:44:17Z</time>
      </trkpt>
      <trkpt lat="42.85717" lon="0.03896">
        <ele>2029</ele>
        <time>2013-02-16T11:44:55Z</time>
      </trkpt>
      <trkpt lat="42.85716" lon="0.03897">
        <ele>2029</ele>
        <time>2013-02-16T11:44:57Z</time>
      </trkpt>
      <trkpt lat="42.85714" lon="0.03897">
        <ele>2029</ele>
        <time>2013-02-16T11:44:59Z</time>
      </trkpt>
      <trkpt lat="42.85712" lon="0.03898">
        <ele>2029</ele>
        <time>2013-02-16T11:45:01Z</time>
      </trkpt>
      <trkpt lat="42.85711" lon="0.03898">
        <ele>2029</ele>
        <time>2013-02-16T11:45:03Z</time>
      </trkpt>
      <trkpt lat="42.85709" lon="0.03899">
        <ele>2029</ele>
        <time>2013-02-16T11:45:05Z</time>
      </trkpt>
      <trkpt lat="42.85708" lon="0.039">
        <ele>2029</ele>
        <time>2013-02-16T11:45:07Z</time>
      </trkpt>
      <trkpt lat="42.85706" lon="0.03901">
        <ele>2029</ele>
        <time>2013-02-16T11:45:09Z</time>
      </trkpt>
      <trkpt lat="42.85705" lon="0.03902">
        <ele>2030</ele>
        <time>2013-02-16T11:45:11Z</time>
      </trkpt>
      <trkpt lat="42.85703" lon="0.03903">
        <ele>2030</ele>
        <time>2013-02-16T11:45:13Z</time>
      </trkpt>
      <trkpt lat="42.85702" lon="0.03903">
        <ele>2030</ele>
        <time>2013-02-16T11:45:15Z</time>
      </trkpt>
      <trkpt lat="42.85701" lon="0.03904">
        <ele>2030</ele>
        <time>2013-02-16T11:45:17Z</time>
      </trkpt>
      <trkpt lat="42.85699" lon="0.03904">
        <ele>2031</ele>
        <time>2013-02-16T11:45:19Z</time>
      </trkpt>
      <trkpt lat="42.85698" lon="0.03905">
        <ele>2031</ele>
        <time>2013-02-16T11:45:21Z</time>
      </trkpt>
      <trkpt lat="42.85696" lon="0.03906">
        <ele>2031</ele>
        <time>2013-02-16T11:45:24Z</time>
      </trkpt>
      <trkpt lat="42.85695" lon="0.03906">
        <ele>2031</ele>
        <time>2013-02-16T11:45:26Z</time>
      </trkpt>
      <trkpt lat="42.85694" lon="0.03907">
        <ele>2031</ele>
        <time>2013-02-16T11:45:28Z</time>
      </trkpt>
      <trkpt lat="42.85693" lon="0.03907">
        <ele>2031</ele>
        <time>2013-02-16T11:45:30Z</time>
      </trkpt>
      <trkpt lat="42.85691" lon="0.03908">
        <ele>2032</ele>
        <time>2013-02-16T11:45:32Z</time>
      </trkpt>
      <trkpt lat="42.8569" lon="0.03908">
        <ele>2032</ele>
        <time>2013-02-16T11:45:34Z</time>
      </trkpt>
      <trkpt lat="42.85688" lon="0.03909">
        <ele>2032</ele>
        <time>2013-02-16T11:45:37Z</time>
      </trkpt>
      <trkpt lat="42.85687" lon="0.0391">
        <ele>2033</ele>
        <time>2013-02-16T11:45:39Z</time>
      </trkpt>
      <trkpt lat="42.85685" lon="0.03912">
        <ele>2033</ele>
        <time>2013-02-16T11:45:42Z</time>
      </trkpt>
      <trkpt lat="42.85684" lon="0.03914">
        <ele>2033</ele>
        <time>2013-02-16T11:45:45Z</time>
      </trkpt>
      <trkpt lat="42.85682" lon="0.03915">
        <ele>2034</ele>
        <time>2013-02-16T11:45:48Z</time>
      </trkpt>
      <trkpt lat="42.85682" lon="0.03917">
        <ele>2034</ele>
        <time>2013-02-16T11:45:51Z</time>
      </trkpt>
      <trkpt lat="42.85682" lon="0.03918">
        <ele>2034</ele>
        <time>2013-02-16T11:46:15Z</time>
      </trkpt>
      <trkpt lat="42.8568" lon="0.0392">
        <ele>2034</ele>
        <time>2013-02-16T11:46:20Z</time>
      </trkpt>
      <trkpt lat="42.85679" lon="0.03922">
        <ele>2034</ele>
        <time>2013-02-16T11:46:22Z</time>
      </trkpt>
      <trkpt lat="42.85678" lon="0.03923">
        <ele>2035</ele>
        <time>2013-02-16T11:46:25Z</time>
      </trkpt>
      <trkpt lat="42.85677" lon="0.03925">
        <ele>2035</ele>
        <time>2013-02-16T11:46:27Z</time>
      </trkpt>
      <trkpt lat="42.85677" lon="0.03926">
        <ele>2035</ele>
        <time>2013-02-16T11:46:29Z</time>
      </trkpt>
      <trkpt lat="42.85675" lon="0.03928">
        <ele>2036</ele>
        <time>2013-02-16T11:46:32Z</time>
      </trkpt>
      <trkpt lat="42.85674" lon="0.0393">
        <ele>2036</ele>
        <time>2013-02-16T11:46:35Z</time>
      </trkpt>
      <trkpt lat="42.85674" lon="0.03932">
        <ele>2037</ele>
        <time>2013-02-16T11:46:37Z</time>
      </trkpt>
      <trkpt lat="42.85673" lon="0.03934">
        <ele>2037</ele>
        <time>2013-02-16T11:46:40Z</time>
      </trkpt>
      <trkpt lat="42.85672" lon="0.03935">
        <ele>2037</ele>
        <time>2013-02-16T11:46:43Z</time>
      </trkpt>
      <trkpt lat="42.85671" lon="0.03937">
        <ele>2038</ele>
        <time>2013-02-16T11:46:46Z</time>
      </trkpt>
      <trkpt lat="42.8567" lon="0.03939">
        <ele>2038</ele>
        <time>2013-02-16T11:46:50Z</time>
      </trkpt>
      <trkpt lat="42.85669" lon="0.0394">
        <ele>2039</ele>
        <time>2013-02-16T11:46:52Z</time>
      </trkpt>
      <trkpt lat="42.85669" lon="0.03942">
        <ele>2039</ele>
        <time>2013-02-16T11:46:54Z</time>
      </trkpt>
      <trkpt lat="42.85668" lon="0.03942">
        <ele>2041</ele>
        <time>2013-02-16T11:47:22Z</time>
      </trkpt>
      <trkpt lat="42.85668" lon="0.03943">
        <ele>2041</ele>
        <time>2013-02-16T11:47:38Z</time>
      </trkpt>
      <trkpt lat="42.85667" lon="0.03945">
        <ele>2041</ele>
        <time>2013-02-16T11:47:40Z</time>
      </trkpt>
      <trkpt lat="42.85666" lon="0.03947">
        <ele>2041</ele>
        <time>2013-02-16T11:47:42Z</time>
      </trkpt>
      <trkpt lat="42.85665" lon="0.03949">
        <ele>2041</ele>
        <time>2013-02-16T11:47:44Z</time>
      </trkpt>
      <trkpt lat="42.85665" lon="0.03951">
        <ele>2041</ele>
        <time>2013-02-16T11:47:46Z</time>
      </trkpt>
      <trkpt lat="42.85664" lon="0.03952">
        <ele>2041</ele>
        <time>2013-02-16T11:47:48Z</time>
      </trkpt>
      <trkpt lat="42.85663" lon="0.03954">
        <ele>2041</ele>
        <time>2013-02-16T11:47:50Z</time>
      </trkpt>
      <trkpt lat="42.85662" lon="0.03956">
        <ele>2041</ele>
        <time>2013-02-16T11:47:52Z</time>
      </trkpt>
      <trkpt lat="42.85661" lon="0.03958">
        <ele>2041</ele>
        <time>2013-02-16T11:47:54Z</time>
      </trkpt>
      <trkpt lat="42.8566" lon="0.0396">
        <ele>2042</ele>
        <time>2013-02-16T11:47:56Z</time>
      </trkpt>
      <trkpt lat="42.85659" lon="0.03962">
        <ele>2042</ele>
        <time>2013-02-16T11:47:58Z</time>
      </trkpt>
      <trkpt lat="42.85658" lon="0.03964">
        <ele>2042</ele>
        <time>2013-02-16T11:48:00Z</time>
      </trkpt>
      <trkpt lat="42.85657" lon="0.03965">
        <ele>2043</ele>
        <time>2013-02-16T11:48:02Z</time>
      </trkpt>
      <trkpt lat="42.85656" lon="0.03967">
        <ele>2043</ele>
        <time>2013-02-16T11:48:04Z</time>
      </trkpt>
      <trkpt lat="42.85655" lon="0.03969">
        <ele>2043</ele>
        <time>2013-02-16T11:48:06Z</time>
      </trkpt>
      <trkpt lat="42.85654" lon="0.03971">
        <ele>2043</ele>
        <time>2013-02-16T11:48:08Z</time>
      </trkpt>
      <trkpt lat="42.85654" lon="0.03973">
        <ele>2044</ele>
        <time>2013-02-16T11:48:10Z</time>
      </trkpt>
      <trkpt lat="42.85653" lon="0.03975">
        <ele>2044</ele>
        <time>2013-02-16T11:48:12Z</time>
      </trkpt>
      <trkpt lat="42.85652" lon="0.03977">
        <ele>2044</ele>
        <time>2013-02-16T11:48:14Z</time>
      </trkpt>
      <trkpt lat="42.85651" lon="0.03979">
        <ele>2044</ele>
        <time>2013-02-16T11:48:16Z</time>
      </trkpt>
      <trkpt lat="42.85651" lon="0.03981">
        <ele>2045</ele>
        <time>2013-02-16T11:48:18Z</time>
      </trkpt>
      <trkpt lat="42.8565" lon="0.03983">
        <ele>2045</ele>
        <time>2013-02-16T11:48:20Z</time>
      </trkpt>
      <trkpt lat="42.85649" lon="0.03985">
        <ele>2045</ele>
        <time>2013-02-16T11:48:22Z</time>
      </trkpt>
      <trkpt lat="42.85648" lon="0.03987">
        <ele>2045</ele>
        <time>2013-02-16T11:48:24Z</time>
      </trkpt>
      <trkpt lat="42.85648" lon="0.03989">
        <ele>2045</ele>
        <time>2013-02-16T11:48:26Z</time>
      </trkpt>
      <trkpt lat="42.85648" lon="0.03991">
        <ele>2046</ele>
        <time>2013-02-16T11:48:28Z</time>
      </trkpt>
      <trkpt lat="42.85647" lon="0.03993">
        <ele>2046</ele>
        <time>2013-02-16T11:48:30Z</time>
      </trkpt>
      <trkpt lat="42.85647" lon="0.03995">
        <ele>2046</ele>
        <time>2013-02-16T11:48:32Z</time>
      </trkpt>
      <trkpt lat="42.85646" lon="0.03997">
        <ele>2046</ele>
        <time>2013-02-16T11:48:34Z</time>
      </trkpt>
      <trkpt lat="42.85646" lon="0.03999">
        <ele>2046</ele>
        <time>2013-02-16T11:48:36Z</time>
      </trkpt>
      <trkpt lat="42.85646" lon="0.04001">
        <ele>2046</ele>
        <time>2013-02-16T11:48:38Z</time>
      </trkpt>
      <trkpt lat="42.85646" lon="0.04003">
        <ele>2046</ele>
        <time>2013-02-16T11:48:40Z</time>
      </trkpt>
      <trkpt lat="42.85645" lon="0.04005">
        <ele>2047</ele>
        <time>2013-02-16T11:48:42Z</time>
      </trkpt>
      <trkpt lat="42.85645" lon="0.04007">
        <ele>2047</ele>
        <time>2013-02-16T11:48:44Z</time>
      </trkpt>
      <trkpt lat="42.85645" lon="0.04009">
        <ele>2047</ele>
        <time>2013-02-16T11:48:46Z</time>
      </trkpt>
      <trkpt lat="42.85645" lon="0.0401">
        <ele>2047</ele>
        <time>2013-02-16T11:48:48Z</time>
      </trkpt>
      <trkpt lat="42.85645" lon="0.04012">
        <ele>2047</ele>
        <time>2013-02-16T11:48:50Z</time>
      </trkpt>
      <trkpt lat="42.85645" lon="0.04014">
        <ele>2047</ele>
        <time>2013-02-16T11:48:52Z</time>
      </trkpt>
      <trkpt lat="42.85645" lon="0.04016">
        <ele>2047</ele>
        <time>2013-02-16T11:48:54Z</time>
      </trkpt>
      <trkpt lat="42.85645" lon="0.04017">
        <ele>2047</ele>
        <time>2013-02-16T11:48:56Z</time>
      </trkpt>
      <trkpt lat="42.85646" lon="0.04019">
        <ele>2048</ele>
        <time>2013-02-16T11:48:58Z</time>
      </trkpt>
      <trkpt lat="42.85646" lon="0.04021">
        <ele>2048</ele>
        <time>2013-02-16T11:49:00Z</time>
      </trkpt>
      <trkpt lat="42.85644" lon="0.04021">
        <ele>2050</ele>
        <time>2013-02-16T11:49:29Z</time>
      </trkpt>
      <trkpt lat="42.85643" lon="0.04022">
        <ele>2050</ele>
        <time>2013-02-16T11:49:37Z</time>
      </trkpt>
      <trkpt lat="42.85642" lon="0.04024">
        <ele>2051</ele>
        <time>2013-02-16T11:49:52Z</time>
      </trkpt>
      <trkpt lat="42.85643" lon="0.04025">
        <ele>2051</ele>
        <time>2013-02-16T11:49:54Z</time>
      </trkpt>
      <trkpt lat="42.85643" lon="0.04027">
        <ele>2051</ele>
        <time>2013-02-16T11:49:56Z</time>
      </trkpt>
      <trkpt lat="42.85643" lon="0.04029">
        <ele>2051</ele>
        <time>2013-02-16T11:49:58Z</time>
      </trkpt>
      <trkpt lat="42.85643" lon="0.04031">
        <ele>2052</ele>
        <time>2013-02-16T11:50:00Z</time>
      </trkpt>
      <trkpt lat="42.85643" lon="0.04033">
        <ele>2052</ele>
        <time>2013-02-16T11:50:02Z</time>
      </trkpt>
      <trkpt lat="42.85644" lon="0.04034">
        <ele>2052</ele>
        <time>2013-02-16T11:50:04Z</time>
      </trkpt>
      <trkpt lat="42.85644" lon="0.04036">
        <ele>2052</ele>
        <time>2013-02-16T11:50:06Z</time>
      </trkpt>
      <trkpt lat="42.85645" lon="0.04038">
        <ele>2052</ele>
        <time>2013-02-16T11:50:08Z</time>
      </trkpt>
      <trkpt lat="42.85645" lon="0.04039">
        <ele>2053</ele>
        <time>2013-02-16T11:50:10Z</time>
      </trkpt>
      <trkpt lat="42.85646" lon="0.04041">
        <ele>2053</ele>
        <time>2013-02-16T11:50:12Z</time>
      </trkpt>
      <trkpt lat="42.85646" lon="0.04043">
        <ele>2054</ele>
        <time>2013-02-16T11:50:14Z</time>
      </trkpt>
      <trkpt lat="42.85646" lon="0.04044">
        <ele>2054</ele>
        <time>2013-02-16T11:50:16Z</time>
      </trkpt>
      <trkpt lat="42.85646" lon="0.04046">
        <ele>2054</ele>
        <time>2013-02-16T11:50:18Z</time>
      </trkpt>
      <trkpt lat="42.85647" lon="0.04048">
        <ele>2054</ele>
        <time>2013-02-16T11:50:20Z</time>
      </trkpt>
      <trkpt lat="42.85647" lon="0.0405">
        <ele>2054</ele>
        <time>2013-02-16T11:50:22Z</time>
      </trkpt>
      <trkpt lat="42.85647" lon="0.04052">
        <ele>2054</ele>
        <time>2013-02-16T11:50:24Z</time>
      </trkpt>
      <trkpt lat="42.85648" lon="0.04053">
        <ele>2055</ele>
        <time>2013-02-16T11:50:26Z</time>
      </trkpt>
      <trkpt lat="42.85648" lon="0.04056">
        <ele>2055</ele>
        <time>2013-02-16T11:50:28Z</time>
      </trkpt>
      <trkpt lat="42.85648" lon="0.04058">
        <ele>2055</ele>
        <time>2013-02-16T11:50:30Z</time>
      </trkpt>
      <trkpt lat="42.85649" lon="0.0406">
        <ele>2055</ele>
        <time>2013-02-16T11:50:32Z</time>
      </trkpt>
      <trkpt lat="42.85649" lon="0.04061">
        <ele>2055</ele>
        <time>2013-02-16T11:50:34Z</time>
      </trkpt>
      <trkpt lat="42.85649" lon="0.04063">
        <ele>2056</ele>
        <time>2013-02-16T11:50:36Z</time>
      </trkpt>
      <trkpt lat="42.85649" lon="0.04065">
        <ele>2056</ele>
        <time>2013-02-16T11:50:38Z</time>
      </trkpt>
      <trkpt lat="42.85649" lon="0.04067">
        <ele>2056</ele>
        <time>2013-02-16T11:50:40Z</time>
      </trkpt>
      <trkpt lat="42.85649" lon="0.04069">
        <ele>2056</ele>
        <time>2013-02-16T11:50:42Z</time>
      </trkpt>
      <trkpt lat="42.85649" lon="0.0407">
        <ele>2057</ele>
        <time>2013-02-16T11:50:46Z</time>
      </trkpt>
      <trkpt lat="42.85649" lon="0.04072">
        <ele>2057</ele>
        <time>2013-02-16T11:50:48Z</time>
      </trkpt>
      <trkpt lat="42.85648" lon="0.04074">
        <ele>2059</ele>
        <time>2013-02-16T11:51:22Z</time>
      </trkpt>
      <trkpt lat="42.85648" lon="0.04076">
        <ele>2059</ele>
        <time>2013-02-16T11:51:24Z</time>
      </trkpt>
      <trkpt lat="42.85648" lon="0.04078">
        <ele>2059</ele>
        <time>2013-02-16T11:51:26Z</time>
      </trkpt>
      <trkpt lat="42.85648" lon="0.04079">
        <ele>2059</ele>
        <time>2013-02-16T11:51:28Z</time>
      </trkpt>
      <trkpt lat="42.85648" lon="0.04081">
        <ele>2059</ele>
        <time>2013-02-16T11:51:30Z</time>
      </trkpt>
      <trkpt lat="42.85648" lon="0.04083">
        <ele>2060</ele>
        <time>2013-02-16T11:51:32Z</time>
      </trkpt>
      <trkpt lat="42.85648" lon="0.04085">
        <ele>2060</ele>
        <time>2013-02-16T11:51:34Z</time>
      </trkpt>
      <trkpt lat="42.85648" lon="0.04087">
        <ele>2060</ele>
        <time>2013-02-16T11:51:36Z</time>
      </trkpt>
      <trkpt lat="42.85648" lon="0.04088">
        <ele>2060</ele>
        <time>2013-02-16T11:51:38Z</time>
      </trkpt>
      <trkpt lat="42.85648" lon="0.0409">
        <ele>2061</ele>
        <time>2013-02-16T11:51:40Z</time>
      </trkpt>
      <trkpt lat="42.85648" lon="0.04092">
        <ele>2061</ele>
        <time>2013-02-16T11:51:42Z</time>
      </trkpt>
      <trkpt lat="42.85648" lon="0.04094">
        <ele>2061</ele>
        <time>2013-02-16T11:51:44Z</time>
      </trkpt>
      <trkpt lat="42.85648" lon="0.04095">
        <ele>2062</ele>
        <time>2013-02-16T11:51:46Z</time>
      </trkpt>
      <trkpt lat="42.85648" lon="0.04097">
        <ele>2062</ele>
        <time>2013-02-16T11:51:48Z</time>
      </trkpt>
      <trkpt lat="42.85648" lon="0.04099">
        <ele>2062</ele>
        <time>2013-02-16T11:51:50Z</time>
      </trkpt>
      <trkpt lat="42.85648" lon="0.04101">
        <ele>2062</ele>
        <time>2013-02-16T11:51:52Z</time>
      </trkpt>
      <trkpt lat="42.85648" lon="0.04103">
        <ele>2063</ele>
        <time>2013-02-16T11:51:54Z</time>
      </trkpt>
      <trkpt lat="42.85648" lon="0.04104">
        <ele>2063</ele>
        <time>2013-02-16T11:51:56Z</time>
      </trkpt>
      <trkpt lat="42.85648" lon="0.04106">
        <ele>2064</ele>
        <time>2013-02-16T11:51:58Z</time>
      </trkpt>
      <trkpt lat="42.85648" lon="0.04108">
        <ele>2064</ele>
        <time>2013-02-16T11:52:00Z</time>
      </trkpt>
      <trkpt lat="42.85648" lon="0.04109">
        <ele>2064</ele>
        <time>2013-02-16T11:52:02Z</time>
      </trkpt>
      <trkpt lat="42.85648" lon="0.04111">
        <ele>2065</ele>
        <time>2013-02-16T11:52:04Z</time>
      </trkpt>
      <trkpt lat="42.85648" lon="0.04113">
        <ele>2065</ele>
        <time>2013-02-16T11:52:06Z</time>
      </trkpt>
      <trkpt lat="42.85648" lon="0.04112">
        <ele>2067</ele>
        <time>2013-02-16T11:52:36Z</time>
      </trkpt>
      <trkpt lat="42.85647" lon="0.04113">
        <ele>2067</ele>
        <time>2013-02-16T11:52:40Z</time>
      </trkpt>
      <trkpt lat="42.85647" lon="0.04115">
        <ele>2067</ele>
        <time>2013-02-16T11:52:42Z</time>
      </trkpt>
      <trkpt lat="42.85647" lon="0.04116">
        <ele>2067</ele>
        <time>2013-02-16T11:52:44Z</time>
      </trkpt>
      <trkpt lat="42.85647" lon="0.04118">
        <ele>2067</ele>
        <time>2013-02-16T11:52:46Z</time>
      </trkpt>
      <trkpt lat="42.85647" lon="0.0412">
        <ele>2067</ele>
        <time>2013-02-16T11:52:48Z</time>
      </trkpt>
      <trkpt lat="42.85646" lon="0.04121">
        <ele>2067</ele>
        <time>2013-02-16T11:52:50Z</time>
      </trkpt>
      <trkpt lat="42.85646" lon="0.04123">
        <ele>2067</ele>
        <time>2013-02-16T11:52:52Z</time>
      </trkpt>
      <trkpt lat="42.85646" lon="0.04126">
        <ele>2068</ele>
        <time>2013-02-16T11:52:54Z</time>
      </trkpt>
      <trkpt lat="42.85646" lon="0.04127">
        <ele>2068</ele>
        <time>2013-02-16T11:52:56Z</time>
      </trkpt>
      <trkpt lat="42.85646" lon="0.04129">
        <ele>2069</ele>
        <time>2013-02-16T11:52:58Z</time>
      </trkpt>
      <trkpt lat="42.85646" lon="0.04132">
        <ele>2069</ele>
        <time>2013-02-16T11:53:00Z</time>
      </trkpt>
      <trkpt lat="42.85645" lon="0.04134">
        <ele>2069</ele>
        <time>2013-02-16T11:53:02Z</time>
      </trkpt>
      <trkpt lat="42.85645" lon="0.04136">
        <ele>2069</ele>
        <time>2013-02-16T11:53:04Z</time>
      </trkpt>
      <trkpt lat="42.85645" lon="0.04138">
        <ele>2069</ele>
        <time>2013-02-16T11:53:06Z</time>
      </trkpt>
      <trkpt lat="42.85645" lon="0.0414">
        <ele>2070</ele>
        <time>2013-02-16T11:53:08Z</time>
      </trkpt>
      <trkpt lat="42.85645" lon="0.04143">
        <ele>2070</ele>
        <time>2013-02-16T11:53:10Z</time>
      </trkpt>
      <trkpt lat="42.85645" lon="0.04145">
        <ele>2070</ele>
        <time>2013-02-16T11:53:12Z</time>
      </trkpt>
      <trkpt lat="42.85645" lon="0.04146">
        <ele>2070</ele>
        <time>2013-02-16T11:53:14Z</time>
      </trkpt>
      <trkpt lat="42.85646" lon="0.04149">
        <ele>2070</ele>
        <time>2013-02-16T11:53:16Z</time>
      </trkpt>
      <trkpt lat="42.85646" lon="0.04151">
        <ele>2070</ele>
        <time>2013-02-16T11:53:18Z</time>
      </trkpt>
      <trkpt lat="42.85646" lon="0.04153">
        <ele>2071</ele>
        <time>2013-02-16T11:53:20Z</time>
      </trkpt>
      <trkpt lat="42.85646" lon="0.04155">
        <ele>2071</ele>
        <time>2013-02-16T11:53:22Z</time>
      </trkpt>
      <trkpt lat="42.85647" lon="0.04157">
        <ele>2071</ele>
        <time>2013-02-16T11:53:24Z</time>
      </trkpt>
      <trkpt lat="42.85647" lon="0.04159">
        <ele>2071</ele>
        <time>2013-02-16T11:53:26Z</time>
      </trkpt>
      <trkpt lat="42.85647" lon="0.04161">
        <ele>2071</ele>
        <time>2013-02-16T11:53:28Z</time>
      </trkpt>
      <trkpt lat="42.85646" lon="0.04163">
        <ele>2071</ele>
        <time>2013-02-16T11:53:30Z</time>
      </trkpt>
      <trkpt lat="42.85646" lon="0.04165">
        <ele>2071</ele>
        <time>2013-02-16T11:53:32Z</time>
      </trkpt>
      <trkpt lat="42.85646" lon="0.04167">
        <ele>2072</ele>
        <time>2013-02-16T11:53:34Z</time>
      </trkpt>
      <trkpt lat="42.85646" lon="0.04169">
        <ele>2072</ele>
        <time>2013-02-16T11:53:36Z</time>
      </trkpt>
      <trkpt lat="42.85646" lon="0.04171">
        <ele>2072</ele>
        <time>2013-02-16T11:53:38Z</time>
      </trkpt>
      <trkpt lat="42.85646" lon="0.04174">
        <ele>2072</ele>
        <time>2013-02-16T11:53:40Z</time>
      </trkpt>
      <trkpt lat="42.85645" lon="0.04176">
        <ele>2072</ele>
        <time>2013-02-16T11:53:42Z</time>
      </trkpt>
      <trkpt lat="42.85645" lon="0.04178">
        <ele>2073</ele>
        <time>2013-02-16T11:53:44Z</time>
      </trkpt>
      <trkpt lat="42.85646" lon="0.0418">
        <ele>2073</ele>
        <time>2013-02-16T11:53:46Z</time>
      </trkpt>
      <trkpt lat="42.85646" lon="0.04182">
        <ele>2073</ele>
        <time>2013-02-16T11:53:48Z</time>
      </trkpt>
      <trkpt lat="42.85646" lon="0.04184">
        <ele>2073</ele>
        <time>2013-02-16T11:53:50Z</time>
      </trkpt>
      <trkpt lat="42.85646" lon="0.04186">
        <ele>2073</ele>
        <time>2013-02-16T11:53:52Z</time>
      </trkpt>
      <trkpt lat="42.85647" lon="0.04188">
        <ele>2073</ele>
        <time>2013-02-16T11:53:54Z</time>
      </trkpt>
      <trkpt lat="42.85647" lon="0.04191">
        <ele>2073</ele>
        <time>2013-02-16T11:53:56Z</time>
      </trkpt>
      <trkpt lat="42.85647" lon="0.04193">
        <ele>2073</ele>
        <time>2013-02-16T11:53:58Z</time>
      </trkpt>
      <trkpt lat="42.85648" lon="0.04194">
        <ele>2073</ele>
        <time>2013-02-16T11:54:00Z</time>
      </trkpt>
      <trkpt lat="42.85648" lon="0.04196">
        <ele>2073</ele>
        <time>2013-02-16T11:54:02Z</time>
      </trkpt>
      <trkpt lat="42.85649" lon="0.04197">
        <ele>2073</ele>
        <time>2013-02-16T11:54:04Z</time>
      </trkpt>
      <trkpt lat="42.85649" lon="0.04199">
        <ele>2073</ele>
        <time>2013-02-16T11:54:06Z</time>
      </trkpt>
      <trkpt lat="42.8565" lon="0.04201">
        <ele>2073</ele>
        <time>2013-02-16T11:54:08Z</time>
      </trkpt>
      <trkpt lat="42.85651" lon="0.04202">
        <ele>2074</ele>
        <time>2013-02-16T11:54:10Z</time>
      </trkpt>
      <trkpt lat="42.85651" lon="0.04204">
        <ele>2074</ele>
        <time>2013-02-16T11:54:12Z</time>
      </trkpt>
      <trkpt lat="42.85652" lon="0.04205">
        <ele>2074</ele>
        <time>2013-02-16T11:54:14Z</time>
      </trkpt>
      <trkpt lat="42.85653" lon="0.04207">
        <ele>2074</ele>
        <time>2013-02-16T11:54:16Z</time>
      </trkpt>
      <trkpt lat="42.85654" lon="0.04208">
        <ele>2074</ele>
        <time>2013-02-16T11:54:18Z</time>
      </trkpt>
      <trkpt lat="42.85654" lon="0.0421">
        <ele>2075</ele>
        <time>2013-02-16T11:54:20Z</time>
      </trkpt>
      <trkpt lat="42.85655" lon="0.04211">
        <ele>2075</ele>
        <time>2013-02-16T11:54:22Z</time>
      </trkpt>
      <trkpt lat="42.85656" lon="0.04213">
        <ele>2075</ele>
        <time>2013-02-16T11:54:24Z</time>
      </trkpt>
      <trkpt lat="42.85656" lon="0.04214">
        <ele>2075</ele>
        <time>2013-02-16T11:54:26Z</time>
      </trkpt>
      <trkpt lat="42.85657" lon="0.04216">
        <ele>2076</ele>
        <time>2013-02-16T11:54:28Z</time>
      </trkpt>
      <trkpt lat="42.85657" lon="0.04218">
        <ele>2076</ele>
        <time>2013-02-16T11:54:31Z</time>
      </trkpt>
      <trkpt lat="42.85657" lon="0.0422">
        <ele>2076</ele>
        <time>2013-02-16T11:54:33Z</time>
      </trkpt>
      <trkpt lat="42.85656" lon="0.04221">
        <ele>2079</ele>
        <time>2013-02-16T11:55:10Z</time>
      </trkpt>
      <trkpt lat="42.85656" lon="0.04223">
        <ele>2079</ele>
        <time>2013-02-16T11:55:12Z</time>
      </trkpt>
      <trkpt lat="42.85658" lon="0.04225">
        <ele>2080</ele>
        <time>2013-02-16T11:55:14Z</time>
      </trkpt>
      <trkpt lat="42.85659" lon="0.04225">
        <ele>2080</ele>
        <time>2013-02-16T11:55:16Z</time>
      </trkpt>
      <trkpt lat="42.8566" lon="0.04226">
        <ele>2081</ele>
        <time>2013-02-16T11:55:19Z</time>
      </trkpt>
      <trkpt lat="42.8566" lon="0.04228">
        <ele>2082</ele>
        <time>2013-02-16T11:55:22Z</time>
      </trkpt>
      <trkpt lat="42.85659" lon="0.0423">
        <ele>2082</ele>
        <time>2013-02-16T11:55:24Z</time>
      </trkpt>
      <trkpt lat="42.85659" lon="0.04232">
        <ele>2082</ele>
        <time>2013-02-16T11:55:26Z</time>
      </trkpt>
      <trkpt lat="42.85659" lon="0.04234">
        <ele>2083</ele>
        <time>2013-02-16T11:55:28Z</time>
      </trkpt>
      <trkpt lat="42.85659" lon="0.04236">
        <ele>2083</ele>
        <time>2013-02-16T11:55:30Z</time>
      </trkpt>
      <trkpt lat="42.85659" lon="0.04238">
        <ele>2083</ele>
        <time>2013-02-16T11:55:32Z</time>
      </trkpt>
      <trkpt lat="42.85659" lon="0.0424">
        <ele>2084</ele>
        <time>2013-02-16T11:55:34Z</time>
      </trkpt>
      <trkpt lat="42.85659" lon="0.04242">
        <ele>2084</ele>
        <time>2013-02-16T11:55:36Z</time>
      </trkpt>
      <trkpt lat="42.85658" lon="0.04244">
        <ele>2084</ele>
        <time>2013-02-16T11:55:38Z</time>
      </trkpt>
      <trkpt lat="42.85658" lon="0.04246">
        <ele>2085</ele>
        <time>2013-02-16T11:55:40Z</time>
      </trkpt>
      <trkpt lat="42.85658" lon="0.04248">
        <ele>2085</ele>
        <time>2013-02-16T11:55:42Z</time>
      </trkpt>
      <trkpt lat="42.85658" lon="0.0425">
        <ele>2086</ele>
        <time>2013-02-16T11:55:44Z</time>
      </trkpt>
      <trkpt lat="42.85658" lon="0.04252">
        <ele>2086</ele>
        <time>2013-02-16T11:55:46Z</time>
      </trkpt>
      <trkpt lat="42.85658" lon="0.04253">
        <ele>2086</ele>
        <time>2013-02-16T11:55:53Z</time>
      </trkpt>
      <trkpt lat="42.85658" lon="0.04255">
        <ele>2086</ele>
        <time>2013-02-16T11:55:55Z</time>
      </trkpt>
      <trkpt lat="42.85658" lon="0.04257">
        <ele>2086</ele>
        <time>2013-02-16T11:55:57Z</time>
      </trkpt>
      <trkpt lat="42.85658" lon="0.04259">
        <ele>2086</ele>
        <time>2013-02-16T11:55:59Z</time>
      </trkpt>
      <trkpt lat="42.85658" lon="0.04261">
        <ele>2086</ele>
        <time>2013-02-16T11:56:01Z</time>
      </trkpt>
      <trkpt lat="42.85658" lon="0.04263">
        <ele>2086</ele>
        <time>2013-02-16T11:56:03Z</time>
      </trkpt>
      <trkpt lat="42.85658" lon="0.04265">
        <ele>2086</ele>
        <time>2013-02-16T11:56:05Z</time>
      </trkpt>
      <trkpt lat="42.85657" lon="0.04267">
        <ele>2086</ele>
        <time>2013-02-16T11:56:07Z</time>
      </trkpt>
      <trkpt lat="42.85657" lon="0.04268">
        <ele>2087</ele>
        <time>2013-02-16T11:56:09Z</time>
      </trkpt>
      <trkpt lat="42.85657" lon="0.04267">
        <ele>2089</ele>
        <time>2013-02-16T11:56:36Z</time>
      </trkpt>
      <trkpt lat="42.85657" lon="0.04268">
        <ele>2089</ele>
        <time>2013-02-16T11:56:49Z</time>
      </trkpt>
      <trkpt lat="42.85657" lon="0.0427">
        <ele>2089</ele>
        <time>2013-02-16T11:56:51Z</time>
      </trkpt>
      <trkpt lat="42.85657" lon="0.04273">
        <ele>2089</ele>
        <time>2013-02-16T11:56:53Z</time>
      </trkpt>
      <trkpt lat="42.85656" lon="0.04275">
        <ele>2089</ele>
        <time>2013-02-16T11:56:55Z</time>
      </trkpt>
      <trkpt lat="42.85656" lon="0.04276">
        <ele>2089</ele>
        <time>2013-02-16T11:56:57Z</time>
      </trkpt>
      <trkpt lat="42.85656" lon="0.04278">
        <ele>2089</ele>
        <time>2013-02-16T11:56:59Z</time>
      </trkpt>
      <trkpt lat="42.85656" lon="0.0428">
        <ele>2089</ele>
        <time>2013-02-16T11:57:01Z</time>
      </trkpt>
      <trkpt lat="42.85656" lon="0.04282">
        <ele>2089</ele>
        <time>2013-02-16T11:57:03Z</time>
      </trkpt>
      <trkpt lat="42.85656" lon="0.04284">
        <ele>2089</ele>
        <time>2013-02-16T11:57:05Z</time>
      </trkpt>
      <trkpt lat="42.85655" lon="0.04285">
        <ele>2089</ele>
        <time>2013-02-16T11:57:07Z</time>
      </trkpt>
      <trkpt lat="42.85655" lon="0.04287">
        <ele>2089</ele>
        <time>2013-02-16T11:57:09Z</time>
      </trkpt>
      <trkpt lat="42.85655" lon="0.04289">
        <ele>2089</ele>
        <time>2013-02-16T11:57:11Z</time>
      </trkpt>
      <trkpt lat="42.85655" lon="0.0429">
        <ele>2089</ele>
        <time>2013-02-16T11:57:13Z</time>
      </trkpt>
      <trkpt lat="42.85654" lon="0.04292">
        <ele>2090</ele>
        <time>2013-02-16T11:57:15Z</time>
      </trkpt>
      <trkpt lat="42.85654" lon="0.04294">
        <ele>2090</ele>
        <time>2013-02-16T11:57:17Z</time>
      </trkpt>
      <trkpt lat="42.85654" lon="0.04296">
        <ele>2091</ele>
        <time>2013-02-16T11:57:19Z</time>
      </trkpt>
      <trkpt lat="42.85654" lon="0.04298">
        <ele>2091</ele>
        <time>2013-02-16T11:57:21Z</time>
      </trkpt>
      <trkpt lat="42.85653" lon="0.04299">
        <ele>2091</ele>
        <time>2013-02-16T11:57:23Z</time>
      </trkpt>
      <trkpt lat="42.85653" lon="0.04301">
        <ele>2092</ele>
        <time>2013-02-16T11:57:25Z</time>
      </trkpt>
      <trkpt lat="42.85653" lon="0.04303">
        <ele>2092</ele>
        <time>2013-02-16T11:57:27Z</time>
      </trkpt>
      <trkpt lat="42.85653" lon="0.04304">
        <ele>2093</ele>
        <time>2013-02-16T11:57:29Z</time>
      </trkpt>
      <trkpt lat="42.85653" lon="0.04306">
        <ele>2093</ele>
        <time>2013-02-16T11:57:31Z</time>
      </trkpt>
      <trkpt lat="42.85652" lon="0.04308">
        <ele>2094</ele>
        <time>2013-02-16T11:57:33Z</time>
      </trkpt>
      <trkpt lat="42.85652" lon="0.0431">
        <ele>2094</ele>
        <time>2013-02-16T11:57:35Z</time>
      </trkpt>
      <trkpt lat="42.85652" lon="0.04312">
        <ele>2095</ele>
        <time>2013-02-16T11:57:37Z</time>
      </trkpt>
      <trkpt lat="42.85651" lon="0.04313">
        <ele>2096</ele>
        <time>2013-02-16T11:57:53Z</time>
      </trkpt>
      <trkpt lat="42.85651" lon="0.04315">
        <ele>2096</ele>
        <time>2013-02-16T11:57:56Z</time>
      </trkpt>
      <trkpt lat="42.85651" lon="0.04316">
        <ele>2096</ele>
        <time>2013-02-16T11:57:58Z</time>
      </trkpt>
      <trkpt lat="42.85651" lon="0.04318">
        <ele>2097</ele>
        <time>2013-02-16T11:58:01Z</time>
      </trkpt>
      <trkpt lat="42.8565" lon="0.0432">
        <ele>2097</ele>
        <time>2013-02-16T11:58:03Z</time>
      </trkpt>
      <trkpt lat="42.8565" lon="0.04321">
        <ele>2097</ele>
        <time>2013-02-16T11:58:05Z</time>
      </trkpt>
      <trkpt lat="42.8565" lon="0.04323">
        <ele>2098</ele>
        <time>2013-02-16T11:58:07Z</time>
      </trkpt>
      <trkpt lat="42.8565" lon="0.04324">
        <ele>2098</ele>
        <time>2013-02-16T11:58:09Z</time>
      </trkpt>
      <trkpt lat="42.85649" lon="0.04326">
        <ele>2099</ele>
        <time>2013-02-16T11:58:11Z</time>
      </trkpt>
      <trkpt lat="42.85649" lon="0.04328">
        <ele>2099</ele>
        <time>2013-02-16T11:58:13Z</time>
      </trkpt>
      <trkpt lat="42.85649" lon="0.04329">
        <ele>2099</ele>
        <time>2013-02-16T11:58:15Z</time>
      </trkpt>
      <trkpt lat="42.85649" lon="0.04331">
        <ele>2100</ele>
        <time>2013-02-16T11:58:18Z</time>
      </trkpt>
      <trkpt lat="42.85649" lon="0.04329">
        <ele>2101</ele>
        <time>2013-02-16T11:58:51Z</time>
      </trkpt>
      <trkpt lat="42.8565" lon="0.04332">
        <ele>2101</ele>
        <time>2013-02-16T11:59:06Z</time>
      </trkpt>
      <trkpt lat="42.8565" lon="0.04333">
        <ele>2101</ele>
        <time>2013-02-16T11:59:08Z</time>
      </trkpt>
      <trkpt lat="42.85649" lon="0.04335">
        <ele>2101</ele>
        <time>2013-02-16T11:59:10Z</time>
      </trkpt>
      <trkpt lat="42.85649" lon="0.04337">
        <ele>2101</ele>
        <time>2013-02-16T11:59:12Z</time>
      </trkpt>
      <trkpt lat="42.85649" lon="0.04339">
        <ele>2101</ele>
        <time>2013-02-16T11:59:14Z</time>
      </trkpt>
      <trkpt lat="42.85649" lon="0.04341">
        <ele>2101</ele>
        <time>2013-02-16T11:59:16Z</time>
      </trkpt>
      <trkpt lat="42.85648" lon="0.04343">
        <ele>2101</ele>
        <time>2013-02-16T11:59:18Z</time>
      </trkpt>
      <trkpt lat="42.85648" lon="0.04344">
        <ele>2101</ele>
        <time>2013-02-16T11:59:20Z</time>
      </trkpt>
      <trkpt lat="42.85648" lon="0.04346">
        <ele>2101</ele>
        <time>2013-02-16T11:59:22Z</time>
      </trkpt>
      <trkpt lat="42.85648" lon="0.04348">
        <ele>2102</ele>
        <time>2013-02-16T11:59:25Z</time>
      </trkpt>
      <trkpt lat="42.8565" lon="0.04349">
        <ele>2102</ele>
        <time>2013-02-16T11:59:28Z</time>
      </trkpt>
      <trkpt lat="42.85652" lon="0.0435">
        <ele>2103</ele>
        <time>2013-02-16T11:59:30Z</time>
      </trkpt>
      <trkpt lat="42.85653" lon="0.0435">
        <ele>2104</ele>
        <time>2013-02-16T11:59:32Z</time>
      </trkpt>
      <trkpt lat="42.85654" lon="0.04351">
        <ele>2105</ele>
        <time>2013-02-16T11:59:34Z</time>
      </trkpt>
      <trkpt lat="42.85655" lon="0.04351">
        <ele>2105</ele>
        <time>2013-02-16T11:59:36Z</time>
      </trkpt>
      <trkpt lat="42.85656" lon="0.04352">
        <ele>2106</ele>
        <time>2013-02-16T11:59:38Z</time>
      </trkpt>
      <trkpt lat="42.85658" lon="0.04353">
        <ele>2106</ele>
        <time>2013-02-16T11:59:40Z</time>
      </trkpt>
      <trkpt lat="42.85659" lon="0.04354">
        <ele>2107</ele>
        <time>2013-02-16T11:59:43Z</time>
      </trkpt>
      <trkpt lat="42.85661" lon="0.04356">
        <ele>2108</ele>
        <time>2013-02-16T11:59:46Z</time>
      </trkpt>
      <trkpt lat="42.85661" lon="0.04358">
        <ele>2108</ele>
        <time>2013-02-16T11:59:48Z</time>
      </trkpt>
      <trkpt lat="42.85662" lon="0.04359">
        <ele>2108</ele>
        <time>2013-02-16T11:59:50Z</time>
      </trkpt>
      <trkpt lat="42.85661" lon="0.0436">
        <ele>2110</ele>
        <time>2013-02-16T12:00:32Z</time>
      </trkpt>
      <trkpt lat="42.85661" lon="0.04361">
        <ele>2110</ele>
        <time>2013-02-16T12:00:34Z</time>
      </trkpt>
      <trkpt lat="42.85661" lon="0.04363">
        <ele>2110</ele>
        <time>2013-02-16T12:00:36Z</time>
      </trkpt>
      <trkpt lat="42.85661" lon="0.04365">
        <ele>2110</ele>
        <time>2013-02-16T12:00:38Z</time>
      </trkpt>
      <trkpt lat="42.85661" lon="0.04367">
        <ele>2110</ele>
        <time>2013-02-16T12:00:40Z</time>
      </trkpt>
      <trkpt lat="42.85661" lon="0.04369">
        <ele>2110</ele>
        <time>2013-02-16T12:00:42Z</time>
      </trkpt>
      <trkpt lat="42.85661" lon="0.04372">
        <ele>2110</ele>
        <time>2013-02-16T12:00:44Z</time>
      </trkpt>
      <trkpt lat="42.85661" lon="0.04374">
        <ele>2111</ele>
        <time>2013-02-16T12:00:46Z</time>
      </trkpt>
      <trkpt lat="42.85661" lon="0.04376">
        <ele>2111</ele>
        <time>2013-02-16T12:00:48Z</time>
      </trkpt>
      <trkpt lat="42.85661" lon="0.04378">
        <ele>2111</ele>
        <time>2013-02-16T12:00:50Z</time>
      </trkpt>
      <trkpt lat="42.85661" lon="0.0438">
        <ele>2111</ele>
        <time>2013-02-16T12:00:52Z</time>
      </trkpt>
      <trkpt lat="42.8566" lon="0.04382">
        <ele>2112</ele>
        <time>2013-02-16T12:00:54Z</time>
      </trkpt>
      <trkpt lat="42.8566" lon="0.04384">
        <ele>2112</ele>
        <time>2013-02-16T12:00:56Z</time>
      </trkpt>
      <trkpt lat="42.8566" lon="0.04386">
        <ele>2113</ele>
        <time>2013-02-16T12:00:58Z</time>
      </trkpt>
      <trkpt lat="42.85659" lon="0.04387">
        <ele>2113</ele>
        <time>2013-02-16T12:01:00Z</time>
      </trkpt>
      <trkpt lat="42.85659" lon="0.04389">
        <ele>2113</ele>
        <time>2013-02-16T12:01:02Z</time>
      </trkpt>
      <trkpt lat="42.85659" lon="0.04391">
        <ele>2113</ele>
        <time>2013-02-16T12:01:04Z</time>
      </trkpt>
      <trkpt lat="42.85659" lon="0.04393">
        <ele>2114</ele>
        <time>2013-02-16T12:01:06Z</time>
      </trkpt>
      <trkpt lat="42.85658" lon="0.04394">
        <ele>2114</ele>
        <time>2013-02-16T12:01:08Z</time>
      </trkpt>
      <trkpt lat="42.85658" lon="0.04397">
        <ele>2115</ele>
        <time>2013-02-16T12:01:10Z</time>
      </trkpt>
      <trkpt lat="42.85658" lon="0.04399">
        <ele>2115</ele>
        <time>2013-02-16T12:01:12Z</time>
      </trkpt>
      <trkpt lat="42.85657" lon="0.044">
        <ele>2115</ele>
        <time>2013-02-16T12:01:14Z</time>
      </trkpt>
      <trkpt lat="42.85657" lon="0.04402">
        <ele>2116</ele>
        <time>2013-02-16T12:01:16Z</time>
      </trkpt>
      <trkpt lat="42.85657" lon="0.04404">
        <ele>2116</ele>
        <time>2013-02-16T12:01:18Z</time>
      </trkpt>
      <trkpt lat="42.85658" lon="0.04406">
        <ele>2116</ele>
        <time>2013-02-16T12:01:33Z</time>
      </trkpt>
      <trkpt lat="42.85659" lon="0.04407">
        <ele>2117</ele>
        <time>2013-02-16T12:01:36Z</time>
      </trkpt>
      <trkpt lat="42.8566" lon="0.04409">
        <ele>2117</ele>
        <time>2013-02-16T12:01:39Z</time>
      </trkpt>
      <trkpt lat="42.85661" lon="0.04411">
        <ele>2117</ele>
        <time>2013-02-16T12:01:42Z</time>
      </trkpt>
      <trkpt lat="42.85662" lon="0.04413">
        <ele>2117</ele>
        <time>2013-02-16T12:01:44Z</time>
      </trkpt>
      <trkpt lat="42.85662" lon="0.04414">
        <ele>2117</ele>
        <time>2013-02-16T12:01:46Z</time>
      </trkpt>
      <trkpt lat="42.85663" lon="0.04416">
        <ele>2117</ele>
        <time>2013-02-16T12:01:48Z</time>
      </trkpt>
      <trkpt lat="42.85663" lon="0.04417">
        <ele>2117</ele>
        <time>2013-02-16T12:01:50Z</time>
      </trkpt>
      <trkpt lat="42.85664" lon="0.04419">
        <ele>2118</ele>
        <time>2013-02-16T12:01:52Z</time>
      </trkpt>
      <trkpt lat="42.85664" lon="0.0442">
        <ele>2118</ele>
        <time>2013-02-16T12:01:54Z</time>
      </trkpt>
      <trkpt lat="42.85664" lon="0.04422">
        <ele>2119</ele>
        <time>2013-02-16T12:01:56Z</time>
      </trkpt>
      <trkpt lat="42.85664" lon="0.04424">
        <ele>2121</ele>
        <time>2013-02-16T12:02:42Z</time>
      </trkpt>
      <trkpt lat="42.85664" lon="0.04425">
        <ele>2121</ele>
        <time>2013-02-16T12:02:44Z</time>
      </trkpt>
      <trkpt lat="42.85664" lon="0.04427">
        <ele>2121</ele>
        <time>2013-02-16T12:02:46Z</time>
      </trkpt>
      <trkpt lat="42.85664" lon="0.04429">
        <ele>2121</ele>
        <time>2013-02-16T12:02:48Z</time>
      </trkpt>
      <trkpt lat="42.85665" lon="0.04431">
        <ele>2121</ele>
        <time>2013-02-16T12:02:50Z</time>
      </trkpt>
      <trkpt lat="42.85665" lon="0.04433">
        <ele>2121</ele>
        <time>2013-02-16T12:02:52Z</time>
      </trkpt>
      <trkpt lat="42.85665" lon="0.04434">
        <ele>2121</ele>
        <time>2013-02-16T12:02:54Z</time>
      </trkpt>
      <trkpt lat="42.85665" lon="0.04436">
        <ele>2122</ele>
        <time>2013-02-16T12:02:56Z</time>
      </trkpt>
      <trkpt lat="42.85665" lon="0.04438">
        <ele>2123</ele>
        <time>2013-02-16T12:02:58Z</time>
      </trkpt>
      <trkpt lat="42.85664" lon="0.0444">
        <ele>2123</ele>
        <time>2013-02-16T12:03:00Z</time>
      </trkpt>
      <trkpt lat="42.85664" lon="0.04441">
        <ele>2124</ele>
        <time>2013-02-16T12:03:02Z</time>
      </trkpt>
      <trkpt lat="42.85664" lon="0.04443">
        <ele>2124</ele>
        <time>2013-02-16T12:03:04Z</time>
      </trkpt>
      <trkpt lat="42.85664" lon="0.04444">
        <ele>2125</ele>
        <time>2013-02-16T12:03:06Z</time>
      </trkpt>
      <trkpt lat="42.85664" lon="0.04446">
        <ele>2125</ele>
        <time>2013-02-16T12:03:08Z</time>
      </trkpt>
      <trkpt lat="42.85663" lon="0.04447">
        <ele>2126</ele>
        <time>2013-02-16T12:03:10Z</time>
      </trkpt>
      <trkpt lat="42.85663" lon="0.04449">
        <ele>2126</ele>
        <time>2013-02-16T12:03:12Z</time>
      </trkpt>
      <trkpt lat="42.85662" lon="0.04451">
        <ele>2127</ele>
        <time>2013-02-16T12:03:14Z</time>
      </trkpt>
      <trkpt lat="42.85662" lon="0.04452">
        <ele>2127</ele>
        <time>2013-02-16T12:03:16Z</time>
      </trkpt>
      <trkpt lat="42.85662" lon="0.04454">
        <ele>2128</ele>
        <time>2013-02-16T12:03:18Z</time>
      </trkpt>
      <trkpt lat="42.85661" lon="0.04456">
        <ele>2128</ele>
        <time>2013-02-16T12:03:20Z</time>
      </trkpt>
      <trkpt lat="42.85661" lon="0.04457">
        <ele>2128</ele>
        <time>2013-02-16T12:03:22Z</time>
      </trkpt>
      <trkpt lat="42.85661" lon="0.04459">
        <ele>2129</ele>
        <time>2013-02-16T12:03:24Z</time>
      </trkpt>
      <trkpt lat="42.85662" lon="0.04457">
        <ele>2129</ele>
        <time>2013-02-16T12:03:57Z</time>
      </trkpt>
      <trkpt lat="42.85661" lon="0.0446">
        <ele>2129</ele>
        <time>2013-02-16T12:04:05Z</time>
      </trkpt>
      <trkpt lat="42.85661" lon="0.04462">
        <ele>2129</ele>
        <time>2013-02-16T12:04:07Z</time>
      </trkpt>
      <trkpt lat="42.85661" lon="0.04464">
        <ele>2129</ele>
        <time>2013-02-16T12:04:09Z</time>
      </trkpt>
      <trkpt lat="42.8566" lon="0.04466">
        <ele>2129</ele>
        <time>2013-02-16T12:04:11Z</time>
      </trkpt>
      <trkpt lat="42.8566" lon="0.04468">
        <ele>2129</ele>
        <time>2013-02-16T12:04:13Z</time>
      </trkpt>
      <trkpt lat="42.8566" lon="0.0447">
        <ele>2129</ele>
        <time>2013-02-16T12:04:15Z</time>
      </trkpt>
      <trkpt lat="42.8566" lon="0.04472">
        <ele>2130</ele>
        <time>2013-02-16T12:04:17Z</time>
      </trkpt>
      <trkpt lat="42.85659" lon="0.04474">
        <ele>2130</ele>
        <time>2013-02-16T12:04:19Z</time>
      </trkpt>
      <trkpt lat="42.85659" lon="0.04476">
        <ele>2130</ele>
        <time>2013-02-16T12:04:21Z</time>
      </trkpt>
      <trkpt lat="42.85659" lon="0.04478">
        <ele>2131</ele>
        <time>2013-02-16T12:04:23Z</time>
      </trkpt>
      <trkpt lat="42.85658" lon="0.0448">
        <ele>2131</ele>
        <time>2013-02-16T12:04:25Z</time>
      </trkpt>
      <trkpt lat="42.85658" lon="0.04482">
        <ele>2131</ele>
        <time>2013-02-16T12:04:27Z</time>
      </trkpt>
      <trkpt lat="42.85658" lon="0.04484">
        <ele>2132</ele>
        <time>2013-02-16T12:04:29Z</time>
      </trkpt>
      <trkpt lat="42.85658" lon="0.04486">
        <ele>2132</ele>
        <time>2013-02-16T12:04:31Z</time>
      </trkpt>
      <trkpt lat="42.85657" lon="0.04487">
        <ele>2133</ele>
        <time>2013-02-16T12:04:33Z</time>
      </trkpt>
      <trkpt lat="42.85657" lon="0.04489">
        <ele>2133</ele>
        <time>2013-02-16T12:04:35Z</time>
      </trkpt>
      <trkpt lat="42.85657" lon="0.0449">
        <ele>2134</ele>
        <time>2013-02-16T12:04:37Z</time>
      </trkpt>
      <trkpt lat="42.85657" lon="0.04492">
        <ele>2134</ele>
        <time>2013-02-16T12:04:39Z</time>
      </trkpt>
      <trkpt lat="42.85657" lon="0.04494">
        <ele>2134</ele>
        <time>2013-02-16T12:04:41Z</time>
      </trkpt>
      <trkpt lat="42.85657" lon="0.04495">
        <ele>2135</ele>
        <time>2013-02-16T12:04:43Z</time>
      </trkpt>
      <trkpt lat="42.85656" lon="0.04497">
        <ele>2135</ele>
        <time>2013-02-16T12:04:45Z</time>
      </trkpt>
      <trkpt lat="42.85656" lon="0.04499">
        <ele>2135</ele>
        <time>2013-02-16T12:04:47Z</time>
      </trkpt>
      <trkpt lat="42.85657" lon="0.04501">
        <ele>2136</ele>
        <time>2013-02-16T12:05:03Z</time>
      </trkpt>
      <trkpt lat="42.85656" lon="0.04503">
        <ele>2136</ele>
        <time>2013-02-16T12:05:06Z</time>
      </trkpt>
      <trkpt lat="42.85656" lon="0.04504">
        <ele>2136</ele>
        <time>2013-02-16T12:05:08Z</time>
      </trkpt>
      <trkpt lat="42.85656" lon="0.04506">
        <ele>2137</ele>
        <time>2013-02-16T12:05:10Z</time>
      </trkpt>
      <trkpt lat="42.85656" lon="0.04507">
        <ele>2137</ele>
        <time>2013-02-16T12:05:12Z</time>
      </trkpt>
      <trkpt lat="42.85656" lon="0.04509">
        <ele>2137</ele>
        <time>2013-02-16T12:05:14Z</time>
      </trkpt>
      <trkpt lat="42.85655" lon="0.04511">
        <ele>2138</ele>
        <time>2013-02-16T12:05:16Z</time>
      </trkpt>
      <trkpt lat="42.85655" lon="0.04512">
        <ele>2138</ele>
        <time>2013-02-16T12:05:18Z</time>
      </trkpt>
      <trkpt lat="42.85655" lon="0.04514">
        <ele>2138</ele>
        <time>2013-02-16T12:05:20Z</time>
      </trkpt>
      <trkpt lat="42.85654" lon="0.04516">
        <ele>2141</ele>
        <time>2013-02-16T12:05:57Z</time>
      </trkpt>
      <trkpt lat="42.85653" lon="0.04518">
        <ele>2141</ele>
        <time>2013-02-16T12:05:59Z</time>
      </trkpt>
      <trkpt lat="42.85653" lon="0.0452">
        <ele>2141</ele>
        <time>2013-02-16T12:06:01Z</time>
      </trkpt>
      <trkpt lat="42.85653" lon="0.04522">
        <ele>2141</ele>
        <time>2013-02-16T12:06:03Z</time>
      </trkpt>
      <trkpt lat="42.85652" lon="0.04524">
        <ele>2141</ele>
        <time>2013-02-16T12:06:05Z</time>
      </trkpt>
      <trkpt lat="42.85652" lon="0.04526">
        <ele>2141</ele>
        <time>2013-02-16T12:06:07Z</time>
      </trkpt>
      <trkpt lat="42.85651" lon="0.04529">
        <ele>2142</ele>
        <time>2013-02-16T12:06:09Z</time>
      </trkpt>
      <trkpt lat="42.85651" lon="0.0453">
        <ele>2142</ele>
        <time>2013-02-16T12:06:11Z</time>
      </trkpt>
      <trkpt lat="42.85651" lon="0.04532">
        <ele>2142</ele>
        <time>2013-02-16T12:06:13Z</time>
      </trkpt>
      <trkpt lat="42.85651" lon="0.04534">
        <ele>2142</ele>
        <time>2013-02-16T12:06:15Z</time>
      </trkpt>
      <trkpt lat="42.8565" lon="0.04536">
        <ele>2142</ele>
        <time>2013-02-16T12:06:17Z</time>
      </trkpt>
      <trkpt lat="42.8565" lon="0.04538">
        <ele>2143</ele>
        <time>2013-02-16T12:06:19Z</time>
      </trkpt>
      <trkpt lat="42.85649" lon="0.0454">
        <ele>2143</ele>
        <time>2013-02-16T12:06:21Z</time>
      </trkpt>
      <trkpt lat="42.85649" lon="0.04542">
        <ele>2143</ele>
        <time>2013-02-16T12:06:23Z</time>
      </trkpt>
      <trkpt lat="42.85648" lon="0.04544">
        <ele>2143</ele>
        <time>2013-02-16T12:06:25Z</time>
      </trkpt>
      <trkpt lat="42.85648" lon="0.04547">
        <ele>2144</ele>
        <time>2013-02-16T12:06:27Z</time>
      </trkpt>
      <trkpt lat="42.85647" lon="0.04549">
        <ele>2144</ele>
        <time>2013-02-16T12:06:29Z</time>
      </trkpt>
      <trkpt lat="42.85647" lon="0.04551">
        <ele>2144</ele>
        <time>2013-02-16T12:06:31Z</time>
      </trkpt>
      <trkpt lat="42.85646" lon="0.04553">
        <ele>2145</ele>
        <time>2013-02-16T12:06:33Z</time>
      </trkpt>
      <trkpt lat="42.85646" lon="0.04555">
        <ele>2145</ele>
        <time>2013-02-16T12:06:35Z</time>
      </trkpt>
      <trkpt lat="42.85645" lon="0.04557">
        <ele>2145</ele>
        <time>2013-02-16T12:06:37Z</time>
      </trkpt>
      <trkpt lat="42.85645" lon="0.04559">
        <ele>2147</ele>
        <time>2013-02-16T12:06:50Z</time>
      </trkpt>
      <trkpt lat="42.85644" lon="0.04561">
        <ele>2147</ele>
        <time>2013-02-16T12:06:52Z</time>
      </trkpt>
      <trkpt lat="42.85643" lon="0.04563">
        <ele>2148</ele>
        <time>2013-02-16T12:06:54Z</time>
      </trkpt>
      <trkpt lat="42.85643" lon="0.04565">
        <ele>2148</ele>
        <time>2013-02-16T12:06:56Z</time>
      </trkpt>
      <trkpt lat="42.85642" lon="0.04567">
        <ele>2148</ele>
        <time>2013-02-16T12:06:58Z</time>
      </trkpt>
      <trkpt lat="42.85642" lon="0.04569">
        <ele>2149</ele>
        <time>2013-02-16T12:07:00Z</time>
      </trkpt>
      <trkpt lat="42.85641" lon="0.04572">
        <ele>2149</ele>
        <time>2013-02-16T12:07:02Z</time>
      </trkpt>
      <trkpt lat="42.8564" lon="0.04574">
        <ele>2149</ele>
        <time>2013-02-16T12:07:04Z</time>
      </trkpt>
      <trkpt lat="42.8564" lon="0.04576">
        <ele>2150</ele>
        <time>2013-02-16T12:07:06Z</time>
      </trkpt>
      <trkpt lat="42.85639" lon="0.04578">
        <ele>2150</ele>
        <time>2013-02-16T12:07:07Z</time>
      </trkpt>
      <trkpt lat="42.85638" lon="0.0458">
        <ele>2151</ele>
        <time>2013-02-16T12:07:09Z</time>
      </trkpt>
      <trkpt lat="42.85638" lon="0.04582">
        <ele>2151</ele>
        <time>2013-02-16T12:07:34Z</time>
      </trkpt>
      <trkpt lat="42.85638" lon="0.04584">
        <ele>2151</ele>
        <time>2013-02-16T12:07:36Z</time>
      </trkpt>
      <trkpt lat="42.85637" lon="0.04586">
        <ele>2151</ele>
        <time>2013-02-16T12:07:38Z</time>
      </trkpt>
      <trkpt lat="42.85636" lon="0.04588">
        <ele>2151</ele>
        <time>2013-02-16T12:07:40Z</time>
      </trkpt>
      <trkpt lat="42.85636" lon="0.0459">
        <ele>2151</ele>
        <time>2013-02-16T12:07:42Z</time>
      </trkpt>
      <trkpt lat="42.85635" lon="0.04592">
        <ele>2151</ele>
        <time>2013-02-16T12:07:44Z</time>
      </trkpt>
      <trkpt lat="42.85634" lon="0.04594">
        <ele>2151</ele>
        <time>2013-02-16T12:07:46Z</time>
      </trkpt>
      <trkpt lat="42.85633" lon="0.04596">
        <ele>2152</ele>
        <time>2013-02-16T12:07:48Z</time>
      </trkpt>
      <trkpt lat="42.85633" lon="0.04598">
        <ele>2152</ele>
        <time>2013-02-16T12:07:50Z</time>
      </trkpt>
      <trkpt lat="42.85632" lon="0.046">
        <ele>2152</ele>
        <time>2013-02-16T12:07:52Z</time>
      </trkpt>
      <trkpt lat="42.85631" lon="0.04603">
        <ele>2152</ele>
        <time>2013-02-16T12:07:54Z</time>
      </trkpt>
      <trkpt lat="42.85631" lon="0.04605">
        <ele>2152</ele>
        <time>2013-02-16T12:07:56Z</time>
      </trkpt>
      <trkpt lat="42.8563" lon="0.04606">
        <ele>2152</ele>
        <time>2013-02-16T12:07:58Z</time>
      </trkpt>
      <trkpt lat="42.85629" lon="0.04609">
        <ele>2152</ele>
        <time>2013-02-16T12:08:00Z</time>
      </trkpt>
      <trkpt lat="42.85628" lon="0.04611">
        <ele>2152</ele>
        <time>2013-02-16T12:08:02Z</time>
      </trkpt>
      <trkpt lat="42.85627" lon="0.04612">
        <ele>2152</ele>
        <time>2013-02-16T12:08:04Z</time>
      </trkpt>
      <trkpt lat="42.85626" lon="0.04614">
        <ele>2153</ele>
        <time>2013-02-16T12:08:06Z</time>
      </trkpt>
      <trkpt lat="42.85625" lon="0.04616">
        <ele>2153</ele>
        <time>2013-02-16T12:08:08Z</time>
      </trkpt>
      <trkpt lat="42.85624" lon="0.04618">
        <ele>2153</ele>
        <time>2013-02-16T12:08:10Z</time>
      </trkpt>
      <trkpt lat="42.85623" lon="0.0462">
        <ele>2153</ele>
        <time>2013-02-16T12:08:12Z</time>
      </trkpt>
      <trkpt lat="42.85622" lon="0.04621">
        <ele>2153</ele>
        <time>2013-02-16T12:08:14Z</time>
      </trkpt>
      <trkpt lat="42.85621" lon="0.04623">
        <ele>2154</ele>
        <time>2013-02-16T12:08:27Z</time>
      </trkpt>
      <trkpt lat="42.8562" lon="0.04625">
        <ele>2154</ele>
        <time>2013-02-16T12:08:29Z</time>
      </trkpt>
      <trkpt lat="42.85619" lon="0.04627">
        <ele>2154</ele>
        <time>2013-02-16T12:08:31Z</time>
      </trkpt>
      <trkpt lat="42.85619" lon="0.04629">
        <ele>2155</ele>
        <time>2013-02-16T12:08:33Z</time>
      </trkpt>
      <trkpt lat="42.85618" lon="0.04631">
        <ele>2155</ele>
        <time>2013-02-16T12:08:35Z</time>
      </trkpt>
      <trkpt lat="42.85617" lon="0.04633">
        <ele>2155</ele>
        <time>2013-02-16T12:08:37Z</time>
      </trkpt>
      <trkpt lat="42.85616" lon="0.04636">
        <ele>2156</ele>
        <time>2013-02-16T12:08:39Z</time>
      </trkpt>
      <trkpt lat="42.85614" lon="0.04637">
        <ele>2156</ele>
        <time>2013-02-16T12:08:41Z</time>
      </trkpt>
      <trkpt lat="42.85613" lon="0.04639">
        <ele>2156</ele>
        <time>2013-02-16T12:08:43Z</time>
      </trkpt>
      <trkpt lat="42.85612" lon="0.04641">
        <ele>2156</ele>
        <time>2013-02-16T12:08:45Z</time>
      </trkpt>
      <trkpt lat="42.85611" lon="0.04643">
        <ele>2156</ele>
        <time>2013-02-16T12:08:47Z</time>
      </trkpt>
      <trkpt lat="42.85609" lon="0.04645">
        <ele>2157</ele>
        <time>2013-02-16T12:08:49Z</time>
      </trkpt>
      <trkpt lat="42.85609" lon="0.04646">
        <ele>2157</ele>
        <time>2013-02-16T12:08:51Z</time>
      </trkpt>
      <trkpt lat="42.85609" lon="0.04646">
        <ele>2157</ele>
        <time>2013-02-16T12:08:56Z</time>
      </trkpt>
    </trkseg>
  </trk>
</gpx>